<?xml version="1.0" encoding="UTF-8"?>
<gpx version="1.1" creator="2bulu-scraper" xmlns="http://www.topografix.com/GPX/1/1">
  <metadata><name>雷音寺 高洞口 纯阳殿（小路带娃版）</name><desc>source: 2bulu.com trackId=86154030; exported 2026-09-01T16:18:44.937Z</desc>
    <bounds minlat="29.557808" minlon="103.411861" maxlat="29.571026" maxlon="103.432233"/>
    <link href="https://www.2bulu.com/track/t-kmxHzJvrbQ7p%252FR2KBg5Tzw%253D%253D.htm"><text>2bulu 源页面</text></link>
  </metadata>
  <wpt lat="29.565321" lon="103.432105"><ele>608</ele><name></name></wpt>
  <wpt lat="29.565384" lon="103.431568"><ele>614</ele><name></name></wpt>
  <wpt lat="29.564837" lon="103.428809"><ele>645</ele><name></name></wpt>
  <wpt lat="29.565093" lon="103.427022"><ele>678</ele><name>左转上小路</name></wpt>
  <wpt lat="29.564767" lon="103.427038"><ele>672</ele><name></name></wpt>
  <wpt lat="29.563172" lon="103.42672"><ele>701</ele><name>右转</name></wpt>
  <wpt lat="29.560423" lon="103.422568"><ele>742</ele><name></name></wpt>
  <wpt lat="29.559609" lon="103.419045"><ele>846</ele><name></name></wpt>
  <wpt lat="29.55807" lon="103.416636"><ele>903</ele><name></name></wpt>
  <wpt lat="29.558061" lon="103.416591"><ele>903</ele><name>右转</name></wpt>
  <wpt lat="29.557989" lon="103.415707"><ele>928</ele><name></name></wpt>
  <wpt lat="29.558032" lon="103.415381"><ele>942</ele><name></name></wpt>
  <wpt lat="29.559822" lon="103.414082"><ele>991</ele><name></name></wpt>
  <wpt lat="29.560051" lon="103.413979"><ele>994</ele><name></name></wpt>
  <wpt lat="29.561175" lon="103.412975"><ele>1019</ele><name></name></wpt>
  <wpt lat="29.561555" lon="103.411894"><ele>997</ele><name>右转</name></wpt>
  <wpt lat="29.561894" lon="103.412897"><ele>993</ele><name></name></wpt>
  <wpt lat="29.562755" lon="103.412671"><ele>994</ele><name></name></wpt>
  <wpt lat="29.56479" lon="103.412695"><ele>981</ele><name>左下
</name></wpt>
  <wpt lat="29.564799" lon="103.412731"><ele>979</ele><name></name></wpt>
  <wpt lat="29.565133" lon="103.413849"><ele>982</ele><name>左下小路</name></wpt>
  <wpt lat="29.56514" lon="103.413841"><ele>979</ele><name></name></wpt>
  <wpt lat="29.565585" lon="103.414281"><ele>980</ele><name></name></wpt>
  <wpt lat="29.568286" lon="103.414296"><ele>978</ele><name>左下</name></wpt>
  <wpt lat="29.569524" lon="103.414726"><ele>933</ele><name></name></wpt>
  <wpt lat="29.57096" lon="103.415678"><ele>920</ele><name></name></wpt>
  <wpt lat="29.569896" lon="103.418134"><ele>928</ele><name></name></wpt>
  <wpt lat="29.568571" lon="103.420117"><ele>927</ele><name></name></wpt>
  <wpt lat="29.565305" lon="103.421223"><ele>837</ele><name></name></wpt>
  <wpt lat="29.56499" lon="103.429474"><ele>639</ele><name></name></wpt>
  <trk><name>雷音寺 高洞口 纯阳殿（小路带娃版）</name>
      <trkseg>
        <trkpt lat="29.565321" lon="103.432105"><ele>608.2361</ele><time>2026-06-20T18:05:36.000Z</time></trkpt>
        <trkpt lat="29.565296" lon="103.431987"><ele>603.8896</ele><time>2026-06-20T18:06:05.000Z</time></trkpt>
        <trkpt lat="29.565295" lon="103.431987"><ele>603.8918</ele><time>2026-06-20T18:06:07.000Z</time></trkpt>
        <trkpt lat="29.565296" lon="103.431982"><ele>603.90546</ele><time>2026-06-20T18:06:09.000Z</time></trkpt>
        <trkpt lat="29.565303" lon="103.431907"><ele>603.8918</ele><time>2026-06-20T18:06:13.000Z</time></trkpt>
        <trkpt lat="29.565309" lon="103.43188"><ele>603.90546</ele><time>2026-06-20T18:06:15.000Z</time></trkpt>
        <trkpt lat="29.565314" lon="103.431853"><ele>603.9191</ele><time>2026-06-20T18:06:17.000Z</time></trkpt>
        <trkpt lat="29.56532" lon="103.431837"><ele>604.1738</ele><time>2026-06-20T18:06:19.000Z</time></trkpt>
        <trkpt lat="29.565323" lon="103.431821"><ele>604.4285</ele><time>2026-06-20T18:06:21.000Z</time></trkpt>
        <trkpt lat="29.565328" lon="103.431802"><ele>604.9659</ele><time>2026-06-20T18:06:23.000Z</time></trkpt>
        <trkpt lat="29.565331" lon="103.431787"><ele>604.9659</ele><time>2026-06-20T18:06:25.000Z</time></trkpt>
        <trkpt lat="29.565336" lon="103.431767"><ele>606.0636</ele><time>2026-06-20T18:06:27.000Z</time></trkpt>
        <trkpt lat="29.565338" lon="103.431754"><ele>606.9569</ele><time>2026-06-20T18:06:29.000Z</time></trkpt>
        <trkpt lat="29.565342" lon="103.431735"><ele>607.4779</ele><time>2026-06-20T18:06:31.000Z</time></trkpt>
        <trkpt lat="29.565345" lon="103.43172"><ele>607.9182</ele><time>2026-06-20T18:06:33.000Z</time></trkpt>
        <trkpt lat="29.565351" lon="103.431702"><ele>608.4835</ele><time>2026-06-20T18:06:35.000Z</time></trkpt>
        <trkpt lat="29.565353" lon="103.431693"><ele>609.0722</ele><time>2026-06-20T18:06:37.000Z</time></trkpt>
        <trkpt lat="29.565358" lon="103.431679"><ele>609.73334</ele><time>2026-06-20T18:06:39.000Z</time></trkpt>
        <trkpt lat="29.565363" lon="103.431658"><ele>610.4185</ele><time>2026-06-20T18:06:41.000Z</time></trkpt>
        <trkpt lat="29.565368" lon="103.431638"><ele>610.97943</ele><time>2026-06-20T18:06:43.000Z</time></trkpt>
        <trkpt lat="29.56537" lon="103.431622"><ele>611.4739</ele><time>2026-06-20T18:06:45.000Z</time></trkpt>
        <trkpt lat="29.565374" lon="103.431603"><ele>611.8048</ele><time>2026-06-20T18:06:47.000Z</time></trkpt>
        <trkpt lat="29.565381" lon="103.431568"><ele>612.01465</ele><time>2026-06-20T18:06:49.000Z</time></trkpt>
        <trkpt lat="29.565389" lon="103.431539"><ele>612.27686</ele><time>2026-06-20T18:06:51.000Z</time></trkpt>
        <trkpt lat="29.565397" lon="103.431513"><ele>612.5987</ele><time>2026-06-20T18:06:53.000Z</time></trkpt>
        <trkpt lat="29.565406" lon="103.431488"><ele>612.9915</ele><time>2026-06-20T18:06:55.000Z</time></trkpt>
        <trkpt lat="29.565412" lon="103.431472"><ele>613.3714</ele><time>2026-06-20T18:06:57.000Z</time></trkpt>
        <trkpt lat="29.565412" lon="103.431466"><ele>613.47076</ele><time>2026-06-20T18:06:58.000Z</time></trkpt>
        <trkpt lat="29.565407" lon="103.43144"><ele>613.5697</ele><time>2026-06-20T18:07:07.000Z</time></trkpt>
        <trkpt lat="29.565403" lon="103.431388"><ele>613.73724</ele><time>2026-06-20T18:07:14.000Z</time></trkpt>
        <trkpt lat="29.565407" lon="103.431372"><ele>613.91437</ele><time>2026-06-20T18:07:16.000Z</time></trkpt>
        <trkpt lat="29.565414" lon="103.431361"><ele>613.99817</ele><time>2026-06-20T18:07:18.000Z</time></trkpt>
        <trkpt lat="29.565501" lon="103.431225"><ele>614.6836</ele><time>2026-06-20T18:07:28.000Z</time></trkpt>
        <trkpt lat="29.565503" lon="103.431225"><ele>615.9889</ele><time>2026-06-20T18:07:30.000Z</time></trkpt>
        <trkpt lat="29.565501" lon="103.43122"><ele>617.0756</ele><time>2026-06-20T18:07:32.000Z</time></trkpt>
        <trkpt lat="29.565457" lon="103.431085"><ele>617.83734</ele><time>2026-06-20T18:08:00.000Z</time></trkpt>
        <trkpt lat="29.565448" lon="103.431069"><ele>619.05133</ele><time>2026-06-20T18:08:02.000Z</time></trkpt>
        <trkpt lat="29.565438" lon="103.431052"><ele>620.1262</ele><time>2026-06-20T18:08:04.000Z</time></trkpt>
        <trkpt lat="29.565427" lon="103.431033"><ele>620.5843</ele><time>2026-06-20T18:08:06.000Z</time></trkpt>
        <trkpt lat="29.565419" lon="103.431018"><ele>622.3374</ele><time>2026-06-20T18:08:08.000Z</time></trkpt>
        <trkpt lat="29.565415" lon="103.431008"><ele>623.87036</ele><time>2026-06-20T18:08:10.000Z</time></trkpt>
        <trkpt lat="29.565405" lon="103.430983"><ele>623.87036</ele><time>2026-06-20T18:08:14.000Z</time></trkpt>
        <trkpt lat="29.565387" lon="103.430935"><ele>623.87036</ele><time>2026-06-20T18:08:20.000Z</time></trkpt>
        <trkpt lat="29.565387" lon="103.430935"><ele>623.87036</ele><time>2026-06-20T18:08:22.000Z</time></trkpt>
        <trkpt lat="29.565383" lon="103.430932"><ele>623.87036</ele><time>2026-06-20T18:08:24.000Z</time></trkpt>
        <trkpt lat="29.565348" lon="103.430902"><ele>623.62604</ele><time>2026-06-20T18:08:28.000Z</time></trkpt>
        <trkpt lat="29.565332" lon="103.430886"><ele>622.8631</ele><time>2026-06-20T18:08:30.000Z</time></trkpt>
        <trkpt lat="29.565318" lon="103.430869"><ele>622.4867</ele><time>2026-06-20T18:08:32.000Z</time></trkpt>
        <trkpt lat="29.565309" lon="103.430852"><ele>622.4867</ele><time>2026-06-20T18:08:34.000Z</time></trkpt>
        <trkpt lat="29.5653" lon="103.43083"><ele>622.4867</ele><time>2026-06-20T18:08:36.000Z</time></trkpt>
        <trkpt lat="29.565293" lon="103.430807"><ele>622.4867</ele><time>2026-06-20T18:08:38.000Z</time></trkpt>
        <trkpt lat="29.565288" lon="103.430788"><ele>622.4867</ele><time>2026-06-20T18:08:40.000Z</time></trkpt>
        <trkpt lat="29.565287" lon="103.430764"><ele>622.6675</ele><time>2026-06-20T18:08:42.000Z</time></trkpt>
        <trkpt lat="29.565293" lon="103.430746"><ele>622.9124</ele><time>2026-06-20T18:08:44.000Z</time></trkpt>
        <trkpt lat="29.565299" lon="103.430727"><ele>623.2484</ele><time>2026-06-20T18:08:46.000Z</time></trkpt>
        <trkpt lat="29.565304" lon="103.43071"><ele>623.60034</ele><time>2026-06-20T18:08:47.000Z</time></trkpt>
        <trkpt lat="29.565312" lon="103.430682"><ele>623.89197</ele><time>2026-06-20T18:08:49.000Z</time></trkpt>
        <trkpt lat="29.565316" lon="103.43066"><ele>624.1398</ele><time>2026-06-20T18:08:51.000Z</time></trkpt>
        <trkpt lat="29.565316" lon="103.430651"><ele>624.38214</ele><time>2026-06-20T18:08:53.000Z</time></trkpt>
        <trkpt lat="29.565312" lon="103.430618"><ele>624.52344</ele><time>2026-06-20T18:08:57.000Z</time></trkpt>
        <trkpt lat="29.56531" lon="103.430604"><ele>624.55524</ele><time>2026-06-20T18:08:59.000Z</time></trkpt>
        <trkpt lat="29.565307" lon="103.430589"><ele>624.6032</ele><time>2026-06-20T18:09:01.000Z</time></trkpt>
        <trkpt lat="29.565301" lon="103.430574"><ele>624.66736</ele><time>2026-06-20T18:09:03.000Z</time></trkpt>
        <trkpt lat="29.565296" lon="103.430565"><ele>624.70935</ele><time>2026-06-20T18:09:05.000Z</time></trkpt>
        <trkpt lat="29.565281" lon="103.430542"><ele>624.77924</ele><time>2026-06-20T18:09:09.000Z</time></trkpt>
        <trkpt lat="29.565275" lon="103.430533"><ele>624.97473</ele><time>2026-06-20T18:09:11.000Z</time></trkpt>
        <trkpt lat="29.565267" lon="103.430519"><ele>625.2479</ele><time>2026-06-20T18:09:13.000Z</time></trkpt>
        <trkpt lat="29.56526" lon="103.430503"><ele>625.52747</ele><time>2026-06-20T18:09:15.000Z</time></trkpt>
        <trkpt lat="29.565256" lon="103.430485"><ele>626.0366</ele><time>2026-06-20T18:09:17.000Z</time></trkpt>
        <trkpt lat="29.565254" lon="103.430461"><ele>626.5852</ele><time>2026-06-20T18:09:19.000Z</time></trkpt>
        <trkpt lat="29.565255" lon="103.430438"><ele>626.8558</ele><time>2026-06-20T18:09:21.000Z</time></trkpt>
        <trkpt lat="29.565257" lon="103.430411"><ele>626.9775</ele><time>2026-06-20T18:09:23.000Z</time></trkpt>
        <trkpt lat="29.565259" lon="103.430391"><ele>627.04944</ele><time>2026-06-20T18:09:25.000Z</time></trkpt>
        <trkpt lat="29.56526" lon="103.430377"><ele>627.0794</ele><time>2026-06-20T18:09:27.000Z</time></trkpt>
        <trkpt lat="29.565258" lon="103.430366"><ele>627.0998</ele><time>2026-06-20T18:09:29.000Z</time></trkpt>
        <trkpt lat="29.565249" lon="103.430338"><ele>627.15765</ele><time>2026-06-20T18:09:33.000Z</time></trkpt>
        <trkpt lat="29.565249" lon="103.430335"><ele>627.22284</ele><time>2026-06-20T18:09:35.000Z</time></trkpt>
        <trkpt lat="29.565241" lon="103.430286"><ele>627.24786</ele><time>2026-06-20T18:09:40.000Z</time></trkpt>
        <trkpt lat="29.565241" lon="103.430286"><ele>627.2783</ele><time>2026-06-20T18:09:42.000Z</time></trkpt>
        <trkpt lat="29.565241" lon="103.430283"><ele>627.4027</ele><time>2026-06-20T18:09:45.000Z</time></trkpt>
        <trkpt lat="29.565233" lon="103.430219"><ele>627.50024</ele><time>2026-06-20T18:09:51.000Z</time></trkpt>
        <trkpt lat="29.565232" lon="103.430197"><ele>627.76917</ele><time>2026-06-20T18:09:53.000Z</time></trkpt>
        <trkpt lat="29.565231" lon="103.430171"><ele>628.03735</ele><time>2026-06-20T18:09:55.000Z</time></trkpt>
        <trkpt lat="29.565227" lon="103.430147"><ele>628.0785</ele><time>2026-06-20T18:09:57.000Z</time></trkpt>
        <trkpt lat="29.565224" lon="103.430127"><ele>628.34155</ele><time>2026-06-20T18:09:59.000Z</time></trkpt>
        <trkpt lat="29.565222" lon="103.430112"><ele>628.49854</ele><time>2026-06-20T18:10:01.000Z</time></trkpt>
        <trkpt lat="29.565219" lon="103.430096"><ele>628.49854</ele><time>2026-06-20T18:10:03.000Z</time></trkpt>
        <trkpt lat="29.565213" lon="103.430072"><ele>628.49854</ele><time>2026-06-20T18:10:05.000Z</time></trkpt>
        <trkpt lat="29.565206" lon="103.430053"><ele>628.49854</ele><time>2026-06-20T18:10:07.000Z</time></trkpt>
        <trkpt lat="29.5652" lon="103.430036"><ele>628.49854</ele><time>2026-06-20T18:10:09.000Z</time></trkpt>
        <trkpt lat="29.565193" lon="103.430016"><ele>628.3862</ele><time>2026-06-20T18:10:11.000Z</time></trkpt>
        <trkpt lat="29.56519" lon="103.430003"><ele>628.3862</ele><time>2026-06-20T18:10:13.000Z</time></trkpt>
        <trkpt lat="29.565187" lon="103.429985"><ele>628.3862</ele><time>2026-06-20T18:10:15.000Z</time></trkpt>
        <trkpt lat="29.565182" lon="103.429958"><ele>628.32056</ele><time>2026-06-20T18:10:17.000Z</time></trkpt>
        <trkpt lat="29.565181" lon="103.429941"><ele>628.2858</ele><time>2026-06-20T18:10:19.000Z</time></trkpt>
        <trkpt lat="29.565178" lon="103.429927"><ele>628.26935</ele><time>2026-06-20T18:10:21.000Z</time></trkpt>
        <trkpt lat="29.565171" lon="103.4299"><ele>628.2858</ele><time>2026-06-20T18:10:25.000Z</time></trkpt>
        <trkpt lat="29.565166" lon="103.429888"><ele>628.32056</ele><time>2026-06-20T18:10:27.000Z</time></trkpt>
        <trkpt lat="29.565158" lon="103.429873"><ele>628.41595</ele><time>2026-06-20T18:10:29.000Z</time></trkpt>
        <trkpt lat="29.565137" lon="103.429838"><ele>628.49915</ele><time>2026-06-20T18:10:33.000Z</time></trkpt>
        <trkpt lat="29.565126" lon="103.429823"><ele>628.6151</ele><time>2026-06-20T18:10:35.000Z</time></trkpt>
        <trkpt lat="29.565121" lon="103.429809"><ele>628.8358</ele><time>2026-06-20T18:10:37.000Z</time></trkpt>
        <trkpt lat="29.565116" lon="103.429781"><ele>629.0501</ele><time>2026-06-20T18:10:43.000Z</time></trkpt>
        <trkpt lat="29.565111" lon="103.42975"><ele>629.4487</ele><time>2026-06-20T18:10:47.000Z</time></trkpt>
        <trkpt lat="29.565107" lon="103.429734"><ele>629.9354</ele><time>2026-06-20T18:10:49.000Z</time></trkpt>
        <trkpt lat="29.565102" lon="103.429721"><ele>630.3282</ele><time>2026-06-20T18:10:51.000Z</time></trkpt>
        <trkpt lat="29.565088" lon="103.429687"><ele>630.81537</ele><time>2026-06-20T18:10:55.000Z</time></trkpt>
        <trkpt lat="29.565078" lon="103.429667"><ele>631.1785</ele><time>2026-06-20T18:10:57.000Z</time></trkpt>
        <trkpt lat="29.565069" lon="103.429645"><ele>631.2723</ele><time>2026-06-20T18:10:59.000Z</time></trkpt>
        <trkpt lat="29.565061" lon="103.429627"><ele>631.4378</ele><time>2026-06-20T18:11:01.000Z</time></trkpt>
        <trkpt lat="29.565052" lon="103.429608"><ele>631.7038</ele><time>2026-06-20T18:11:03.000Z</time></trkpt>
        <trkpt lat="29.565043" lon="103.429589"><ele>631.7953</ele><time>2026-06-20T18:11:05.000Z</time></trkpt>
        <trkpt lat="29.565036" lon="103.429573"><ele>631.80615</ele><time>2026-06-20T18:11:07.000Z</time></trkpt>
        <trkpt lat="29.565028" lon="103.429559"><ele>631.8467</ele><time>2026-06-20T18:11:09.000Z</time></trkpt>
        <trkpt lat="29.565018" lon="103.429545"><ele>631.89343</ele><time>2026-06-20T18:11:11.000Z</time></trkpt>
        <trkpt lat="29.565008" lon="103.429529"><ele>631.9238</ele><time>2026-06-20T18:11:13.000Z</time></trkpt>
        <trkpt lat="29.564998" lon="103.429511"><ele>631.95795</ele><time>2026-06-20T18:11:15.000Z</time></trkpt>
        <trkpt lat="29.564987" lon="103.429494"><ele>631.96484</ele><time>2026-06-20T18:11:17.000Z</time></trkpt>
        <trkpt lat="29.564978" lon="103.429479"><ele>632.10095</ele><time>2026-06-20T18:11:19.000Z</time></trkpt>
        <trkpt lat="29.564969" lon="103.429466"><ele>632.26086</ele><time>2026-06-20T18:11:21.000Z</time></trkpt>
        <trkpt lat="29.56496" lon="103.429454"><ele>632.2995</ele><time>2026-06-20T18:11:22.000Z</time></trkpt>
        <trkpt lat="29.564951" lon="103.429444"><ele>632.3442</ele><time>2026-06-20T18:11:24.000Z</time></trkpt>
        <trkpt lat="29.564942" lon="103.429431"><ele>632.3789</ele><time>2026-06-20T18:11:26.000Z</time></trkpt>
        <trkpt lat="29.564933" lon="103.429412"><ele>632.445</ele><time>2026-06-20T18:11:28.000Z</time></trkpt>
        <trkpt lat="29.564926" lon="103.429394"><ele>632.5142</ele><time>2026-06-20T18:11:30.000Z</time></trkpt>
        <trkpt lat="29.564919" lon="103.429376"><ele>632.5329</ele><time>2026-06-20T18:11:32.000Z</time></trkpt>
        <trkpt lat="29.564912" lon="103.429354"><ele>632.6492</ele><time>2026-06-20T18:11:34.000Z</time></trkpt>
        <trkpt lat="29.564908" lon="103.429339"><ele>632.6906</ele><time>2026-06-20T18:11:36.000Z</time></trkpt>
        <trkpt lat="29.564904" lon="103.429324"><ele>632.784</ele><time>2026-06-20T18:11:38.000Z</time></trkpt>
        <trkpt lat="29.564901" lon="103.429309"><ele>632.81824</ele><time>2026-06-20T18:11:40.000Z</time></trkpt>
        <trkpt lat="29.5649" lon="103.42929"><ele>632.851</ele><time>2026-06-20T18:11:42.000Z</time></trkpt>
        <trkpt lat="29.5649" lon="103.429274"><ele>632.851</ele><time>2026-06-20T18:11:44.000Z</time></trkpt>
        <trkpt lat="29.564902" lon="103.42926"><ele>632.84576</ele><time>2026-06-20T18:11:46.000Z</time></trkpt>
        <trkpt lat="29.564906" lon="103.429244"><ele>632.784</ele><time>2026-06-20T18:11:48.000Z</time></trkpt>
        <trkpt lat="29.56491" lon="103.429228"><ele>632.7123</ele><time>2026-06-20T18:11:51.000Z</time></trkpt>
        <trkpt lat="29.564912" lon="103.429212"><ele>632.6479</ele><time>2026-06-20T18:11:53.000Z</time></trkpt>
        <trkpt lat="29.564912" lon="103.429188"><ele>632.4263</ele><time>2026-06-20T18:11:55.000Z</time></trkpt>
        <trkpt lat="29.564908" lon="103.429166"><ele>632.44794</ele><time>2026-06-20T18:11:57.000Z</time></trkpt>
        <trkpt lat="29.564901" lon="103.42915"><ele>632.44794</ele><time>2026-06-20T18:11:59.000Z</time></trkpt>
        <trkpt lat="29.564892" lon="103.429136"><ele>632.44794</ele><time>2026-06-20T18:12:01.000Z</time></trkpt>
        <trkpt lat="29.564879" lon="103.429123"><ele>632.44794</ele><time>2026-06-20T18:12:03.000Z</time></trkpt>
        <trkpt lat="29.564869" lon="103.429109"><ele>632.7507</ele><time>2026-06-20T18:12:05.000Z</time></trkpt>
        <trkpt lat="29.564859" lon="103.429091"><ele>634.1318</ele><time>2026-06-20T18:12:07.000Z</time></trkpt>
        <trkpt lat="29.564852" lon="103.429073"><ele>635.7897</ele><time>2026-06-20T18:12:09.000Z</time></trkpt>
        <trkpt lat="29.564844" lon="103.429053"><ele>637.40485</ele><time>2026-06-20T18:12:11.000Z</time></trkpt>
        <trkpt lat="29.564835" lon="103.429031"><ele>638.84155</ele><time>2026-06-20T18:12:13.000Z</time></trkpt>
        <trkpt lat="29.564827" lon="103.429011"><ele>640.08765</ele><time>2026-06-20T18:12:15.000Z</time></trkpt>
        <trkpt lat="29.564818" lon="103.428993"><ele>641.15686</ele><time>2026-06-20T18:12:17.000Z</time></trkpt>
        <trkpt lat="29.564808" lon="103.428975"><ele>641.95215</ele><time>2026-06-20T18:12:19.000Z</time></trkpt>
        <trkpt lat="29.5648" lon="103.428956"><ele>642.6753</ele><time>2026-06-20T18:12:21.000Z</time></trkpt>
        <trkpt lat="29.564792" lon="103.428937"><ele>643.3973</ele><time>2026-06-20T18:12:23.000Z</time></trkpt>
        <trkpt lat="29.564794" lon="103.428916"><ele>644.21704</ele><time>2026-06-20T18:12:25.000Z</time></trkpt>
        <trkpt lat="29.564804" lon="103.428876"><ele>645.1089</ele><time>2026-06-20T18:12:27.000Z</time></trkpt>
        <trkpt lat="29.564815" lon="103.428828"><ele>645.73773</ele><time>2026-06-20T18:12:29.000Z</time></trkpt>
        <trkpt lat="29.564823" lon="103.428785"><ele>645.73773</ele><time>2026-06-20T18:12:31.000Z</time></trkpt>
        <trkpt lat="29.564825" lon="103.428749"><ele>645.73773</ele><time>2026-06-20T18:12:33.000Z</time></trkpt>
        <trkpt lat="29.564826" lon="103.428718"><ele>645.73773</ele><time>2026-06-20T18:12:35.000Z</time></trkpt>
        <trkpt lat="29.564825" lon="103.428698"><ele>645.73773</ele><time>2026-06-20T18:12:37.000Z</time></trkpt>
        <trkpt lat="29.564823" lon="103.428681"><ele>645.27454</ele><time>2026-06-20T18:12:39.000Z</time></trkpt>
        <trkpt lat="29.564824" lon="103.428667"><ele>644.05347</ele><time>2026-06-20T18:12:41.000Z</time></trkpt>
        <trkpt lat="29.564826" lon="103.42865"><ele>642.97186</ele><time>2026-06-20T18:12:43.000Z</time></trkpt>
        <trkpt lat="29.564827" lon="103.428634"><ele>642.4707</ele><time>2026-06-20T18:12:45.000Z</time></trkpt>
        <trkpt lat="29.564825" lon="103.428619"><ele>642.4707</ele><time>2026-06-20T18:12:47.000Z</time></trkpt>
        <trkpt lat="29.564823" lon="103.428602"><ele>642.4707</ele><time>2026-06-20T18:12:49.000Z</time></trkpt>
        <trkpt lat="29.564819" lon="103.428588"><ele>642.4707</ele><time>2026-06-20T18:12:51.000Z</time></trkpt>
        <trkpt lat="29.564814" lon="103.428577"><ele>642.4707</ele><time>2026-06-20T18:12:53.000Z</time></trkpt>
        <trkpt lat="29.564805" lon="103.428566"><ele>642.55316</ele><time>2026-06-20T18:12:55.000Z</time></trkpt>
        <trkpt lat="29.564795" lon="103.428557"><ele>642.68756</ele><time>2026-06-20T18:12:57.000Z</time></trkpt>
        <trkpt lat="29.56479" lon="103.428545"><ele>643.01776</ele><time>2026-06-20T18:12:59.000Z</time></trkpt>
        <trkpt lat="29.564787" lon="103.428524"><ele>643.64185</ele><time>2026-06-20T18:13:03.000Z</time></trkpt>
        <trkpt lat="29.56479" lon="103.428516"><ele>644.544</ele><time>2026-06-20T18:13:05.000Z</time></trkpt>
        <trkpt lat="29.564799" lon="103.428506"><ele>645.6835</ele><time>2026-06-20T18:13:07.000Z</time></trkpt>
        <trkpt lat="29.56482" lon="103.428488"><ele>646.89453</ele><time>2026-06-20T18:13:11.000Z</time></trkpt>
        <trkpt lat="29.564837" lon="103.428476"><ele>648.6624</ele><time>2026-06-20T18:13:13.000Z</time></trkpt>
        <trkpt lat="29.564858" lon="103.428463"><ele>650.4952</ele><time>2026-06-20T18:13:15.000Z</time></trkpt>
        <trkpt lat="29.564874" lon="103.428446"><ele>651.8219</ele><time>2026-06-20T18:13:17.000Z</time></trkpt>
        <trkpt lat="29.564882" lon="103.42843"><ele>653.66406</ele><time>2026-06-20T18:13:19.000Z</time></trkpt>
        <trkpt lat="29.564893" lon="103.428426"><ele>655.3241</ele><time>2026-06-20T18:13:21.000Z</time></trkpt>
        <trkpt lat="29.56492" lon="103.428421"><ele>656.12384</ele><time>2026-06-20T18:13:25.000Z</time></trkpt>
        <trkpt lat="29.564934" lon="103.428419"><ele>656.6769</ele><time>2026-06-20T18:13:27.000Z</time></trkpt>
        <trkpt lat="29.56495" lon="103.428416"><ele>657.2033</ele><time>2026-06-20T18:13:29.000Z</time></trkpt>
        <trkpt lat="29.564962" lon="103.428408"><ele>657.86273</ele><time>2026-06-20T18:13:31.000Z</time></trkpt>
        <trkpt lat="29.56499" lon="103.428387"><ele>659.1089</ele><time>2026-06-20T18:13:35.000Z</time></trkpt>
        <trkpt lat="29.565011" lon="103.428375"><ele>660.4485</ele><time>2026-06-20T18:13:37.000Z</time></trkpt>
        <trkpt lat="29.565035" lon="103.428361"><ele>661.3545</ele><time>2026-06-20T18:13:39.000Z</time></trkpt>
        <trkpt lat="29.565059" lon="103.428343"><ele>662.16064</ele><time>2026-06-20T18:13:41.000Z</time></trkpt>
        <trkpt lat="29.565079" lon="103.428326"><ele>663.0258</ele><time>2026-06-20T18:13:43.000Z</time></trkpt>
        <trkpt lat="29.565098" lon="103.428308"><ele>663.78503</ele><time>2026-06-20T18:13:45.000Z</time></trkpt>
        <trkpt lat="29.565106" lon="103.428295"><ele>664.21356</ele><time>2026-06-20T18:13:47.000Z</time></trkpt>
        <trkpt lat="29.565113" lon="103.428282"><ele>664.45215</ele><time>2026-06-20T18:13:49.000Z</time></trkpt>
        <trkpt lat="29.565116" lon="103.428252"><ele>664.6832</ele><time>2026-06-20T18:13:53.000Z</time></trkpt>
        <trkpt lat="29.565113" lon="103.42825"><ele>665.0133</ele><time>2026-06-20T18:13:55.000Z</time></trkpt>
        <trkpt lat="29.565084" lon="103.428234"><ele>665.42645</ele><time>2026-06-20T18:14:03.000Z</time></trkpt>
        <trkpt lat="29.565163" lon="103.428162"><ele>665.8902</ele><time>2026-06-20T18:14:29.000Z</time></trkpt>
        <trkpt lat="29.565163" lon="103.428162"><ele>666.5183</ele><time>2026-06-20T18:14:31.000Z</time></trkpt>
        <trkpt lat="29.565162" lon="103.428163"><ele>667.1367</ele><time>2026-06-20T18:14:33.000Z</time></trkpt>
        <trkpt lat="29.565248" lon="103.428145"><ele>668.39514</ele><time>2026-06-20T18:14:48.000Z</time></trkpt>
        <trkpt lat="29.565248" lon="103.428145"><ele>670.67163</ele><time>2026-06-20T18:14:50.000Z</time></trkpt>
        <trkpt lat="29.565248" lon="103.428136"><ele>671.8971</ele><time>2026-06-20T18:14:52.000Z</time></trkpt>
        <trkpt lat="29.565246" lon="103.42806"><ele>671.94293</ele><time>2026-06-20T18:14:56.000Z</time></trkpt>
        <trkpt lat="29.56527" lon="103.428039"><ele>673.5613</ele><time>2026-06-20T18:14:58.000Z</time></trkpt>
        <trkpt lat="29.565298" lon="103.428022"><ele>675.13574</ele><time>2026-06-20T18:15:00.000Z</time></trkpt>
        <trkpt lat="29.565322" lon="103.428004"><ele>675.16284</ele><time>2026-06-20T18:15:02.000Z</time></trkpt>
        <trkpt lat="29.565344" lon="103.42799"><ele>675.3766</ele><time>2026-06-20T18:15:04.000Z</time></trkpt>
        <trkpt lat="29.565364" lon="103.427973"><ele>675.64655</ele><time>2026-06-20T18:15:06.000Z</time></trkpt>
        <trkpt lat="29.565372" lon="103.427962"><ele>675.74164</ele><time>2026-06-20T18:15:08.000Z</time></trkpt>
        <trkpt lat="29.565303" lon="103.428064"><ele>675.75885</ele><time>2026-06-20T18:15:26.000Z</time></trkpt>
        <trkpt lat="29.565275" lon="103.428002"><ele>675.85187</ele><time>2026-06-20T18:15:36.000Z</time></trkpt>
        <trkpt lat="29.565278" lon="103.427993"><ele>676.13153</ele><time>2026-06-20T18:15:38.000Z</time></trkpt>
        <trkpt lat="29.565289" lon="103.427974"><ele>676.5331</ele><time>2026-06-20T18:15:40.000Z</time></trkpt>
        <trkpt lat="29.565316" lon="103.427937"><ele>678.21436</ele><time>2026-06-20T18:15:42.000Z</time></trkpt>
        <trkpt lat="29.565336" lon="103.427909"><ele>680.37604</ele><time>2026-06-20T18:15:44.000Z</time></trkpt>
        <trkpt lat="29.565353" lon="103.427887"><ele>681.30725</ele><time>2026-06-20T18:15:46.000Z</time></trkpt>
        <trkpt lat="29.565361" lon="103.427875"><ele>681.7008</ele><time>2026-06-20T18:15:48.000Z</time></trkpt>
        <trkpt lat="29.565385" lon="103.427843"><ele>681.8693</ele><time>2026-06-20T18:15:54.000Z</time></trkpt>
        <trkpt lat="29.565405" lon="103.427824"><ele>681.92365</ele><time>2026-06-20T18:15:57.000Z</time></trkpt>
        <trkpt lat="29.565408" lon="103.427815"><ele>681.98773</ele><time>2026-06-20T18:15:59.000Z</time></trkpt>
        <trkpt lat="29.565427" lon="103.42775"><ele>682.048</ele><time>2026-06-20T18:16:22.000Z</time></trkpt>
        <trkpt lat="29.565395" lon="103.427715"><ele>682.467</ele><time>2026-06-20T18:16:26.000Z</time></trkpt>
        <trkpt lat="29.565376" lon="103.427695"><ele>683.23956</ele><time>2026-06-20T18:16:35.000Z</time></trkpt>
        <trkpt lat="29.565363" lon="103.427681"><ele>683.71875</ele><time>2026-06-20T18:16:41.000Z</time></trkpt>
        <trkpt lat="29.56539" lon="103.427599"><ele>683.71875</ele><time>2026-06-20T18:16:52.000Z</time></trkpt>
        <trkpt lat="29.565427" lon="103.427584"><ele>683.71875</ele><time>2026-06-20T18:17:02.000Z</time></trkpt>
        <trkpt lat="29.565454" lon="103.427528"><ele>683.71875</ele><time>2026-06-20T18:17:05.000Z</time></trkpt>
        <trkpt lat="29.565456" lon="103.427527"><ele>683.71875</ele><time>2026-06-20T18:17:07.000Z</time></trkpt>
        <trkpt lat="29.565473" lon="103.427513"><ele>683.84235</ele><time>2026-06-20T18:17:13.000Z</time></trkpt>
        <trkpt lat="29.565353" lon="103.427406"><ele>683.9565</ele><time>2026-06-20T18:17:34.000Z</time></trkpt>
        <trkpt lat="29.565353" lon="103.427406"><ele>683.9565</ele><time>2026-06-20T18:17:36.000Z</time></trkpt>
        <trkpt lat="29.565351" lon="103.427403"><ele>683.9565</ele><time>2026-06-20T18:17:38.000Z</time></trkpt>
        <trkpt lat="29.565292" lon="103.427294"><ele>683.9565</ele><time>2026-06-20T18:17:46.000Z</time></trkpt>
        <trkpt lat="29.565281" lon="103.427264"><ele>685.2213</ele><time>2026-06-20T18:17:48.000Z</time></trkpt>
        <trkpt lat="29.565269" lon="103.427236"><ele>686.2221</ele><time>2026-06-20T18:17:50.000Z</time></trkpt>
        <trkpt lat="29.565254" lon="103.427216"><ele>686.2221</ele><time>2026-06-20T18:17:52.000Z</time></trkpt>
        <trkpt lat="29.565228" lon="103.427185"><ele>686.2221</ele><time>2026-06-20T18:17:56.000Z</time></trkpt>
        <trkpt lat="29.565215" lon="103.427174"><ele>686.2221</ele><time>2026-06-20T18:17:58.000Z</time></trkpt>
        <trkpt lat="29.565199" lon="103.427164"><ele>686.2221</ele><time>2026-06-20T18:18:00.000Z</time></trkpt>
        <trkpt lat="29.565171" lon="103.427138"><ele>685.96484</ele><time>2026-06-20T18:18:04.000Z</time></trkpt>
        <trkpt lat="29.565161" lon="103.427121"><ele>685.5231</ele><time>2026-06-20T18:18:06.000Z</time></trkpt>
        <trkpt lat="29.565146" lon="103.427098"><ele>685.0595</ele><time>2026-06-20T18:18:08.000Z</time></trkpt>
        <trkpt lat="29.565133" lon="103.427078"><ele>684.7382</ele><time>2026-06-20T18:18:10.000Z</time></trkpt>
        <trkpt lat="29.565118" lon="103.427056"><ele>684.24426</ele><time>2026-06-20T18:18:12.000Z</time></trkpt>
        <trkpt lat="29.565103" lon="103.427032"><ele>683.5297</ele><time>2026-06-20T18:18:14.000Z</time></trkpt>
        <trkpt lat="29.565085" lon="103.427007"><ele>682.409</ele><time>2026-06-20T18:18:16.000Z</time></trkpt>
        <trkpt lat="29.565067" lon="103.426985"><ele>681.0445</ele><time>2026-06-20T18:18:18.000Z</time></trkpt>
        <trkpt lat="29.565053" lon="103.426967"><ele>679.85565</ele><time>2026-06-20T18:18:20.000Z</time></trkpt>
        <trkpt lat="29.565042" lon="103.426958"><ele>678.7365</ele><time>2026-06-20T18:18:22.000Z</time></trkpt>
        <trkpt lat="29.56502" lon="103.426948"><ele>677.2973</ele><time>2026-06-20T18:18:26.000Z</time></trkpt>
        <trkpt lat="29.565009" lon="103.426948"><ele>675.53766</ele><time>2026-06-20T18:18:28.000Z</time></trkpt>
        <trkpt lat="29.564996" lon="103.426956"><ele>674.0228</ele><time>2026-06-20T18:18:30.000Z</time></trkpt>
        <trkpt lat="29.564968" lon="103.426977"><ele>672.8478</ele><time>2026-06-20T18:18:34.000Z</time></trkpt>
        <trkpt lat="29.564962" lon="103.426989"><ele>671.2003</ele><time>2026-06-20T18:18:36.000Z</time></trkpt>
        <trkpt lat="29.564962" lon="103.42699"><ele>669.5682</ele><time>2026-06-20T18:18:38.000Z</time></trkpt>
        <trkpt lat="29.564919" lon="103.426957"><ele>668.96173</ele><time>2026-06-20T18:19:00.000Z</time></trkpt>
        <trkpt lat="29.564904" lon="103.426947"><ele>668.96173</ele><time>2026-06-20T18:19:02.000Z</time></trkpt>
        <trkpt lat="29.564903" lon="103.426947"><ele>668.96173</ele><time>2026-06-20T18:19:04.000Z</time></trkpt>
        <trkpt lat="29.564869" lon="103.42695"><ele>668.96173</ele><time>2026-06-20T18:19:10.000Z</time></trkpt>
        <trkpt lat="29.564846" lon="103.426949"><ele>668.96173</ele><time>2026-06-20T18:19:12.000Z</time></trkpt>
        <trkpt lat="29.564822" lon="103.426946"><ele>669.10913</ele><time>2026-06-20T18:19:14.000Z</time></trkpt>
        <trkpt lat="29.564801" lon="103.426943"><ele>669.3443</ele><time>2026-06-20T18:19:16.000Z</time></trkpt>
        <trkpt lat="29.564783" lon="103.426942"><ele>669.7477</ele><time>2026-06-20T18:19:18.000Z</time></trkpt>
        <trkpt lat="29.56477" lon="103.426943"><ele>670.38367</ele><time>2026-06-20T18:19:20.000Z</time></trkpt>
        <trkpt lat="29.564759" lon="103.426947"><ele>670.824</ele><time>2026-06-20T18:19:22.000Z</time></trkpt>
        <trkpt lat="29.564735" lon="103.426958"><ele>671.23193</ele><time>2026-06-20T18:19:26.000Z</time></trkpt>
        <trkpt lat="29.564723" lon="103.426967"><ele>671.61584</ele><time>2026-06-20T18:19:28.000Z</time></trkpt>
        <trkpt lat="29.564712" lon="103.42698"><ele>671.83044</ele><time>2026-06-20T18:19:30.000Z</time></trkpt>
        <trkpt lat="29.564709" lon="103.426992"><ele>671.8872</ele><time>2026-06-20T18:19:32.000Z</time></trkpt>
        <trkpt lat="29.564715" lon="103.426998"><ele>671.92444</ele><time>2026-06-20T18:19:36.000Z</time></trkpt>
        <trkpt lat="29.564737" lon="103.427022"><ele>672.0168</ele><time>2026-06-20T18:19:44.000Z</time></trkpt>
        <trkpt lat="29.564785" lon="103.427074"><ele>672.0168</ele><time>2026-06-20T18:19:52.000Z</time></trkpt>
        <trkpt lat="29.564785" lon="103.427074"><ele>672.0168</ele><time>2026-06-20T18:19:54.000Z</time></trkpt>
        <trkpt lat="29.564784" lon="103.427075"><ele>672.0168</ele><time>2026-06-20T18:19:56.000Z</time></trkpt>
        <trkpt lat="29.564705" lon="103.427084"><ele>672.19653</ele><time>2026-06-20T18:20:14.000Z</time></trkpt>
        <trkpt lat="29.564705" lon="103.427084"><ele>672.19653</ele><time>2026-06-20T18:20:16.000Z</time></trkpt>
        <trkpt lat="29.564704" lon="103.427084"><ele>672.19653</ele><time>2026-06-20T18:20:18.000Z</time></trkpt>
        <trkpt lat="29.564653" lon="103.427085"><ele>672.19653</ele><time>2026-06-20T18:20:32.000Z</time></trkpt>
        <trkpt lat="29.564648" lon="103.427084"><ele>672.2949</ele><time>2026-06-20T18:20:34.000Z</time></trkpt>
        <trkpt lat="29.564598" lon="103.427082"><ele>672.4933</ele><time>2026-06-20T18:20:38.000Z</time></trkpt>
        <trkpt lat="29.564598" lon="103.427082"><ele>672.5187</ele><time>2026-06-20T18:20:40.000Z</time></trkpt>
        <trkpt lat="29.564597" lon="103.427081"><ele>673.2091</ele><time>2026-06-20T18:20:42.000Z</time></trkpt>
        <trkpt lat="29.564555" lon="103.427054"><ele>673.8844</ele><time>2026-06-20T18:20:49.000Z</time></trkpt>
        <trkpt lat="29.564555" lon="103.427054"><ele>673.9266</ele><time>2026-06-20T18:20:51.000Z</time></trkpt>
        <trkpt lat="29.564554" lon="103.427054"><ele>673.9597</ele><time>2026-06-20T18:20:53.000Z</time></trkpt>
        <trkpt lat="29.564522" lon="103.427046"><ele>673.98987</ele><time>2026-06-20T18:20:59.000Z</time></trkpt>
        <trkpt lat="29.564507" lon="103.427047"><ele>675.37646</ele><time>2026-06-20T18:21:01.000Z</time></trkpt>
        <trkpt lat="29.564494" lon="103.427049"><ele>676.73376</ele><time>2026-06-20T18:21:03.000Z</time></trkpt>
        <trkpt lat="29.564487" lon="103.427054"><ele>676.7485</ele><time>2026-06-20T18:21:05.000Z</time></trkpt>
        <trkpt lat="29.564479" lon="103.427051"><ele>677.1758</ele><time>2026-06-20T18:21:07.000Z</time></trkpt>
        <trkpt lat="29.56445" lon="103.427042"><ele>677.7533</ele><time>2026-06-20T18:21:17.000Z</time></trkpt>
        <trkpt lat="29.564446" lon="103.427039"><ele>677.9496</ele><time>2026-06-20T18:21:19.000Z</time></trkpt>
        <trkpt lat="29.564432" lon="103.427041"><ele>678.0296</ele><time>2026-06-20T18:21:33.000Z</time></trkpt>
        <trkpt lat="29.564309" lon="103.427052"><ele>678.1194</ele><time>2026-06-20T18:21:46.000Z</time></trkpt>
        <trkpt lat="29.564309" lon="103.427052"><ele>678.75055</ele><time>2026-06-20T18:21:48.000Z</time></trkpt>
        <trkpt lat="29.564309" lon="103.427052"><ele>679.4612</ele><time>2026-06-20T18:21:50.000Z</time></trkpt>
        <trkpt lat="29.56426" lon="103.427042"><ele>681.2931</ele><time>2026-06-20T18:22:02.000Z</time></trkpt>
        <trkpt lat="29.564251" lon="103.42704"><ele>683.0215</ele><time>2026-06-20T18:22:06.000Z</time></trkpt>
        <trkpt lat="29.564251" lon="103.42704"><ele>683.04065</ele><time>2026-06-20T18:22:08.000Z</time></trkpt>
        <trkpt lat="29.564204" lon="103.427067"><ele>683.2283</ele><time>2026-06-20T18:22:16.000Z</time></trkpt>
        <trkpt lat="29.56419" lon="103.427076"><ele>684.6814</ele><time>2026-06-20T18:22:18.000Z</time></trkpt>
        <trkpt lat="29.564179" lon="103.427085"><ele>686.5731</ele><time>2026-06-20T18:22:21.000Z</time></trkpt>
        <trkpt lat="29.564172" lon="103.427088"><ele>687.1984</ele><time>2026-06-20T18:22:23.000Z</time></trkpt>
        <trkpt lat="29.564151" lon="103.427096"><ele>687.61664</ele><time>2026-06-20T18:22:27.000Z</time></trkpt>
        <trkpt lat="29.564141" lon="103.427097"><ele>688.20593</ele><time>2026-06-20T18:22:29.000Z</time></trkpt>
        <trkpt lat="29.564127" lon="103.427098"><ele>688.55023</ele><time>2026-06-20T18:22:31.000Z</time></trkpt>
        <trkpt lat="29.564108" lon="103.4271"><ele>688.90594</ele><time>2026-06-20T18:22:33.000Z</time></trkpt>
        <trkpt lat="29.564085" lon="103.427105"><ele>689.3786</ele><time>2026-06-20T18:22:35.000Z</time></trkpt>
        <trkpt lat="29.564063" lon="103.427109"><ele>689.82465</ele><time>2026-06-20T18:22:37.000Z</time></trkpt>
        <trkpt lat="29.564041" lon="103.427114"><ele>690.1555</ele><time>2026-06-20T18:22:39.000Z</time></trkpt>
        <trkpt lat="29.564023" lon="103.427117"><ele>690.45624</ele><time>2026-06-20T18:22:41.000Z</time></trkpt>
        <trkpt lat="29.564012" lon="103.427112"><ele>690.6712</ele><time>2026-06-20T18:22:43.000Z</time></trkpt>
        <trkpt lat="29.563991" lon="103.4271"><ele>690.9814</ele><time>2026-06-20T18:22:47.000Z</time></trkpt>
        <trkpt lat="29.563975" lon="103.427097"><ele>691.516</ele><time>2026-06-20T18:22:53.000Z</time></trkpt>
        <trkpt lat="29.563954" lon="103.427101"><ele>692.2412</ele><time>2026-06-20T18:22:57.000Z</time></trkpt>
        <trkpt lat="29.563882" lon="103.427113"><ele>692.94244</ele><time>2026-06-20T18:23:07.000Z</time></trkpt>
        <trkpt lat="29.563882" lon="103.427113"><ele>693.816</ele><time>2026-06-20T18:23:09.000Z</time></trkpt>
        <trkpt lat="29.563882" lon="103.427113"><ele>695.24097</ele><time>2026-06-20T18:23:11.000Z</time></trkpt>
        <trkpt lat="29.56383" lon="103.427124"><ele>696.24756</ele><time>2026-06-20T18:23:23.000Z</time></trkpt>
        <trkpt lat="29.563802" lon="103.42713"><ele>696.4151</ele><time>2026-06-20T18:23:27.000Z</time></trkpt>
        <trkpt lat="29.563802" lon="103.42713"><ele>696.4264</ele><time>2026-06-20T18:23:29.000Z</time></trkpt>
        <trkpt lat="29.563768" lon="103.427122"><ele>696.5546</ele><time>2026-06-20T18:23:45.000Z</time></trkpt>
        <trkpt lat="29.563716" lon="103.427114"><ele>696.9529</ele><time>2026-06-20T18:23:49.000Z</time></trkpt>
        <trkpt lat="29.563656" lon="103.427105"><ele>696.9529</ele><time>2026-06-20T18:24:08.000Z</time></trkpt>
        <trkpt lat="29.56365" lon="103.427105"><ele>696.8346</ele><time>2026-06-20T18:24:10.000Z</time></trkpt>
        <trkpt lat="29.563647" lon="103.427102"><ele>696.8346</ele><time>2026-06-20T18:24:12.000Z</time></trkpt>
        <trkpt lat="29.563609" lon="103.42707"><ele>696.8346</ele><time>2026-06-20T18:24:18.000Z</time></trkpt>
        <trkpt lat="29.563606" lon="103.427066"><ele>696.70447</ele><time>2026-06-20T18:24:20.000Z</time></trkpt>
        <trkpt lat="29.563605" lon="103.427064"><ele>696.0485</ele><time>2026-06-20T18:24:22.000Z</time></trkpt>
        <trkpt lat="29.563628" lon="103.427127"><ele>695.8368</ele><time>2026-06-20T18:24:40.000Z</time></trkpt>
        <trkpt lat="29.563667" lon="103.427098"><ele>695.8368</ele><time>2026-06-20T18:25:25.000Z</time></trkpt>
        <trkpt lat="29.563672" lon="103.427098"><ele>695.8368</ele><time>2026-06-20T18:25:41.000Z</time></trkpt>
        <trkpt lat="29.563575" lon="103.427092"><ele>695.8368</ele><time>2026-06-20T18:26:12.000Z</time></trkpt>
        <trkpt lat="29.563575" lon="103.427092"><ele>695.8368</ele><time>2026-06-20T18:26:14.000Z</time></trkpt>
        <trkpt lat="29.563574" lon="103.427092"><ele>698.1662</ele><time>2026-06-20T18:26:16.000Z</time></trkpt>
        <trkpt lat="29.563481" lon="103.427039"><ele>700.442</ele><time>2026-06-20T18:26:34.000Z</time></trkpt>
        <trkpt lat="29.563481" lon="103.427039"><ele>700.44214</ele><time>2026-06-20T18:26:36.000Z</time></trkpt>
        <trkpt lat="29.56348" lon="103.427039"><ele>700.44495</ele><time>2026-06-20T18:26:38.000Z</time></trkpt>
        <trkpt lat="29.563429" lon="103.427037"><ele>700.8105</ele><time>2026-06-20T18:26:44.000Z</time></trkpt>
        <trkpt lat="29.563409" lon="103.427034"><ele>701.07654</ele><time>2026-06-20T18:26:46.000Z</time></trkpt>
        <trkpt lat="29.563392" lon="103.427029"><ele>701.1126</ele><time>2026-06-20T18:26:48.000Z</time></trkpt>
        <trkpt lat="29.563374" lon="103.427025"><ele>701.1126</ele><time>2026-06-20T18:26:50.000Z</time></trkpt>
        <trkpt lat="29.563352" lon="103.427018"><ele>701.1126</ele><time>2026-06-20T18:26:52.000Z</time></trkpt>
        <trkpt lat="29.563332" lon="103.427009"><ele>701.2015</ele><time>2026-06-20T18:26:54.000Z</time></trkpt>
        <trkpt lat="29.563315" lon="103.427"><ele>701.4307</ele><time>2026-06-20T18:26:56.000Z</time></trkpt>
        <trkpt lat="29.563292" lon="103.426987"><ele>701.61584</ele><time>2026-06-20T18:26:58.000Z</time></trkpt>
        <trkpt lat="29.563272" lon="103.426975"><ele>701.75415</ele><time>2026-06-20T18:27:00.000Z</time></trkpt>
        <trkpt lat="29.563259" lon="103.426963"><ele>701.9389</ele><time>2026-06-20T18:27:02.000Z</time></trkpt>
        <trkpt lat="29.563249" lon="103.426949"><ele>702.09705</ele><time>2026-06-20T18:27:04.000Z</time></trkpt>
        <trkpt lat="29.563242" lon="103.426938"><ele>702.1635</ele><time>2026-06-20T18:27:06.000Z</time></trkpt>
        <trkpt lat="29.563226" lon="103.426907"><ele>702.3093</ele><time>2026-06-20T18:27:10.000Z</time></trkpt>
        <trkpt lat="29.563224" lon="103.426893"><ele>702.66235</ele><time>2026-06-20T18:27:12.000Z</time></trkpt>
        <trkpt lat="29.56322" lon="103.426871"><ele>703.1014</ele><time>2026-06-20T18:27:14.000Z</time></trkpt>
        <trkpt lat="29.563215" lon="103.426843"><ele>703.5883</ele><time>2026-06-20T18:27:16.000Z</time></trkpt>
        <trkpt lat="29.56321" lon="103.426816"><ele>703.81604</ele><time>2026-06-20T18:27:18.000Z</time></trkpt>
        <trkpt lat="29.563202" lon="103.426789"><ele>703.81604</ele><time>2026-06-20T18:27:20.000Z</time></trkpt>
        <trkpt lat="29.563191" lon="103.42676"><ele>703.81604</ele><time>2026-06-20T18:27:22.000Z</time></trkpt>
        <trkpt lat="29.563176" lon="103.426733"><ele>703.81604</ele><time>2026-06-20T18:27:24.000Z</time></trkpt>
        <trkpt lat="29.563163" lon="103.426708"><ele>703.81604</ele><time>2026-06-20T18:27:26.000Z</time></trkpt>
        <trkpt lat="29.563153" lon="103.426692"><ele>703.4813</ele><time>2026-06-20T18:27:28.000Z</time></trkpt>
        <trkpt lat="29.563146" lon="103.42668"><ele>702.7581</ele><time>2026-06-20T18:27:30.000Z</time></trkpt>
        <trkpt lat="29.563137" lon="103.426665"><ele>701.8909</ele><time>2026-06-20T18:27:32.000Z</time></trkpt>
        <trkpt lat="29.563131" lon="103.426651"><ele>701.05786</ele><time>2026-06-20T18:27:34.000Z</time></trkpt>
        <trkpt lat="29.563125" lon="103.426636"><ele>700.3371</ele><time>2026-06-20T18:27:36.000Z</time></trkpt>
        <trkpt lat="29.563117" lon="103.426626"><ele>699.82336</ele><time>2026-06-20T18:27:38.000Z</time></trkpt>
        <trkpt lat="29.5631" lon="103.426614"><ele>699.63617</ele><time>2026-06-20T18:27:49.000Z</time></trkpt>
        <trkpt lat="29.563088" lon="103.426608"><ele>699.45435</ele><time>2026-06-20T18:27:55.000Z</time></trkpt>
        <trkpt lat="29.56307" lon="103.426601"><ele>699.0134</ele><time>2026-06-20T18:27:57.000Z</time></trkpt>
        <trkpt lat="29.563051" lon="103.42659"><ele>698.48865</ele><time>2026-06-20T18:27:59.000Z</time></trkpt>
        <trkpt lat="29.563029" lon="103.42658"><ele>696.85144</ele><time>2026-06-20T18:28:01.000Z</time></trkpt>
        <trkpt lat="29.563007" lon="103.426571"><ele>695.5986</ele><time>2026-06-20T18:28:03.000Z</time></trkpt>
        <trkpt lat="29.562984" lon="103.426561"><ele>695.5986</ele><time>2026-06-20T18:28:05.000Z</time></trkpt>
        <trkpt lat="29.56297" lon="103.426553"><ele>695.5986</ele><time>2026-06-20T18:28:07.000Z</time></trkpt>
        <trkpt lat="29.562955" lon="103.426544"><ele>695.5986</ele><time>2026-06-20T18:28:09.000Z</time></trkpt>
        <trkpt lat="29.562939" lon="103.426534"><ele>695.5986</ele><time>2026-06-20T18:28:11.000Z</time></trkpt>
        <trkpt lat="29.562924" lon="103.426524"><ele>695.8488</ele><time>2026-06-20T18:28:13.000Z</time></trkpt>
        <trkpt lat="29.562911" lon="103.426517"><ele>696.07935</ele><time>2026-06-20T18:28:15.000Z</time></trkpt>
        <trkpt lat="29.5629" lon="103.426511"><ele>696.3528</ele><time>2026-06-20T18:28:17.000Z</time></trkpt>
        <trkpt lat="29.562881" lon="103.426504"><ele>696.70764</ele><time>2026-06-20T18:28:19.000Z</time></trkpt>
        <trkpt lat="29.562866" lon="103.426499"><ele>697.1326</ele><time>2026-06-20T18:28:21.000Z</time></trkpt>
        <trkpt lat="29.562847" lon="103.426492"><ele>697.5826</ele><time>2026-06-20T18:28:23.000Z</time></trkpt>
        <trkpt lat="29.562831" lon="103.426481"><ele>697.9384</ele><time>2026-06-20T18:28:25.000Z</time></trkpt>
        <trkpt lat="29.562817" lon="103.426473"><ele>698.21014</ele><time>2026-06-20T18:28:27.000Z</time></trkpt>
        <trkpt lat="29.562797" lon="103.426465"><ele>698.3838</ele><time>2026-06-20T18:28:29.000Z</time></trkpt>
        <trkpt lat="29.562773" lon="103.426457"><ele>698.4771</ele><time>2026-06-20T18:28:31.000Z</time></trkpt>
        <trkpt lat="29.562751" lon="103.42645"><ele>698.55664</ele><time>2026-06-20T18:28:33.000Z</time></trkpt>
        <trkpt lat="29.562733" lon="103.426446"><ele>698.583</ele><time>2026-06-20T18:28:35.000Z</time></trkpt>
        <trkpt lat="29.562715" lon="103.426448"><ele>698.60345</ele><time>2026-06-20T18:28:37.000Z</time></trkpt>
        <trkpt lat="29.5627" lon="103.426447"><ele>698.70807</ele><time>2026-06-20T18:28:39.000Z</time></trkpt>
        <trkpt lat="29.562685" lon="103.426446"><ele>698.94135</ele><time>2026-06-20T18:28:41.000Z</time></trkpt>
        <trkpt lat="29.562668" lon="103.426443"><ele>699.1047</ele><time>2026-06-20T18:28:43.000Z</time></trkpt>
        <trkpt lat="29.56265" lon="103.426441"><ele>699.1354</ele><time>2026-06-20T18:28:45.000Z</time></trkpt>
        <trkpt lat="29.562634" lon="103.426439"><ele>699.2075</ele><time>2026-06-20T18:28:47.000Z</time></trkpt>
        <trkpt lat="29.56262" lon="103.426436"><ele>699.3595</ele><time>2026-06-20T18:28:49.000Z</time></trkpt>
        <trkpt lat="29.562593" lon="103.426428"><ele>699.6084</ele><time>2026-06-20T18:28:53.000Z</time></trkpt>
        <trkpt lat="29.562581" lon="103.426426"><ele>699.882</ele><time>2026-06-20T18:28:55.000Z</time></trkpt>
        <trkpt lat="29.562569" lon="103.426426"><ele>700.18445</ele><time>2026-06-20T18:28:57.000Z</time></trkpt>
        <trkpt lat="29.562543" lon="103.426433"><ele>700.53784</ele><time>2026-06-20T18:29:01.000Z</time></trkpt>
        <trkpt lat="29.562535" lon="103.426436"><ele>700.981</ele><time>2026-06-20T18:29:03.000Z</time></trkpt>
        <trkpt lat="29.562521" lon="103.426439"><ele>701.4166</ele><time>2026-06-20T18:29:05.000Z</time></trkpt>
        <trkpt lat="29.562486" lon="103.426453"><ele>701.70984</ele><time>2026-06-20T18:29:09.000Z</time></trkpt>
        <trkpt lat="29.562477" lon="103.426458"><ele>701.99316</ele><time>2026-06-20T18:29:11.000Z</time></trkpt>
        <trkpt lat="29.562467" lon="103.426465"><ele>702.03754</ele><time>2026-06-20T18:29:13.000Z</time></trkpt>
        <trkpt lat="29.562443" lon="103.426477"><ele>702.03754</ele><time>2026-06-20T18:29:17.000Z</time></trkpt>
        <trkpt lat="29.562435" lon="103.426479"><ele>702.03754</ele><time>2026-06-20T18:29:19.000Z</time></trkpt>
        <trkpt lat="29.562429" lon="103.426479"><ele>702.03754</ele><time>2026-06-20T18:29:21.000Z</time></trkpt>
        <trkpt lat="29.562397" lon="103.426477"><ele>702.03754</ele><time>2026-06-20T18:29:41.000Z</time></trkpt>
        <trkpt lat="29.56237" lon="103.426475"><ele>702.03754</ele><time>2026-06-20T18:29:43.000Z</time></trkpt>
        <trkpt lat="29.562354" lon="103.426469"><ele>702.03754</ele><time>2026-06-20T18:29:49.000Z</time></trkpt>
        <trkpt lat="29.5623" lon="103.426449"><ele>702.03754</ele><time>2026-06-20T18:29:53.000Z</time></trkpt>
        <trkpt lat="29.5623" lon="103.426449"><ele>702.03754</ele><time>2026-06-20T18:29:55.000Z</time></trkpt>
        <trkpt lat="29.562299" lon="103.426448"><ele>702.0851</ele><time>2026-06-20T18:29:57.000Z</time></trkpt>
        <trkpt lat="29.562259" lon="103.426424"><ele>702.38525</ele><time>2026-06-20T18:30:05.000Z</time></trkpt>
        <trkpt lat="29.562255" lon="103.426419"><ele>702.8727</ele><time>2026-06-20T18:30:07.000Z</time></trkpt>
        <trkpt lat="29.562252" lon="103.426411"><ele>703.0183</ele><time>2026-06-20T18:30:09.000Z</time></trkpt>
        <trkpt lat="29.562241" lon="103.42638"><ele>703.0183</ele><time>2026-06-20T18:30:13.000Z</time></trkpt>
        <trkpt lat="29.562235" lon="103.426362"><ele>703.0183</ele><time>2026-06-20T18:30:15.000Z</time></trkpt>
        <trkpt lat="29.562229" lon="103.426343"><ele>703.0183</ele><time>2026-06-20T18:30:17.000Z</time></trkpt>
        <trkpt lat="29.56222" lon="103.426322"><ele>703.0183</ele><time>2026-06-20T18:30:19.000Z</time></trkpt>
        <trkpt lat="29.562211" lon="103.426303"><ele>702.4268</ele><time>2026-06-20T18:30:21.000Z</time></trkpt>
        <trkpt lat="29.562203" lon="103.426288"><ele>702.07715</ele><time>2026-06-20T18:30:23.000Z</time></trkpt>
        <trkpt lat="29.5622" lon="103.426278"><ele>702.07715</ele><time>2026-06-20T18:30:25.000Z</time></trkpt>
        <trkpt lat="29.562196" lon="103.426268"><ele>702.07715</ele><time>2026-06-20T18:30:27.000Z</time></trkpt>
        <trkpt lat="29.562191" lon="103.426253"><ele>702.07715</ele><time>2026-06-20T18:30:29.000Z</time></trkpt>
        <trkpt lat="29.562184" lon="103.426235"><ele>702.07715</ele><time>2026-06-20T18:30:31.000Z</time></trkpt>
        <trkpt lat="29.562175" lon="103.426217"><ele>702.2643</ele><time>2026-06-20T18:30:33.000Z</time></trkpt>
        <trkpt lat="29.562165" lon="103.426203"><ele>702.49426</ele><time>2026-06-20T18:30:35.000Z</time></trkpt>
        <trkpt lat="29.562154" lon="103.42619"><ele>702.5855</ele><time>2026-06-20T18:30:37.000Z</time></trkpt>
        <trkpt lat="29.56214" lon="103.426177"><ele>702.63556</ele><time>2026-06-20T18:30:39.000Z</time></trkpt>
        <trkpt lat="29.562126" lon="103.426163"><ele>702.6835</ele><time>2026-06-20T18:30:41.000Z</time></trkpt>
        <trkpt lat="29.562114" lon="103.426155"><ele>702.744</ele><time>2026-06-20T18:30:43.000Z</time></trkpt>
        <trkpt lat="29.562106" lon="103.426154"><ele>702.8089</ele><time>2026-06-20T18:30:45.000Z</time></trkpt>
        <trkpt lat="29.562083" lon="103.426149"><ele>702.84204</ele><time>2026-06-20T18:30:49.000Z</time></trkpt>
        <trkpt lat="29.562072" lon="103.426145"><ele>702.9226</ele><time>2026-06-20T18:30:51.000Z</time></trkpt>
        <trkpt lat="29.56206" lon="103.426144"><ele>703.1645</ele><time>2026-06-20T18:30:53.000Z</time></trkpt>
        <trkpt lat="29.562043" lon="103.426144"><ele>703.473</ele><time>2026-06-20T18:30:57.000Z</time></trkpt>
        <trkpt lat="29.562037" lon="103.426142"><ele>703.7879</ele><time>2026-06-20T18:31:02.000Z</time></trkpt>
        <trkpt lat="29.562024" lon="103.426143"><ele>704.00446</ele><time>2026-06-20T18:31:14.000Z</time></trkpt>
        <trkpt lat="29.562002" lon="103.426143"><ele>704.07336</ele><time>2026-06-20T18:31:20.000Z</time></trkpt>
        <trkpt lat="29.561994" lon="103.426142"><ele>704.12866</ele><time>2026-06-20T18:31:22.000Z</time></trkpt>
        <trkpt lat="29.561987" lon="103.426138"><ele>704.1429</ele><time>2026-06-20T18:31:24.000Z</time></trkpt>
        <trkpt lat="29.561938" lon="103.426106"><ele>704.18353</ele><time>2026-06-20T18:31:27.000Z</time></trkpt>
        <trkpt lat="29.561935" lon="103.426104"><ele>704.3199</ele><time>2026-06-20T18:31:29.000Z</time></trkpt>
        <trkpt lat="29.561935" lon="103.426104"><ele>704.46234</ele><time>2026-06-20T18:31:31.000Z</time></trkpt>
        <trkpt lat="29.561895" lon="103.426102"><ele>704.6004</ele><time>2026-06-20T18:31:39.000Z</time></trkpt>
        <trkpt lat="29.561893" lon="103.426101"><ele>704.73</ele><time>2026-06-20T18:31:41.000Z</time></trkpt>
        <trkpt lat="29.561892" lon="103.4261"><ele>704.7639</ele><time>2026-06-20T18:31:43.000Z</time></trkpt>
        <trkpt lat="29.561834" lon="103.426066"><ele>704.7798</ele><time>2026-06-20T18:32:30.000Z</time></trkpt>
        <trkpt lat="29.561833" lon="103.426067"><ele>705.34485</ele><time>2026-06-20T18:32:38.000Z</time></trkpt>
        <trkpt lat="29.561815" lon="103.42608"><ele>706.0151</ele><time>2026-06-20T18:32:40.000Z</time></trkpt>
        <trkpt lat="29.561757" lon="103.426042"><ele>706.2019</ele><time>2026-06-20T18:33:04.000Z</time></trkpt>
        <trkpt lat="29.561751" lon="103.426038"><ele>708.2418</ele><time>2026-06-20T18:33:14.000Z</time></trkpt>
        <trkpt lat="29.561751" lon="103.426038"><ele>710.27734</ele><time>2026-06-20T18:33:16.000Z</time></trkpt>
        <trkpt lat="29.56175" lon="103.425956"><ele>710.55817</ele><time>2026-06-20T18:33:24.000Z</time></trkpt>
        <trkpt lat="29.561752" lon="103.425934"><ele>711.4126</ele><time>2026-06-20T18:33:26.000Z</time></trkpt>
        <trkpt lat="29.561757" lon="103.425932"><ele>712.2134</ele><time>2026-06-20T18:33:28.000Z</time></trkpt>
        <trkpt lat="29.561795" lon="103.425901"><ele>712.3802</ele><time>2026-06-20T18:33:39.000Z</time></trkpt>
        <trkpt lat="29.5618" lon="103.425893"><ele>713.1423</ele><time>2026-06-20T18:33:41.000Z</time></trkpt>
        <trkpt lat="29.561812" lon="103.425872"><ele>714.16425</ele><time>2026-06-20T18:33:43.000Z</time></trkpt>
        <trkpt lat="29.561843" lon="103.425817"><ele>714.3941</ele><time>2026-06-20T18:33:47.000Z</time></trkpt>
        <trkpt lat="29.56186" lon="103.425791"><ele>714.3941</ele><time>2026-06-20T18:33:49.000Z</time></trkpt>
        <trkpt lat="29.561875" lon="103.425771"><ele>714.3941</ele><time>2026-06-20T18:33:51.000Z</time></trkpt>
        <trkpt lat="29.561882" lon="103.425763"><ele>714.4168</ele><time>2026-06-20T18:33:53.000Z</time></trkpt>
        <trkpt lat="29.561917" lon="103.425724"><ele>714.43304</ele><time>2026-06-20T18:34:00.000Z</time></trkpt>
        <trkpt lat="29.561917" lon="103.425724"><ele>714.4396</ele><time>2026-06-20T18:34:02.000Z</time></trkpt>
        <trkpt lat="29.561918" lon="103.425726"><ele>714.42334</ele><time>2026-06-20T18:34:06.000Z</time></trkpt>
        <trkpt lat="29.561885" lon="103.425666"><ele>714.3855</ele><time>2026-06-20T18:34:20.000Z</time></trkpt>
        <trkpt lat="29.561864" lon="103.425629"><ele>714.34216</ele><time>2026-06-20T18:34:25.000Z</time></trkpt>
        <trkpt lat="29.561864" lon="103.425629"><ele>714.3143</ele><time>2026-06-20T18:34:27.000Z</time></trkpt>
        <trkpt lat="29.561863" lon="103.425627"><ele>714.1047</ele><time>2026-06-20T18:34:29.000Z</time></trkpt>
        <trkpt lat="29.561839" lon="103.425585"><ele>712.5249</ele><time>2026-06-20T18:34:35.000Z</time></trkpt>
        <trkpt lat="29.561835" lon="103.425573"><ele>711.3135</ele><time>2026-06-20T18:34:37.000Z</time></trkpt>
        <trkpt lat="29.561831" lon="103.425559"><ele>711.3135</ele><time>2026-06-20T18:34:39.000Z</time></trkpt>
        <trkpt lat="29.561831" lon="103.425543"><ele>711.3135</ele><time>2026-06-20T18:34:43.000Z</time></trkpt>
        <trkpt lat="29.561829" lon="103.425518"><ele>711.3135</ele><time>2026-06-20T18:34:47.000Z</time></trkpt>
        <trkpt lat="29.561827" lon="103.425516"><ele>711.3135</ele><time>2026-06-20T18:34:51.000Z</time></trkpt>
        <trkpt lat="29.561804" lon="103.425485"><ele>711.6875</ele><time>2026-06-20T18:34:55.000Z</time></trkpt>
        <trkpt lat="29.561785" lon="103.425462"><ele>712.0787</ele><time>2026-06-20T18:34:56.000Z</time></trkpt>
        <trkpt lat="29.561757" lon="103.425435"><ele>712.60614</ele><time>2026-06-20T18:34:58.000Z</time></trkpt>
        <trkpt lat="29.561735" lon="103.425417"><ele>712.9721</ele><time>2026-06-20T18:35:00.000Z</time></trkpt>
        <trkpt lat="29.561718" lon="103.425402"><ele>713.37</ele><time>2026-06-20T18:35:02.000Z</time></trkpt>
        <trkpt lat="29.561709" lon="103.425391"><ele>713.96564</ele><time>2026-06-20T18:35:04.000Z</time></trkpt>
        <trkpt lat="29.561693" lon="103.425365"><ele>714.523</ele><time>2026-06-20T18:35:08.000Z</time></trkpt>
        <trkpt lat="29.561687" lon="103.425352"><ele>715.19196</ele><time>2026-06-20T18:35:10.000Z</time></trkpt>
        <trkpt lat="29.561678" lon="103.425346"><ele>715.87054</ele><time>2026-06-20T18:35:12.000Z</time></trkpt>
        <trkpt lat="29.56162" lon="103.425311"><ele>716.5562</ele><time>2026-06-20T18:35:23.000Z</time></trkpt>
        <trkpt lat="29.56162" lon="103.425311"><ele>717.4998</ele><time>2026-06-20T18:35:25.000Z</time></trkpt>
        <trkpt lat="29.561618" lon="103.42531"><ele>718.44135</ele><time>2026-06-20T18:35:27.000Z</time></trkpt>
        <trkpt lat="29.561572" lon="103.425278"><ele>719.0506</ele><time>2026-06-20T18:35:35.000Z</time></trkpt>
        <trkpt lat="29.561551" lon="103.425271"><ele>720.295</ele><time>2026-06-20T18:35:37.000Z</time></trkpt>
        <trkpt lat="29.561524" lon="103.42526"><ele>721.55945</ele><time>2026-06-20T18:35:39.000Z</time></trkpt>
        <trkpt lat="29.561518" lon="103.425249"><ele>721.9081</ele><time>2026-06-20T18:35:41.000Z</time></trkpt>
        <trkpt lat="29.561509" lon="103.425217"><ele>721.988</ele><time>2026-06-20T18:35:46.000Z</time></trkpt>
        <trkpt lat="29.561499" lon="103.425184"><ele>722.0136</ele><time>2026-06-20T18:35:50.000Z</time></trkpt>
        <trkpt lat="29.561492" lon="103.425164"><ele>722.3493</ele><time>2026-06-20T18:35:54.000Z</time></trkpt>
        <trkpt lat="29.561485" lon="103.425141"><ele>723.1357</ele><time>2026-06-20T18:35:58.000Z</time></trkpt>
        <trkpt lat="29.561467" lon="103.425088"><ele>724.39594</ele><time>2026-06-20T18:36:02.000Z</time></trkpt>
        <trkpt lat="29.56146" lon="103.425066"><ele>725.8647</ele><time>2026-06-20T18:36:04.000Z</time></trkpt>
        <trkpt lat="29.561458" lon="103.42506"><ele>727.1436</ele><time>2026-06-20T18:36:06.000Z</time></trkpt>
        <trkpt lat="29.561437" lon="103.42501"><ele>728.3388</ele><time>2026-06-20T18:36:25.000Z</time></trkpt>
        <trkpt lat="29.561428" lon="103.424989"><ele>728.89075</ele><time>2026-06-20T18:36:33.000Z</time></trkpt>
        <trkpt lat="29.561428" lon="103.424989"><ele>728.89105</ele><time>2026-06-20T18:36:35.000Z</time></trkpt>
        <trkpt lat="29.561427" lon="103.424933"><ele>728.89105</ele><time>2026-06-20T18:36:43.000Z</time></trkpt>
        <trkpt lat="29.561394" lon="103.424907"><ele>728.89105</ele><time>2026-06-20T18:36:53.000Z</time></trkpt>
        <trkpt lat="29.561362" lon="103.424882"><ele>728.89105</ele><time>2026-06-20T18:36:56.000Z</time></trkpt>
        <trkpt lat="29.561362" lon="103.424882"><ele>728.86646</ele><time>2026-06-20T18:36:58.000Z</time></trkpt>
        <trkpt lat="29.561326" lon="103.424874"><ele>728.8457</ele><time>2026-06-20T18:37:03.000Z</time></trkpt>
        <trkpt lat="29.561314" lon="103.424866"><ele>727.5547</ele><time>2026-06-20T18:37:05.000Z</time></trkpt>
        <trkpt lat="29.561315" lon="103.424858"><ele>726.4962</ele><time>2026-06-20T18:37:07.000Z</time></trkpt>
        <trkpt lat="29.561323" lon="103.42481"><ele>726.4962</ele><time>2026-06-20T18:37:11.000Z</time></trkpt>
        <trkpt lat="29.561329" lon="103.424791"><ele>726.2467</ele><time>2026-06-20T18:37:13.000Z</time></trkpt>
        <trkpt lat="29.561329" lon="103.424769"><ele>726.0822</ele><time>2026-06-20T18:37:15.000Z</time></trkpt>
        <trkpt lat="29.561329" lon="103.424748"><ele>725.8656</ele><time>2026-06-20T18:37:20.000Z</time></trkpt>
        <trkpt lat="29.561325" lon="103.424737"><ele>725.7411</ele><time>2026-06-20T18:37:22.000Z</time></trkpt>
        <trkpt lat="29.561311" lon="103.424707"><ele>725.7411</ele><time>2026-06-20T18:37:26.000Z</time></trkpt>
        <trkpt lat="29.561302" lon="103.424694"><ele>725.7411</ele><time>2026-06-20T18:37:28.000Z</time></trkpt>
        <trkpt lat="29.561289" lon="103.424683"><ele>725.36774</ele><time>2026-06-20T18:37:30.000Z</time></trkpt>
        <trkpt lat="29.561278" lon="103.424676"><ele>724.868</ele><time>2026-06-20T18:37:32.000Z</time></trkpt>
        <trkpt lat="29.561248" lon="103.42466"><ele>724.3847</ele><time>2026-06-20T18:37:36.000Z</time></trkpt>
        <trkpt lat="29.56123" lon="103.42465"><ele>724.3494</ele><time>2026-06-20T18:37:38.000Z</time></trkpt>
        <trkpt lat="29.561214" lon="103.424638"><ele>724.3494</ele><time>2026-06-20T18:37:40.000Z</time></trkpt>
        <trkpt lat="29.561202" lon="103.424624"><ele>724.3494</ele><time>2026-06-20T18:37:42.000Z</time></trkpt>
        <trkpt lat="29.561194" lon="103.424608"><ele>724.3494</ele><time>2026-06-20T18:37:44.000Z</time></trkpt>
        <trkpt lat="29.561186" lon="103.424587"><ele>724.3494</ele><time>2026-06-20T18:37:46.000Z</time></trkpt>
        <trkpt lat="29.56118" lon="103.424565"><ele>724.89935</ele><time>2026-06-20T18:37:48.000Z</time></trkpt>
        <trkpt lat="29.561178" lon="103.424543"><ele>725.4284</ele><time>2026-06-20T18:37:50.000Z</time></trkpt>
        <trkpt lat="29.561179" lon="103.424524"><ele>725.9562</ele><time>2026-06-20T18:37:52.000Z</time></trkpt>
        <trkpt lat="29.561178" lon="103.424507"><ele>726.29175</ele><time>2026-06-20T18:37:54.000Z</time></trkpt>
        <trkpt lat="29.561173" lon="103.424478"><ele>726.3404</ele><time>2026-06-20T18:37:58.000Z</time></trkpt>
        <trkpt lat="29.561164" lon="103.424454"><ele>726.3404</ele><time>2026-06-20T18:38:04.000Z</time></trkpt>
        <trkpt lat="29.561156" lon="103.42444"><ele>726.35046</ele><time>2026-06-20T18:38:06.000Z</time></trkpt>
        <trkpt lat="29.561141" lon="103.424417"><ele>726.4023</ele><time>2026-06-20T18:38:14.000Z</time></trkpt>
        <trkpt lat="29.561129" lon="103.424394"><ele>726.51324</ele><time>2026-06-20T18:38:20.000Z</time></trkpt>
        <trkpt lat="29.561123" lon="103.424373"><ele>726.54645</ele><time>2026-06-20T18:38:22.000Z</time></trkpt>
        <trkpt lat="29.561118" lon="103.424346"><ele>726.54645</ele><time>2026-06-20T18:38:24.000Z</time></trkpt>
        <trkpt lat="29.561115" lon="103.424322"><ele>726.54645</ele><time>2026-06-20T18:38:26.000Z</time></trkpt>
        <trkpt lat="29.561112" lon="103.424298"><ele>726.7755</ele><time>2026-06-20T18:38:28.000Z</time></trkpt>
        <trkpt lat="29.561108" lon="103.424277"><ele>726.9065</ele><time>2026-06-20T18:38:30.000Z</time></trkpt>
        <trkpt lat="29.561103" lon="103.424252"><ele>726.98425</ele><time>2026-06-20T18:38:32.000Z</time></trkpt>
        <trkpt lat="29.561097" lon="103.42423"><ele>727.0769</ele><time>2026-06-20T18:38:34.000Z</time></trkpt>
        <trkpt lat="29.561087" lon="103.424216"><ele>727.0966</ele><time>2026-06-20T18:38:36.000Z</time></trkpt>
        <trkpt lat="29.561069" lon="103.424186"><ele>727.12756</ele><time>2026-06-20T18:38:42.000Z</time></trkpt>
        <trkpt lat="29.561066" lon="103.424173"><ele>727.22797</ele><time>2026-06-20T18:38:44.000Z</time></trkpt>
        <trkpt lat="29.561064" lon="103.42415"><ele>727.3655</ele><time>2026-06-20T18:38:48.000Z</time></trkpt>
        <trkpt lat="29.56106" lon="103.424106"><ele>727.3954</ele><time>2026-06-20T18:38:52.000Z</time></trkpt>
        <trkpt lat="29.561063" lon="103.424087"><ele>727.4385</ele><time>2026-06-20T18:38:54.000Z</time></trkpt>
        <trkpt lat="29.561066" lon="103.424064"><ele>727.721</ele><time>2026-06-20T18:38:56.000Z</time></trkpt>
        <trkpt lat="29.561068" lon="103.424044"><ele>728.0712</ele><time>2026-06-20T18:38:58.000Z</time></trkpt>
        <trkpt lat="29.561071" lon="103.424024"><ele>728.5486</ele><time>2026-06-20T18:39:00.000Z</time></trkpt>
        <trkpt lat="29.561077" lon="103.424003"><ele>728.87286</ele><time>2026-06-20T18:39:02.000Z</time></trkpt>
        <trkpt lat="29.561085" lon="103.423975"><ele>728.87286</ele><time>2026-06-20T18:39:06.000Z</time></trkpt>
        <trkpt lat="29.561089" lon="103.423965"><ele>728.87286</ele><time>2026-06-20T18:39:08.000Z</time></trkpt>
        <trkpt lat="29.561098" lon="103.423938"><ele>728.87286</ele><time>2026-06-20T18:39:12.000Z</time></trkpt>
        <trkpt lat="29.561111" lon="103.423918"><ele>728.87286</ele><time>2026-06-20T18:39:16.000Z</time></trkpt>
        <trkpt lat="29.561115" lon="103.423911"><ele>728.86163</ele><time>2026-06-20T18:39:18.000Z</time></trkpt>
        <trkpt lat="29.561134" lon="103.423878"><ele>728.7154</ele><time>2026-06-20T18:39:27.000Z</time></trkpt>
        <trkpt lat="29.561118" lon="103.423857"><ele>728.61664</ele><time>2026-06-20T18:39:37.000Z</time></trkpt>
        <trkpt lat="29.561126" lon="103.423773"><ele>728.511</ele><time>2026-06-20T18:39:42.000Z</time></trkpt>
        <trkpt lat="29.561126" lon="103.423773"><ele>728.1289</ele><time>2026-06-20T18:39:44.000Z</time></trkpt>
        <trkpt lat="29.561125" lon="103.423772"><ele>727.76263</ele><time>2026-06-20T18:39:46.000Z</time></trkpt>
        <trkpt lat="29.561077" lon="103.423723"><ele>727.65796</ele><time>2026-06-20T18:39:52.000Z</time></trkpt>
        <trkpt lat="29.561064" lon="103.423704"><ele>727.25476</ele><time>2026-06-20T18:39:54.000Z</time></trkpt>
        <trkpt lat="29.561057" lon="103.423687"><ele>726.8808</ele><time>2026-06-20T18:39:56.000Z</time></trkpt>
        <trkpt lat="29.561044" lon="103.423658"><ele>726.8808</ele><time>2026-06-20T18:40:00.000Z</time></trkpt>
        <trkpt lat="29.561032" lon="103.423636"><ele>726.8808</ele><time>2026-06-20T18:40:02.000Z</time></trkpt>
        <trkpt lat="29.561029" lon="103.423626"><ele>726.8808</ele><time>2026-06-20T18:40:04.000Z</time></trkpt>
        <trkpt lat="29.561017" lon="103.42359"><ele>726.8808</ele><time>2026-06-20T18:40:12.000Z</time></trkpt>
        <trkpt lat="29.560995" lon="103.423523"><ele>727.00385</ele><time>2026-06-20T18:40:20.000Z</time></trkpt>
        <trkpt lat="29.560995" lon="103.423523"><ele>727.25854</ele><time>2026-06-20T18:40:22.000Z</time></trkpt>
        <trkpt lat="29.560978" lon="103.42352"><ele>727.52136</ele><time>2026-06-20T18:40:26.000Z</time></trkpt>
        <trkpt lat="29.560913" lon="103.423508"><ele>728.319</ele><time>2026-06-20T18:40:58.000Z</time></trkpt>
        <trkpt lat="29.560913" lon="103.423507"><ele>729.7801</ele><time>2026-06-20T18:41:00.000Z</time></trkpt>
        <trkpt lat="29.560908" lon="103.423451"><ele>730.5761</ele><time>2026-06-20T18:41:16.000Z</time></trkpt>
        <trkpt lat="29.560831" lon="103.423375"><ele>730.73083</ele><time>2026-06-20T18:41:36.000Z</time></trkpt>
        <trkpt lat="29.560817" lon="103.423362"><ele>731.7233</ele><time>2026-06-20T18:41:38.000Z</time></trkpt>
        <trkpt lat="29.560807" lon="103.423351"><ele>732.74365</ele><time>2026-06-20T18:41:40.000Z</time></trkpt>
        <trkpt lat="29.560773" lon="103.4233"><ele>732.93866</ele><time>2026-06-20T18:41:48.000Z</time></trkpt>
        <trkpt lat="29.560772" lon="103.423286"><ele>733.50653</ele><time>2026-06-20T18:41:50.000Z</time></trkpt>
        <trkpt lat="29.560777" lon="103.423261"><ele>734.1244</ele><time>2026-06-20T18:41:52.000Z</time></trkpt>
        <trkpt lat="29.56079" lon="103.423225"><ele>734.22644</ele><time>2026-06-20T18:41:54.000Z</time></trkpt>
        <trkpt lat="29.560808" lon="103.42319"><ele>734.36566</ele><time>2026-06-20T18:41:56.000Z</time></trkpt>
        <trkpt lat="29.560823" lon="103.423159"><ele>734.6189</ele><time>2026-06-20T18:41:58.000Z</time></trkpt>
        <trkpt lat="29.560832" lon="103.423139"><ele>734.6189</ele><time>2026-06-20T18:42:00.000Z</time></trkpt>
        <trkpt lat="29.560847" lon="103.423131"><ele>734.90015</ele><time>2026-06-20T18:42:02.000Z</time></trkpt>
        <trkpt lat="29.560754" lon="103.423183"><ele>734.90015</ele><time>2026-06-20T18:42:12.000Z</time></trkpt>
        <trkpt lat="29.560734" lon="103.423187"><ele>734.90015</ele><time>2026-06-20T18:42:14.000Z</time></trkpt>
        <trkpt lat="29.560713" lon="103.423191"><ele>734.90015</ele><time>2026-06-20T18:42:16.000Z</time></trkpt>
        <trkpt lat="29.560682" lon="103.423115"><ele>734.90015</ele><time>2026-06-20T18:42:42.000Z</time></trkpt>
        <trkpt lat="29.560659" lon="103.423061"><ele>734.78345</ele><time>2026-06-20T18:42:45.000Z</time></trkpt>
        <trkpt lat="29.560659" lon="103.423061"><ele>734.49927</ele><time>2026-06-20T18:42:47.000Z</time></trkpt>
        <trkpt lat="29.560626" lon="103.423032"><ele>734.49927</ele><time>2026-06-20T18:42:55.000Z</time></trkpt>
        <trkpt lat="29.560587" lon="103.423009"><ele>734.49927</ele><time>2026-06-20T18:42:59.000Z</time></trkpt>
        <trkpt lat="29.560565" lon="103.422995"><ele>734.49927</ele><time>2026-06-20T18:43:01.000Z</time></trkpt>
        <trkpt lat="29.560552" lon="103.422973"><ele>734.49927</ele><time>2026-06-20T18:43:03.000Z</time></trkpt>
        <trkpt lat="29.560533" lon="103.422929"><ele>734.6446</ele><time>2026-06-20T18:43:09.000Z</time></trkpt>
        <trkpt lat="29.560529" lon="103.422911"><ele>735.4236</ele><time>2026-06-20T18:43:11.000Z</time></trkpt>
        <trkpt lat="29.560527" lon="103.422891"><ele>736.4153</ele><time>2026-06-20T18:43:13.000Z</time></trkpt>
        <trkpt lat="29.560519" lon="103.422851"><ele>737.0787</ele><time>2026-06-20T18:43:17.000Z</time></trkpt>
        <trkpt lat="29.560513" lon="103.422841"><ele>738.25006</ele><time>2026-06-20T18:43:19.000Z</time></trkpt>
        <trkpt lat="29.560506" lon="103.422827"><ele>739.1932</ele><time>2026-06-20T18:43:23.000Z</time></trkpt>
        <trkpt lat="29.560487" lon="103.422787"><ele>739.42957</ele><time>2026-06-20T18:43:29.000Z</time></trkpt>
        <trkpt lat="29.560487" lon="103.42278"><ele>739.66547</ele><time>2026-06-20T18:43:31.000Z</time></trkpt>
        <trkpt lat="29.560489" lon="103.422773"><ele>739.8027</ele><time>2026-06-20T18:43:33.000Z</time></trkpt>
        <trkpt lat="29.560517" lon="103.422686"><ele>739.93353</ele><time>2026-06-20T18:43:46.000Z</time></trkpt>
        <trkpt lat="29.560517" lon="103.422686"><ele>740.2957</ele><time>2026-06-20T18:43:48.000Z</time></trkpt>
        <trkpt lat="29.560516" lon="103.422685"><ele>740.5791</ele><time>2026-06-20T18:43:50.000Z</time></trkpt>
        <trkpt lat="29.560466" lon="103.422645"><ele>740.64557</ele><time>2026-06-20T18:43:58.000Z</time></trkpt>
        <trkpt lat="29.560458" lon="103.422634"><ele>741.20294</ele><time>2026-06-20T18:44:00.000Z</time></trkpt>
        <trkpt lat="29.560455" lon="103.42262"><ele>741.6474</ele><time>2026-06-20T18:44:02.000Z</time></trkpt>
        <trkpt lat="29.560448" lon="103.42259"><ele>741.777</ele><time>2026-06-20T18:44:06.000Z</time></trkpt>
        <trkpt lat="29.560444" lon="103.42258"><ele>741.917</ele><time>2026-06-20T18:44:08.000Z</time></trkpt>
        <trkpt lat="29.560439" lon="103.422571"><ele>741.935</ele><time>2026-06-20T18:44:10.000Z</time></trkpt>
        <trkpt lat="29.560419" lon="103.422525"><ele>742.05994</ele><time>2026-06-20T18:44:48.000Z</time></trkpt>
        <trkpt lat="29.560413" lon="103.422518"><ele>742.05994</ele><time>2026-06-20T18:44:52.000Z</time></trkpt>
        <trkpt lat="29.560414" lon="103.422508"><ele>742.05994</ele><time>2026-06-20T18:45:01.000Z</time></trkpt>
        <trkpt lat="29.560412" lon="103.422426"><ele>742.05994</ele><time>2026-06-20T18:45:18.000Z</time></trkpt>
        <trkpt lat="29.560411" lon="103.422416"><ele>742.7295</ele><time>2026-06-20T18:45:22.000Z</time></trkpt>
        <trkpt lat="29.560411" lon="103.422416"><ele>743.7885</ele><time>2026-06-20T18:45:24.000Z</time></trkpt>
        <trkpt lat="29.560339" lon="103.422381"><ele>744.7811</ele><time>2026-06-20T18:45:51.000Z</time></trkpt>
        <trkpt lat="29.560341" lon="103.422356"><ele>745.4542</ele><time>2026-06-20T18:45:53.000Z</time></trkpt>
        <trkpt lat="29.560341" lon="103.422356"><ele>745.66797</ele><time>2026-06-20T18:45:56.000Z</time></trkpt>
        <trkpt lat="29.560295" lon="103.422321"><ele>745.7564</ele><time>2026-06-20T18:46:09.000Z</time></trkpt>
        <trkpt lat="29.560266" lon="103.422299"><ele>746.7023</ele><time>2026-06-20T18:46:12.000Z</time></trkpt>
        <trkpt lat="29.560266" lon="103.422299"><ele>747.932</ele><time>2026-06-20T18:46:14.000Z</time></trkpt>
        <trkpt lat="29.56023" lon="103.422308"><ele>748.2258</ele><time>2026-06-20T18:46:36.000Z</time></trkpt>
        <trkpt lat="29.560202" lon="103.422241"><ele>749.4302</ele><time>2026-06-20T18:47:50.000Z</time></trkpt>
        <trkpt lat="29.560188" lon="103.422211"><ele>750.7454</ele><time>2026-06-20T18:47:52.000Z</time></trkpt>
        <trkpt lat="29.560188" lon="103.422208"><ele>750.8663</ele><time>2026-06-20T18:47:54.000Z</time></trkpt>
        <trkpt lat="29.560166" lon="103.422129"><ele>752.64264</ele><time>2026-06-20T18:48:28.000Z</time></trkpt>
        <trkpt lat="29.560136" lon="103.422017"><ele>755.79956</ele><time>2026-06-20T18:48:51.000Z</time></trkpt>
        <trkpt lat="29.560136" lon="103.422017"><ele>757.5712</ele><time>2026-06-20T18:48:53.000Z</time></trkpt>
        <trkpt lat="29.560136" lon="103.422018"><ele>757.96265</ele><time>2026-06-20T18:48:55.000Z</time></trkpt>
        <trkpt lat="29.560093" lon="103.421969"><ele>758.8655</ele><time>2026-06-20T18:49:19.000Z</time></trkpt>
        <trkpt lat="29.56008" lon="103.421966"><ele>760.0915</ele><time>2026-06-20T18:49:21.000Z</time></trkpt>
        <trkpt lat="29.56004" lon="103.421957"><ele>760.4244</ele><time>2026-06-20T18:49:30.000Z</time></trkpt>
        <trkpt lat="29.560061" lon="103.421899"><ele>760.4342</ele><time>2026-06-20T18:49:49.000Z</time></trkpt>
        <trkpt lat="29.560042" lon="103.421888"><ele>761.0719</ele><time>2026-06-20T18:49:51.000Z</time></trkpt>
        <trkpt lat="29.559998" lon="103.421861"><ele>762.0052</ele><time>2026-06-20T18:50:15.000Z</time></trkpt>
        <trkpt lat="29.559989" lon="103.421849"><ele>763.05536</ele><time>2026-06-20T18:50:20.000Z</time></trkpt>
        <trkpt lat="29.559981" lon="103.42183"><ele>765.1536</ele><time>2026-06-20T18:50:26.000Z</time></trkpt>
        <trkpt lat="29.55996" lon="103.421777"><ele>766.51654</ele><time>2026-06-20T18:50:38.000Z</time></trkpt>
        <trkpt lat="29.559937" lon="103.421719"><ele>768.0001</ele><time>2026-06-20T18:51:13.000Z</time></trkpt>
        <trkpt lat="29.559937" lon="103.421719"><ele>769.9905</ele><time>2026-06-20T18:51:15.000Z</time></trkpt>
        <trkpt lat="29.559942" lon="103.421664"><ele>769.9905</ele><time>2026-06-20T18:51:31.000Z</time></trkpt>
        <trkpt lat="29.559948" lon="103.421599"><ele>769.9905</ele><time>2026-06-20T18:51:38.000Z</time></trkpt>
        <trkpt lat="29.559948" lon="103.421599"><ele>769.9905</ele><time>2026-06-20T18:51:40.000Z</time></trkpt>
        <trkpt lat="29.559921" lon="103.421574"><ele>769.9905</ele><time>2026-06-20T18:51:47.000Z</time></trkpt>
        <trkpt lat="29.559897" lon="103.421549"><ele>769.75256</ele><time>2026-06-20T18:51:51.000Z</time></trkpt>
        <trkpt lat="29.559888" lon="103.421535"><ele>768.98895</ele><time>2026-06-20T18:51:53.000Z</time></trkpt>
        <trkpt lat="29.559883" lon="103.42152"><ele>768.8714</ele><time>2026-06-20T18:51:55.000Z</time></trkpt>
        <trkpt lat="29.559876" lon="103.421488"><ele>768.7135</ele><time>2026-06-20T18:51:59.000Z</time></trkpt>
        <trkpt lat="29.559879" lon="103.421481"><ele>768.7135</ele><time>2026-06-20T18:52:01.000Z</time></trkpt>
        <trkpt lat="29.559885" lon="103.421459"><ele>768.7135</ele><time>2026-06-20T18:52:05.000Z</time></trkpt>
        <trkpt lat="29.559896" lon="103.421417"><ele>768.8714</ele><time>2026-06-20T18:52:11.000Z</time></trkpt>
        <trkpt lat="29.559896" lon="103.421417"><ele>768.8714</ele><time>2026-06-20T18:52:13.000Z</time></trkpt>
        <trkpt lat="29.559897" lon="103.421415"><ele>769.0268</ele><time>2026-06-20T18:52:17.000Z</time></trkpt>
        <trkpt lat="29.55994" lon="103.421362"><ele>770.3679</ele><time>2026-06-20T18:52:23.000Z</time></trkpt>
        <trkpt lat="29.55994" lon="103.421362"><ele>772.41284</ele><time>2026-06-20T18:52:25.000Z</time></trkpt>
        <trkpt lat="29.55994" lon="103.42136"><ele>773.3909</ele><time>2026-06-20T18:52:28.000Z</time></trkpt>
        <trkpt lat="29.559943" lon="103.421287"><ele>773.454</ele><time>2026-06-20T18:52:36.000Z</time></trkpt>
        <trkpt lat="29.559926" lon="103.421266"><ele>773.9064</ele><time>2026-06-20T18:52:38.000Z</time></trkpt>
        <trkpt lat="29.559914" lon="103.421252"><ele>774.29755</ele><time>2026-06-20T18:52:40.000Z</time></trkpt>
        <trkpt lat="29.559945" lon="103.421188"><ele>774.30164</ele><time>2026-06-20T18:53:26.000Z</time></trkpt>
        <trkpt lat="29.55995" lon="103.421177"><ele>774.4751</ele><time>2026-06-20T18:53:28.000Z</time></trkpt>
        <trkpt lat="29.55995" lon="103.421177"><ele>774.77344</ele><time>2026-06-20T18:53:30.000Z</time></trkpt>
        <trkpt lat="29.559914" lon="103.421058"><ele>775.11005</ele><time>2026-06-20T18:54:03.000Z</time></trkpt>
        <trkpt lat="29.559964" lon="103.421012"><ele>776.6528</ele><time>2026-06-20T18:54:18.000Z</time></trkpt>
        <trkpt lat="29.559964" lon="103.421012"><ele>777.98834</ele><time>2026-06-20T18:54:20.000Z</time></trkpt>
        <trkpt lat="29.559983" lon="103.420946"><ele>778.0302</ele><time>2026-06-20T18:54:31.000Z</time></trkpt>
        <trkpt lat="29.559913" lon="103.420935"><ele>779.6211</ele><time>2026-06-20T18:54:51.000Z</time></trkpt>
        <trkpt lat="29.559913" lon="103.420935"><ele>781.2375</ele><time>2026-06-20T18:54:53.000Z</time></trkpt>
        <trkpt lat="29.559915" lon="103.420934"><ele>781.3049</ele><time>2026-06-20T18:54:55.000Z</time></trkpt>
        <trkpt lat="29.559972" lon="103.420899"><ele>782.07214</ele><time>2026-06-20T18:55:31.000Z</time></trkpt>
        <trkpt lat="29.55993" lon="103.420819"><ele>782.95496</ele><time>2026-06-20T18:55:54.000Z</time></trkpt>
        <trkpt lat="29.55993" lon="103.420819"><ele>783.0713</ele><time>2026-06-20T18:55:56.000Z</time></trkpt>
        <trkpt lat="29.559931" lon="103.420816"><ele>783.0896</ele><time>2026-06-20T18:55:58.000Z</time></trkpt>
        <trkpt lat="29.55995" lon="103.420746"><ele>785.4701</ele><time>2026-06-20T18:56:06.000Z</time></trkpt>
        <trkpt lat="29.559955" lon="103.420726"><ele>789.81177</ele><time>2026-06-20T18:56:08.000Z</time></trkpt>
        <trkpt lat="29.559959" lon="103.420706"><ele>791.792</ele><time>2026-06-20T18:56:10.000Z</time></trkpt>
        <trkpt lat="29.559967" lon="103.420671"><ele>791.8325</ele><time>2026-06-20T18:56:14.000Z</time></trkpt>
        <trkpt lat="29.559966" lon="103.420662"><ele>792.8123</ele><time>2026-06-20T18:56:16.000Z</time></trkpt>
        <trkpt lat="29.559952" lon="103.420563"><ele>792.8123</ele><time>2026-06-20T18:59:46.000Z</time></trkpt>
        <trkpt lat="29.559967" lon="103.420551"><ele>792.9097</ele><time>2026-06-20T18:59:48.000Z</time></trkpt>
        <trkpt lat="29.559967" lon="103.42055"><ele>792.9108</ele><time>2026-06-20T18:59:50.000Z</time></trkpt>
        <trkpt lat="29.559966" lon="103.420472"><ele>794.0183</ele><time>2026-06-20T19:00:08.000Z</time></trkpt>
        <trkpt lat="29.560053" lon="103.420431"><ele>794.4506</ele><time>2026-06-20T19:00:16.000Z</time></trkpt>
        <trkpt lat="29.560053" lon="103.420431"><ele>794.65045</ele><time>2026-06-20T19:00:18.000Z</time></trkpt>
        <trkpt lat="29.56005" lon="103.420429"><ele>794.7088</ele><time>2026-06-20T19:00:20.000Z</time></trkpt>
        <trkpt lat="29.559997" lon="103.420402"><ele>794.882</ele><time>2026-06-20T19:00:26.000Z</time></trkpt>
        <trkpt lat="29.559996" lon="103.420381"><ele>795.11194</ele><time>2026-06-20T19:00:28.000Z</time></trkpt>
        <trkpt lat="29.560002" lon="103.420361"><ele>795.11194</ele><time>2026-06-20T19:00:30.000Z</time></trkpt>
        <trkpt lat="29.560019" lon="103.420332"><ele>795.21545</ele><time>2026-06-20T19:00:32.000Z</time></trkpt>
        <trkpt lat="29.560033" lon="103.420307"><ele>795.31903</ele><time>2026-06-20T19:00:34.000Z</time></trkpt>
        <trkpt lat="29.559869" lon="103.420317"><ele>795.5252</ele><time>2026-06-20T19:00:57.000Z</time></trkpt>
        <trkpt lat="29.559869" lon="103.420317"><ele>796.49286</ele><time>2026-06-20T19:00:59.000Z</time></trkpt>
        <trkpt lat="29.55987" lon="103.420318"><ele>796.49286</ele><time>2026-06-20T19:01:01.000Z</time></trkpt>
        <trkpt lat="29.559814" lon="103.420274"><ele>796.49286</ele><time>2026-06-20T19:01:17.000Z</time></trkpt>
        <trkpt lat="29.559815" lon="103.420248"><ele>798.9048</ele><time>2026-06-20T19:01:19.000Z</time></trkpt>
        <trkpt lat="29.559815" lon="103.420229"><ele>802.16064</ele><time>2026-06-20T19:01:26.000Z</time></trkpt>
        <trkpt lat="29.559818" lon="103.420182"><ele>802.1735</ele><time>2026-06-20T19:01:29.000Z</time></trkpt>
        <trkpt lat="29.559818" lon="103.420182"><ele>803.3912</ele><time>2026-06-20T19:01:31.000Z</time></trkpt>
        <trkpt lat="29.559842" lon="103.420156"><ele>804.92303</ele><time>2026-06-20T19:01:37.000Z</time></trkpt>
        <trkpt lat="29.559856" lon="103.420133"><ele>805.38116</ele><time>2026-06-20T19:01:39.000Z</time></trkpt>
        <trkpt lat="29.559865" lon="103.420109"><ele>805.911</ele><time>2026-06-20T19:01:41.000Z</time></trkpt>
        <trkpt lat="29.559867" lon="103.420089"><ele>806.3103</ele><time>2026-06-20T19:01:43.000Z</time></trkpt>
        <trkpt lat="29.559863" lon="103.420081"><ele>806.93097</ele><time>2026-06-20T19:01:45.000Z</time></trkpt>
        <trkpt lat="29.559848" lon="103.420067"><ele>807.90594</ele><time>2026-06-20T19:01:49.000Z</time></trkpt>
        <trkpt lat="29.559827" lon="103.42005"><ele>808.5274</ele><time>2026-06-20T19:01:53.000Z</time></trkpt>
        <trkpt lat="29.559817" lon="103.420049"><ele>808.8867</ele><time>2026-06-20T19:01:55.000Z</time></trkpt>
        <trkpt lat="29.559792" lon="103.420043"><ele>809.0118</ele><time>2026-06-20T19:02:01.000Z</time></trkpt>
        <trkpt lat="29.559764" lon="103.420039"><ele>809.05457</ele><time>2026-06-20T19:02:05.000Z</time></trkpt>
        <trkpt lat="29.559761" lon="103.420033"><ele>809.19</ele><time>2026-06-20T19:02:07.000Z</time></trkpt>
        <trkpt lat="29.559737" lon="103.419988"><ele>809.3679</ele><time>2026-06-20T19:02:17.000Z</time></trkpt>
        <trkpt lat="29.559752" lon="103.419977"><ele>809.94025</ele><time>2026-06-20T19:02:19.000Z</time></trkpt>
        <trkpt lat="29.559789" lon="103.419958"><ele>810.90155</ele><time>2026-06-20T19:02:21.000Z</time></trkpt>
        <trkpt lat="29.559819" lon="103.419943"><ele>811.58636</ele><time>2026-06-20T19:02:23.000Z</time></trkpt>
        <trkpt lat="29.55984" lon="103.419933"><ele>812.2239</ele><time>2026-06-20T19:02:25.000Z</time></trkpt>
        <trkpt lat="29.559848" lon="103.419938"><ele>812.8523</ele><time>2026-06-20T19:02:27.000Z</time></trkpt>
        <trkpt lat="29.559772" lon="103.419881"><ele>813.9283</ele><time>2026-06-20T19:02:39.000Z</time></trkpt>
        <trkpt lat="29.559761" lon="103.419875"><ele>816.21643</ele><time>2026-06-20T19:02:41.000Z</time></trkpt>
        <trkpt lat="29.559748" lon="103.419867"><ele>819.23517</ele><time>2026-06-20T19:02:43.000Z</time></trkpt>
        <trkpt lat="29.559794" lon="103.419817"><ele>822.3511</ele><time>2026-06-20T19:02:51.000Z</time></trkpt>
        <trkpt lat="29.559818" lon="103.419794"><ele>828.14386</ele><time>2026-06-20T19:02:53.000Z</time></trkpt>
        <trkpt lat="29.559841" lon="103.419773"><ele>832.8447</ele><time>2026-06-20T19:02:55.000Z</time></trkpt>
        <trkpt lat="29.559857" lon="103.419754"><ele>833.7035</ele><time>2026-06-20T19:02:57.000Z</time></trkpt>
        <trkpt lat="29.55987" lon="103.419736"><ele>835.1218</ele><time>2026-06-20T19:02:59.000Z</time></trkpt>
        <trkpt lat="29.559883" lon="103.419714"><ele>836.1941</ele><time>2026-06-20T19:03:01.000Z</time></trkpt>
        <trkpt lat="29.559888" lon="103.419682"><ele>836.1941</ele><time>2026-06-20T19:03:03.000Z</time></trkpt>
        <trkpt lat="29.559884" lon="103.41966"><ele>836.1941</ele><time>2026-06-20T19:03:05.000Z</time></trkpt>
        <trkpt lat="29.559875" lon="103.419642"><ele>836.1941</ele><time>2026-06-20T19:03:07.000Z</time></trkpt>
        <trkpt lat="29.559865" lon="103.419623"><ele>836.1941</ele><time>2026-06-20T19:03:09.000Z</time></trkpt>
        <trkpt lat="29.559857" lon="103.419607"><ele>836.0602</ele><time>2026-06-20T19:03:11.000Z</time></trkpt>
        <trkpt lat="29.559848" lon="103.419591"><ele>835.2086</ele><time>2026-06-20T19:03:13.000Z</time></trkpt>
        <trkpt lat="29.559841" lon="103.419577"><ele>833.9023</ele><time>2026-06-20T19:03:15.000Z</time></trkpt>
        <trkpt lat="29.559836" lon="103.419568"><ele>832.8353</ele><time>2026-06-20T19:03:17.000Z</time></trkpt>
        <trkpt lat="29.559828" lon="103.41955"><ele>832.2027</ele><time>2026-06-20T19:03:21.000Z</time></trkpt>
        <trkpt lat="29.559822" lon="103.419538"><ele>831.84894</ele><time>2026-06-20T19:03:25.000Z</time></trkpt>
        <trkpt lat="29.559813" lon="103.419534"><ele>831.5835</ele><time>2026-06-20T19:03:29.000Z</time></trkpt>
        <trkpt lat="29.559781" lon="103.419521"><ele>831.5835</ele><time>2026-06-20T19:03:37.000Z</time></trkpt>
        <trkpt lat="29.559781" lon="103.419521"><ele>831.5835</ele><time>2026-06-20T19:03:39.000Z</time></trkpt>
        <trkpt lat="29.559767" lon="103.419465"><ele>831.5835</ele><time>2026-06-20T19:03:54.000Z</time></trkpt>
        <trkpt lat="29.559758" lon="103.419437"><ele>831.5835</ele><time>2026-06-20T19:04:03.000Z</time></trkpt>
        <trkpt lat="29.559745" lon="103.419389"><ele>833.47174</ele><time>2026-06-20T19:04:06.000Z</time></trkpt>
        <trkpt lat="29.559745" lon="103.419389"><ele>835.4897</ele><time>2026-06-20T19:04:08.000Z</time></trkpt>
        <trkpt lat="29.55974" lon="103.419367"><ele>836.997</ele><time>2026-06-20T19:04:12.000Z</time></trkpt>
        <trkpt lat="29.55972" lon="103.41929"><ele>838.51587</ele><time>2026-06-20T19:04:16.000Z</time></trkpt>
        <trkpt lat="29.559709" lon="103.419255"><ele>838.51587</ele><time>2026-06-20T19:04:18.000Z</time></trkpt>
        <trkpt lat="29.559697" lon="103.419228"><ele>838.51587</ele><time>2026-06-20T19:04:20.000Z</time></trkpt>
        <trkpt lat="29.559684" lon="103.419211"><ele>838.51587</ele><time>2026-06-20T19:04:22.000Z</time></trkpt>
        <trkpt lat="29.559672" lon="103.4192"><ele>838.51587</ele><time>2026-06-20T19:04:24.000Z</time></trkpt>
        <trkpt lat="29.559662" lon="103.419195"><ele>838.20105</ele><time>2026-06-20T19:04:26.000Z</time></trkpt>
        <trkpt lat="29.559646" lon="103.41918"><ele>837.60046</ele><time>2026-06-20T19:04:30.000Z</time></trkpt>
        <trkpt lat="29.559629" lon="103.419157"><ele>837.55304</ele><time>2026-06-20T19:04:34.000Z</time></trkpt>
        <trkpt lat="29.559621" lon="103.41914"><ele>837.55304</ele><time>2026-06-20T19:04:36.000Z</time></trkpt>
        <trkpt lat="29.559614" lon="103.419119"><ele>837.55304</ele><time>2026-06-20T19:04:38.000Z</time></trkpt>
        <trkpt lat="29.559609" lon="103.419096"><ele>837.55304</ele><time>2026-06-20T19:04:40.000Z</time></trkpt>
        <trkpt lat="29.559608" lon="103.419071"><ele>837.55304</ele><time>2026-06-20T19:04:42.000Z</time></trkpt>
        <trkpt lat="29.559609" lon="103.419046"><ele>838.34674</ele><time>2026-06-20T19:04:44.000Z</time></trkpt>
        <trkpt lat="29.559603" lon="103.419035"><ele>839.6035</ele><time>2026-06-20T19:04:46.000Z</time></trkpt>
        <trkpt lat="29.559658" lon="103.419133"><ele>841.0851</ele><time>2026-06-20T19:05:27.000Z</time></trkpt>
        <trkpt lat="29.559661" lon="103.419136"><ele>842.8147</ele><time>2026-06-20T19:05:29.000Z</time></trkpt>
        <trkpt lat="29.559641" lon="103.419115"><ele>844.79456</ele><time>2026-06-20T19:05:48.000Z</time></trkpt>
        <trkpt lat="29.559781" lon="103.419118"><ele>846.72156</ele><time>2026-06-20T19:06:41.000Z</time></trkpt>
        <trkpt lat="29.559788" lon="103.419118"><ele>850.83154</ele><time>2026-06-20T19:06:43.000Z</time></trkpt>
        <trkpt lat="29.559797" lon="103.419109"><ele>854.29364</ele><time>2026-06-20T19:06:47.000Z</time></trkpt>
        <trkpt lat="29.559679" lon="103.419227"><ele>854.7555</ele><time>2026-06-20T19:07:51.000Z</time></trkpt>
        <trkpt lat="29.559707" lon="103.419244"><ele>854.7555</ele><time>2026-06-20T19:08:09.000Z</time></trkpt>
        <trkpt lat="29.559708" lon="103.419246"><ele>854.7555</ele><time>2026-06-20T19:08:11.000Z</time></trkpt>
        <trkpt lat="29.559655" lon="103.41909"><ele>855.04047</ele><time>2026-06-20T19:10:41.000Z</time></trkpt>
        <trkpt lat="29.559614" lon="103.41907"><ele>854.7555</ele><time>2026-06-20T19:10:43.000Z</time></trkpt>
        <trkpt lat="29.559588" lon="103.419065"><ele>854.7479</ele><time>2026-06-20T19:10:45.000Z</time></trkpt>
        <trkpt lat="29.55956" lon="103.41906"><ele>854.755</ele><time>2026-06-20T19:10:50.000Z</time></trkpt>
        <trkpt lat="29.559629" lon="103.419177"><ele>854.5211</ele><time>2026-06-20T19:11:02.000Z</time></trkpt>
        <trkpt lat="29.559637" lon="103.419196"><ele>854.4899</ele><time>2026-06-20T19:11:04.000Z</time></trkpt>
        <trkpt lat="29.559645" lon="103.419197"><ele>853.8838</ele><time>2026-06-20T19:11:06.000Z</time></trkpt>
        <trkpt lat="29.559732" lon="103.419217"><ele>853.8838</ele><time>2026-06-20T19:11:37.000Z</time></trkpt>
        <trkpt lat="29.55976" lon="103.419173"><ele>854.4899</ele><time>2026-06-20T19:11:49.000Z</time></trkpt>
        <trkpt lat="29.55976" lon="103.419173"><ele>854.5211</ele><time>2026-06-20T19:11:51.000Z</time></trkpt>
        <trkpt lat="29.559819" lon="103.419148"><ele>854.5211</ele><time>2026-06-20T19:13:06.000Z</time></trkpt>
        <trkpt lat="29.559853" lon="103.419102"><ele>855.11255</ele><time>2026-06-20T19:13:10.000Z</time></trkpt>
        <trkpt lat="29.559853" lon="103.419102"><ele>856.1552</ele><time>2026-06-20T19:13:12.000Z</time></trkpt>
        <trkpt lat="29.559882" lon="103.419099"><ele>856.61365</ele><time>2026-06-20T19:13:15.000Z</time></trkpt>
        <trkpt lat="29.559773" lon="103.419097"><ele>856.61365</ele><time>2026-06-20T19:13:38.000Z</time></trkpt>
        <trkpt lat="29.559751" lon="103.41909"><ele>856.61365</ele><time>2026-06-20T19:13:40.000Z</time></trkpt>
        <trkpt lat="29.559686" lon="103.419067"><ele>856.61365</ele><time>2026-06-20T19:13:58.000Z</time></trkpt>
        <trkpt lat="29.55968" lon="103.419064"><ele>856.376</ele><time>2026-06-20T19:14:00.000Z</time></trkpt>
        <trkpt lat="29.559679" lon="103.419064"><ele>855.91766</ele><time>2026-06-20T19:14:02.000Z</time></trkpt>
        <trkpt lat="29.559642" lon="103.41902"><ele>855.3195</ele><time>2026-06-20T19:14:14.000Z</time></trkpt>
        <trkpt lat="29.559642" lon="103.41902"><ele>854.9415</ele><time>2026-06-20T19:14:16.000Z</time></trkpt>
        <trkpt lat="29.559642" lon="103.41902"><ele>854.9333</ele><time>2026-06-20T19:14:18.000Z</time></trkpt>
        <trkpt lat="29.55962" lon="103.418968"><ele>854.9333</ele><time>2026-06-20T19:14:30.000Z</time></trkpt>
        <trkpt lat="29.559616" lon="103.418966"><ele>854.9333</ele><time>2026-06-20T19:14:32.000Z</time></trkpt>
        <trkpt lat="29.5596" lon="103.418963"><ele>854.9333</ele><time>2026-06-20T19:14:34.000Z</time></trkpt>
        <trkpt lat="29.55955" lon="103.418954"><ele>854.9415</ele><time>2026-06-20T19:14:47.000Z</time></trkpt>
        <trkpt lat="29.559534" lon="103.418951"><ele>855.59814</ele><time>2026-06-20T19:14:51.000Z</time></trkpt>
        <trkpt lat="29.559534" lon="103.418951"><ele>856.55066</ele><time>2026-06-20T19:14:53.000Z</time></trkpt>
        <trkpt lat="29.559512" lon="103.418901"><ele>857.1256</ele><time>2026-06-20T19:15:04.000Z</time></trkpt>
        <trkpt lat="29.559512" lon="103.418901"><ele>858.23456</ele><time>2026-06-20T19:15:06.000Z</time></trkpt>
        <trkpt lat="29.559511" lon="103.418901"><ele>859.4778</ele><time>2026-06-20T19:15:08.000Z</time></trkpt>
        <trkpt lat="29.559448" lon="103.418872"><ele>859.8919</ele><time>2026-06-20T19:15:19.000Z</time></trkpt>
        <trkpt lat="29.55943" lon="103.418861"><ele>859.8919</ele><time>2026-06-20T19:15:21.000Z</time></trkpt>
        <trkpt lat="29.559411" lon="103.418851"><ele>859.8919</ele><time>2026-06-20T19:15:23.000Z</time></trkpt>
        <trkpt lat="29.559393" lon="103.418842"><ele>859.8919</ele><time>2026-06-20T19:15:25.000Z</time></trkpt>
        <trkpt lat="29.55937" lon="103.41882"><ele>859.8919</ele><time>2026-06-20T19:15:29.000Z</time></trkpt>
        <trkpt lat="29.559348" lon="103.4188"><ele>860.43866</ele><time>2026-06-20T19:15:35.000Z</time></trkpt>
        <trkpt lat="29.559336" lon="103.41879"><ele>861.15906</ele><time>2026-06-20T19:15:37.000Z</time></trkpt>
        <trkpt lat="29.559299" lon="103.418755"><ele>860.90015</ele><time>2026-06-20T19:15:43.000Z</time></trkpt>
        <trkpt lat="29.559297" lon="103.418744"><ele>860.48175</ele><time>2026-06-20T19:15:45.000Z</time></trkpt>
        <trkpt lat="29.559292" lon="103.418713"><ele>859.931</ele><time>2026-06-20T19:15:49.000Z</time></trkpt>
        <trkpt lat="29.559283" lon="103.418662"><ele>859.931</ele><time>2026-06-20T19:15:57.000Z</time></trkpt>
        <trkpt lat="29.559275" lon="103.418653"><ele>860.48175</ele><time>2026-06-20T19:16:01.000Z</time></trkpt>
        <trkpt lat="29.559226" lon="103.418611"><ele>860.9527</ele><time>2026-06-20T19:16:07.000Z</time></trkpt>
        <trkpt lat="29.559202" lon="103.418596"><ele>861.2117</ele><time>2026-06-20T19:16:09.000Z</time></trkpt>
        <trkpt lat="29.559194" lon="103.418578"><ele>861.3695</ele><time>2026-06-20T19:16:11.000Z</time></trkpt>
        <trkpt lat="29.559175" lon="103.418521"><ele>861.8205</ele><time>2026-06-20T19:16:41.000Z</time></trkpt>
        <trkpt lat="29.559166" lon="103.41848"><ele>862.55145</ele><time>2026-06-20T19:16:45.000Z</time></trkpt>
        <trkpt lat="29.559168" lon="103.418462"><ele>862.8385</ele><time>2026-06-20T19:16:52.000Z</time></trkpt>
        <trkpt lat="29.559173" lon="103.418432"><ele>863.2295</ele><time>2026-06-20T19:17:01.000Z</time></trkpt>
        <trkpt lat="29.559383" lon="103.41835"><ele>863.6597</ele><time>2026-06-20T19:17:11.000Z</time></trkpt>
        <trkpt lat="29.559405" lon="103.418355"><ele>863.855</ele><time>2026-06-20T19:17:13.000Z</time></trkpt>
        <trkpt lat="29.559426" lon="103.418353"><ele>864.22296</ele><time>2026-06-20T19:17:15.000Z</time></trkpt>
        <trkpt lat="29.559455" lon="103.418353"><ele>864.6647</ele><time>2026-06-20T19:17:19.000Z</time></trkpt>
        <trkpt lat="29.559184" lon="103.418347"><ele>869.646</ele><time>2026-06-20T19:17:37.000Z</time></trkpt>
        <trkpt lat="29.559135" lon="103.418264"><ele>875.4401</ele><time>2026-06-20T19:17:43.000Z</time></trkpt>
        <trkpt lat="29.559135" lon="103.418264"><ele>876.4546</ele><time>2026-06-20T19:17:45.000Z</time></trkpt>
        <trkpt lat="29.559136" lon="103.418264"><ele>876.461</ele><time>2026-06-20T19:17:47.000Z</time></trkpt>
        <trkpt lat="29.559009" lon="103.418261"><ele>876.461</ele><time>2026-06-20T19:17:53.000Z</time></trkpt>
        <trkpt lat="29.558924" lon="103.418189"><ele>876.461</ele><time>2026-06-20T19:17:57.000Z</time></trkpt>
        <trkpt lat="29.558924" lon="103.418189"><ele>876.461</ele><time>2026-06-20T19:17:59.000Z</time></trkpt>
        <trkpt lat="29.558925" lon="103.418187"><ele>876.4546</ele><time>2026-06-20T19:18:01.000Z</time></trkpt>
        <trkpt lat="29.558941" lon="103.418116"><ele>875.7678</ele><time>2026-06-20T19:18:09.000Z</time></trkpt>
        <trkpt lat="29.558948" lon="103.418086"><ele>872.81604</ele><time>2026-06-20T19:18:11.000Z</time></trkpt>
        <trkpt lat="29.558952" lon="103.418063"><ele>870.54785</ele><time>2026-06-20T19:18:13.000Z</time></trkpt>
        <trkpt lat="29.558956" lon="103.418037"><ele>870.4507</ele><time>2026-06-20T19:18:15.000Z</time></trkpt>
        <trkpt lat="29.558879" lon="103.418049"><ele>870.045</ele><time>2026-06-20T19:18:23.000Z</time></trkpt>
        <trkpt lat="29.558876" lon="103.418047"><ele>869.9495</ele><time>2026-06-20T19:18:25.000Z</time></trkpt>
        <trkpt lat="29.558876" lon="103.418044"><ele>869.9495</ele><time>2026-06-20T19:18:27.000Z</time></trkpt>
        <trkpt lat="29.558878" lon="103.417973"><ele>869.9495</ele><time>2026-06-20T19:18:37.000Z</time></trkpt>
        <trkpt lat="29.55888" lon="103.417956"><ele>869.9495</ele><time>2026-06-20T19:18:39.000Z</time></trkpt>
        <trkpt lat="29.558883" lon="103.417931"><ele>869.9495</ele><time>2026-06-20T19:18:41.000Z</time></trkpt>
        <trkpt lat="29.558889" lon="103.417906"><ele>870.4547</ele><time>2026-06-20T19:18:43.000Z</time></trkpt>
        <trkpt lat="29.558893" lon="103.417886"><ele>870.633</ele><time>2026-06-20T19:18:45.000Z</time></trkpt>
        <trkpt lat="29.558896" lon="103.417863"><ele>870.633</ele><time>2026-06-20T19:18:47.000Z</time></trkpt>
        <trkpt lat="29.558899" lon="103.417836"><ele>870.633</ele><time>2026-06-20T19:18:49.000Z</time></trkpt>
        <trkpt lat="29.558903" lon="103.417811"><ele>870.633</ele><time>2026-06-20T19:18:51.000Z</time></trkpt>
        <trkpt lat="29.558907" lon="103.417792"><ele>870.633</ele><time>2026-06-20T19:18:53.000Z</time></trkpt>
        <trkpt lat="29.558909" lon="103.417768"><ele>870.1832</ele><time>2026-06-20T19:18:57.000Z</time></trkpt>
        <trkpt lat="29.558907" lon="103.41775"><ele>869.4933</ele><time>2026-06-20T19:19:01.000Z</time></trkpt>
        <trkpt lat="29.558897" lon="103.417675"><ele>868.72614</ele><time>2026-06-20T19:19:08.000Z</time></trkpt>
        <trkpt lat="29.558897" lon="103.417675"><ele>867.78973</ele><time>2026-06-20T19:19:10.000Z</time></trkpt>
        <trkpt lat="29.558897" lon="103.417673"><ele>865.58844</ele><time>2026-06-20T19:19:12.000Z</time></trkpt>
        <trkpt lat="29.558901" lon="103.417596"><ele>863.3645</ele><time>2026-06-20T19:19:34.000Z</time></trkpt>
        <trkpt lat="29.558902" lon="103.417572"><ele>863.05945</ele><time>2026-06-20T19:19:36.000Z</time></trkpt>
        <trkpt lat="29.558902" lon="103.417571"><ele>863.05945</ele><time>2026-06-20T19:19:38.000Z</time></trkpt>
        <trkpt lat="29.558902" lon="103.417511"><ele>863.05945</ele><time>2026-06-20T19:19:41.000Z</time></trkpt>
        <trkpt lat="29.558902" lon="103.417484"><ele>863.05945</ele><time>2026-06-20T19:19:55.000Z</time></trkpt>
        <trkpt lat="29.558904" lon="103.417475"><ele>863.05945</ele><time>2026-06-20T19:19:57.000Z</time></trkpt>
        <trkpt lat="29.558917" lon="103.417382"><ele>863.2986</ele><time>2026-06-20T19:20:21.000Z</time></trkpt>
        <trkpt lat="29.558926" lon="103.417324"><ele>863.5249</ele><time>2026-06-20T19:20:25.000Z</time></trkpt>
        <trkpt lat="29.558926" lon="103.417324"><ele>864.41266</ele><time>2026-06-20T19:20:27.000Z</time></trkpt>
        <trkpt lat="29.558898" lon="103.417275"><ele>865.1588</ele><time>2026-06-20T19:20:36.000Z</time></trkpt>
        <trkpt lat="29.558879" lon="103.417231"><ele>866.72876</ele><time>2026-06-20T19:20:46.000Z</time></trkpt>
        <trkpt lat="29.558874" lon="103.417211"><ele>868.4824</ele><time>2026-06-20T19:20:48.000Z</time></trkpt>
        <trkpt lat="29.558871" lon="103.41719"><ele>868.7498</ele><time>2026-06-20T19:20:50.000Z</time></trkpt>
        <trkpt lat="29.558865" lon="103.417139"><ele>869.13824</ele><time>2026-06-20T19:20:56.000Z</time></trkpt>
        <trkpt lat="29.558865" lon="103.417128"><ele>870.04004</ele><time>2026-06-20T19:20:58.000Z</time></trkpt>
        <trkpt lat="29.55886" lon="103.417107"><ele>870.8026</ele><time>2026-06-20T19:21:02.000Z</time></trkpt>
        <trkpt lat="29.558849" lon="103.417059"><ele>871.27466</ele><time>2026-06-20T19:21:10.000Z</time></trkpt>
        <trkpt lat="29.558845" lon="103.417052"><ele>872.06635</ele><time>2026-06-20T19:21:12.000Z</time></trkpt>
        <trkpt lat="29.558834" lon="103.417027"><ele>872.9302</ele><time>2026-06-20T19:21:18.000Z</time></trkpt>
        <trkpt lat="29.558816" lon="103.416987"><ele>873.7824</ele><time>2026-06-20T19:21:59.000Z</time></trkpt>
        <trkpt lat="29.558809" lon="103.416969"><ele>875.4712</ele><time>2026-06-20T19:22:03.000Z</time></trkpt>
        <trkpt lat="29.558774" lon="103.41698"><ele>876.80347</ele><time>2026-06-20T19:22:11.000Z</time></trkpt>
        <trkpt lat="29.558721" lon="103.416953"><ele>877.39795</ele><time>2026-06-20T19:22:15.000Z</time></trkpt>
        <trkpt lat="29.558721" lon="103.416953"><ele>877.8868</ele><time>2026-06-20T19:22:17.000Z</time></trkpt>
        <trkpt lat="29.558719" lon="103.416952"><ele>878.3065</ele><time>2026-06-20T19:22:19.000Z</time></trkpt>
        <trkpt lat="29.558667" lon="103.416912"><ele>878.6333</ele><time>2026-06-20T19:22:29.000Z</time></trkpt>
        <trkpt lat="29.558662" lon="103.416903"><ele>878.6692</ele><time>2026-06-20T19:22:31.000Z</time></trkpt>
        <trkpt lat="29.558654" lon="103.416902"><ele>878.6692</ele><time>2026-06-20T19:22:33.000Z</time></trkpt>
        <trkpt lat="29.55861" lon="103.416896"><ele>878.6692</ele><time>2026-06-20T19:22:49.000Z</time></trkpt>
        <trkpt lat="29.558603" lon="103.416893"><ele>879.3142</ele><time>2026-06-20T19:22:51.000Z</time></trkpt>
        <trkpt lat="29.558598" lon="103.41689"><ele>879.92773</ele><time>2026-06-20T19:22:53.000Z</time></trkpt>
        <trkpt lat="29.558565" lon="103.416865"><ele>879.93677</ele><time>2026-06-20T19:23:03.000Z</time></trkpt>
        <trkpt lat="29.558565" lon="103.416865"><ele>880.6588</ele><time>2026-06-20T19:23:05.000Z</time></trkpt>
        <trkpt lat="29.558551" lon="103.416877"><ele>881.5482</ele><time>2026-06-20T19:23:11.000Z</time></trkpt>
        <trkpt lat="29.558526" lon="103.416898"><ele>881.7707</ele><time>2026-06-20T19:23:19.000Z</time></trkpt>
        <trkpt lat="29.558521" lon="103.416901"><ele>882.73773</ele><time>2026-06-20T19:23:21.000Z</time></trkpt>
        <trkpt lat="29.558519" lon="103.416899"><ele>883.782</ele><time>2026-06-20T19:23:23.000Z</time></trkpt>
        <trkpt lat="29.55849" lon="103.416872"><ele>884.10596</ele><time>2026-06-20T19:23:41.000Z</time></trkpt>
        <trkpt lat="29.558489" lon="103.41687"><ele>884.5916</ele><time>2026-06-20T19:23:43.000Z</time></trkpt>
        <trkpt lat="29.558488" lon="103.41687"><ele>884.8983</ele><time>2026-06-20T19:23:45.000Z</time></trkpt>
        <trkpt lat="29.558433" lon="103.416897"><ele>885.00073</ele><time>2026-06-20T19:24:31.000Z</time></trkpt>
        <trkpt lat="29.55836" lon="103.416931"><ele>885.84863</ele><time>2026-06-20T19:24:45.000Z</time></trkpt>
        <trkpt lat="29.558358" lon="103.416931"><ele>886.63403</ele><time>2026-06-20T19:24:49.000Z</time></trkpt>
        <trkpt lat="29.558325" lon="103.416919"><ele>886.7586</ele><time>2026-06-20T19:24:53.000Z</time></trkpt>
        <trkpt lat="29.558312" lon="103.416913"><ele>887.80884</ele><time>2026-06-20T19:24:59.000Z</time></trkpt>
        <trkpt lat="29.558289" lon="103.416907"><ele>888.77856</ele><time>2026-06-20T19:25:01.000Z</time></trkpt>
        <trkpt lat="29.558263" lon="103.416904"><ele>888.82904</ele><time>2026-06-20T19:25:03.000Z</time></trkpt>
        <trkpt lat="29.558243" lon="103.416901"><ele>888.9363</ele><time>2026-06-20T19:25:05.000Z</time></trkpt>
        <trkpt lat="29.558222" lon="103.416896"><ele>889.1649</ele><time>2026-06-20T19:25:07.000Z</time></trkpt>
        <trkpt lat="29.558198" lon="103.416889"><ele>889.44446</ele><time>2026-06-20T19:25:09.000Z</time></trkpt>
        <trkpt lat="29.558179" lon="103.416883"><ele>889.7598</ele><time>2026-06-20T19:25:11.000Z</time></trkpt>
        <trkpt lat="29.558162" lon="103.416878"><ele>889.8854</ele><time>2026-06-20T19:25:13.000Z</time></trkpt>
        <trkpt lat="29.558148" lon="103.416873"><ele>889.8854</ele><time>2026-06-20T19:25:15.000Z</time></trkpt>
        <trkpt lat="29.558123" lon="103.416863"><ele>889.95</ele><time>2026-06-20T19:25:19.000Z</time></trkpt>
        <trkpt lat="29.558123" lon="103.416862"><ele>889.9815</ele><time>2026-06-20T19:25:21.000Z</time></trkpt>
        <trkpt lat="29.558138" lon="103.416791"><ele>890.0518</ele><time>2026-06-20T19:25:31.000Z</time></trkpt>
        <trkpt lat="29.558138" lon="103.416791"><ele>890.11285</ele><time>2026-06-20T19:25:33.000Z</time></trkpt>
        <trkpt lat="29.558136" lon="103.416789"><ele>890.12646</ele><time>2026-06-20T19:25:35.000Z</time></trkpt>
        <trkpt lat="29.558082" lon="103.416733"><ele>890.12646</ele><time>2026-06-20T19:25:56.000Z</time></trkpt>
        <trkpt lat="29.558089" lon="103.416712"><ele>891.73914</ele><time>2026-06-20T19:26:02.000Z</time></trkpt>
        <trkpt lat="29.558089" lon="103.416713"><ele>893.3219</ele><time>2026-06-20T19:26:04.000Z</time></trkpt>
        <trkpt lat="29.558131" lon="103.416653"><ele>893.32446</ele><time>2026-06-20T19:26:25.000Z</time></trkpt>
        <trkpt lat="29.558171" lon="103.416672"><ele>894.33527</ele><time>2026-06-20T19:26:35.000Z</time></trkpt>
        <trkpt lat="29.558171" lon="103.416672"><ele>895.91174</ele><time>2026-06-20T19:26:37.000Z</time></trkpt>
        <trkpt lat="29.558048" lon="103.416688"><ele>896.481</ele><time>2026-06-20T19:32:04.000Z</time></trkpt>
        <trkpt lat="29.558027" lon="103.416691"><ele>897.22833</ele><time>2026-06-20T19:32:16.000Z</time></trkpt>
        <trkpt lat="29.558046" lon="103.416692"><ele>897.9748</ele><time>2026-06-20T19:32:18.000Z</time></trkpt>
        <trkpt lat="29.558151" lon="103.416695"><ele>897.9748</ele><time>2026-06-20T19:34:29.000Z</time></trkpt>
        <trkpt lat="29.558164" lon="103.416695"><ele>897.9748</ele><time>2026-06-20T19:34:31.000Z</time></trkpt>
        <trkpt lat="29.558165" lon="103.416696"><ele>897.9748</ele><time>2026-06-20T19:34:33.000Z</time></trkpt>
        <trkpt lat="29.558041" lon="103.416687"><ele>897.9748</ele><time>2026-06-20T19:35:48.000Z</time></trkpt>
        <trkpt lat="29.558041" lon="103.416687"><ele>897.67633</ele><time>2026-06-20T19:35:50.000Z</time></trkpt>
        <trkpt lat="29.558041" lon="103.416686"><ele>896.9247</ele><time>2026-06-20T19:35:52.000Z</time></trkpt>
        <trkpt lat="29.558052" lon="103.416558"><ele>896.9247</ele><time>2026-06-20T19:37:19.000Z</time></trkpt>
        <trkpt lat="29.558052" lon="103.416558"><ele>896.9247</ele><time>2026-06-20T19:37:21.000Z</time></trkpt>
        <trkpt lat="29.558052" lon="103.416558"><ele>896.9247</ele><time>2026-06-20T19:37:23.000Z</time></trkpt>
        <trkpt lat="29.558134" lon="103.416544"><ele>896.9247</ele><time>2026-06-20T19:39:00.000Z</time></trkpt>
        <trkpt lat="29.558156" lon="103.416539"><ele>899.63763</ele><time>2026-06-20T19:39:02.000Z</time></trkpt>
        <trkpt lat="29.558157" lon="103.416538"><ele>902.8114</ele><time>2026-06-20T19:39:04.000Z</time></trkpt>
        <trkpt lat="29.5582" lon="103.416494"><ele>902.8189</ele><time>2026-06-20T19:39:19.000Z</time></trkpt>
        <trkpt lat="29.558224" lon="103.416473"><ele>902.96716</ele><time>2026-06-20T19:39:25.000Z</time></trkpt>
        <trkpt lat="29.558233" lon="103.416465"><ele>903.12256</ele><time>2026-06-20T19:39:27.000Z</time></trkpt>
        <trkpt lat="29.558268" lon="103.41643"><ele>903.12256</ele><time>2026-06-20T19:39:37.000Z</time></trkpt>
        <trkpt lat="29.55829" lon="103.416415"><ele>903.12256</ele><time>2026-06-20T19:39:41.000Z</time></trkpt>
        <trkpt lat="29.558294" lon="103.416408"><ele>903.12256</ele><time>2026-06-20T19:39:55.000Z</time></trkpt>
        <trkpt lat="29.558342" lon="103.416322"><ele>903.12256</ele><time>2026-06-20T19:40:24.000Z</time></trkpt>
        <trkpt lat="29.558342" lon="103.416322"><ele>902.84875</ele><time>2026-06-20T19:40:26.000Z</time></trkpt>
        <trkpt lat="29.558342" lon="103.416321"><ele>902.5629</ele><time>2026-06-20T19:40:28.000Z</time></trkpt>
        <trkpt lat="29.558363" lon="103.416212"><ele>902.5629</ele><time>2026-06-20T19:40:45.000Z</time></trkpt>
        <trkpt lat="29.558363" lon="103.416212"><ele>902.5629</ele><time>2026-06-20T19:40:47.000Z</time></trkpt>
        <trkpt lat="29.558363" lon="103.416209"><ele>902.5629</ele><time>2026-06-20T19:40:49.000Z</time></trkpt>
        <trkpt lat="29.558372" lon="103.416148"><ele>902.5629</ele><time>2026-06-20T19:40:55.000Z</time></trkpt>
        <trkpt lat="29.558375" lon="103.416133"><ele>903.2592</ele><time>2026-06-20T19:40:57.000Z</time></trkpt>
        <trkpt lat="29.558372" lon="103.41613"><ele>903.97876</ele><time>2026-06-20T19:40:59.000Z</time></trkpt>
        <trkpt lat="29.558326" lon="103.416083"><ele>903.97876</ele><time>2026-06-20T19:41:36.000Z</time></trkpt>
        <trkpt lat="29.558326" lon="103.416083"><ele>903.97876</ele><time>2026-06-20T19:41:38.000Z</time></trkpt>
        <trkpt lat="29.558326" lon="103.416083"><ele>903.97876</ele><time>2026-06-20T19:41:40.000Z</time></trkpt>
        <trkpt lat="29.558315" lon="103.416011"><ele>903.98285</ele><time>2026-06-20T19:42:00.000Z</time></trkpt>
        <trkpt lat="29.558309" lon="103.415975"><ele>904.14764</ele><time>2026-06-20T19:42:07.000Z</time></trkpt>
        <trkpt lat="29.558309" lon="103.415975"><ele>904.3365</ele><time>2026-06-20T19:42:09.000Z</time></trkpt>
        <trkpt lat="29.558297" lon="103.415951"><ele>904.4441</ele><time>2026-06-20T19:42:17.000Z</time></trkpt>
        <trkpt lat="29.558271" lon="103.415897"><ele>905.0804</ele><time>2026-06-20T19:42:23.000Z</time></trkpt>
        <trkpt lat="29.558271" lon="103.415897"><ele>906.46277</ele><time>2026-06-20T19:42:25.000Z</time></trkpt>
        <trkpt lat="29.558271" lon="103.415897"><ele>907.29364</ele><time>2026-06-20T19:42:27.000Z</time></trkpt>
        <trkpt lat="29.558246" lon="103.415784"><ele>908.046</ele><time>2026-06-20T19:42:43.000Z</time></trkpt>
        <trkpt lat="29.558246" lon="103.415784"><ele>909.63635</ele><time>2026-06-20T19:42:45.000Z</time></trkpt>
        <trkpt lat="29.558245" lon="103.415783"><ele>910.48065</ele><time>2026-06-20T19:42:47.000Z</time></trkpt>
        <trkpt lat="29.558147" lon="103.415693"><ele>910.486</ele><time>2026-06-20T19:43:24.000Z</time></trkpt>
        <trkpt lat="29.558166" lon="103.415711"><ele>912.0086</ele><time>2026-06-20T19:43:08.000Z</time></trkpt>
        <trkpt lat="29.558078" lon="103.415701"><ele>913.531</ele><time>2026-06-20T19:43:37.000Z</time></trkpt>
        <trkpt lat="29.558058" lon="103.415699"><ele>913.5608</ele><time>2026-06-20T19:43:40.000Z</time></trkpt>
        <trkpt lat="29.558058" lon="103.415699"><ele>916.3255</ele><time>2026-06-20T19:43:42.000Z</time></trkpt>
        <trkpt lat="29.55802" lon="103.4157"><ele>920.7462</ele><time>2026-06-20T19:43:57.000Z</time></trkpt>
        <trkpt lat="29.557999" lon="103.415704"><ele>923.3532</ele><time>2026-06-20T19:44:05.000Z</time></trkpt>
        <trkpt lat="29.557959" lon="103.41571"><ele>924.76984</ele><time>2026-06-20T19:44:14.000Z</time></trkpt>
        <trkpt lat="29.557959" lon="103.41571"><ele>925.2659</ele><time>2026-06-20T19:44:16.000Z</time></trkpt>
        <trkpt lat="29.557923" lon="103.415707"><ele>926.00903</ele><time>2026-06-20T19:44:25.000Z</time></trkpt>
        <trkpt lat="29.557849" lon="103.415701"><ele>927.043</ele><time>2026-06-20T19:44:29.000Z</time></trkpt>
        <trkpt lat="29.557849" lon="103.415701"><ele>929.0216</ele><time>2026-06-20T19:44:31.000Z</time></trkpt>
        <trkpt lat="29.557847" lon="103.415695"><ele>930.7093</ele><time>2026-06-20T19:44:35.000Z</time></trkpt>
        <trkpt lat="29.557817" lon="103.415573"><ele>931.59735</ele><time>2026-06-20T19:44:41.000Z</time></trkpt>
        <trkpt lat="29.557808" lon="103.415537"><ele>933.43304</ele><time>2026-06-20T19:44:43.000Z</time></trkpt>
        <trkpt lat="29.55786" lon="103.415344"><ele>934.38226</ele><time>2026-06-20T19:44:47.000Z</time></trkpt>
        <trkpt lat="29.55786" lon="103.415344"><ele>934.5593</ele><time>2026-06-20T19:44:49.000Z</time></trkpt>
        <trkpt lat="29.557856" lon="103.415376"><ele>936.04913</ele><time>2026-06-20T19:44:51.000Z</time></trkpt>
        <trkpt lat="29.557922" lon="103.415301"><ele>937.8139</ele><time>2026-06-20T19:45:05.000Z</time></trkpt>
        <trkpt lat="29.557937" lon="103.415289"><ele>939.3327</ele><time>2026-06-20T19:45:07.000Z</time></trkpt>
        <trkpt lat="29.557938" lon="103.41529"><ele>940.7376</ele><time>2026-06-20T19:45:09.000Z</time></trkpt>
        <trkpt lat="29.558002" lon="103.415359"><ele>941.38617</ele><time>2026-06-20T19:45:19.000Z</time></trkpt>
        <trkpt lat="29.55802" lon="103.415371"><ele>942.26556</ele><time>2026-06-20T19:45:21.000Z</time></trkpt>
        <trkpt lat="29.558032" lon="103.415375"><ele>942.6187</ele><time>2026-06-20T19:45:23.000Z</time></trkpt>
        <trkpt lat="29.558064" lon="103.415374"><ele>942.6187</ele><time>2026-06-20T19:45:31.000Z</time></trkpt>
        <trkpt lat="29.558086" lon="103.415382"><ele>942.6187</ele><time>2026-06-20T19:45:37.000Z</time></trkpt>
        <trkpt lat="29.558136" lon="103.415399"><ele>942.6187</ele><time>2026-06-20T19:45:43.000Z</time></trkpt>
        <trkpt lat="29.558136" lon="103.415399"><ele>942.6187</ele><time>2026-06-20T19:45:45.000Z</time></trkpt>
        <trkpt lat="29.558091" lon="103.415243"><ele>940.56323</ele><time>2026-06-20T19:45:57.000Z</time></trkpt>
        <trkpt lat="29.558091" lon="103.415216"><ele>938.9865</ele><time>2026-06-20T19:45:59.000Z</time></trkpt>
        <trkpt lat="29.558092" lon="103.415185"><ele>938.9865</ele><time>2026-06-20T19:46:01.000Z</time></trkpt>
        <trkpt lat="29.558178" lon="103.415322"><ele>938.9865</ele><time>2026-06-20T19:46:15.000Z</time></trkpt>
        <trkpt lat="29.558182" lon="103.415322"><ele>938.9865</ele><time>2026-06-20T19:46:17.000Z</time></trkpt>
        <trkpt lat="29.558184" lon="103.415318"><ele>938.9865</ele><time>2026-06-20T19:46:19.000Z</time></trkpt>
        <trkpt lat="29.558226" lon="103.415242"><ele>939.5785</ele><time>2026-06-20T19:46:50.000Z</time></trkpt>
        <trkpt lat="29.558243" lon="103.415211"><ele>939.9523</ele><time>2026-06-20T19:46:52.000Z</time></trkpt>
        <trkpt lat="29.558254" lon="103.415193"><ele>940.04333</ele><time>2026-06-20T19:46:54.000Z</time></trkpt>
        <trkpt lat="29.558333" lon="103.415259"><ele>940.1672</ele><time>2026-06-20T19:47:16.000Z</time></trkpt>
        <trkpt lat="29.558334" lon="103.415259"><ele>940.2967</ele><time>2026-06-20T19:47:18.000Z</time></trkpt>
        <trkpt lat="29.558334" lon="103.415261"><ele>940.32495</ele><time>2026-06-20T19:47:20.000Z</time></trkpt>
        <trkpt lat="29.558275" lon="103.415183"><ele>940.32495</ele><time>2026-06-20T19:47:44.000Z</time></trkpt>
        <trkpt lat="29.558247" lon="103.415182"><ele>940.34875</ele><time>2026-06-20T19:47:46.000Z</time></trkpt>
        <trkpt lat="29.558245" lon="103.415181"><ele>940.46027</ele><time>2026-06-20T19:47:48.000Z</time></trkpt>
        <trkpt lat="29.558186" lon="103.415166"><ele>940.5711</ele><time>2026-06-20T19:48:01.000Z</time></trkpt>
        <trkpt lat="29.558164" lon="103.415159"><ele>940.5711</ele><time>2026-06-20T19:48:05.000Z</time></trkpt>
        <trkpt lat="29.558154" lon="103.415156"><ele>940.5711</ele><time>2026-06-20T19:48:07.000Z</time></trkpt>
        <trkpt lat="29.558119" lon="103.415147"><ele>940.5711</ele><time>2026-06-20T19:48:15.000Z</time></trkpt>
        <trkpt lat="29.558111" lon="103.415145"><ele>940.98114</ele><time>2026-06-20T19:48:17.000Z</time></trkpt>
        <trkpt lat="29.5581" lon="103.415141"><ele>941.5474</ele><time>2026-06-20T19:48:21.000Z</time></trkpt>
        <trkpt lat="29.558029" lon="103.415114"><ele>941.801</ele><time>2026-06-20T19:48:53.000Z</time></trkpt>
        <trkpt lat="29.557978" lon="103.415063"><ele>942.6111</ele><time>2026-06-20T19:49:09.000Z</time></trkpt>
        <trkpt lat="29.557983" lon="103.414992"><ele>943.5349</ele><time>2026-06-20T19:49:23.000Z</time></trkpt>
        <trkpt lat="29.557983" lon="103.414992"><ele>944.0702</ele><time>2026-06-20T19:49:25.000Z</time></trkpt>
        <trkpt lat="29.558006" lon="103.414949"><ele>945.06305</ele><time>2026-06-20T19:49:29.000Z</time></trkpt>
        <trkpt lat="29.558027" lon="103.414926"><ele>945.9467</ele><time>2026-06-20T19:49:37.000Z</time></trkpt>
        <trkpt lat="29.558041" lon="103.414915"><ele>947.90845</ele><time>2026-06-20T19:49:39.000Z</time></trkpt>
        <trkpt lat="29.55806" lon="103.4149"><ele>949.656</ele><time>2026-06-20T19:49:41.000Z</time></trkpt>
        <trkpt lat="29.558097" lon="103.414885"><ele>950.7742</ele><time>2026-06-20T19:49:45.000Z</time></trkpt>
        <trkpt lat="29.5581" lon="103.414884"><ele>952.5641</ele><time>2026-06-20T19:49:47.000Z</time></trkpt>
        <trkpt lat="29.558133" lon="103.414877"><ele>953.7725</ele><time>2026-06-20T19:49:55.000Z</time></trkpt>
        <trkpt lat="29.558173" lon="103.414869"><ele>954.86584</ele><time>2026-06-20T19:50:04.000Z</time></trkpt>
        <trkpt lat="29.558173" lon="103.414869"><ele>956.3018</ele><time>2026-06-20T19:50:06.000Z</time></trkpt>
        <trkpt lat="29.558202" lon="103.414943"><ele>957.5206</ele><time>2026-06-20T19:50:14.000Z</time></trkpt>
        <trkpt lat="29.55821" lon="103.414968"><ele>957.6187</ele><time>2026-06-20T19:50:16.000Z</time></trkpt>
        <trkpt lat="29.558218" lon="103.41497"><ele>957.6187</ele><time>2026-06-20T19:50:18.000Z</time></trkpt>
        <trkpt lat="29.558271" lon="103.414987"><ele>957.6187</ele><time>2026-06-20T19:50:25.000Z</time></trkpt>
        <trkpt lat="29.558271" lon="103.414987"><ele>957.6187</ele><time>2026-06-20T19:50:27.000Z</time></trkpt>
        <trkpt lat="29.558275" lon="103.414979"><ele>957.6187</ele><time>2026-06-20T19:50:33.000Z</time></trkpt>
        <trkpt lat="29.558314" lon="103.414905"><ele>957.1308</ele><time>2026-06-20T19:50:46.000Z</time></trkpt>
        <trkpt lat="29.558314" lon="103.414905"><ele>956.6143</ele><time>2026-06-20T19:50:48.000Z</time></trkpt>
        <trkpt lat="29.558314" lon="103.414905"><ele>956.35034</ele><time>2026-06-20T19:50:50.000Z</time></trkpt>
        <trkpt lat="29.55845" lon="103.414929"><ele>956.35034</ele><time>2026-06-20T19:51:23.000Z</time></trkpt>
        <trkpt lat="29.558482" lon="103.41491"><ele>956.35034</ele><time>2026-06-20T19:51:27.000Z</time></trkpt>
        <trkpt lat="29.558482" lon="103.41491"><ele>956.35034</ele><time>2026-06-20T19:51:29.000Z</time></trkpt>
        <trkpt lat="29.558523" lon="103.414907"><ele>956.35034</ele><time>2026-06-20T19:51:37.000Z</time></trkpt>
        <trkpt lat="29.558558" lon="103.414902"><ele>957.76794</ele><time>2026-06-20T19:51:41.000Z</time></trkpt>
        <trkpt lat="29.558569" lon="103.414899"><ele>959.17865</ele><time>2026-06-20T19:51:43.000Z</time></trkpt>
        <trkpt lat="29.558574" lon="103.414892"><ele>959.296</ele><time>2026-06-20T19:51:45.000Z</time></trkpt>
        <trkpt lat="29.558605" lon="103.414854"><ele>959.6735</ele><time>2026-06-20T19:51:55.000Z</time></trkpt>
        <trkpt lat="29.558617" lon="103.414846"><ele>960.1698</ele><time>2026-06-20T19:51:57.000Z</time></trkpt>
        <trkpt lat="29.558632" lon="103.414837"><ele>960.4915</ele><time>2026-06-20T19:51:59.000Z</time></trkpt>
        <trkpt lat="29.558668" lon="103.414818"><ele>960.7789</ele><time>2026-06-20T19:52:03.000Z</time></trkpt>
        <trkpt lat="29.558685" lon="103.414808"><ele>961.5347</ele><time>2026-06-20T19:52:05.000Z</time></trkpt>
        <trkpt lat="29.558693" lon="103.414799"><ele>962.1085</ele><time>2026-06-20T19:52:07.000Z</time></trkpt>
        <trkpt lat="29.558703" lon="103.414781"><ele>962.2147</ele><time>2026-06-20T19:52:13.000Z</time></trkpt>
        <trkpt lat="29.558713" lon="103.414754"><ele>962.348</ele><time>2026-06-20T19:52:29.000Z</time></trkpt>
        <trkpt lat="29.558718" lon="103.414738"><ele>962.4253</ele><time>2026-06-20T19:52:33.000Z</time></trkpt>
        <trkpt lat="29.558719" lon="103.41472"><ele>962.4948</ele><time>2026-06-20T19:52:37.000Z</time></trkpt>
        <trkpt lat="29.558723" lon="103.414681"><ele>962.9054</ele><time>2026-06-20T19:52:45.000Z</time></trkpt>
        <trkpt lat="29.558726" lon="103.414654"><ele>964.05707</ele><time>2026-06-20T19:52:49.000Z</time></trkpt>
        <trkpt lat="29.558727" lon="103.414644"><ele>964.92145</ele><time>2026-06-20T19:52:51.000Z</time></trkpt>
        <trkpt lat="29.558741" lon="103.414619"><ele>965.0967</ele><time>2026-06-20T19:52:57.000Z</time></trkpt>
        <trkpt lat="29.558756" lon="103.414579"><ele>965.3981</ele><time>2026-06-20T19:53:23.000Z</time></trkpt>
        <trkpt lat="29.558763" lon="103.414553"><ele>965.8828</ele><time>2026-06-20T19:53:25.000Z</time></trkpt>
        <trkpt lat="29.558765" lon="103.414544"><ele>966.35364</ele><time>2026-06-20T19:53:30.000Z</time></trkpt>
        <trkpt lat="29.558773" lon="103.414503"><ele>967.07104</ele><time>2026-06-20T19:53:33.000Z</time></trkpt>
        <trkpt lat="29.558778" lon="103.41447"><ele>967.80707</ele><time>2026-06-20T19:53:43.000Z</time></trkpt>
        <trkpt lat="29.558781" lon="103.414452"><ele>968.55786</ele><time>2026-06-20T19:53:45.000Z</time></trkpt>
        <trkpt lat="29.558783" lon="103.414435"><ele>969.2682</ele><time>2026-06-20T19:53:47.000Z</time></trkpt>
        <trkpt lat="29.558788" lon="103.4144"><ele>970.1958</ele><time>2026-06-20T19:53:51.000Z</time></trkpt>
        <trkpt lat="29.558792" lon="103.414384"><ele>971.4612</ele><time>2026-06-20T19:53:53.000Z</time></trkpt>
        <trkpt lat="29.558795" lon="103.414364"><ele>971.9771</ele><time>2026-06-20T19:53:55.000Z</time></trkpt>
        <trkpt lat="29.558799" lon="103.414344"><ele>972.022</ele><time>2026-06-20T19:53:57.000Z</time></trkpt>
        <trkpt lat="29.558804" lon="103.414325"><ele>972.06683</ele><time>2026-06-20T19:53:59.000Z</time></trkpt>
        <trkpt lat="29.558808" lon="103.414306"><ele>972.0872</ele><time>2026-06-20T19:54:01.000Z</time></trkpt>
        <trkpt lat="29.558812" lon="103.414289"><ele>972.14215</ele><time>2026-06-20T19:54:03.000Z</time></trkpt>
        <trkpt lat="29.558816" lon="103.414273"><ele>972.2592</ele><time>2026-06-20T19:54:05.000Z</time></trkpt>
        <trkpt lat="29.558819" lon="103.414256"><ele>972.41016</ele><time>2026-06-20T19:54:07.000Z</time></trkpt>
        <trkpt lat="29.558824" lon="103.414234"><ele>972.4962</ele><time>2026-06-20T19:54:09.000Z</time></trkpt>
        <trkpt lat="29.55883" lon="103.414213"><ele>972.66846</ele><time>2026-06-20T19:54:11.000Z</time></trkpt>
        <trkpt lat="29.558835" lon="103.414203"><ele>973.2783</ele><time>2026-06-20T19:54:13.000Z</time></trkpt>
        <trkpt lat="29.558851" lon="103.414173"><ele>974.3311</ele><time>2026-06-20T19:54:17.000Z</time></trkpt>
        <trkpt lat="29.558855" lon="103.414171"><ele>975.55237</ele><time>2026-06-20T19:54:19.000Z</time></trkpt>
        <trkpt lat="29.558889" lon="103.414157"><ele>976.8879</ele><time>2026-06-20T19:54:24.000Z</time></trkpt>
        <trkpt lat="29.558897" lon="103.414154"><ele>978.1388</ele><time>2026-06-20T19:54:30.000Z</time></trkpt>
        <trkpt lat="29.558911" lon="103.41415"><ele>979.4139</ele><time>2026-06-20T19:54:32.000Z</time></trkpt>
        <trkpt lat="29.558931" lon="103.414143"><ele>980.25543</ele><time>2026-06-20T19:54:34.000Z</time></trkpt>
        <trkpt lat="29.558949" lon="103.414138"><ele>980.5723</ele><time>2026-06-20T19:54:36.000Z</time></trkpt>
        <trkpt lat="29.558967" lon="103.414133"><ele>980.90094</ele><time>2026-06-20T19:54:38.000Z</time></trkpt>
        <trkpt lat="29.558984" lon="103.414129"><ele>981.2413</ele><time>2026-06-20T19:54:40.000Z</time></trkpt>
        <trkpt lat="29.558998" lon="103.414129"><ele>981.73236</ele><time>2026-06-20T19:54:42.000Z</time></trkpt>
        <trkpt lat="29.559014" lon="103.414131"><ele>982.1751</ele><time>2026-06-20T19:54:43.000Z</time></trkpt>
        <trkpt lat="29.559035" lon="103.41413"><ele>982.5364</ele><time>2026-06-20T19:54:47.000Z</time></trkpt>
        <trkpt lat="29.559044" lon="103.414129"><ele>982.8297</ele><time>2026-06-20T19:54:49.000Z</time></trkpt>
        <trkpt lat="29.559056" lon="103.414126"><ele>983.0484</ele><time>2026-06-20T19:54:51.000Z</time></trkpt>
        <trkpt lat="29.559077" lon="103.414125"><ele>983.2099</ele><time>2026-06-20T19:54:55.000Z</time></trkpt>
        <trkpt lat="29.559088" lon="103.414125"><ele>983.46533</ele><time>2026-06-20T19:54:57.000Z</time></trkpt>
        <trkpt lat="29.559094" lon="103.41413"><ele>983.7761</ele><time>2026-06-20T19:54:59.000Z</time></trkpt>
        <trkpt lat="29.559117" lon="103.414147"><ele>983.7761</ele><time>2026-06-20T19:55:10.000Z</time></trkpt>
        <trkpt lat="29.559124" lon="103.414148"><ele>983.7761</ele><time>2026-06-20T19:55:12.000Z</time></trkpt>
        <trkpt lat="29.559141" lon="103.414154"><ele>983.7761</ele><time>2026-06-20T19:55:14.000Z</time></trkpt>
        <trkpt lat="29.559179" lon="103.414168"><ele>983.7761</ele><time>2026-06-20T19:55:25.000Z</time></trkpt>
        <trkpt lat="29.559194" lon="103.414175"><ele>983.604</ele><time>2026-06-20T19:55:27.000Z</time></trkpt>
        <trkpt lat="29.559209" lon="103.414181"><ele>983.322</ele><time>2026-06-20T19:55:29.000Z</time></trkpt>
        <trkpt lat="29.559234" lon="103.414189"><ele>983.1766</ele><time>2026-06-20T19:55:33.000Z</time></trkpt>
        <trkpt lat="29.559246" lon="103.414192"><ele>982.9142</ele><time>2026-06-20T19:55:35.000Z</time></trkpt>
        <trkpt lat="29.559257" lon="103.414196"><ele>982.7893</ele><time>2026-06-20T19:55:37.000Z</time></trkpt>
        <trkpt lat="29.559281" lon="103.414203"><ele>982.73285</ele><time>2026-06-20T19:55:41.000Z</time></trkpt>
        <trkpt lat="29.55929" lon="103.414207"><ele>982.6731</ele><time>2026-06-20T19:55:43.000Z</time></trkpt>
        <trkpt lat="29.559298" lon="103.414201"><ele>982.65967</ele><time>2026-06-20T19:55:47.000Z</time></trkpt>
        <trkpt lat="29.559356" lon="103.414161"><ele>982.6477</ele><time>2026-06-20T19:55:57.000Z</time></trkpt>
        <trkpt lat="29.559356" lon="103.414162"><ele>982.54694</ele><time>2026-06-20T19:55:59.000Z</time></trkpt>
        <trkpt lat="29.559354" lon="103.414169"><ele>982.41406</ele><time>2026-06-20T19:56:01.000Z</time></trkpt>
        <trkpt lat="29.559339" lon="103.414235"><ele>982.37335</ele><time>2026-06-20T19:56:04.000Z</time></trkpt>
        <trkpt lat="29.559339" lon="103.414235"><ele>982.3632</ele><time>2026-06-20T19:56:06.000Z</time></trkpt>
        <trkpt lat="29.559341" lon="103.414234"><ele>982.3461</ele><time>2026-06-20T19:56:08.000Z</time></trkpt>
        <trkpt lat="29.559385" lon="103.414199"><ele>982.2975</ele><time>2026-06-20T19:56:14.000Z</time></trkpt>
        <trkpt lat="29.5594" lon="103.414186"><ele>982.25494</ele><time>2026-06-20T19:56:16.000Z</time></trkpt>
        <trkpt lat="29.559412" lon="103.414176"><ele>982.24744</ele><time>2026-06-20T19:56:18.000Z</time></trkpt>
        <trkpt lat="29.559424" lon="103.414171"><ele>982.25494</ele><time>2026-06-20T19:56:20.000Z</time></trkpt>
        <trkpt lat="29.559447" lon="103.414164"><ele>982.25494</ele><time>2026-06-20T19:56:24.000Z</time></trkpt>
        <trkpt lat="29.559458" lon="103.414163"><ele>982.25494</ele><time>2026-06-20T19:56:26.000Z</time></trkpt>
        <trkpt lat="29.559469" lon="103.414166"><ele>982.25494</ele><time>2026-06-20T19:56:28.000Z</time></trkpt>
        <trkpt lat="29.559496" lon="103.414178"><ele>982.44244</ele><time>2026-06-20T19:56:32.000Z</time></trkpt>
        <trkpt lat="29.559507" lon="103.414183"><ele>982.8385</ele><time>2026-06-20T19:56:34.000Z</time></trkpt>
        <trkpt lat="29.559518" lon="103.414186"><ele>983.1658</ele><time>2026-06-20T19:56:36.000Z</time></trkpt>
        <trkpt lat="29.559536" lon="103.414191"><ele>983.3637</ele><time>2026-06-20T19:56:42.000Z</time></trkpt>
        <trkpt lat="29.559578" lon="103.414196"><ele>983.4856</ele><time>2026-06-20T19:56:56.000Z</time></trkpt>
        <trkpt lat="29.559587" lon="103.414192"><ele>983.5521</ele><time>2026-06-20T19:57:00.000Z</time></trkpt>
        <trkpt lat="29.559591" lon="103.414183"><ele>983.5946</ele><time>2026-06-20T19:57:08.000Z</time></trkpt>
        <trkpt lat="29.559628" lon="103.414101"><ele>983.6401</ele><time>2026-06-20T19:57:33.000Z</time></trkpt>
        <trkpt lat="29.559628" lon="103.414101"><ele>983.6999</ele><time>2026-06-20T19:57:35.000Z</time></trkpt>
        <trkpt lat="29.559633" lon="103.414101"><ele>983.7347</ele><time>2026-06-20T19:57:39.000Z</time></trkpt>
        <trkpt lat="29.559725" lon="103.414095"><ele>983.79645</ele><time>2026-06-20T19:57:55.000Z</time></trkpt>
        <trkpt lat="29.559735" lon="103.414099"><ele>983.79645</ele><time>2026-06-20T19:57:57.000Z</time></trkpt>
        <trkpt lat="29.559747" lon="103.414101"><ele>983.79645</ele><time>2026-06-20T19:57:59.000Z</time></trkpt>
        <trkpt lat="29.559793" lon="103.414103"><ele>983.79645</ele><time>2026-06-20T19:58:05.000Z</time></trkpt>
        <trkpt lat="29.559798" lon="103.4141"><ele>985.79083</ele><time>2026-06-20T19:58:07.000Z</time></trkpt>
        <trkpt lat="29.559813" lon="103.414089"><ele>988.1251</ele><time>2026-06-20T19:58:11.000Z</time></trkpt>
        <trkpt lat="29.559845" lon="103.41406"><ele>988.9108</ele><time>2026-06-20T19:58:19.000Z</time></trkpt>
        <trkpt lat="29.559852" lon="103.414053"><ele>989.9797</ele><time>2026-06-20T19:58:21.000Z</time></trkpt>
        <trkpt lat="29.559861" lon="103.414044"><ele>990.6733</ele><time>2026-06-20T19:58:23.000Z</time></trkpt>
        <trkpt lat="29.559886" lon="103.414017"><ele>990.6733</ele><time>2026-06-20T19:58:29.000Z</time></trkpt>
        <trkpt lat="29.559892" lon="103.414011"><ele>990.6733</ele><time>2026-06-20T19:58:31.000Z</time></trkpt>
        <trkpt lat="29.559906" lon="103.414002"><ele>990.6733</ele><time>2026-06-20T19:58:35.000Z</time></trkpt>
        <trkpt lat="29.559931" lon="103.413987"><ele>990.75116</ele><time>2026-06-20T19:58:41.000Z</time></trkpt>
        <trkpt lat="29.559937" lon="103.413984"><ele>990.87006</ele><time>2026-06-20T19:58:43.000Z</time></trkpt>
        <trkpt lat="29.559951" lon="103.413984"><ele>990.9951</ele><time>2026-06-20T19:58:47.000Z</time></trkpt>
        <trkpt lat="29.559982" lon="103.413985"><ele>990.9951</ele><time>2026-06-20T19:58:55.000Z</time></trkpt>
        <trkpt lat="29.560034" lon="103.413985"><ele>990.9951</ele><time>2026-06-20T19:59:00.000Z</time></trkpt>
        <trkpt lat="29.560035" lon="103.413985"><ele>991.21533</ele><time>2026-06-20T19:59:02.000Z</time></trkpt>
        <trkpt lat="29.560037" lon="103.413985"><ele>991.57324</ele><time>2026-06-20T19:59:04.000Z</time></trkpt>
        <trkpt lat="29.560082" lon="103.413978"><ele>992.448</ele><time>2026-06-20T19:59:10.000Z</time></trkpt>
        <trkpt lat="29.560098" lon="103.413977"><ele>993.3659</ele><time>2026-06-20T19:59:12.000Z</time></trkpt>
        <trkpt lat="29.560109" lon="103.413978"><ele>993.6222</ele><time>2026-06-20T19:59:14.000Z</time></trkpt>
        <trkpt lat="29.560119" lon="103.413981"><ele>993.64764</ele><time>2026-06-20T19:59:16.000Z</time></trkpt>
        <trkpt lat="29.560144" lon="103.413989"><ele>994.2646</ele><time>2026-06-20T19:59:20.000Z</time></trkpt>
        <trkpt lat="29.560157" lon="103.413994"><ele>995.1245</ele><time>2026-06-20T19:59:22.000Z</time></trkpt>
        <trkpt lat="29.560171" lon="103.414"><ele>995.6535</ele><time>2026-06-20T19:59:24.000Z</time></trkpt>
        <trkpt lat="29.560185" lon="103.414005"><ele>996.081</ele><time>2026-06-20T19:59:26.000Z</time></trkpt>
        <trkpt lat="29.560198" lon="103.414008"><ele>996.3545</ele><time>2026-06-20T19:59:28.000Z</time></trkpt>
        <trkpt lat="29.560211" lon="103.414009"><ele>996.5717</ele><time>2026-06-20T19:59:30.000Z</time></trkpt>
        <trkpt lat="29.560223" lon="103.414006"><ele>996.8768</ele><time>2026-06-20T19:59:32.000Z</time></trkpt>
        <trkpt lat="29.560238" lon="103.414002"><ele>997.12946</ele><time>2026-06-20T19:59:34.000Z</time></trkpt>
        <trkpt lat="29.56025" lon="103.413996"><ele>997.2154</ele><time>2026-06-20T19:59:36.000Z</time></trkpt>
        <trkpt lat="29.560259" lon="103.413991"><ele>997.2723</ele><time>2026-06-20T19:59:39.000Z</time></trkpt>
        <trkpt lat="29.560276" lon="103.413985"><ele>997.3386</ele><time>2026-06-20T19:59:41.000Z</time></trkpt>
        <trkpt lat="29.560289" lon="103.413981"><ele>997.3769</ele><time>2026-06-20T19:59:43.000Z</time></trkpt>
        <trkpt lat="29.560303" lon="103.413976"><ele>997.38464</ele><time>2026-06-20T19:59:45.000Z</time></trkpt>
        <trkpt lat="29.56032" lon="103.413965"><ele>997.41223</ele><time>2026-06-20T19:59:47.000Z</time></trkpt>
        <trkpt lat="29.560341" lon="103.413951"><ele>997.467</ele><time>2026-06-20T19:59:49.000Z</time></trkpt>
        <trkpt lat="29.560363" lon="103.413939"><ele>997.5319</ele><time>2026-06-20T19:59:51.000Z</time></trkpt>
        <trkpt lat="29.560381" lon="103.413928"><ele>997.6589</ele><time>2026-06-20T19:59:53.000Z</time></trkpt>
        <trkpt lat="29.560396" lon="103.413924"><ele>997.85986</ele><time>2026-06-20T19:59:55.000Z</time></trkpt>
        <trkpt lat="29.560399" lon="103.413928"><ele>998.06714</ele><time>2026-06-20T19:59:57.000Z</time></trkpt>
        <trkpt lat="29.560417" lon="103.413948"><ele>998.27185</ele><time>2026-06-20T20:00:07.000Z</time></trkpt>
        <trkpt lat="29.560396" lon="103.413974"><ele>998.45984</ele><time>2026-06-20T20:00:16.000Z</time></trkpt>
        <trkpt lat="29.560429" lon="103.41398"><ele>998.45984</ele><time>2026-06-20T20:00:22.000Z</time></trkpt>
        <trkpt lat="29.560487" lon="103.413945"><ele>998.45984</ele><time>2026-06-20T20:00:31.000Z</time></trkpt>
        <trkpt lat="29.560607" lon="103.413872"><ele>998.5722</ele><time>2026-06-20T20:00:52.000Z</time></trkpt>
        <trkpt lat="29.560607" lon="103.413872"><ele>998.6916</ele><time>2026-06-20T20:00:54.000Z</time></trkpt>
        <trkpt lat="29.56061" lon="103.413872"><ele>998.8751</ele><time>2026-06-20T20:00:56.000Z</time></trkpt>
        <trkpt lat="29.560684" lon="103.413894"><ele>999.5236</ele><time>2026-06-20T20:01:02.000Z</time></trkpt>
        <trkpt lat="29.560718" lon="103.413905"><ele>1001.1697</ele><time>2026-06-20T20:01:04.000Z</time></trkpt>
        <trkpt lat="29.560747" lon="103.413918"><ele>1002.25836</ele><time>2026-06-20T20:01:06.000Z</time></trkpt>
        <trkpt lat="29.560776" lon="103.413933"><ele>1002.28467</ele><time>2026-06-20T20:01:08.000Z</time></trkpt>
        <trkpt lat="29.560799" lon="103.413948"><ele>1002.9232</ele><time>2026-06-20T20:01:10.000Z</time></trkpt>
        <trkpt lat="29.560821" lon="103.413963"><ele>1003.74976</ele><time>2026-06-20T20:01:12.000Z</time></trkpt>
        <trkpt lat="29.560837" lon="103.413972"><ele>1004.14166</ele><time>2026-06-20T20:01:14.000Z</time></trkpt>
        <trkpt lat="29.560851" lon="103.413979"><ele>1004.52014</ele><time>2026-06-20T20:01:16.000Z</time></trkpt>
        <trkpt lat="29.560868" lon="103.413975"><ele>1004.80756</ele><time>2026-06-20T20:01:22.000Z</time></trkpt>
        <trkpt lat="29.560896" lon="103.413982"><ele>1005.00653</ele><time>2026-06-20T20:01:36.000Z</time></trkpt>
        <trkpt lat="29.560898" lon="103.41399"><ele>1005.24646</ele><time>2026-06-20T20:01:38.000Z</time></trkpt>
        <trkpt lat="29.560912" lon="103.414037"><ele>1005.39355</ele><time>2026-06-20T20:01:50.000Z</time></trkpt>
        <trkpt lat="29.560912" lon="103.414037"><ele>1005.5223</ele><time>2026-06-20T20:01:52.000Z</time></trkpt>
        <trkpt lat="29.560919" lon="103.414047"><ele>1005.6491</ele><time>2026-06-20T20:01:56.000Z</time></trkpt>
        <trkpt lat="29.560947" lon="103.414094"><ele>1005.7804</ele><time>2026-06-20T20:02:02.000Z</time></trkpt>
        <trkpt lat="29.560959" lon="103.414106"><ele>1006.456</ele><time>2026-06-20T20:02:04.000Z</time></trkpt>
        <trkpt lat="29.560964" lon="103.414109"><ele>1007.0183</ele><time>2026-06-20T20:02:06.000Z</time></trkpt>
        <trkpt lat="29.560981" lon="103.414121"><ele>1007.1038</ele><time>2026-06-20T20:02:10.000Z</time></trkpt>
        <trkpt lat="29.560996" lon="103.414126"><ele>1007.5271</ele><time>2026-06-20T20:02:16.000Z</time></trkpt>
        <trkpt lat="29.561033" lon="103.41414"><ele>1007.94824</ele><time>2026-06-20T20:02:21.000Z</time></trkpt>
        <trkpt lat="29.561033" lon="103.41414"><ele>1008.07733</ele><time>2026-06-20T20:02:23.000Z</time></trkpt>
        <trkpt lat="29.561044" lon="103.414144"><ele>1008.24915</ele><time>2026-06-20T20:02:27.000Z</time></trkpt>
        <trkpt lat="29.561079" lon="103.414159"><ele>1008.51556</ele><time>2026-06-20T20:02:31.000Z</time></trkpt>
        <trkpt lat="29.561094" lon="103.414166"><ele>1008.96405</ele><time>2026-06-20T20:02:33.000Z</time></trkpt>
        <trkpt lat="29.561103" lon="103.41418"><ele>1009.27203</ele><time>2026-06-20T20:02:35.000Z</time></trkpt>
        <trkpt lat="29.561118" lon="103.414197"><ele>1009.4012</ele><time>2026-06-20T20:02:43.000Z</time></trkpt>
        <trkpt lat="29.561141" lon="103.414233"><ele>1010.04205</ele><time>2026-06-20T20:02:53.000Z</time></trkpt>
        <trkpt lat="29.561145" lon="103.414242"><ele>1010.8681</ele><time>2026-06-20T20:02:59.000Z</time></trkpt>
        <trkpt lat="29.561163" lon="103.414268"><ele>1011.4726</ele><time>2026-06-20T20:03:03.000Z</time></trkpt>
        <trkpt lat="29.561211" lon="103.414335"><ele>1012.3694</ele><time>2026-06-20T20:03:22.000Z</time></trkpt>
        <trkpt lat="29.561211" lon="103.414335"><ele>1013.3668</ele><time>2026-06-20T20:03:24.000Z</time></trkpt>
        <trkpt lat="29.561211" lon="103.414335"><ele>1014.0179</ele><time>2026-06-20T20:03:26.000Z</time></trkpt>
        <trkpt lat="29.561301" lon="103.414352"><ele>1015.3302</ele><time>2026-06-20T20:03:47.000Z</time></trkpt>
        <trkpt lat="29.561301" lon="103.414352"><ele>1017.43463</ele><time>2026-06-20T20:03:49.000Z</time></trkpt>
        <trkpt lat="29.561302" lon="103.41435"><ele>1018.4888</ele><time>2026-06-20T20:03:51.000Z</time></trkpt>
        <trkpt lat="29.56133" lon="103.414297"><ele>1018.5849</ele><time>2026-06-20T20:03:59.000Z</time></trkpt>
        <trkpt lat="29.561339" lon="103.41428"><ele>1019.85986</ele><time>2026-06-20T20:04:01.000Z</time></trkpt>
        <trkpt lat="29.561345" lon="103.414263"><ele>1021.0412</ele><time>2026-06-20T20:04:03.000Z</time></trkpt>
        <trkpt lat="29.561349" lon="103.414249"><ele>1021.0562</ele><time>2026-06-20T20:04:05.000Z</time></trkpt>
        <trkpt lat="29.561353" lon="103.414237"><ele>1021.7638</ele><time>2026-06-20T20:04:07.000Z</time></trkpt>
        <trkpt lat="29.561351" lon="103.414222"><ele>1022.64124</ele><time>2026-06-20T20:04:11.000Z</time></trkpt>
        <trkpt lat="29.561342" lon="103.414172"><ele>1022.9236</ele><time>2026-06-20T20:04:22.000Z</time></trkpt>
        <trkpt lat="29.561342" lon="103.414172"><ele>1023.2083</ele><time>2026-06-20T20:04:24.000Z</time></trkpt>
        <trkpt lat="29.561341" lon="103.414169"><ele>1023.40625</ele><time>2026-06-20T20:04:26.000Z</time></trkpt>
        <trkpt lat="29.561324" lon="103.414134"><ele>1023.4909</ele><time>2026-06-20T20:04:30.000Z</time></trkpt>
        <trkpt lat="29.561313" lon="103.414112"><ele>1023.91675</ele><time>2026-06-20T20:04:32.000Z</time></trkpt>
        <trkpt lat="29.561302" lon="103.41409"><ele>1024.2699</ele><time>2026-06-20T20:04:34.000Z</time></trkpt>
        <trkpt lat="29.561295" lon="103.414069"><ele>1024.2977</ele><time>2026-06-20T20:04:36.000Z</time></trkpt>
        <trkpt lat="29.561291" lon="103.414051"><ele>1024.598</ele><time>2026-06-20T20:04:38.000Z</time></trkpt>
        <trkpt lat="29.561286" lon="103.414035"><ele>1025.0663</ele><time>2026-06-20T20:04:40.000Z</time></trkpt>
        <trkpt lat="29.561281" lon="103.414024"><ele>1025.4169</ele><time>2026-06-20T20:04:42.000Z</time></trkpt>
        <trkpt lat="29.561275" lon="103.414005"><ele>1025.7526</ele><time>2026-06-20T20:04:46.000Z</time></trkpt>
        <trkpt lat="29.561267" lon="103.413985"><ele>1026.0718</ele><time>2026-06-20T20:04:50.000Z</time></trkpt>
        <trkpt lat="29.561266" lon="103.413979"><ele>1026.2925</ele><time>2026-06-20T20:04:52.000Z</time></trkpt>
        <trkpt lat="29.561261" lon="103.413954"><ele>1026.4232</ele><time>2026-06-20T20:04:56.000Z</time></trkpt>
        <trkpt lat="29.561258" lon="103.413932"><ele>1026.4395</ele><time>2026-06-20T20:05:02.000Z</time></trkpt>
        <trkpt lat="29.561256" lon="103.413924"><ele>1026.4395</ele><time>2026-06-20T20:05:04.000Z</time></trkpt>
        <trkpt lat="29.561252" lon="103.413898"><ele>1026.4395</ele><time>2026-06-20T20:05:12.000Z</time></trkpt>
        <trkpt lat="29.561235" lon="103.4138"><ele>1026.4395</ele><time>2026-06-20T20:05:26.000Z</time></trkpt>
        <trkpt lat="29.561235" lon="103.4138"><ele>1026.4395</ele><time>2026-06-20T20:05:28.000Z</time></trkpt>
        <trkpt lat="29.561234" lon="103.413797"><ele>1026.3682</ele><time>2026-06-20T20:05:30.000Z</time></trkpt>
        <trkpt lat="29.561222" lon="103.413749"><ele>1026.2316</ele><time>2026-06-20T20:05:36.000Z</time></trkpt>
        <trkpt lat="29.56122" lon="103.413735"><ele>1026.0253</ele><time>2026-06-20T20:05:38.000Z</time></trkpt>
        <trkpt lat="29.561218" lon="103.413719"><ele>1025.9071</ele><time>2026-06-20T20:05:40.000Z</time></trkpt>
        <trkpt lat="29.561217" lon="103.413705"><ele>1025.8964</ele><time>2026-06-20T20:05:42.000Z</time></trkpt>
        <trkpt lat="29.561215" lon="103.413691"><ele>1025.8142</ele><time>2026-06-20T20:05:44.000Z</time></trkpt>
        <trkpt lat="29.561214" lon="103.413671"><ele>1025.6406</ele><time>2026-06-20T20:05:46.000Z</time></trkpt>
        <trkpt lat="29.561213" lon="103.413656"><ele>1025.4176</ele><time>2026-06-20T20:05:48.000Z</time></trkpt>
        <trkpt lat="29.561211" lon="103.413646"><ele>1025.2493</ele><time>2026-06-20T20:05:50.000Z</time></trkpt>
        <trkpt lat="29.561201" lon="103.413619"><ele>1025.1887</ele><time>2026-06-20T20:05:54.000Z</time></trkpt>
        <trkpt lat="29.561192" lon="103.413602"><ele>1025.1617</ele><time>2026-06-20T20:05:56.000Z</time></trkpt>
        <trkpt lat="29.561181" lon="103.41358"><ele>1025.1436</ele><time>2026-06-20T20:05:58.000Z</time></trkpt>
        <trkpt lat="29.56117" lon="103.41356"><ele>1025.1238</ele><time>2026-06-20T20:06:00.000Z</time></trkpt>
        <trkpt lat="29.561159" lon="103.413541"><ele>1024.8977</ele><time>2026-06-20T20:06:02.000Z</time></trkpt>
        <trkpt lat="29.561152" lon="103.413524"><ele>1024.8564</ele><time>2026-06-20T20:06:04.000Z</time></trkpt>
        <trkpt lat="29.561147" lon="103.413506"><ele>1024.8564</ele><time>2026-06-20T20:06:06.000Z</time></trkpt>
        <trkpt lat="29.561142" lon="103.413488"><ele>1024.8564</ele><time>2026-06-20T20:06:08.000Z</time></trkpt>
        <trkpt lat="29.561139" lon="103.413471"><ele>1024.8564</ele><time>2026-06-20T20:06:10.000Z</time></trkpt>
        <trkpt lat="29.561137" lon="103.41346"><ele>1024.8564</ele><time>2026-06-20T20:06:12.000Z</time></trkpt>
        <trkpt lat="29.561139" lon="103.413445"><ele>1025.1661</ele><time>2026-06-20T20:06:16.000Z</time></trkpt>
        <trkpt lat="29.561142" lon="103.413419"><ele>1025.3865</ele><time>2026-06-20T20:06:20.000Z</time></trkpt>
        <trkpt lat="29.561144" lon="103.413394"><ele>1025.5398</ele><time>2026-06-20T20:06:24.000Z</time></trkpt>
        <trkpt lat="29.561146" lon="103.413382"><ele>1025.6207</ele><time>2026-06-20T20:06:26.000Z</time></trkpt>
        <trkpt lat="29.56115" lon="103.413348"><ele>1025.6942</ele><time>2026-06-20T20:06:36.000Z</time></trkpt>
        <trkpt lat="29.561153" lon="103.41333"><ele>1025.6942</ele><time>2026-06-20T20:06:40.000Z</time></trkpt>
        <trkpt lat="29.561158" lon="103.413292"><ele>1025.6942</ele><time>2026-06-20T20:06:43.000Z</time></trkpt>
        <trkpt lat="29.561164" lon="103.413284"><ele>1025.6942</ele><time>2026-06-20T20:06:51.000Z</time></trkpt>
        <trkpt lat="29.561177" lon="103.413266"><ele>1025.6207</ele><time>2026-06-20T20:06:55.000Z</time></trkpt>
        <trkpt lat="29.561131" lon="103.413222"><ele>1025.4081</ele><time>2026-06-20T20:07:02.000Z</time></trkpt>
        <trkpt lat="29.561131" lon="103.413222"><ele>1024.9314</ele><time>2026-06-20T20:07:04.000Z</time></trkpt>
        <trkpt lat="29.561131" lon="103.413221"><ele>1024.379</ele><time>2026-06-20T20:07:06.000Z</time></trkpt>
        <trkpt lat="29.561135" lon="103.413148"><ele>1024.1073</ele><time>2026-06-20T20:07:12.000Z</time></trkpt>
        <trkpt lat="29.56114" lon="103.413118"><ele>1024.0924</ele><time>2026-06-20T20:07:14.000Z</time></trkpt>
        <trkpt lat="29.561146" lon="103.413096"><ele>1024.0754</ele><time>2026-06-20T20:07:16.000Z</time></trkpt>
        <trkpt lat="29.561152" lon="103.413082"><ele>1024.0552</ele><time>2026-06-20T20:07:18.000Z</time></trkpt>
        <trkpt lat="29.56116" lon="103.413071"><ele>1023.718</ele><time>2026-06-20T20:07:24.000Z</time></trkpt>
        <trkpt lat="29.561176" lon="103.413044"><ele>1023.2806</ele><time>2026-06-20T20:07:34.000Z</time></trkpt>
        <trkpt lat="29.561177" lon="103.413021"><ele>1023.1143</ele><time>2026-06-20T20:07:36.000Z</time></trkpt>
        <trkpt lat="29.561176" lon="103.412995"><ele>1022.99426</ele><time>2026-06-20T20:07:44.000Z</time></trkpt>
        <trkpt lat="29.561175" lon="103.412962"><ele>1022.84515</ele><time>2026-06-20T20:07:48.000Z</time></trkpt>
        <trkpt lat="29.561175" lon="103.412962"><ele>1022.63654</ele><time>2026-06-20T20:07:50.000Z</time></trkpt>
        <trkpt lat="29.561178" lon="103.412939"><ele>1022.5349</ele><time>2026-06-20T20:07:56.000Z</time></trkpt>
        <trkpt lat="29.56118" lon="103.4129"><ele>1021.3989</ele><time>2026-06-20T20:08:00.000Z</time></trkpt>
        <trkpt lat="29.561179" lon="103.412892"><ele>1019.8174</ele><time>2026-06-20T20:08:02.000Z</time></trkpt>
        <trkpt lat="29.561176" lon="103.412883"><ele>1019.3644</ele><time>2026-06-20T20:08:04.000Z</time></trkpt>
        <trkpt lat="29.561165" lon="103.412843"><ele>1018.6036</ele><time>2026-06-20T20:08:08.000Z</time></trkpt>
        <trkpt lat="29.561164" lon="103.41283"><ele>1018.0802</ele><time>2026-06-20T20:08:10.000Z</time></trkpt>
        <trkpt lat="29.561168" lon="103.412819"><ele>1018.0802</ele><time>2026-06-20T20:08:12.000Z</time></trkpt>
        <trkpt lat="29.561185" lon="103.412767"><ele>1018.0802</ele><time>2026-06-20T20:08:16.000Z</time></trkpt>
        <trkpt lat="29.561193" lon="103.412747"><ele>1018.0802</ele><time>2026-06-20T20:08:18.000Z</time></trkpt>
        <trkpt lat="29.561201" lon="103.412727"><ele>1018.0802</ele><time>2026-06-20T20:08:20.000Z</time></trkpt>
        <trkpt lat="29.56121" lon="103.412716"><ele>1018.58765</ele><time>2026-06-20T20:08:22.000Z</time></trkpt>
        <trkpt lat="29.561228" lon="103.412701"><ele>1019.37805</ele><time>2026-06-20T20:08:26.000Z</time></trkpt>
        <trkpt lat="29.561237" lon="103.412705"><ele>1020.12244</ele><time>2026-06-20T20:08:30.000Z</time></trkpt>
        <trkpt lat="29.561277" lon="103.412719"><ele>1020.58044</ele><time>2026-06-20T20:08:45.000Z</time></trkpt>
        <trkpt lat="29.561277" lon="103.412719"><ele>1021.0143</ele><time>2026-06-20T20:08:47.000Z</time></trkpt>
        <trkpt lat="29.561284" lon="103.412714"><ele>1021.0143</ele><time>2026-06-20T20:08:51.000Z</time></trkpt>
        <trkpt lat="29.561322" lon="103.412676"><ele>1021.0143</ele><time>2026-06-20T20:09:02.000Z</time></trkpt>
        <trkpt lat="29.561341" lon="103.41265"><ele>1021.0143</ele><time>2026-06-20T20:09:04.000Z</time></trkpt>
        <trkpt lat="29.561359" lon="103.412621"><ele>1021.0143</ele><time>2026-06-20T20:09:06.000Z</time></trkpt>
        <trkpt lat="29.561372" lon="103.412595"><ele>1021.0119</ele><time>2026-06-20T20:09:08.000Z</time></trkpt>
        <trkpt lat="29.561381" lon="103.412576"><ele>1019.195</ele><time>2026-06-20T20:09:10.000Z</time></trkpt>
        <trkpt lat="29.56139" lon="103.412562"><ele>1017.22565</ele><time>2026-06-20T20:09:12.000Z</time></trkpt>
        <trkpt lat="29.561412" lon="103.412535"><ele>1016.4571</ele><time>2026-06-20T20:09:16.000Z</time></trkpt>
        <trkpt lat="29.561423" lon="103.412527"><ele>1015.68964</ele><time>2026-06-20T20:09:18.000Z</time></trkpt>
        <trkpt lat="29.56143" lon="103.412524"><ele>1015.06445</ele><time>2026-06-20T20:09:20.000Z</time></trkpt>
        <trkpt lat="29.561476" lon="103.412505"><ele>1014.57684</ele><time>2026-06-20T20:09:32.000Z</time></trkpt>
        <trkpt lat="29.561476" lon="103.412505"><ele>1014.2886</ele><time>2026-06-20T20:09:34.000Z</time></trkpt>
        <trkpt lat="29.561487" lon="103.412468"><ele>1014.185</ele><time>2026-06-20T20:10:14.000Z</time></trkpt>
        <trkpt lat="29.561459" lon="103.412429"><ele>1014.1379</ele><time>2026-06-20T20:10:30.000Z</time></trkpt>
        <trkpt lat="29.561444" lon="103.412406"><ele>1012.9613</ele><time>2026-06-20T20:10:32.000Z</time></trkpt>
        <trkpt lat="29.561433" lon="103.412389"><ele>1011.7971</ele><time>2026-06-20T20:10:42.000Z</time></trkpt>
        <trkpt lat="29.56142" lon="103.41235"><ele>1008.6969</ele><time>2026-06-20T20:10:45.000Z</time></trkpt>
        <trkpt lat="29.56142" lon="103.412342"><ele>1005.0578</ele><time>2026-06-20T20:10:51.000Z</time></trkpt>
        <trkpt lat="29.561419" lon="103.41231"><ele>1004.0643</ele><time>2026-06-20T20:10:55.000Z</time></trkpt>
        <trkpt lat="29.561416" lon="103.41223"><ele>1003.4443</ele><time>2026-06-20T20:11:06.000Z</time></trkpt>
        <trkpt lat="29.561416" lon="103.41223"><ele>1003.22833</ele><time>2026-06-20T20:11:08.000Z</time></trkpt>
        <trkpt lat="29.561417" lon="103.412229"><ele>1003.1182</ele><time>2026-06-20T20:11:10.000Z</time></trkpt>
        <trkpt lat="29.561449" lon="103.412176"><ele>1003.0567</ele><time>2026-06-20T20:11:24.000Z</time></trkpt>
        <trkpt lat="29.561457" lon="103.412161"><ele>1003.0148</ele><time>2026-06-20T20:11:26.000Z</time></trkpt>
        <trkpt lat="29.561457" lon="103.412161"><ele>1003.0078</ele><time>2026-06-20T20:11:28.000Z</time></trkpt>
        <trkpt lat="29.561404" lon="103.412103"><ele>1003.0078</ele><time>2026-06-20T20:11:38.000Z</time></trkpt>
        <trkpt lat="29.561402" lon="103.412096"><ele>1002.1563</ele><time>2026-06-20T20:11:40.000Z</time></trkpt>
        <trkpt lat="29.561405" lon="103.412089"><ele>1001.26135</ele><time>2026-06-20T20:11:42.000Z</time></trkpt>
        <trkpt lat="29.561433" lon="103.412025"><ele>1001.26135</ele><time>2026-06-20T20:11:50.000Z</time></trkpt>
        <trkpt lat="29.561448" lon="103.412"><ele>1001.08234</ele><time>2026-06-20T20:11:52.000Z</time></trkpt>
        <trkpt lat="29.561461" lon="103.411982"><ele>1000.95844</ele><time>2026-06-20T20:11:54.000Z</time></trkpt>
        <trkpt lat="29.56147" lon="103.411975"><ele>1000.7766</ele><time>2026-06-20T20:11:56.000Z</time></trkpt>
        <trkpt lat="29.561508" lon="103.411948"><ele>1000.6196</ele><time>2026-06-20T20:12:09.000Z</time></trkpt>
        <trkpt lat="29.561508" lon="103.411948"><ele>1000.6181</ele><time>2026-06-20T20:12:11.000Z</time></trkpt>
        <trkpt lat="29.561521" lon="103.411933"><ele>1000.5854</ele><time>2026-06-20T20:12:15.000Z</time></trkpt>
        <trkpt lat="29.56155" lon="103.411903"><ele>1000.3804</ele><time>2026-06-20T20:12:19.000Z</time></trkpt>
        <trkpt lat="29.561556" lon="103.411895"><ele>999.4114</ele><time>2026-06-20T20:12:21.000Z</time></trkpt>
        <trkpt lat="29.561556" lon="103.411894"><ele>998.5998</ele><time>2026-06-20T20:12:23.000Z</time></trkpt>
        <trkpt lat="29.561584" lon="103.411951"><ele>998.5584</ele><time>2026-06-20T20:13:18.000Z</time></trkpt>
        <trkpt lat="29.561584" lon="103.411951"><ele>998.03375</ele><time>2026-06-20T20:13:20.000Z</time></trkpt>
        <trkpt lat="29.561583" lon="103.411957"><ele>997.2978</ele><time>2026-06-20T20:13:22.000Z</time></trkpt>
        <trkpt lat="29.56157" lon="103.412029"><ele>996.7191</ele><time>2026-06-20T20:15:33.000Z</time></trkpt>
        <trkpt lat="29.561571" lon="103.41203"><ele>994.23444</ele><time>2026-06-20T20:15:35.000Z</time></trkpt>
        <trkpt lat="29.561579" lon="103.412051"><ele>991.82446</ele><time>2026-06-20T20:15:40.000Z</time></trkpt>
        <trkpt lat="29.561605" lon="103.412118"><ele>991.47394</ele><time>2026-06-20T20:15:53.000Z</time></trkpt>
        <trkpt lat="29.561612" lon="103.412136"><ele>989.8929</ele><time>2026-06-20T20:15:55.000Z</time></trkpt>
        <trkpt lat="29.561624" lon="103.412148"><ele>988.3334</ele><time>2026-06-20T20:15:57.000Z</time></trkpt>
        <trkpt lat="29.561659" lon="103.412173"><ele>988.0656</ele><time>2026-06-20T20:16:05.000Z</time></trkpt>
        <trkpt lat="29.561659" lon="103.412181"><ele>987.4774</ele><time>2026-06-20T20:16:07.000Z</time></trkpt>
        <trkpt lat="29.561658" lon="103.412256"><ele>986.77454</ele><time>2026-06-20T20:16:34.000Z</time></trkpt>
        <trkpt lat="29.561658" lon="103.412256"><ele>986.1977</ele><time>2026-06-20T20:16:36.000Z</time></trkpt>
        <trkpt lat="29.561657" lon="103.412256"><ele>985.3449</ele><time>2026-06-20T20:16:32.000Z</time></trkpt>
        <trkpt lat="29.561742" lon="103.412364"><ele>985.0842</ele><time>2026-06-20T20:16:53.000Z</time></trkpt>
        <trkpt lat="29.561742" lon="103.412364"><ele>985.0842</ele><time>2026-06-20T20:16:55.000Z</time></trkpt>
        <trkpt lat="29.561743" lon="103.412366"><ele>985.0842</ele><time>2026-06-20T20:16:57.000Z</time></trkpt>
        <trkpt lat="29.561763" lon="103.412417"><ele>985.0842</ele><time>2026-06-20T20:17:03.000Z</time></trkpt>
        <trkpt lat="29.561768" lon="103.412441"><ele>985.0842</ele><time>2026-06-20T20:17:05.000Z</time></trkpt>
        <trkpt lat="29.561772" lon="103.412468"><ele>985.4055</ele><time>2026-06-20T20:17:07.000Z</time></trkpt>
        <trkpt lat="29.561776" lon="103.412497"><ele>985.4055</ele><time>2026-06-20T20:17:09.000Z</time></trkpt>
        <trkpt lat="29.561779" lon="103.412521"><ele>985.4055</ele><time>2026-06-20T20:17:11.000Z</time></trkpt>
        <trkpt lat="29.561782" lon="103.412542"><ele>985.4055</ele><time>2026-06-20T20:17:13.000Z</time></trkpt>
        <trkpt lat="29.561784" lon="103.412563"><ele>985.4055</ele><time>2026-06-20T20:17:15.000Z</time></trkpt>
        <trkpt lat="29.561781" lon="103.41259"><ele>985.4149</ele><time>2026-06-20T20:17:17.000Z</time></trkpt>
        <trkpt lat="29.561771" lon="103.412605"><ele>985.4027</ele><time>2026-06-20T20:17:19.000Z</time></trkpt>
        <trkpt lat="29.561756" lon="103.41262"><ele>985.37744</ele><time>2026-06-20T20:17:21.000Z</time></trkpt>
        <trkpt lat="29.561734" lon="103.412633"><ele>985.37744</ele><time>2026-06-20T20:17:25.000Z</time></trkpt>
        <trkpt lat="29.561723" lon="103.412636"><ele>985.37744</ele><time>2026-06-20T20:17:27.000Z</time></trkpt>
        <trkpt lat="29.561707" lon="103.412642"><ele>985.37744</ele><time>2026-06-20T20:17:29.000Z</time></trkpt>
        <trkpt lat="29.561689" lon="103.412655"><ele>985.4027</ele><time>2026-06-20T20:17:31.000Z</time></trkpt>
        <trkpt lat="29.561677" lon="103.412669"><ele>985.568</ele><time>2026-06-20T20:17:33.000Z</time></trkpt>
        <trkpt lat="29.56167" lon="103.412692"><ele>985.9403</ele><time>2026-06-20T20:17:35.000Z</time></trkpt>
        <trkpt lat="29.561669" lon="103.412717"><ele>986.4118</ele><time>2026-06-20T20:17:37.000Z</time></trkpt>
        <trkpt lat="29.561671" lon="103.412746"><ele>986.8584</ele><time>2026-06-20T20:17:39.000Z</time></trkpt>
        <trkpt lat="29.561674" lon="103.41277"><ele>987.3533</ele><time>2026-06-20T20:17:41.000Z</time></trkpt>
        <trkpt lat="29.561676" lon="103.412795"><ele>987.9211</ele><time>2026-06-20T20:17:43.000Z</time></trkpt>
        <trkpt lat="29.561678" lon="103.412814"><ele>988.5422</ele><time>2026-06-20T20:17:45.000Z</time></trkpt>
        <trkpt lat="29.56168" lon="103.412829"><ele>989.2744</ele><time>2026-06-20T20:17:47.000Z</time></trkpt>
        <trkpt lat="29.561686" lon="103.412836"><ele>989.878</ele><time>2026-06-20T20:17:49.000Z</time></trkpt>
        <trkpt lat="29.5617" lon="103.412849"><ele>990.11786</ele><time>2026-06-20T20:17:55.000Z</time></trkpt>
        <trkpt lat="29.561707" lon="103.412849"><ele>990.172</ele><time>2026-06-20T20:17:59.000Z</time></trkpt>
        <trkpt lat="29.561736" lon="103.412845"><ele>990.2205</ele><time>2026-06-20T20:18:03.000Z</time></trkpt>
        <trkpt lat="29.561738" lon="103.412845"><ele>990.273</ele><time>2026-06-20T20:18:07.000Z</time></trkpt>
        <trkpt lat="29.561748" lon="103.412847"><ele>990.5818</ele><time>2026-06-20T20:18:09.000Z</time></trkpt>
        <trkpt lat="29.561796" lon="103.41286"><ele>990.9688</ele><time>2026-06-20T20:18:13.000Z</time></trkpt>
        <trkpt lat="29.561819" lon="103.412869"><ele>991.09546</ele><time>2026-06-20T20:18:15.000Z</time></trkpt>
        <trkpt lat="29.561843" lon="103.412881"><ele>991.1508</ele><time>2026-06-20T20:18:17.000Z</time></trkpt>
        <trkpt lat="29.561861" lon="103.41289"><ele>991.4078</ele><time>2026-06-20T20:18:19.000Z</time></trkpt>
        <trkpt lat="29.561876" lon="103.412897"><ele>992.5221</ele><time>2026-06-20T20:18:21.000Z</time></trkpt>
        <trkpt lat="29.561889" lon="103.412901"><ele>993.843</ele><time>2026-06-20T20:18:23.000Z</time></trkpt>
        <trkpt lat="29.5619" lon="103.412901"><ele>994.0876</ele><time>2026-06-20T20:18:25.000Z</time></trkpt>
        <trkpt lat="29.561912" lon="103.412898"><ele>994.0876</ele><time>2026-06-20T20:18:27.000Z</time></trkpt>
        <trkpt lat="29.561924" lon="103.412894"><ele>994.0876</ele><time>2026-06-20T20:18:29.000Z</time></trkpt>
        <trkpt lat="29.561939" lon="103.412888"><ele>994.0876</ele><time>2026-06-20T20:18:31.000Z</time></trkpt>
        <trkpt lat="29.561957" lon="103.41288"><ele>994.0876</ele><time>2026-06-20T20:18:33.000Z</time></trkpt>
        <trkpt lat="29.561977" lon="103.412871"><ele>993.6502</ele><time>2026-06-20T20:18:35.000Z</time></trkpt>
        <trkpt lat="29.562001" lon="103.412862"><ele>993.1864</ele><time>2026-06-20T20:18:37.000Z</time></trkpt>
        <trkpt lat="29.562023" lon="103.412852"><ele>992.953</ele><time>2026-06-20T20:18:39.000Z</time></trkpt>
        <trkpt lat="29.562041" lon="103.412842"><ele>992.9231</ele><time>2026-06-20T20:18:41.000Z</time></trkpt>
        <trkpt lat="29.562058" lon="103.412832"><ele>992.8481</ele><time>2026-06-20T20:18:43.000Z</time></trkpt>
        <trkpt lat="29.562072" lon="103.412823"><ele>992.73865</ele><time>2026-06-20T20:18:45.000Z</time></trkpt>
        <trkpt lat="29.562089" lon="103.412809"><ele>992.57715</ele><time>2026-06-20T20:18:47.000Z</time></trkpt>
        <trkpt lat="29.562103" lon="103.412797"><ele>992.1659</ele><time>2026-06-20T20:18:49.000Z</time></trkpt>
        <trkpt lat="29.562117" lon="103.412789"><ele>991.7321</ele><time>2026-06-20T20:18:51.000Z</time></trkpt>
        <trkpt lat="29.56213" lon="103.412783"><ele>991.39813</ele><time>2026-06-20T20:18:53.000Z</time></trkpt>
        <trkpt lat="29.562144" lon="103.412778"><ele>991.1179</ele><time>2026-06-20T20:18:55.000Z</time></trkpt>
        <trkpt lat="29.562161" lon="103.412775"><ele>990.9635</ele><time>2026-06-20T20:18:57.000Z</time></trkpt>
        <trkpt lat="29.562181" lon="103.412771"><ele>990.71857</ele><time>2026-06-20T20:18:59.000Z</time></trkpt>
        <trkpt lat="29.562201" lon="103.412764"><ele>990.327</ele><time>2026-06-20T20:19:01.000Z</time></trkpt>
        <trkpt lat="29.562218" lon="103.412758"><ele>989.789</ele><time>2026-06-20T20:19:03.000Z</time></trkpt>
        <trkpt lat="29.562236" lon="103.412752"><ele>989.1477</ele><time>2026-06-20T20:19:05.000Z</time></trkpt>
        <trkpt lat="29.562253" lon="103.412747"><ele>988.59845</ele><time>2026-06-20T20:19:07.000Z</time></trkpt>
        <trkpt lat="29.562272" lon="103.412742"><ele>988.2957</ele><time>2026-06-20T20:19:09.000Z</time></trkpt>
        <trkpt lat="29.562292" lon="103.412738"><ele>988.16284</ele><time>2026-06-20T20:19:11.000Z</time></trkpt>
        <trkpt lat="29.562314" lon="103.412736"><ele>988.06134</ele><time>2026-06-20T20:19:13.000Z</time></trkpt>
        <trkpt lat="29.562335" lon="103.412736"><ele>988.0062</ele><time>2026-06-20T20:19:15.000Z</time></trkpt>
        <trkpt lat="29.562358" lon="103.412737"><ele>987.9066</ele><time>2026-06-20T20:19:17.000Z</time></trkpt>
        <trkpt lat="29.562385" lon="103.412742"><ele>987.74176</ele><time>2026-06-20T20:19:19.000Z</time></trkpt>
        <trkpt lat="29.56241" lon="103.412746"><ele>987.74176</ele><time>2026-06-20T20:19:21.000Z</time></trkpt>
        <trkpt lat="29.562432" lon="103.412753"><ele>987.74176</ele><time>2026-06-20T20:19:23.000Z</time></trkpt>
        <trkpt lat="29.562456" lon="103.412765"><ele>987.74176</ele><time>2026-06-20T20:19:25.000Z</time></trkpt>
        <trkpt lat="29.562475" lon="103.412777"><ele>987.81714</ele><time>2026-06-20T20:19:27.000Z</time></trkpt>
        <trkpt lat="29.562496" lon="103.412789"><ele>988.01056</ele><time>2026-06-20T20:19:29.000Z</time></trkpt>
        <trkpt lat="29.562517" lon="103.412797"><ele>988.3426</ele><time>2026-06-20T20:19:31.000Z</time></trkpt>
        <trkpt lat="29.562539" lon="103.412798"><ele>988.8569</ele><time>2026-06-20T20:19:33.000Z</time></trkpt>
        <trkpt lat="29.562555" lon="103.412791"><ele>989.11237</ele><time>2026-06-20T20:19:35.000Z</time></trkpt>
        <trkpt lat="29.562573" lon="103.41278"><ele>989.16364</ele><time>2026-06-20T20:19:37.000Z</time></trkpt>
        <trkpt lat="29.562595" lon="103.412764"><ele>989.2179</ele><time>2026-06-20T20:19:39.000Z</time></trkpt>
        <trkpt lat="29.56261" lon="103.412754"><ele>989.34204</ele><time>2026-06-20T20:19:41.000Z</time></trkpt>
        <trkpt lat="29.562624" lon="103.412743"><ele>989.56586</ele><time>2026-06-20T20:19:43.000Z</time></trkpt>
        <trkpt lat="29.562639" lon="103.412733"><ele>989.8428</ele><time>2026-06-20T20:19:45.000Z</time></trkpt>
        <trkpt lat="29.562649" lon="103.412729"><ele>990.1979</ele><time>2026-06-20T20:19:47.000Z</time></trkpt>
        <trkpt lat="29.56267" lon="103.412716"><ele>990.4629</ele><time>2026-06-20T20:20:21.000Z</time></trkpt>
        <trkpt lat="29.562688" lon="103.412708"><ele>990.602</ele><time>2026-06-20T20:20:27.000Z</time></trkpt>
        <trkpt lat="29.562706" lon="103.412709"><ele>990.7075</ele><time>2026-06-20T20:20:45.000Z</time></trkpt>
        <trkpt lat="29.562758" lon="103.412707"><ele>990.7385</ele><time>2026-06-20T20:21:01.000Z</time></trkpt>
        <trkpt lat="29.562773" lon="103.412707"><ele>991.68787</ele><time>2026-06-20T20:21:23.000Z</time></trkpt>
        <trkpt lat="29.56277" lon="103.412642"><ele>992.70984</ele><time>2026-06-20T20:21:39.000Z</time></trkpt>
        <trkpt lat="29.562801" lon="103.4126"><ele>992.70984</ele><time>2026-06-20T20:21:50.000Z</time></trkpt>
        <trkpt lat="29.562819" lon="103.412577"><ele>992.70984</ele><time>2026-06-20T20:21:52.000Z</time></trkpt>
        <trkpt lat="29.562838" lon="103.412554"><ele>992.70984</ele><time>2026-06-20T20:21:54.000Z</time></trkpt>
        <trkpt lat="29.562855" lon="103.412532"><ele>992.70984</ele><time>2026-06-20T20:21:56.000Z</time></trkpt>
        <trkpt lat="29.562871" lon="103.412512"><ele>991.87885</ele><time>2026-06-20T20:21:58.000Z</time></trkpt>
        <trkpt lat="29.562889" lon="103.412493"><ele>990.5448</ele><time>2026-06-20T20:22:00.000Z</time></trkpt>
        <trkpt lat="29.562909" lon="103.412478"><ele>989.8049</ele><time>2026-06-20T20:22:01.000Z</time></trkpt>
        <trkpt lat="29.562923" lon="103.412468"><ele>989.1318</ele><time>2026-06-20T20:22:03.000Z</time></trkpt>
        <trkpt lat="29.562947" lon="103.41245"><ele>988.3824</ele><time>2026-06-20T20:22:08.000Z</time></trkpt>
        <trkpt lat="29.562955" lon="103.412444"><ele>987.5461</ele><time>2026-06-20T20:22:10.000Z</time></trkpt>
        <trkpt lat="29.562978" lon="103.412421"><ele>986.84894</ele><time>2026-06-20T20:22:18.000Z</time></trkpt>
        <trkpt lat="29.562996" lon="103.412402"><ele>986.30554</ele><time>2026-06-20T20:22:28.000Z</time></trkpt>
        <trkpt lat="29.562996" lon="103.412402"><ele>985.4948</ele><time>2026-06-20T20:22:30.000Z</time></trkpt>
        <trkpt lat="29.563056" lon="103.412353"><ele>984.87854</ele><time>2026-06-20T20:22:39.000Z</time></trkpt>
        <trkpt lat="29.563056" lon="103.412353"><ele>984.8001</ele><time>2026-06-20T20:22:41.000Z</time></trkpt>
        <trkpt lat="29.563057" lon="103.412351"><ele>984.7073</ele><time>2026-06-20T20:22:43.000Z</time></trkpt>
        <trkpt lat="29.563084" lon="103.412316"><ele>984.46277</ele><time>2026-06-20T20:22:49.000Z</time></trkpt>
        <trkpt lat="29.563095" lon="103.412295"><ele>983.29626</ele><time>2026-06-20T20:22:51.000Z</time></trkpt>
        <trkpt lat="29.563102" lon="103.412277"><ele>982.26166</ele><time>2026-06-20T20:22:53.000Z</time></trkpt>
        <trkpt lat="29.56311" lon="103.412264"><ele>982.2405</ele><time>2026-06-20T20:22:55.000Z</time></trkpt>
        <trkpt lat="29.563121" lon="103.412251"><ele>981.9997</ele><time>2026-06-20T20:22:57.000Z</time></trkpt>
        <trkpt lat="29.563139" lon="103.412238"><ele>981.45</ele><time>2026-06-20T20:22:59.000Z</time></trkpt>
        <trkpt lat="29.563154" lon="103.412233"><ele>980.8581</ele><time>2026-06-20T20:23:01.000Z</time></trkpt>
        <trkpt lat="29.563173" lon="103.412234"><ele>980.31934</ele><time>2026-06-20T20:23:03.000Z</time></trkpt>
        <trkpt lat="29.563192" lon="103.412243"><ele>979.8768</ele><time>2026-06-20T20:23:05.000Z</time></trkpt>
        <trkpt lat="29.563206" lon="103.412256"><ele>979.3153</ele><time>2026-06-20T20:23:07.000Z</time></trkpt>
        <trkpt lat="29.56322" lon="103.412272"><ele>978.62195</ele><time>2026-06-20T20:23:09.000Z</time></trkpt>
        <trkpt lat="29.563231" lon="103.412293"><ele>978.1119</ele><time>2026-06-20T20:23:11.000Z</time></trkpt>
        <trkpt lat="29.563247" lon="103.412311"><ele>977.8996</ele><time>2026-06-20T20:23:13.000Z</time></trkpt>
        <trkpt lat="29.563258" lon="103.412322"><ele>977.876</ele><time>2026-06-20T20:23:15.000Z</time></trkpt>
        <trkpt lat="29.563277" lon="103.412338"><ele>977.84576</ele><time>2026-06-20T20:23:17.000Z</time></trkpt>
        <trkpt lat="29.56328" lon="103.412336"><ele>977.81494</ele><time>2026-06-20T20:23:19.000Z</time></trkpt>
        <trkpt lat="29.563332" lon="103.412324"><ele>977.81494</ele><time>2026-06-20T20:23:29.000Z</time></trkpt>
        <trkpt lat="29.563346" lon="103.412326"><ele>977.81494</ele><time>2026-06-20T20:23:31.000Z</time></trkpt>
        <trkpt lat="29.563351" lon="103.412334"><ele>977.84576</ele><time>2026-06-20T20:23:33.000Z</time></trkpt>
        <trkpt lat="29.563375" lon="103.412375"><ele>977.8966</ele><time>2026-06-20T20:23:41.000Z</time></trkpt>
        <trkpt lat="29.563352" lon="103.412418"><ele>978.0463</ele><time>2026-06-20T20:23:51.000Z</time></trkpt>
        <trkpt lat="29.563352" lon="103.412418"><ele>978.3568</ele><time>2026-06-20T20:23:53.000Z</time></trkpt>
        <trkpt lat="29.56342" lon="103.412446"><ele>978.95087</ele><time>2026-06-20T20:24:07.000Z</time></trkpt>
        <trkpt lat="29.56342" lon="103.412446"><ele>981.18677</ele><time>2026-06-20T20:24:08.000Z</time></trkpt>
        <trkpt lat="29.563423" lon="103.412448"><ele>983.0131</ele><time>2026-06-20T20:24:10.000Z</time></trkpt>
        <trkpt lat="29.563492" lon="103.412496"><ele>983.5311</ele><time>2026-06-20T20:24:16.000Z</time></trkpt>
        <trkpt lat="29.563519" lon="103.412509"><ele>984.632</ele><time>2026-06-20T20:24:18.000Z</time></trkpt>
        <trkpt lat="29.563546" lon="103.41252"><ele>985.2157</ele><time>2026-06-20T20:24:20.000Z</time></trkpt>
        <trkpt lat="29.563574" lon="103.412528"><ele>985.25653</ele><time>2026-06-20T20:24:22.000Z</time></trkpt>
        <trkpt lat="29.563596" lon="103.412535"><ele>986.066</ele><time>2026-06-20T20:24:24.000Z</time></trkpt>
        <trkpt lat="29.563615" lon="103.412539"><ele>987.1959</ele><time>2026-06-20T20:24:26.000Z</time></trkpt>
        <trkpt lat="29.563637" lon="103.412539"><ele>987.9347</ele><time>2026-06-20T20:24:31.000Z</time></trkpt>
        <trkpt lat="29.563669" lon="103.412536"><ele>988.6722</ele><time>2026-06-20T20:24:35.000Z</time></trkpt>
        <trkpt lat="29.56368" lon="103.412535"><ele>989.0544</ele><time>2026-06-20T20:24:37.000Z</time></trkpt>
        <trkpt lat="29.563693" lon="103.412533"><ele>989.0544</ele><time>2026-06-20T20:24:39.000Z</time></trkpt>
        <trkpt lat="29.563723" lon="103.412527"><ele>989.0544</ele><time>2026-06-20T20:24:43.000Z</time></trkpt>
        <trkpt lat="29.563738" lon="103.412523"><ele>989.0544</ele><time>2026-06-20T20:24:45.000Z</time></trkpt>
        <trkpt lat="29.563757" lon="103.412519"><ele>989.0544</ele><time>2026-06-20T20:24:47.000Z</time></trkpt>
        <trkpt lat="29.563774" lon="103.412516"><ele>988.9487</ele><time>2026-06-20T20:24:49.000Z</time></trkpt>
        <trkpt lat="29.563785" lon="103.41252"><ele>988.59155</ele><time>2026-06-20T20:24:51.000Z</time></trkpt>
        <trkpt lat="29.563807" lon="103.412523"><ele>988.36096</ele><time>2026-06-20T20:24:57.000Z</time></trkpt>
        <trkpt lat="29.563818" lon="103.412518"><ele>988.36096</ele><time>2026-06-20T20:25:07.000Z</time></trkpt>
        <trkpt lat="29.563885" lon="103.412487"><ele>988.36096</ele><time>2026-06-20T20:25:16.000Z</time></trkpt>
        <trkpt lat="29.563885" lon="103.412487"><ele>988.36096</ele><time>2026-06-20T20:25:18.000Z</time></trkpt>
        <trkpt lat="29.563887" lon="103.412487"><ele>988.36096</ele><time>2026-06-20T20:25:20.000Z</time></trkpt>
        <trkpt lat="29.563946" lon="103.412485"><ele>988.36096</ele><time>2026-06-20T20:25:26.000Z</time></trkpt>
        <trkpt lat="29.563973" lon="103.412485"><ele>988.3569</ele><time>2026-06-20T20:25:28.000Z</time></trkpt>
        <trkpt lat="29.563997" lon="103.412485"><ele>988.3305</ele><time>2026-06-20T20:25:30.000Z</time></trkpt>
        <trkpt lat="29.56402" lon="103.412483"><ele>988.325</ele><time>2026-06-20T20:25:32.000Z</time></trkpt>
        <trkpt lat="29.564027" lon="103.412474"><ele>988.2547</ele><time>2026-06-20T20:25:34.000Z</time></trkpt>
        <trkpt lat="29.564034" lon="103.412456"><ele>988.2877</ele><time>2026-06-20T20:25:38.000Z</time></trkpt>
        <trkpt lat="29.564044" lon="103.412426"><ele>988.26807</ele><time>2026-06-20T20:25:44.000Z</time></trkpt>
        <trkpt lat="29.564048" lon="103.412416"><ele>988.25995</ele><time>2026-06-20T20:25:46.000Z</time></trkpt>
        <trkpt lat="29.564054" lon="103.412404"><ele>988.25995</ele><time>2026-06-20T20:25:48.000Z</time></trkpt>
        <trkpt lat="29.564075" lon="103.412372"><ele>988.18774</ele><time>2026-06-20T20:25:52.000Z</time></trkpt>
        <trkpt lat="29.564079" lon="103.412363"><ele>988.1896</ele><time>2026-06-20T20:25:54.000Z</time></trkpt>
        <trkpt lat="29.564081" lon="103.412354"><ele>988.28</ele><time>2026-06-20T20:25:56.000Z</time></trkpt>
        <trkpt lat="29.564087" lon="103.412312"><ele>988.3522</ele><time>2026-06-20T20:26:02.000Z</time></trkpt>
        <trkpt lat="29.564088" lon="103.412299"><ele>988.3734</ele><time>2026-06-20T20:26:04.000Z</time></trkpt>
        <trkpt lat="29.564088" lon="103.412289"><ele>988.3734</ele><time>2026-06-20T20:26:06.000Z</time></trkpt>
        <trkpt lat="29.564092" lon="103.412245"><ele>988.3522</ele><time>2026-06-20T20:26:12.000Z</time></trkpt>
        <trkpt lat="29.564095" lon="103.412232"><ele>988.3182</ele><time>2026-06-20T20:26:13.000Z</time></trkpt>
        <trkpt lat="29.564094" lon="103.412223"><ele>988.25903</ele><time>2026-06-20T20:26:15.000Z</time></trkpt>
        <trkpt lat="29.564093" lon="103.412176"><ele>988.1896</ele><time>2026-06-20T20:26:19.000Z</time></trkpt>
        <trkpt lat="29.564094" lon="103.412155"><ele>987.5259</ele><time>2026-06-20T20:26:21.000Z</time></trkpt>
        <trkpt lat="29.564104" lon="103.41214"><ele>986.7729</ele><time>2026-06-20T20:26:23.000Z</time></trkpt>
        <trkpt lat="29.564123" lon="103.412126"><ele>986.611</ele><time>2026-06-20T20:26:25.000Z</time></trkpt>
        <trkpt lat="29.564152" lon="103.412108"><ele>986.5532</ele><time>2026-06-20T20:26:27.000Z</time></trkpt>
        <trkpt lat="29.564172" lon="103.412091"><ele>986.42487</ele><time>2026-06-20T20:26:29.000Z</time></trkpt>
        <trkpt lat="29.564179" lon="103.412079"><ele>986.0904</ele><time>2026-06-20T20:26:31.000Z</time></trkpt>
        <trkpt lat="29.564186" lon="103.412069"><ele>985.4743</ele><time>2026-06-20T20:26:33.000Z</time></trkpt>
        <trkpt lat="29.564214" lon="103.412044"><ele>984.76624</ele><time>2026-06-20T20:26:37.000Z</time></trkpt>
        <trkpt lat="29.564234" lon="103.412031"><ele>984.19104</ele><time>2026-06-20T20:26:40.000Z</time></trkpt>
        <trkpt lat="29.564253" lon="103.412019"><ele>983.8064</ele><time>2026-06-20T20:26:42.000Z</time></trkpt>
        <trkpt lat="29.56427" lon="103.412008"><ele>983.76306</ele><time>2026-06-20T20:26:44.000Z</time></trkpt>
        <trkpt lat="29.564287" lon="103.411996"><ele>983.76306</ele><time>2026-06-20T20:26:46.000Z</time></trkpt>
        <trkpt lat="29.564303" lon="103.411981"><ele>983.76306</ele><time>2026-06-20T20:26:48.000Z</time></trkpt>
        <trkpt lat="29.56432" lon="103.411968"><ele>983.76306</ele><time>2026-06-20T20:26:52.000Z</time></trkpt>
        <trkpt lat="29.564343" lon="103.411953"><ele>983.6462</ele><time>2026-06-20T20:27:02.000Z</time></trkpt>
        <trkpt lat="29.564373" lon="103.411932"><ele>983.68164</ele><time>2026-06-20T20:27:06.000Z</time></trkpt>
        <trkpt lat="29.564386" lon="103.411924"><ele>983.6952</ele><time>2026-06-20T20:27:08.000Z</time></trkpt>
        <trkpt lat="29.564416" lon="103.411905"><ele>983.77594</ele><time>2026-06-20T20:27:12.000Z</time></trkpt>
        <trkpt lat="29.564431" lon="103.411872"><ele>983.87604</ele><time>2026-06-20T20:27:16.000Z</time></trkpt>
        <trkpt lat="29.56444" lon="103.411868"><ele>983.961</ele><time>2026-06-20T20:27:18.000Z</time></trkpt>
        <trkpt lat="29.564486" lon="103.411861"><ele>983.961</ele><time>2026-06-20T20:27:22.000Z</time></trkpt>
        <trkpt lat="29.564503" lon="103.411865"><ele>983.8279</ele><time>2026-06-20T20:27:24.000Z</time></trkpt>
        <trkpt lat="29.56452" lon="103.411874"><ele>983.72784</ele><time>2026-06-20T20:27:26.000Z</time></trkpt>
        <trkpt lat="29.564543" lon="103.411892"><ele>983.70764</ele><time>2026-06-20T20:27:30.000Z</time></trkpt>
        <trkpt lat="29.56456" lon="103.411905"><ele>983.72784</ele><time>2026-06-20T20:27:34.000Z</time></trkpt>
        <trkpt lat="29.564572" lon="103.411916"><ele>983.8279</ele><time>2026-06-20T20:27:38.000Z</time></trkpt>
        <trkpt lat="29.564599" lon="103.411947"><ele>984.0481</ele><time>2026-06-20T20:27:54.000Z</time></trkpt>
        <trkpt lat="29.564608" lon="103.411962"><ele>984.2074</ele><time>2026-06-20T20:28:00.000Z</time></trkpt>
        <trkpt lat="29.564619" lon="103.411985"><ele>984.2926</ele><time>2026-06-20T20:28:02.000Z</time></trkpt>
        <trkpt lat="29.564644" lon="103.412039"><ele>984.51105</ele><time>2026-06-20T20:28:06.000Z</time></trkpt>
        <trkpt lat="29.564655" lon="103.412062"><ele>985.5477</ele><time>2026-06-20T20:28:08.000Z</time></trkpt>
        <trkpt lat="29.564662" lon="103.412079"><ele>986.38214</ele><time>2026-06-20T20:28:10.000Z</time></trkpt>
        <trkpt lat="29.564672" lon="103.412095"><ele>986.38214</ele><time>2026-06-20T20:28:12.000Z</time></trkpt>
        <trkpt lat="29.564688" lon="103.412129"><ele>986.38214</ele><time>2026-06-20T20:28:16.000Z</time></trkpt>
        <trkpt lat="29.564694" lon="103.412138"><ele>986.38214</ele><time>2026-06-20T20:28:18.000Z</time></trkpt>
        <trkpt lat="29.564708" lon="103.412154"><ele>986.38214</ele><time>2026-06-20T20:28:22.000Z</time></trkpt>
        <trkpt lat="29.564723" lon="103.412174"><ele>986.2609</ele><time>2026-06-20T20:28:26.000Z</time></trkpt>
        <trkpt lat="29.564727" lon="103.412182"><ele>986.1741</ele><time>2026-06-20T20:28:28.000Z</time></trkpt>
        <trkpt lat="29.564738" lon="103.4122"><ele>986.0415</ele><time>2026-06-20T20:28:31.000Z</time></trkpt>
        <trkpt lat="29.564748" lon="103.412222"><ele>985.8704</ele><time>2026-06-20T20:28:35.000Z</time></trkpt>
        <trkpt lat="29.564756" lon="103.412234"><ele>985.7056</ele><time>2026-06-20T20:28:37.000Z</time></trkpt>
        <trkpt lat="29.564759" lon="103.412244"><ele>985.5032</ele><time>2026-06-20T20:28:40.000Z</time></trkpt>
        <trkpt lat="29.564773" lon="103.41226"><ele>985.5032</ele><time>2026-06-20T20:29:04.000Z</time></trkpt>
        <trkpt lat="29.564798" lon="103.412288"><ele>985.5032</ele><time>2026-06-20T20:29:08.000Z</time></trkpt>
        <trkpt lat="29.564798" lon="103.412288"><ele>985.5032</ele><time>2026-06-20T20:29:10.000Z</time></trkpt>
        <trkpt lat="29.564837" lon="103.412335"><ele>985.6379</ele><time>2026-06-20T20:29:13.000Z</time></trkpt>
        <trkpt lat="29.564837" lon="103.412335"><ele>985.6801</ele><time>2026-06-20T20:29:15.000Z</time></trkpt>
        <trkpt lat="29.564837" lon="103.412338"><ele>985.63696</ele><time>2026-06-20T20:29:17.000Z</time></trkpt>
        <trkpt lat="29.564835" lon="103.412394"><ele>985.63007</ele><time>2026-06-20T20:29:21.000Z</time></trkpt>
        <trkpt lat="29.564832" lon="103.412431"><ele>985.63007</ele><time>2026-06-20T20:29:23.000Z</time></trkpt>
        <trkpt lat="29.564829" lon="103.412465"><ele>985.63007</ele><time>2026-06-20T20:29:25.000Z</time></trkpt>
        <trkpt lat="29.564827" lon="103.412489"><ele>985.63007</ele><time>2026-06-20T20:29:27.000Z</time></trkpt>
        <trkpt lat="29.564822" lon="103.412492"><ele>984.8823</ele><time>2026-06-20T20:29:29.000Z</time></trkpt>
        <trkpt lat="29.564808" lon="103.412508"><ele>983.6447</ele><time>2026-06-20T20:29:37.000Z</time></trkpt>
        <trkpt lat="29.564776" lon="103.412544"><ele>982.8781</ele><time>2026-06-20T20:29:40.000Z</time></trkpt>
        <trkpt lat="29.564776" lon="103.412544"><ele>982.5543</ele><time>2026-06-20T20:29:42.000Z</time></trkpt>
        <trkpt lat="29.564776" lon="103.412547"><ele>982.3973</ele><time>2026-06-20T20:29:44.000Z</time></trkpt>
        <trkpt lat="29.564775" lon="103.412588"><ele>982.3236</ele><time>2026-06-20T20:29:50.000Z</time></trkpt>
        <trkpt lat="29.564774" lon="103.412596"><ele>982.3147</ele><time>2026-06-20T20:29:52.000Z</time></trkpt>
        <trkpt lat="29.564775" lon="103.412599"><ele>982.2583</ele><time>2026-06-20T20:29:54.000Z</time></trkpt>
        <trkpt lat="29.564788" lon="103.412637"><ele>982.2583</ele><time>2026-06-20T20:30:29.000Z</time></trkpt>
        <trkpt lat="29.564793" lon="103.412642"><ele>982.2583</ele><time>2026-06-20T20:30:33.000Z</time></trkpt>
        <trkpt lat="29.564794" lon="103.412658"><ele>982.26227</ele><time>2026-06-20T20:30:35.000Z</time></trkpt>
        <trkpt lat="29.5648" lon="103.412701"><ele>982.18805</ele><time>2026-06-20T20:32:46.000Z</time></trkpt>
        <trkpt lat="29.564801" lon="103.412716"><ele>982.18805</ele><time>2026-06-20T20:32:50.000Z</time></trkpt>
        <trkpt lat="29.564802" lon="103.412724"><ele>982.18805</ele><time>2026-06-20T20:32:52.000Z</time></trkpt>
        <trkpt lat="29.564804" lon="103.412764"><ele>982.18805</ele><time>2026-06-20T20:33:00.000Z</time></trkpt>
        <trkpt lat="29.56484" lon="103.412793"><ele>981.06476</ele><time>2026-06-20T20:33:09.000Z</time></trkpt>
        <trkpt lat="29.564848" lon="103.412799"><ele>979.5517</ele><time>2026-06-20T20:33:11.000Z</time></trkpt>
        <trkpt lat="29.564849" lon="103.412801"><ele>979.0887</ele><time>2026-06-20T20:33:13.000Z</time></trkpt>
        <trkpt lat="29.564879" lon="103.412844"><ele>978.3802</ele><time>2026-06-20T20:33:37.000Z</time></trkpt>
        <trkpt lat="29.564892" lon="103.412864"><ele>977.70184</ele><time>2026-06-20T20:33:43.000Z</time></trkpt>
        <trkpt lat="29.564892" lon="103.412864"><ele>977.6584</ele><time>2026-06-20T20:33:45.000Z</time></trkpt>
        <trkpt lat="29.564951" lon="103.412911"><ele>977.6266</ele><time>2026-06-20T20:34:02.000Z</time></trkpt>
        <trkpt lat="29.564985" lon="103.412938"><ele>977.38544</ele><time>2026-06-20T20:34:05.000Z</time></trkpt>
        <trkpt lat="29.564985" lon="103.412938"><ele>975.7642</ele><time>2026-06-20T20:34:07.000Z</time></trkpt>
        <trkpt lat="29.564996" lon="103.412978"><ele>974.3673</ele><time>2026-06-20T20:34:13.000Z</time></trkpt>
        <trkpt lat="29.565007" lon="103.413021"><ele>972.7676</ele><time>2026-06-20T20:34:19.000Z</time></trkpt>
        <trkpt lat="29.565014" lon="103.413038"><ele>971.3186</ele><time>2026-06-20T20:34:21.000Z</time></trkpt>
        <trkpt lat="29.565023" lon="103.413059"><ele>971.3186</ele><time>2026-06-20T20:34:23.000Z</time></trkpt>
        <trkpt lat="29.565038" lon="103.413102"><ele>971.3186</ele><time>2026-06-20T20:34:27.000Z</time></trkpt>
        <trkpt lat="29.565044" lon="103.413121"><ele>971.3186</ele><time>2026-06-20T20:34:29.000Z</time></trkpt>
        <trkpt lat="29.56505" lon="103.413143"><ele>971.3186</ele><time>2026-06-20T20:34:31.000Z</time></trkpt>
        <trkpt lat="29.565057" lon="103.413165"><ele>971.67346</ele><time>2026-06-20T20:34:33.000Z</time></trkpt>
        <trkpt lat="29.565066" lon="103.413185"><ele>972.1663</ele><time>2026-06-20T20:34:35.000Z</time></trkpt>
        <trkpt lat="29.565074" lon="103.413208"><ele>972.5278</ele><time>2026-06-20T20:34:37.000Z</time></trkpt>
        <trkpt lat="29.565083" lon="103.413224"><ele>972.7743</ele><time>2026-06-20T20:34:39.000Z</time></trkpt>
        <trkpt lat="29.56509" lon="103.413238"><ele>973.2244</ele><time>2026-06-20T20:34:41.000Z</time></trkpt>
        <trkpt lat="29.565098" lon="103.413255"><ele>973.62933</ele><time>2026-06-20T20:34:43.000Z</time></trkpt>
        <trkpt lat="29.565099" lon="103.41327"><ele>973.9313</ele><time>2026-06-20T20:34:45.000Z</time></trkpt>
        <trkpt lat="29.565104" lon="103.4133"><ele>974.07904</ele><time>2026-06-20T20:34:53.000Z</time></trkpt>
        <trkpt lat="29.565108" lon="103.41331"><ele>974.1144</ele><time>2026-06-20T20:34:59.000Z</time></trkpt>
        <trkpt lat="29.565117" lon="103.413327"><ele>974.12775</ele><time>2026-06-20T20:35:01.000Z</time></trkpt>
        <trkpt lat="29.565129" lon="103.413348"><ele>974.13696</ele><time>2026-06-20T20:35:03.000Z</time></trkpt>
        <trkpt lat="29.565142" lon="103.413365"><ele>974.13696</ele><time>2026-06-20T20:35:05.000Z</time></trkpt>
        <trkpt lat="29.565153" lon="103.413378"><ele>974.13696</ele><time>2026-06-20T20:35:07.000Z</time></trkpt>
        <trkpt lat="29.565161" lon="103.413383"><ele>974.1299</ele><time>2026-06-20T20:35:09.000Z</time></trkpt>
        <trkpt lat="29.565168" lon="103.413392"><ele>974.0854</ele><time>2026-06-20T20:35:11.000Z</time></trkpt>
        <trkpt lat="29.565185" lon="103.413417"><ele>973.9333</ele><time>2026-06-20T20:35:15.000Z</time></trkpt>
        <trkpt lat="29.565192" lon="103.413431"><ele>973.58466</ele><time>2026-06-20T20:35:17.000Z</time></trkpt>
        <trkpt lat="29.565196" lon="103.413447"><ele>973.37366</ele><time>2026-06-20T20:35:19.000Z</time></trkpt>
        <trkpt lat="29.565198" lon="103.413465"><ele>973.37366</ele><time>2026-06-20T20:35:21.000Z</time></trkpt>
        <trkpt lat="29.565198" lon="103.413482"><ele>973.37366</ele><time>2026-06-20T20:35:23.000Z</time></trkpt>
        <trkpt lat="29.565198" lon="103.413498"><ele>973.37366</ele><time>2026-06-20T20:35:25.000Z</time></trkpt>
        <trkpt lat="29.565197" lon="103.413514"><ele>973.37366</ele><time>2026-06-20T20:35:27.000Z</time></trkpt>
        <trkpt lat="29.565194" lon="103.41353"><ele>973.5383</ele><time>2026-06-20T20:35:29.000Z</time></trkpt>
        <trkpt lat="29.565191" lon="103.413547"><ele>973.928</ele><time>2026-06-20T20:35:31.000Z</time></trkpt>
        <trkpt lat="29.565188" lon="103.413562"><ele>974.45734</ele><time>2026-06-20T20:35:33.000Z</time></trkpt>
        <trkpt lat="29.565186" lon="103.413577"><ele>975.0007</ele><time>2026-06-20T20:35:35.000Z</time></trkpt>
        <trkpt lat="29.565183" lon="103.413593"><ele>975.56226</ele><time>2026-06-20T20:35:37.000Z</time></trkpt>
        <trkpt lat="29.56518" lon="103.41361"><ele>976.0243</ele><time>2026-06-20T20:35:39.000Z</time></trkpt>
        <trkpt lat="29.565177" lon="103.41363"><ele>976.4511</ele><time>2026-06-20T20:35:41.000Z</time></trkpt>
        <trkpt lat="29.565174" lon="103.413646"><ele>976.9986</ele><time>2026-06-20T20:35:43.000Z</time></trkpt>
        <trkpt lat="29.565171" lon="103.41366"><ele>977.45215</ele><time>2026-06-20T20:35:45.000Z</time></trkpt>
        <trkpt lat="29.565166" lon="103.413682"><ele>977.81</ele><time>2026-06-20T20:35:49.000Z</time></trkpt>
        <trkpt lat="29.565163" lon="103.413693"><ele>978.30963</ele><time>2026-06-20T20:35:51.000Z</time></trkpt>
        <trkpt lat="29.56516" lon="103.413705"><ele>978.9204</ele><time>2026-06-20T20:35:53.000Z</time></trkpt>
        <trkpt lat="29.565153" lon="103.413733"><ele>979.2173</ele><time>2026-06-20T20:35:59.000Z</time></trkpt>
        <trkpt lat="29.565149" lon="103.413739"><ele>979.2173</ele><time>2026-06-20T20:36:01.000Z</time></trkpt>
        <trkpt lat="29.565145" lon="103.413747"><ele>979.2173</ele><time>2026-06-20T20:36:03.000Z</time></trkpt>
        <trkpt lat="29.565134" lon="103.41377"><ele>979.2674</ele><time>2026-06-20T20:36:09.000Z</time></trkpt>
        <trkpt lat="29.565134" lon="103.413777"><ele>979.4647</ele><time>2026-06-20T20:36:11.000Z</time></trkpt>
        <trkpt lat="29.565137" lon="103.413809"><ele>979.61566</ele><time>2026-06-20T20:36:15.000Z</time></trkpt>
        <trkpt lat="29.565137" lon="103.413811"><ele>979.61566</ele><time>2026-06-20T20:36:19.000Z</time></trkpt>
        <trkpt lat="29.565136" lon="103.413819"><ele>979.61566</ele><time>2026-06-20T20:36:21.000Z</time></trkpt>
        <trkpt lat="29.565131" lon="103.41385"><ele>979.61566</ele><time>2026-06-20T20:36:27.000Z</time></trkpt>
        <trkpt lat="29.565132" lon="103.413852"><ele>979.79126</ele><time>2026-06-20T20:36:29.000Z</time></trkpt>
        <trkpt lat="29.565144" lon="103.413872"><ele>979.79126</ele><time>2026-06-20T20:36:55.000Z</time></trkpt>
        <trkpt lat="29.565152" lon="103.413891"><ele>979.9968</ele><time>2026-06-20T20:36:57.000Z</time></trkpt>
        <trkpt lat="29.565159" lon="103.413902"><ele>979.9968</ele><time>2026-06-20T20:36:59.000Z</time></trkpt>
        <trkpt lat="29.565199" lon="103.413962"><ele>980.04486</ele><time>2026-06-20T20:37:07.000Z</time></trkpt>
        <trkpt lat="29.565199" lon="103.413962"><ele>980.14404</ele><time>2026-06-20T20:37:09.000Z</time></trkpt>
        <trkpt lat="29.5652" lon="103.413963"><ele>980.2557</ele><time>2026-06-20T20:37:11.000Z</time></trkpt>
        <trkpt lat="29.565246" lon="103.414005"><ele>980.28394</ele><time>2026-06-20T20:37:25.000Z</time></trkpt>
        <trkpt lat="29.565246" lon="103.414005"><ele>980.32776</ele><time>2026-06-20T20:37:27.000Z</time></trkpt>
        <trkpt lat="29.565247" lon="103.414006"><ele>980.32776</ele><time>2026-06-20T20:37:29.000Z</time></trkpt>
        <trkpt lat="29.565295" lon="103.414035"><ele>980.28394</ele><time>2026-06-20T20:37:49.000Z</time></trkpt>
        <trkpt lat="29.565296" lon="103.414034"><ele>980.28394</ele><time>2026-06-20T20:37:51.000Z</time></trkpt>
        <trkpt lat="29.565304" lon="103.414036"><ele>980.28394</ele><time>2026-06-20T20:37:55.000Z</time></trkpt>
        <trkpt lat="29.565357" lon="103.414046"><ele>980.28394</ele><time>2026-06-20T20:38:33.000Z</time></trkpt>
        <trkpt lat="29.565371" lon="103.414048"><ele>979.78033</ele><time>2026-06-20T20:38:37.000Z</time></trkpt>
        <trkpt lat="29.565373" lon="103.41405"><ele>979.14056</ele><time>2026-06-20T20:38:35.000Z</time></trkpt>
        <trkpt lat="29.565408" lon="103.414089"><ele>979.14056</ele><time>2026-06-20T20:38:44.000Z</time></trkpt>
        <trkpt lat="29.56542" lon="103.414107"><ele>979.14056</ele><time>2026-06-20T20:38:46.000Z</time></trkpt>
        <trkpt lat="29.565429" lon="103.414125"><ele>979.14056</ele><time>2026-06-20T20:38:48.000Z</time></trkpt>
        <trkpt lat="29.565438" lon="103.414144"><ele>979.14056</ele><time>2026-06-20T20:38:50.000Z</time></trkpt>
        <trkpt lat="29.565447" lon="103.414152"><ele>979.5457</ele><time>2026-06-20T20:38:52.000Z</time></trkpt>
        <trkpt lat="29.565477" lon="103.414178"><ele>979.96075</ele><time>2026-06-20T20:39:03.000Z</time></trkpt>
        <trkpt lat="29.565477" lon="103.414178"><ele>980.2601</ele><time>2026-06-20T20:39:05.000Z</time></trkpt>
        <trkpt lat="29.565485" lon="103.414185"><ele>980.7622</ele><time>2026-06-20T20:39:09.000Z</time></trkpt>
        <trkpt lat="29.56552" lon="103.414216"><ele>980.9572</ele><time>2026-06-20T20:39:15.000Z</time></trkpt>
        <trkpt lat="29.565529" lon="103.414224"><ele>980.9572</ele><time>2026-06-20T20:39:17.000Z</time></trkpt>
        <trkpt lat="29.565537" lon="103.414225"><ele>981.0206</ele><time>2026-06-20T20:39:19.000Z</time></trkpt>
        <trkpt lat="29.565546" lon="103.414234"><ele>981.14294</ele><time>2026-06-20T20:39:27.000Z</time></trkpt>
        <trkpt lat="29.565551" lon="103.414245"><ele>981.3203</ele><time>2026-06-20T20:39:31.000Z</time></trkpt>
        <trkpt lat="29.56556" lon="103.414261"><ele>981.3203</ele><time>2026-06-20T20:39:47.000Z</time></trkpt>
        <trkpt lat="29.565564" lon="103.414265"><ele>981.0535</ele><time>2026-06-20T20:39:49.000Z</time></trkpt>
        <trkpt lat="29.565583" lon="103.414275"><ele>980.86774</ele><time>2026-06-20T20:39:51.000Z</time></trkpt>
        <trkpt lat="29.565597" lon="103.414282"><ele>980.82416</ele><time>2026-06-20T20:39:54.000Z</time></trkpt>
        <trkpt lat="29.565597" lon="103.414282"><ele>980.82416</ele><time>2026-06-20T20:39:56.000Z</time></trkpt>
        <trkpt lat="29.565618" lon="103.414284"><ele>980.84534</ele><time>2026-06-20T20:40:02.000Z</time></trkpt>
        <trkpt lat="29.565647" lon="103.414284"><ele>980.8889</ele><time>2026-06-20T20:40:06.000Z</time></trkpt>
        <trkpt lat="29.565659" lon="103.414286"><ele>981.2013</ele><time>2026-06-20T20:40:08.000Z</time></trkpt>
        <trkpt lat="29.565673" lon="103.414291"><ele>981.2724</ele><time>2026-06-20T20:40:10.000Z</time></trkpt>
        <trkpt lat="29.565686" lon="103.414302"><ele>981.36145</ele><time>2026-06-20T20:40:12.000Z</time></trkpt>
        <trkpt lat="29.565699" lon="103.414315"><ele>982.2361</ele><time>2026-06-20T20:40:14.000Z</time></trkpt>
        <trkpt lat="29.565715" lon="103.414332"><ele>982.71216</ele><time>2026-06-20T20:40:16.000Z</time></trkpt>
        <trkpt lat="29.56573" lon="103.414346"><ele>982.8867</ele><time>2026-06-20T20:40:18.000Z</time></trkpt>
        <trkpt lat="29.565746" lon="103.414357"><ele>983.00494</ele><time>2026-06-20T20:40:20.000Z</time></trkpt>
        <trkpt lat="29.565763" lon="103.414365"><ele>983.1927</ele><time>2026-06-20T20:40:22.000Z</time></trkpt>
        <trkpt lat="29.565785" lon="103.414372"><ele>983.4277</ele><time>2026-06-20T20:40:24.000Z</time></trkpt>
        <trkpt lat="29.565808" lon="103.414377"><ele>983.795</ele><time>2026-06-20T20:40:26.000Z</time></trkpt>
        <trkpt lat="29.56583" lon="103.414381"><ele>984.3171</ele><time>2026-06-20T20:40:28.000Z</time></trkpt>
        <trkpt lat="29.56585" lon="103.414384"><ele>984.7057</ele><time>2026-06-20T20:40:30.000Z</time></trkpt>
        <trkpt lat="29.565866" lon="103.414387"><ele>984.8995</ele><time>2026-06-20T20:40:32.000Z</time></trkpt>
        <trkpt lat="29.565878" lon="103.414387"><ele>985.0938</ele><time>2026-06-20T20:40:34.000Z</time></trkpt>
        <trkpt lat="29.565889" lon="103.414381"><ele>985.45984</ele><time>2026-06-20T20:40:36.000Z</time></trkpt>
        <trkpt lat="29.56591" lon="103.414364"><ele>985.9788</ele><time>2026-06-20T20:40:40.000Z</time></trkpt>
        <trkpt lat="29.565916" lon="103.414355"><ele>986.277</ele><time>2026-06-20T20:40:42.000Z</time></trkpt>
        <trkpt lat="29.565924" lon="103.41435"><ele>986.31964</ele><time>2026-06-20T20:40:44.000Z</time></trkpt>
        <trkpt lat="29.565953" lon="103.414339"><ele>986.31964</ele><time>2026-06-20T20:40:52.000Z</time></trkpt>
        <trkpt lat="29.565964" lon="103.414338"><ele>986.31964</ele><time>2026-06-20T20:40:56.000Z</time></trkpt>
        <trkpt lat="29.565969" lon="103.414342"><ele>986.31964</ele><time>2026-06-20T20:40:58.000Z</time></trkpt>
        <trkpt lat="29.565997" lon="103.414387"><ele>986.40393</ele><time>2026-06-20T20:41:11.000Z</time></trkpt>
        <trkpt lat="29.566008" lon="103.414405"><ele>986.50793</ele><time>2026-06-20T20:41:14.000Z</time></trkpt>
        <trkpt lat="29.566009" lon="103.414405"><ele>986.57996</ele><time>2026-06-20T20:41:16.000Z</time></trkpt>
        <trkpt lat="29.566045" lon="103.414455"><ele>986.57996</ele><time>2026-06-20T20:41:24.000Z</time></trkpt>
        <trkpt lat="29.566055" lon="103.414466"><ele>986.1423</ele><time>2026-06-20T20:41:26.000Z</time></trkpt>
        <trkpt lat="29.566063" lon="103.414465"><ele>985.6402</ele><time>2026-06-20T20:41:28.000Z</time></trkpt>
        <trkpt lat="29.566137" lon="103.414458"><ele>985.41486</ele><time>2026-06-20T20:41:53.000Z</time></trkpt>
        <trkpt lat="29.566137" lon="103.414458"><ele>985.2692</ele><time>2026-06-20T20:41:55.000Z</time></trkpt>
        <trkpt lat="29.566138" lon="103.414457"><ele>985.2692</ele><time>2026-06-20T20:41:57.000Z</time></trkpt>
        <trkpt lat="29.566194" lon="103.414409"><ele>985.50684</ele><time>2026-06-20T20:42:21.000Z</time></trkpt>
        <trkpt lat="29.566212" lon="103.414394"><ele>985.50684</ele><time>2026-06-20T20:42:23.000Z</time></trkpt>
        <trkpt lat="29.566264" lon="103.414351"><ele>985.50684</ele><time>2026-06-20T20:42:32.000Z</time></trkpt>
        <trkpt lat="29.566264" lon="103.414351"><ele>985.50684</ele><time>2026-06-20T20:42:34.000Z</time></trkpt>
        <trkpt lat="29.566284" lon="103.414339"><ele>985.7305</ele><time>2026-06-20T20:42:40.000Z</time></trkpt>
        <trkpt lat="29.566352" lon="103.4143"><ele>986.25885</ele><time>2026-06-20T20:42:48.000Z</time></trkpt>
        <trkpt lat="29.566369" lon="103.414291"><ele>986.45325</ele><time>2026-06-20T20:42:50.000Z</time></trkpt>
        <trkpt lat="29.566379" lon="103.41428"><ele>986.5688</ele><time>2026-06-20T20:42:52.000Z</time></trkpt>
        <trkpt lat="29.566415" lon="103.414238"><ele>986.7585</ele><time>2026-06-20T20:43:06.000Z</time></trkpt>
        <trkpt lat="29.566421" lon="103.414229"><ele>987.8847</ele><time>2026-06-20T20:43:08.000Z</time></trkpt>
        <trkpt lat="29.56642" lon="103.414221"><ele>988.7082</ele><time>2026-06-20T20:43:10.000Z</time></trkpt>
        <trkpt lat="29.566419" lon="103.414163"><ele>988.7082</ele><time>2026-06-20T20:43:26.000Z</time></trkpt>
        <trkpt lat="29.566419" lon="103.414144"><ele>988.7082</ele><time>2026-06-20T20:43:32.000Z</time></trkpt>
        <trkpt lat="29.566419" lon="103.414144"><ele>988.7082</ele><time>2026-06-20T20:43:34.000Z</time></trkpt>
        <trkpt lat="29.566454" lon="103.414089"><ele>988.7082</ele><time>2026-06-20T20:43:44.000Z</time></trkpt>
        <trkpt lat="29.566461" lon="103.414073"><ele>987.9178</ele><time>2026-06-20T20:43:46.000Z</time></trkpt>
        <trkpt lat="29.566467" lon="103.414048"><ele>986.99817</ele><time>2026-06-20T20:43:48.000Z</time></trkpt>
        <trkpt lat="29.566484" lon="103.413989"><ele>986.75507</ele><time>2026-06-20T20:43:52.000Z</time></trkpt>
        <trkpt lat="29.566491" lon="103.413968"><ele>986.6565</ele><time>2026-06-20T20:43:54.000Z</time></trkpt>
        <trkpt lat="29.566498" lon="103.413957"><ele>986.5131</ele><time>2026-06-20T20:43:56.000Z</time></trkpt>
        <trkpt lat="29.56652" lon="103.413946"><ele>986.39075</ele><time>2026-06-20T20:44:04.000Z</time></trkpt>
        <trkpt lat="29.566563" lon="103.413923"><ele>985.7303</ele><time>2026-06-20T20:44:10.000Z</time></trkpt>
        <trkpt lat="29.566563" lon="103.413923"><ele>984.6823</ele><time>2026-06-20T20:44:12.000Z</time></trkpt>
        <trkpt lat="29.566565" lon="103.413923"><ele>983.82214</ele><time>2026-06-20T20:44:14.000Z</time></trkpt>
        <trkpt lat="29.566606" lon="103.413932"><ele>982.3255</ele><time>2026-06-20T20:44:28.000Z</time></trkpt>
        <trkpt lat="29.56661" lon="103.413931"><ele>980.4199</ele><time>2026-06-20T20:44:30.000Z</time></trkpt>
        <trkpt lat="29.566615" lon="103.413932"><ele>979.5867</ele><time>2026-06-20T20:44:32.000Z</time></trkpt>
        <trkpt lat="29.566649" lon="103.413939"><ele>979.5867</ele><time>2026-06-20T20:44:44.000Z</time></trkpt>
        <trkpt lat="29.566684" lon="103.413946"><ele>979.5867</ele><time>2026-06-20T20:44:52.000Z</time></trkpt>
        <trkpt lat="29.566684" lon="103.413946"><ele>979.5867</ele><time>2026-06-20T20:44:54.000Z</time></trkpt>
        <trkpt lat="29.566705" lon="103.413954"><ele>979.5867</ele><time>2026-06-20T20:45:02.000Z</time></trkpt>
        <trkpt lat="29.566765" lon="103.413978"><ele>980.1354</ele><time>2026-06-20T20:45:34.000Z</time></trkpt>
        <trkpt lat="29.566772" lon="103.414007"><ele>981.3746</ele><time>2026-06-20T20:45:36.000Z</time></trkpt>
        <trkpt lat="29.566838" lon="103.414022"><ele>982.0945</ele><time>2026-06-20T20:45:52.000Z</time></trkpt>
        <trkpt lat="29.566859" lon="103.414024"><ele>982.18475</ele><time>2026-06-20T20:46:00.000Z</time></trkpt>
        <trkpt lat="29.566877" lon="103.414016"><ele>982.303</ele><time>2026-06-20T20:46:02.000Z</time></trkpt>
        <trkpt lat="29.566915" lon="103.414"><ele>982.37537</ele><time>2026-06-20T20:46:08.000Z</time></trkpt>
        <trkpt lat="29.566926" lon="103.413992"><ele>982.5221</ele><time>2026-06-20T20:46:12.000Z</time></trkpt>
        <trkpt lat="29.566937" lon="103.413985"><ele>982.63855</ele><time>2026-06-20T20:46:16.000Z</time></trkpt>
        <trkpt lat="29.56698" lon="103.413958"><ele>982.7402</ele><time>2026-06-20T20:46:23.000Z</time></trkpt>
        <trkpt lat="29.56698" lon="103.413958"><ele>982.92816</ele><time>2026-06-20T20:46:25.000Z</time></trkpt>
        <trkpt lat="29.566989" lon="103.413953"><ele>983.02826</ele><time>2026-06-20T20:46:29.000Z</time></trkpt>
        <trkpt lat="29.56703" lon="103.413931"><ele>983.07837</ele><time>2026-06-20T20:46:35.000Z</time></trkpt>
        <trkpt lat="29.567043" lon="103.413929"><ele>983.12915</ele><time>2026-06-20T20:46:37.000Z</time></trkpt>
        <trkpt lat="29.56706" lon="103.413925"><ele>983.14307</ele><time>2026-06-20T20:46:39.000Z</time></trkpt>
        <trkpt lat="29.567092" lon="103.413917"><ele>983.208</ele><time>2026-06-20T20:46:43.000Z</time></trkpt>
        <trkpt lat="29.567103" lon="103.413915"><ele>983.7025</ele><time>2026-06-20T20:46:45.000Z</time></trkpt>
        <trkpt lat="29.567109" lon="103.413909"><ele>984.2403</ele><time>2026-06-20T20:46:47.000Z</time></trkpt>
        <trkpt lat="29.567138" lon="103.413869"><ele>984.39935</ele><time>2026-06-20T20:46:55.000Z</time></trkpt>
        <trkpt lat="29.567148" lon="103.413857"><ele>984.5068</ele><time>2026-06-20T20:46:57.000Z</time></trkpt>
        <trkpt lat="29.567158" lon="103.413842"><ele>984.51874</ele><time>2026-06-20T20:46:59.000Z</time></trkpt>
        <trkpt lat="29.567167" lon="103.41383"><ele>984.5975</ele><time>2026-06-20T20:47:01.000Z</time></trkpt>
        <trkpt lat="29.567177" lon="103.413818"><ele>984.61536</ele><time>2026-06-20T20:47:03.000Z</time></trkpt>
        <trkpt lat="29.567201" lon="103.413798"><ele>984.61536</ele><time>2026-06-20T20:47:07.000Z</time></trkpt>
        <trkpt lat="29.567215" lon="103.413788"><ele>984.61536</ele><time>2026-06-20T20:47:09.000Z</time></trkpt>
        <trkpt lat="29.567229" lon="103.41378"><ele>984.5682</ele><time>2026-06-20T20:47:11.000Z</time></trkpt>
        <trkpt lat="29.567243" lon="103.413771"><ele>984.51874</ele><time>2026-06-20T20:47:13.000Z</time></trkpt>
        <trkpt lat="29.567257" lon="103.413761"><ele>984.3825</ele><time>2026-06-20T20:47:15.000Z</time></trkpt>
        <trkpt lat="29.567272" lon="103.413748"><ele>984.22626</ele><time>2026-06-20T20:47:17.000Z</time></trkpt>
        <trkpt lat="29.567287" lon="103.413736"><ele>984.11365</ele><time>2026-06-20T20:47:19.000Z</time></trkpt>
        <trkpt lat="29.567298" lon="103.413728"><ele>983.92114</ele><time>2026-06-20T20:47:21.000Z</time></trkpt>
        <trkpt lat="29.56731" lon="103.413724"><ele>983.6562</ele><time>2026-06-20T20:47:23.000Z</time></trkpt>
        <trkpt lat="29.567324" lon="103.413717"><ele>983.4779</ele><time>2026-06-20T20:47:25.000Z</time></trkpt>
        <trkpt lat="29.567343" lon="103.413701"><ele>983.4779</ele><time>2026-06-20T20:47:29.000Z</time></trkpt>
        <trkpt lat="29.567347" lon="103.413702"><ele>983.4779</ele><time>2026-06-20T20:47:31.000Z</time></trkpt>
        <trkpt lat="29.567434" lon="103.413721"><ele>983.4779</ele><time>2026-06-20T20:47:57.000Z</time></trkpt>
        <trkpt lat="29.567434" lon="103.413721"><ele>983.4779</ele><time>2026-06-20T20:47:59.000Z</time></trkpt>
        <trkpt lat="29.567398" lon="103.413661"><ele>983.36163</ele><time>2026-06-20T20:48:14.000Z</time></trkpt>
        <trkpt lat="29.567493" lon="103.413603"><ele>983.6289</ele><time>2026-06-20T20:48:27.000Z</time></trkpt>
        <trkpt lat="29.567493" lon="103.413603"><ele>983.8246</ele><time>2026-06-20T20:48:29.000Z</time></trkpt>
        <trkpt lat="29.567494" lon="103.413602"><ele>983.94226</ele><time>2026-06-20T20:48:31.000Z</time></trkpt>
        <trkpt lat="29.567573" lon="103.413543"><ele>983.9946</ele><time>2026-06-20T20:48:41.000Z</time></trkpt>
        <trkpt lat="29.567592" lon="103.413532"><ele>983.9946</ele><time>2026-06-20T20:48:43.000Z</time></trkpt>
        <trkpt lat="29.567614" lon="103.413524"><ele>983.87695</ele><time>2026-06-20T20:48:45.000Z</time></trkpt>
        <trkpt lat="29.567636" lon="103.41352"><ele>983.8246</ele><time>2026-06-20T20:48:47.000Z</time></trkpt>
        <trkpt lat="29.56766" lon="103.413518"><ele>983.63544</ele><time>2026-06-20T20:48:49.000Z</time></trkpt>
        <trkpt lat="29.567676" lon="103.413516"><ele>983.63934</ele><time>2026-06-20T20:48:51.000Z</time></trkpt>
        <trkpt lat="29.567702" lon="103.413509"><ele>983.88086</ele><time>2026-06-20T20:48:55.000Z</time></trkpt>
        <trkpt lat="29.567722" lon="103.413497"><ele>983.88086</ele><time>2026-06-20T20:48:59.000Z</time></trkpt>
        <trkpt lat="29.567736" lon="103.413489"><ele>983.88086</ele><time>2026-06-20T20:49:03.000Z</time></trkpt>
        <trkpt lat="29.567682" lon="103.413408"><ele>983.88086</ele><time>2026-06-20T20:49:17.000Z</time></trkpt>
        <trkpt lat="29.567682" lon="103.413408"><ele>984.2613</ele><time>2026-06-20T20:49:19.000Z</time></trkpt>
        <trkpt lat="29.567682" lon="103.413408"><ele>985.254</ele><time>2026-06-20T20:49:21.000Z</time></trkpt>
        <trkpt lat="29.567766" lon="103.413371"><ele>985.36475</ele><time>2026-06-20T20:49:27.000Z</time></trkpt>
        <trkpt lat="29.567951" lon="103.41329"><ele>985.36475</ele><time>2026-06-20T20:49:37.000Z</time></trkpt>
        <trkpt lat="29.567952" lon="103.41329"><ele>985.36475</ele><time>2026-06-20T20:49:39.000Z</time></trkpt>
        <trkpt lat="29.567954" lon="103.413289"><ele>985.36475</ele><time>2026-06-20T20:49:41.000Z</time></trkpt>
        <trkpt lat="29.568025" lon="103.41326"><ele>985.36475</ele><time>2026-06-20T20:49:47.000Z</time></trkpt>
        <trkpt lat="29.568052" lon="103.41325"><ele>982.83887</ele><time>2026-06-20T20:49:49.000Z</time></trkpt>
        <trkpt lat="29.568075" lon="103.413244"><ele>980.7656</ele><time>2026-06-20T20:49:51.000Z</time></trkpt>
        <trkpt lat="29.568099" lon="103.413241"><ele>980.75415</ele><time>2026-06-20T20:49:53.000Z</time></trkpt>
        <trkpt lat="29.568119" lon="103.413244"><ele>980.3845</ele><time>2026-06-20T20:49:55.000Z</time></trkpt>
        <trkpt lat="29.568128" lon="103.413246"><ele>979.9176</ele><time>2026-06-20T20:49:57.000Z</time></trkpt>
        <trkpt lat="29.568153" lon="103.413249"><ele>979.804</ele><time>2026-06-20T20:50:01.000Z</time></trkpt>
        <trkpt lat="29.568167" lon="103.413251"><ele>979.7194</ele><time>2026-06-20T20:50:03.000Z</time></trkpt>
        <trkpt lat="29.568183" lon="103.413254"><ele>979.6207</ele><time>2026-06-20T20:50:05.000Z</time></trkpt>
        <trkpt lat="29.568201" lon="103.41326"><ele>979.6006</ele><time>2026-06-20T20:50:07.000Z</time></trkpt>
        <trkpt lat="29.568219" lon="103.413268"><ele>979.32806</ele><time>2026-06-20T20:50:09.000Z</time></trkpt>
        <trkpt lat="29.568236" lon="103.413275"><ele>979.0927</ele><time>2026-06-20T20:50:11.000Z</time></trkpt>
        <trkpt lat="29.568254" lon="103.413286"><ele>979.0927</ele><time>2026-06-20T20:50:13.000Z</time></trkpt>
        <trkpt lat="29.568274" lon="103.413299"><ele>979.0927</ele><time>2026-06-20T20:50:15.000Z</time></trkpt>
        <trkpt lat="29.568291" lon="103.413313"><ele>979.0927</ele><time>2026-06-20T20:50:17.000Z</time></trkpt>
        <trkpt lat="29.568307" lon="103.413327"><ele>979.0927</ele><time>2026-06-20T20:50:19.000Z</time></trkpt>
        <trkpt lat="29.568322" lon="103.413344"><ele>979.2063</ele><time>2026-06-20T20:50:21.000Z</time></trkpt>
        <trkpt lat="29.568336" lon="103.413361"><ele>979.2918</ele><time>2026-06-20T20:50:23.000Z</time></trkpt>
        <trkpt lat="29.568346" lon="103.413377"><ele>979.3026</ele><time>2026-06-20T20:50:25.000Z</time></trkpt>
        <trkpt lat="29.568352" lon="103.413395"><ele>979.4079</ele><time>2026-06-20T20:50:27.000Z</time></trkpt>
        <trkpt lat="29.568352" lon="103.413407"><ele>979.4079</ele><time>2026-06-20T20:50:29.000Z</time></trkpt>
        <trkpt lat="29.568349" lon="103.413419"><ele>979.4079</ele><time>2026-06-20T20:50:31.000Z</time></trkpt>
        <trkpt lat="29.568343" lon="103.413433"><ele>979.40546</ele><time>2026-06-20T20:50:33.000Z</time></trkpt>
        <trkpt lat="29.568337" lon="103.413448"><ele>979.40546</ele><time>2026-06-20T20:50:35.000Z</time></trkpt>
        <trkpt lat="29.56833" lon="103.413465"><ele>979.2456</ele><time>2026-06-20T20:50:37.000Z</time></trkpt>
        <trkpt lat="29.568324" lon="103.41348"><ele>978.5542</ele><time>2026-06-20T20:50:39.000Z</time></trkpt>
        <trkpt lat="29.568318" lon="103.413496"><ele>977.77765</ele><time>2026-06-20T20:50:41.000Z</time></trkpt>
        <trkpt lat="29.568311" lon="103.413508"><ele>977.18243</ele><time>2026-06-20T20:50:43.000Z</time></trkpt>
        <trkpt lat="29.5683" lon="103.413518"><ele>976.6999</ele><time>2026-06-20T20:50:45.000Z</time></trkpt>
        <trkpt lat="29.568288" lon="103.413529"><ele>976.3304</ele><time>2026-06-20T20:50:47.000Z</time></trkpt>
        <trkpt lat="29.568279" lon="103.413542"><ele>976.2828</ele><time>2026-06-20T20:50:49.000Z</time></trkpt>
        <trkpt lat="29.568273" lon="103.413555"><ele>976.2828</ele><time>2026-06-20T20:50:51.000Z</time></trkpt>
        <trkpt lat="29.568266" lon="103.413571"><ele>976.2828</ele><time>2026-06-20T20:50:53.000Z</time></trkpt>
        <trkpt lat="29.568263" lon="103.413585"><ele>976.2828</ele><time>2026-06-20T20:50:55.000Z</time></trkpt>
        <trkpt lat="29.568261" lon="103.413607"><ele>976.2828</ele><time>2026-06-20T20:50:57.000Z</time></trkpt>
        <trkpt lat="29.568259" lon="103.413625"><ele>976.52576</ele><time>2026-06-20T20:50:59.000Z</time></trkpt>
        <trkpt lat="29.56826" lon="103.413642"><ele>976.8531</ele><time>2026-06-20T20:51:01.000Z</time></trkpt>
        <trkpt lat="29.568261" lon="103.41366"><ele>977.32513</ele><time>2026-06-20T20:51:03.000Z</time></trkpt>
        <trkpt lat="29.568263" lon="103.413674"><ele>978.0011</ele><time>2026-06-20T20:51:05.000Z</time></trkpt>
        <trkpt lat="29.568263" lon="103.413691"><ele>978.61017</ele><time>2026-06-20T20:51:07.000Z</time></trkpt>
        <trkpt lat="29.568264" lon="103.413708"><ele>978.88184</ele><time>2026-06-20T20:51:09.000Z</time></trkpt>
        <trkpt lat="29.568267" lon="103.413723"><ele>979.2087</ele><time>2026-06-20T20:51:11.000Z</time></trkpt>
        <trkpt lat="29.568271" lon="103.413737"><ele>979.6499</ele><time>2026-06-20T20:51:13.000Z</time></trkpt>
        <trkpt lat="29.568279" lon="103.413751"><ele>980.0009</ele><time>2026-06-20T20:51:15.000Z</time></trkpt>
        <trkpt lat="29.568288" lon="103.41376"><ele>980.4387</ele><time>2026-06-20T20:51:17.000Z</time></trkpt>
        <trkpt lat="29.568297" lon="103.413766"><ele>980.87555</ele><time>2026-06-20T20:51:19.000Z</time></trkpt>
        <trkpt lat="29.56831" lon="103.413774"><ele>981.1155</ele><time>2026-06-20T20:51:21.000Z</time></trkpt>
        <trkpt lat="29.568321" lon="103.413783"><ele>981.1155</ele><time>2026-06-20T20:51:23.000Z</time></trkpt>
        <trkpt lat="29.568335" lon="103.413793"><ele>981.1155</ele><time>2026-06-20T20:51:25.000Z</time></trkpt>
        <trkpt lat="29.568346" lon="103.413803"><ele>981.1155</ele><time>2026-06-20T20:51:27.000Z</time></trkpt>
        <trkpt lat="29.568354" lon="103.413812"><ele>981.1155</ele><time>2026-06-20T20:51:29.000Z</time></trkpt>
        <trkpt lat="29.568361" lon="103.413824"><ele>980.96954</ele><time>2026-06-20T20:51:31.000Z</time></trkpt>
        <trkpt lat="29.568364" lon="103.413843"><ele>980.56323</ele><time>2026-06-20T20:51:35.000Z</time></trkpt>
        <trkpt lat="29.568363" lon="103.41385"><ele>980.19226</ele><time>2026-06-20T20:51:39.000Z</time></trkpt>
        <trkpt lat="29.568349" lon="103.413897"><ele>979.88885</ele><time>2026-06-20T20:52:07.000Z</time></trkpt>
        <trkpt lat="29.568351" lon="103.413924"><ele>979.5368</ele><time>2026-06-20T20:52:09.000Z</time></trkpt>
        <trkpt lat="29.568352" lon="103.413935"><ele>978.95636</ele><time>2026-06-20T20:52:11.000Z</time></trkpt>
        <trkpt lat="29.568361" lon="103.414061"><ele>978.4832</ele><time>2026-06-20T20:52:29.000Z</time></trkpt>
        <trkpt lat="29.568361" lon="103.414061"><ele>978.17554</ele><time>2026-06-20T20:52:31.000Z</time></trkpt>
        <trkpt lat="29.56836" lon="103.414063"><ele>977.9583</ele><time>2026-06-20T20:52:33.000Z</time></trkpt>
        <trkpt lat="29.568343" lon="103.41417"><ele>977.9583</ele><time>2026-06-20T20:52:55.000Z</time></trkpt>
        <trkpt lat="29.568341" lon="103.414174"><ele>977.9583</ele><time>2026-06-20T20:52:57.000Z</time></trkpt>
        <trkpt lat="29.568321" lon="103.414197"><ele>977.9583</ele><time>2026-06-20T20:53:00.000Z</time></trkpt>
        <trkpt lat="29.568271" lon="103.414247"><ele>977.9583</ele><time>2026-06-20T20:53:14.000Z</time></trkpt>
        <trkpt lat="29.568272" lon="103.414249"><ele>978.336</ele><time>2026-06-20T20:53:16.000Z</time></trkpt>
        <trkpt lat="29.568282" lon="103.414301"><ele>978.52496</ele><time>2026-06-20T20:53:36.000Z</time></trkpt>
        <trkpt lat="29.568295" lon="103.414362"><ele>978.77234</ele><time>2026-06-20T20:55:17.000Z</time></trkpt>
        <trkpt lat="29.568294" lon="103.414367"><ele>978.7964</ele><time>2026-06-20T20:55:19.000Z</time></trkpt>
        <trkpt lat="29.568293" lon="103.414404"><ele>978.7964</ele><time>2026-06-20T20:55:48.000Z</time></trkpt>
        <trkpt lat="29.568291" lon="103.414474"><ele>978.7964</ele><time>2026-06-20T20:56:02.000Z</time></trkpt>
        <trkpt lat="29.568291" lon="103.414474"><ele>978.7367</ele><time>2026-06-20T20:56:04.000Z</time></trkpt>
        <trkpt lat="29.568325" lon="103.41449"><ele>978.52496</ele><time>2026-06-20T20:56:18.000Z</time></trkpt>
        <trkpt lat="29.568358" lon="103.414552"><ele>976.0691</ele><time>2026-06-20T20:56:36.000Z</time></trkpt>
        <trkpt lat="29.56837" lon="103.414583"><ele>972.1933</ele><time>2026-06-20T20:56:52.000Z</time></trkpt>
        <trkpt lat="29.568378" lon="103.414598"><ele>970.58466</ele><time>2026-06-20T20:57:08.000Z</time></trkpt>
        <trkpt lat="29.568402" lon="103.414641"><ele>968.8927</ele><time>2026-06-20T20:57:33.000Z</time></trkpt>
        <trkpt lat="29.568431" lon="103.414695"><ele>966.92975</ele><time>2026-06-20T20:57:47.000Z</time></trkpt>
        <trkpt lat="29.568431" lon="103.414695"><ele>966.44086</ele><time>2026-06-20T20:57:49.000Z</time></trkpt>
        <trkpt lat="29.568463" lon="103.414751"><ele>965.69434</ele><time>2026-06-20T20:58:03.000Z</time></trkpt>
        <trkpt lat="29.568476" lon="103.414771"><ele>963.2564</ele><time>2026-06-20T20:58:13.000Z</time></trkpt>
        <trkpt lat="29.568479" lon="103.414773"><ele>961.34625</ele><time>2026-06-20T20:58:15.000Z</time></trkpt>
        <trkpt lat="29.568537" lon="103.414804"><ele>961.31604</ele><time>2026-06-20T20:59:01.000Z</time></trkpt>
        <trkpt lat="29.568556" lon="103.414819"><ele>960.3671</ele><time>2026-06-20T20:59:17.000Z</time></trkpt>
        <trkpt lat="29.568557" lon="103.414819"><ele>959.3267</ele><time>2026-06-20T20:59:19.000Z</time></trkpt>
        <trkpt lat="29.568637" lon="103.414865"><ele>959.1794</ele><time>2026-06-20T20:59:55.000Z</time></trkpt>
        <trkpt lat="29.568652" lon="103.414842"><ele>956.1133</ele><time>2026-06-20T21:00:05.000Z</time></trkpt>
        <trkpt lat="29.568653" lon="103.414842"><ele>952.12463</ele><time>2026-06-20T21:00:07.000Z</time></trkpt>
        <trkpt lat="29.568721" lon="103.414885"><ele>951.111</ele><time>2026-06-20T21:00:35.000Z</time></trkpt>
        <trkpt lat="29.56875" lon="103.41487"><ele>949.56116</ele><time>2026-06-20T21:00:43.000Z</time></trkpt>
        <trkpt lat="29.56875" lon="103.41487"><ele>947.81274</ele><time>2026-06-20T21:00:45.000Z</time></trkpt>
        <trkpt lat="29.568794" lon="103.414879"><ele>947.3973</ele><time>2026-06-20T21:00:59.000Z</time></trkpt>
        <trkpt lat="29.568828" lon="103.414867"><ele>945.1667</ele><time>2026-06-20T21:01:13.000Z</time></trkpt>
        <trkpt lat="29.568842" lon="103.41487"><ele>942.42664</ele><time>2026-06-20T21:01:15.000Z</time></trkpt>
        <trkpt lat="29.568898" lon="103.414883"><ele>941.7631</ele><time>2026-06-20T21:01:28.000Z</time></trkpt>
        <trkpt lat="29.568927" lon="103.41489"><ele>940.7453</ele><time>2026-06-20T21:01:31.000Z</time></trkpt>
        <trkpt lat="29.568928" lon="103.414889"><ele>939.2332</ele><time>2026-06-20T21:01:33.000Z</time></trkpt>
        <trkpt lat="29.568961" lon="103.414893"><ele>938.7169</ele><time>2026-06-20T21:01:43.000Z</time></trkpt>
        <trkpt lat="29.568992" lon="103.414897"><ele>936.95465</ele><time>2026-06-20T21:01:49.000Z</time></trkpt>
        <trkpt lat="29.568992" lon="103.414897"><ele>934.9064</ele><time>2026-06-20T21:01:52.000Z</time></trkpt>
        <trkpt lat="29.56902" lon="103.414918"><ele>934.59827</ele><time>2026-06-20T21:01:55.000Z</time></trkpt>
        <trkpt lat="29.569035" lon="103.414931"><ele>934.13086</ele><time>2026-06-20T21:02:01.000Z</time></trkpt>
        <trkpt lat="29.569054" lon="103.414945"><ele>932.6008</ele><time>2026-06-20T21:02:03.000Z</time></trkpt>
        <trkpt lat="29.569077" lon="103.414957"><ele>931.51056</ele><time>2026-06-20T21:02:05.000Z</time></trkpt>
        <trkpt lat="29.569094" lon="103.41496"><ele>931.3806</ele><time>2026-06-20T21:02:07.000Z</time></trkpt>
        <trkpt lat="29.569104" lon="103.414956"><ele>931.2615</ele><time>2026-06-20T21:02:09.000Z</time></trkpt>
        <trkpt lat="29.569108" lon="103.414947"><ele>931.2436</ele><time>2026-06-20T21:02:11.000Z</time></trkpt>
        <trkpt lat="29.569118" lon="103.414913"><ele>931.1971</ele><time>2026-06-20T21:02:15.000Z</time></trkpt>
        <trkpt lat="29.569121" lon="103.414894"><ele>930.9382</ele><time>2026-06-20T21:02:17.000Z</time></trkpt>
        <trkpt lat="29.569122" lon="103.414876"><ele>930.4554</ele><time>2026-06-20T21:02:19.000Z</time></trkpt>
        <trkpt lat="29.569122" lon="103.414859"><ele>929.9167</ele><time>2026-06-20T21:02:21.000Z</time></trkpt>
        <trkpt lat="29.569124" lon="103.414848"><ele>929.34064</ele><time>2026-06-20T21:02:23.000Z</time></trkpt>
        <trkpt lat="29.569121" lon="103.414841"><ele>929.34064</ele><time>2026-06-20T21:02:33.000Z</time></trkpt>
        <trkpt lat="29.569113" lon="103.414817"><ele>929.0198</ele><time>2026-06-20T21:02:51.000Z</time></trkpt>
        <trkpt lat="29.569113" lon="103.414812"><ele>928.98975</ele><time>2026-06-20T21:02:53.000Z</time></trkpt>
        <trkpt lat="29.569119" lon="103.414802"><ele>928.9509</ele><time>2026-06-20T21:02:57.000Z</time></trkpt>
        <trkpt lat="29.569144" lon="103.414762"><ele>928.87335</ele><time>2026-06-20T21:03:07.000Z</time></trkpt>
        <trkpt lat="29.569144" lon="103.414762"><ele>928.0401</ele><time>2026-06-20T21:03:09.000Z</time></trkpt>
        <trkpt lat="29.569144" lon="103.414762"><ele>926.91437</ele><time>2026-06-20T21:03:11.000Z</time></trkpt>
        <trkpt lat="29.569266" lon="103.414731"><ele>926.91437</ele><time>2026-06-20T21:03:36.000Z</time></trkpt>
        <trkpt lat="29.569266" lon="103.414731"><ele>926.91437</ele><time>2026-06-20T21:03:38.000Z</time></trkpt>
        <trkpt lat="29.569267" lon="103.414733"><ele>926.91437</ele><time>2026-06-20T21:03:40.000Z</time></trkpt>
        <trkpt lat="29.56937" lon="103.414788"><ele>926.91437</ele><time>2026-06-20T21:03:55.000Z</time></trkpt>
        <trkpt lat="29.569386" lon="103.414792"><ele>928.1931</ele><time>2026-06-20T21:03:57.000Z</time></trkpt>
        <trkpt lat="29.569408" lon="103.41479"><ele>929.81836</ele><time>2026-06-20T21:03:59.000Z</time></trkpt>
        <trkpt lat="29.569451" lon="103.414782"><ele>929.8332</ele><time>2026-06-20T21:04:04.000Z</time></trkpt>
        <trkpt lat="29.569465" lon="103.414776"><ele>930.8239</ele><time>2026-06-20T21:04:06.000Z</time></trkpt>
        <trkpt lat="29.569472" lon="103.414768"><ele>931.8647</ele><time>2026-06-20T21:04:08.000Z</time></trkpt>
        <trkpt lat="29.569509" lon="103.414732"><ele>931.8647</ele><time>2026-06-20T21:04:32.000Z</time></trkpt>
        <trkpt lat="29.569515" lon="103.414733"><ele>931.90753</ele><time>2026-06-20T21:04:34.000Z</time></trkpt>
        <trkpt lat="29.569533" lon="103.414725"><ele>932.0702</ele><time>2026-06-20T21:04:39.000Z</time></trkpt>
        <trkpt lat="29.569554" lon="103.414717"><ele>932.36725</ele><time>2026-06-20T21:04:45.000Z</time></trkpt>
        <trkpt lat="29.569565" lon="103.414714"><ele>932.5377</ele><time>2026-06-20T21:04:49.000Z</time></trkpt>
        <trkpt lat="29.569582" lon="103.41471"><ele>932.6305</ele><time>2026-06-20T21:04:51.000Z</time></trkpt>
        <trkpt lat="29.569607" lon="103.414705"><ele>932.634</ele><time>2026-06-20T21:04:53.000Z</time></trkpt>
        <trkpt lat="29.569639" lon="103.414704"><ele>932.634</ele><time>2026-06-20T21:04:55.000Z</time></trkpt>
        <trkpt lat="29.569668" lon="103.414711"><ele>932.5412</ele><time>2026-06-20T21:04:57.000Z</time></trkpt>
        <trkpt lat="29.569698" lon="103.414724"><ele>932.3725</ele><time>2026-06-20T21:04:59.000Z</time></trkpt>
        <trkpt lat="29.569721" lon="103.41474"><ele>932.3725</ele><time>2026-06-20T21:05:01.000Z</time></trkpt>
        <trkpt lat="29.56974" lon="103.414753"><ele>932.3725</ele><time>2026-06-20T21:05:03.000Z</time></trkpt>
        <trkpt lat="29.56976" lon="103.414767"><ele>931.9526</ele><time>2026-06-20T21:05:05.000Z</time></trkpt>
        <trkpt lat="29.569773" lon="103.414782"><ele>931.56067</ele><time>2026-06-20T21:05:07.000Z</time></trkpt>
        <trkpt lat="29.569783" lon="103.414799"><ele>931.272</ele><time>2026-06-20T21:05:09.000Z</time></trkpt>
        <trkpt lat="29.569791" lon="103.414816"><ele>930.9989</ele><time>2026-06-20T21:05:11.000Z</time></trkpt>
        <trkpt lat="29.5698" lon="103.414831"><ele>930.79565</ele><time>2026-06-20T21:05:13.000Z</time></trkpt>
        <trkpt lat="29.569816" lon="103.414852"><ele>930.6487</ele><time>2026-06-20T21:05:17.000Z</time></trkpt>
        <trkpt lat="29.569826" lon="103.414867"><ele>930.4551</ele><time>2026-06-20T21:05:19.000Z</time></trkpt>
        <trkpt lat="29.56983" lon="103.414879"><ele>930.1705</ele><time>2026-06-20T21:05:21.000Z</time></trkpt>
        <trkpt lat="29.569843" lon="103.414902"><ele>929.82623</ele><time>2026-06-20T21:05:25.000Z</time></trkpt>
        <trkpt lat="29.569858" lon="103.414918"><ele>929.62616</ele><time>2026-06-20T21:05:29.000Z</time></trkpt>
        <trkpt lat="29.56987" lon="103.41493"><ele>929.62616</ele><time>2026-06-20T21:05:30.000Z</time></trkpt>
        <trkpt lat="29.56988" lon="103.41494"><ele>929.62616</ele><time>2026-06-20T21:05:32.000Z</time></trkpt>
        <trkpt lat="29.569896" lon="103.414962"><ele>929.62616</ele><time>2026-06-20T21:05:36.000Z</time></trkpt>
        <trkpt lat="29.569902" lon="103.414972"><ele>929.62616</ele><time>2026-06-20T21:05:38.000Z</time></trkpt>
        <trkpt lat="29.569905" lon="103.414985"><ele>929.81665</ele><time>2026-06-20T21:05:40.000Z</time></trkpt>
        <trkpt lat="29.569912" lon="103.41502"><ele>930.1041</ele><time>2026-06-20T21:05:44.000Z</time></trkpt>
        <trkpt lat="29.569915" lon="103.415039"><ele>930.3646</ele><time>2026-06-20T21:05:46.000Z</time></trkpt>
        <trkpt lat="29.569918" lon="103.415059"><ele>930.71234</ele><time>2026-06-20T21:05:48.000Z</time></trkpt>
        <trkpt lat="29.569919" lon="103.415082"><ele>931.0286</ele><time>2026-06-20T21:05:50.000Z</time></trkpt>
        <trkpt lat="29.569919" lon="103.415102"><ele>931.60284</ele><time>2026-06-20T21:05:52.000Z</time></trkpt>
        <trkpt lat="29.569917" lon="103.415122"><ele>932.0126</ele><time>2026-06-20T21:05:54.000Z</time></trkpt>
        <trkpt lat="29.569915" lon="103.41514"><ele>932.0126</ele><time>2026-06-20T21:05:56.000Z</time></trkpt>
        <trkpt lat="29.569913" lon="103.415158"><ele>932.0126</ele><time>2026-06-20T21:05:58.000Z</time></trkpt>
        <trkpt lat="29.569911" lon="103.415178"><ele>932.0126</ele><time>2026-06-20T21:06:00.000Z</time></trkpt>
        <trkpt lat="29.56991" lon="103.415196"><ele>932.0359</ele><time>2026-06-20T21:06:02.000Z</time></trkpt>
        <trkpt lat="29.569911" lon="103.415211"><ele>932.0618</ele><time>2026-06-20T21:06:04.000Z</time></trkpt>
        <trkpt lat="29.569913" lon="103.415229"><ele>932.0759</ele><time>2026-06-20T21:06:06.000Z</time></trkpt>
        <trkpt lat="29.569917" lon="103.415249"><ele>932.0973</ele><time>2026-06-20T21:06:08.000Z</time></trkpt>
        <trkpt lat="29.569919" lon="103.415269"><ele>932.1618</ele><time>2026-06-20T21:06:10.000Z</time></trkpt>
        <trkpt lat="29.569922" lon="103.415289"><ele>932.2091</ele><time>2026-06-20T21:06:12.000Z</time></trkpt>
        <trkpt lat="29.569925" lon="103.415309"><ele>932.2505</ele><time>2026-06-20T21:06:15.000Z</time></trkpt>
        <trkpt lat="29.569931" lon="103.415327"><ele>932.2825</ele><time>2026-06-20T21:06:17.000Z</time></trkpt>
        <trkpt lat="29.569938" lon="103.415345"><ele>932.29736</ele><time>2026-06-20T21:06:19.000Z</time></trkpt>
        <trkpt lat="29.569944" lon="103.415354"><ele>932.6051</ele><time>2026-06-20T21:06:21.000Z</time></trkpt>
        <trkpt lat="29.56995" lon="103.415363"><ele>933.0709</ele><time>2026-06-20T21:06:23.000Z</time></trkpt>
        <trkpt lat="29.569968" lon="103.415385"><ele>933.3134</ele><time>2026-06-20T21:06:27.000Z</time></trkpt>
        <trkpt lat="29.569976" lon="103.415393"><ele>933.3691</ele><time>2026-06-20T21:06:29.000Z</time></trkpt>
        <trkpt lat="29.569985" lon="103.4154"><ele>933.36975</ele><time>2026-06-20T21:06:31.000Z</time></trkpt>
        <trkpt lat="29.569997" lon="103.415412"><ele>933.4217</ele><time>2026-06-20T21:06:33.000Z</time></trkpt>
        <trkpt lat="29.570009" lon="103.41542"><ele>933.4217</ele><time>2026-06-20T21:06:35.000Z</time></trkpt>
        <trkpt lat="29.570025" lon="103.415431"><ele>933.4217</ele><time>2026-06-20T21:06:37.000Z</time></trkpt>
        <trkpt lat="29.570039" lon="103.415439"><ele>933.4088</ele><time>2026-06-20T21:06:39.000Z</time></trkpt>
        <trkpt lat="29.57005" lon="103.415446"><ele>933.3638</ele><time>2026-06-20T21:06:41.000Z</time></trkpt>
        <trkpt lat="29.570059" lon="103.415454"><ele>933.3552</ele><time>2026-06-20T21:06:43.000Z</time></trkpt>
        <trkpt lat="29.570074" lon="103.415469"><ele>933.3483</ele><time>2026-06-20T21:06:47.000Z</time></trkpt>
        <trkpt lat="29.570086" lon="103.415483"><ele>933.34357</ele><time>2026-06-20T21:06:55.000Z</time></trkpt>
        <trkpt lat="29.570093" lon="103.415492"><ele>933.34045</ele><time>2026-06-20T21:06:59.000Z</time></trkpt>
        <trkpt lat="29.570115" lon="103.415521"><ele>933.3105</ele><time>2026-06-20T21:07:21.000Z</time></trkpt>
        <trkpt lat="29.570154" lon="103.4155"><ele>933.0911</ele><time>2026-06-20T21:07:41.000Z</time></trkpt>
        <trkpt lat="29.570172" lon="103.415507"><ele>932.8856</ele><time>2026-06-20T21:07:43.000Z</time></trkpt>
        <trkpt lat="29.57029" lon="103.415552"><ele>932.6908</ele><time>2026-06-20T21:08:00.000Z</time></trkpt>
        <trkpt lat="29.57029" lon="103.415552"><ele>932.3517</ele><time>2026-06-20T21:08:02.000Z</time></trkpt>
        <trkpt lat="29.570293" lon="103.415553"><ele>931.4345</ele><time>2026-06-20T21:08:04.000Z</time></trkpt>
        <trkpt lat="29.570351" lon="103.415589"><ele>930.516</ele><time>2026-06-20T21:08:10.000Z</time></trkpt>
        <trkpt lat="29.570373" lon="103.415606"><ele>928.21857</ele><time>2026-06-20T21:08:12.000Z</time></trkpt>
        <trkpt lat="29.570395" lon="103.415626"><ele>926.07874</ele><time>2026-06-20T21:08:14.000Z</time></trkpt>
        <trkpt lat="29.570415" lon="103.415645"><ele>926.0669</ele><time>2026-06-20T21:08:16.000Z</time></trkpt>
        <trkpt lat="29.570434" lon="103.415667"><ele>925.54456</ele><time>2026-06-20T21:08:18.000Z</time></trkpt>
        <trkpt lat="29.57045" lon="103.415688"><ele>924.8844</ele><time>2026-06-20T21:08:20.000Z</time></trkpt>
        <trkpt lat="29.570464" lon="103.415708"><ele>924.6896</ele><time>2026-06-20T21:08:22.000Z</time></trkpt>
        <trkpt lat="29.570474" lon="103.415724"><ele>924.6436</ele><time>2026-06-20T21:08:24.000Z</time></trkpt>
        <trkpt lat="29.570487" lon="103.415745"><ele>924.4165</ele><time>2026-06-20T21:08:26.000Z</time></trkpt>
        <trkpt lat="29.5705" lon="103.415764"><ele>924.05286</ele><time>2026-06-20T21:08:28.000Z</time></trkpt>
        <trkpt lat="29.570514" lon="103.415785"><ele>924.05286</ele><time>2026-06-20T21:08:30.000Z</time></trkpt>
        <trkpt lat="29.570527" lon="103.4158"><ele>924.05286</ele><time>2026-06-20T21:08:32.000Z</time></trkpt>
        <trkpt lat="29.570539" lon="103.41581"><ele>924.05286</ele><time>2026-06-20T21:08:34.000Z</time></trkpt>
        <trkpt lat="29.570551" lon="103.415814"><ele>924.05286</ele><time>2026-06-20T21:08:36.000Z</time></trkpt>
        <trkpt lat="29.570567" lon="103.415817"><ele>924.14716</ele><time>2026-06-20T21:08:38.000Z</time></trkpt>
        <trkpt lat="29.570582" lon="103.415817"><ele>924.44037</ele><time>2026-06-20T21:08:40.000Z</time></trkpt>
        <trkpt lat="29.570599" lon="103.415815"><ele>924.62665</ele><time>2026-06-20T21:08:42.000Z</time></trkpt>
        <trkpt lat="29.570618" lon="103.41581"><ele>924.8647</ele><time>2026-06-20T21:08:44.000Z</time></trkpt>
        <trkpt lat="29.570639" lon="103.415804"><ele>924.99414</ele><time>2026-06-20T21:08:46.000Z</time></trkpt>
        <trkpt lat="29.570655" lon="103.415797"><ele>925.0469</ele><time>2026-06-20T21:08:48.000Z</time></trkpt>
        <trkpt lat="29.570669" lon="103.415792"><ele>925.0469</ele><time>2026-06-20T21:08:50.000Z</time></trkpt>
        <trkpt lat="29.570685" lon="103.415791"><ele>925.0469</ele><time>2026-06-20T21:08:52.000Z</time></trkpt>
        <trkpt lat="29.570702" lon="103.415792"><ele>925.0469</ele><time>2026-06-20T21:08:54.000Z</time></trkpt>
        <trkpt lat="29.570725" lon="103.415797"><ele>925.0469</ele><time>2026-06-20T21:08:56.000Z</time></trkpt>
        <trkpt lat="29.570745" lon="103.415808"><ele>924.8597</ele><time>2026-06-20T21:08:58.000Z</time></trkpt>
        <trkpt lat="29.570766" lon="103.415825"><ele>924.5302</ele><time>2026-06-20T21:09:00.000Z</time></trkpt>
        <trkpt lat="29.570788" lon="103.415846"><ele>924.40454</ele><time>2026-06-20T21:09:02.000Z</time></trkpt>
        <trkpt lat="29.570806" lon="103.415859"><ele>924.35675</ele><time>2026-06-20T21:09:04.000Z</time></trkpt>
        <trkpt lat="29.570822" lon="103.415861"><ele>924.2305</ele><time>2026-06-20T21:09:06.000Z</time></trkpt>
        <trkpt lat="29.570834" lon="103.415856"><ele>923.97015</ele><time>2026-06-20T21:09:08.000Z</time></trkpt>
        <trkpt lat="29.570847" lon="103.415846"><ele>923.6982</ele><time>2026-06-20T21:09:10.000Z</time></trkpt>
        <trkpt lat="29.570855" lon="103.415835"><ele>923.50745</ele><time>2026-06-20T21:09:12.000Z</time></trkpt>
        <trkpt lat="29.570865" lon="103.415823"><ele>923.2125</ele><time>2026-06-20T21:09:14.000Z</time></trkpt>
        <trkpt lat="29.570881" lon="103.415809"><ele>922.85614</ele><time>2026-06-20T21:09:16.000Z</time></trkpt>
        <trkpt lat="29.5709" lon="103.415795"><ele>922.708</ele><time>2026-06-20T21:09:18.000Z</time></trkpt>
        <trkpt lat="29.570917" lon="103.415779"><ele>922.6986</ele><time>2026-06-20T21:09:20.000Z</time></trkpt>
        <trkpt lat="29.570928" lon="103.415766"><ele>922.6852</ele><time>2026-06-20T21:09:22.000Z</time></trkpt>
        <trkpt lat="29.570938" lon="103.415751"><ele>922.66797</ele><time>2026-06-20T21:09:24.000Z</time></trkpt>
        <trkpt lat="29.570948" lon="103.415732"><ele>922.6211</ele><time>2026-06-20T21:09:26.000Z</time></trkpt>
        <trkpt lat="29.570955" lon="103.415712"><ele>922.4423</ele><time>2026-06-20T21:09:28.000Z</time></trkpt>
        <trkpt lat="29.570958" lon="103.415701"><ele>922.1172</ele><time>2026-06-20T21:09:30.000Z</time></trkpt>
        <trkpt lat="29.570959" lon="103.415695"><ele>921.7913</ele><time>2026-06-20T21:09:32.000Z</time></trkpt>
        <trkpt lat="29.570965" lon="103.415664"><ele>921.52905</ele><time>2026-06-20T21:09:42.000Z</time></trkpt>
        <trkpt lat="29.570966" lon="103.415658"><ele>921.2284</ele><time>2026-06-20T21:09:44.000Z</time></trkpt>
        <trkpt lat="29.570981" lon="103.415633"><ele>920.99036</ele><time>2026-06-20T21:09:48.000Z</time></trkpt>
        <trkpt lat="29.571" lon="103.415598"><ele>920.87103</ele><time>2026-06-20T21:10:04.000Z</time></trkpt>
        <trkpt lat="29.571" lon="103.415598"><ele>920.36115</ele><time>2026-06-20T21:10:06.000Z</time></trkpt>
        <trkpt lat="29.571026" lon="103.415564"><ele>919.8573</ele><time>2026-06-20T21:10:30.000Z</time></trkpt>
      </trkseg>
      <trkseg>
        <trkpt lat="29.571009" lon="103.415589"><ele>918.5474</ele><time>2026-06-20T22:04:22.000Z</time></trkpt>
        <trkpt lat="29.570965" lon="103.415728"><ele>917.80225</ele><time>2026-06-20T22:04:44.000Z</time></trkpt>
        <trkpt lat="29.570946" lon="103.415745"><ele>917.882</ele><time>2026-06-20T22:04:46.000Z</time></trkpt>
        <trkpt lat="29.570924" lon="103.415764"><ele>917.98535</ele><time>2026-06-20T22:04:48.000Z</time></trkpt>
        <trkpt lat="29.570874" lon="103.415802"><ele>918.08875</ele><time>2026-06-20T22:04:54.000Z</time></trkpt>
        <trkpt lat="29.570849" lon="103.415817"><ele>918.2522</ele><time>2026-06-20T22:04:58.000Z</time></trkpt>
        <trkpt lat="29.570846" lon="103.415826"><ele>918.4157</ele><time>2026-06-20T22:05:00.000Z</time></trkpt>
        <trkpt lat="29.570822" lon="103.415902"><ele>918.48157</ele><time>2026-06-20T22:05:15.000Z</time></trkpt>
        <trkpt lat="29.570818" lon="103.41592"><ele>918.5474</ele><time>2026-06-20T22:05:17.000Z</time></trkpt>
        <trkpt lat="29.570811" lon="103.415938"><ele>918.89136</ele><time>2026-06-20T22:05:19.000Z</time></trkpt>
        <trkpt lat="29.570789" lon="103.415988"><ele>919.65533</ele><time>2026-06-20T22:05:25.000Z</time></trkpt>
        <trkpt lat="29.570779" lon="103.416008"><ele>921.73065</ele><time>2026-06-20T22:05:27.000Z</time></trkpt>
        <trkpt lat="29.570767" lon="103.416028"><ele>923.4063</ele><time>2026-06-20T22:05:29.000Z</time></trkpt>
        <trkpt lat="29.570751" lon="103.416047"><ele>923.50305</ele><time>2026-06-20T22:05:33.000Z</time></trkpt>
        <trkpt lat="29.57074" lon="103.41606"><ele>923.6654</ele><time>2026-06-20T22:05:41.000Z</time></trkpt>
        <trkpt lat="29.57073" lon="103.416078"><ele>923.6654</ele><time>2026-06-20T22:05:47.000Z</time></trkpt>
        <trkpt lat="29.57072" lon="103.416099"><ele>923.6654</ele><time>2026-06-20T22:05:55.000Z</time></trkpt>
        <trkpt lat="29.570694" lon="103.416093"><ele>923.6654</ele><time>2026-06-20T22:06:03.000Z</time></trkpt>
        <trkpt lat="29.570679" lon="103.416097"><ele>923.4827</ele><time>2026-06-20T22:06:07.000Z</time></trkpt>
        <trkpt lat="29.570624" lon="103.41611"><ele>923.1838</ele><time>2026-06-20T22:06:13.000Z</time></trkpt>
        <trkpt lat="29.570623" lon="103.41611"><ele>922.5827</ele><time>2026-06-20T22:06:15.000Z</time></trkpt>
        <trkpt lat="29.57062" lon="103.416113"><ele>921.8913</ele><time>2026-06-20T22:06:17.000Z</time></trkpt>
        <trkpt lat="29.570576" lon="103.416154"><ele>921.1515</ele><time>2026-06-20T22:06:23.000Z</time></trkpt>
        <trkpt lat="29.570567" lon="103.416164"><ele>920.2765</ele><time>2026-06-20T22:06:25.000Z</time></trkpt>
        <trkpt lat="29.570559" lon="103.416168"><ele>919.8285</ele><time>2026-06-20T22:06:27.000Z</time></trkpt>
        <trkpt lat="29.570522" lon="103.416184"><ele>919.8285</ele><time>2026-06-20T22:06:56.000Z</time></trkpt>
        <trkpt lat="29.570551" lon="103.416227"><ele>919.8285</ele><time>2026-06-20T22:07:08.000Z</time></trkpt>
        <trkpt lat="29.570539" lon="103.41626"><ele>919.8285</ele><time>2026-06-20T22:07:10.000Z</time></trkpt>
        <trkpt lat="29.57053" lon="103.416284"><ele>919.8285</ele><time>2026-06-20T22:07:17.000Z</time></trkpt>
        <trkpt lat="29.570488" lon="103.416285"><ele>920.0454</ele><time>2026-06-20T22:07:24.000Z</time></trkpt>
        <trkpt lat="29.570483" lon="103.416285"><ele>920.3744</ele><time>2026-06-20T22:07:28.000Z</time></trkpt>
        <trkpt lat="29.570477" lon="103.416293"><ele>920.448</ele><time>2026-06-20T22:07:30.000Z</time></trkpt>
        <trkpt lat="29.57044" lon="103.416342"><ele>920.448</ele><time>2026-06-20T22:07:40.000Z</time></trkpt>
        <trkpt lat="29.570435" lon="103.416354"><ele>920.448</ele><time>2026-06-20T22:07:42.000Z</time></trkpt>
        <trkpt lat="29.570437" lon="103.416365"><ele>920.448</ele><time>2026-06-20T22:07:44.000Z</time></trkpt>
        <trkpt lat="29.570452" lon="103.416423"><ele>920.45435</ele><time>2026-06-20T22:07:51.000Z</time></trkpt>
        <trkpt lat="29.570454" lon="103.416432"><ele>920.39557</ele><time>2026-06-20T22:07:53.000Z</time></trkpt>
        <trkpt lat="29.570452" lon="103.416436"><ele>920.2814</ele><time>2026-06-20T22:07:56.000Z</time></trkpt>
        <trkpt lat="29.570426" lon="103.416492"><ele>920.1623</ele><time>2026-06-20T22:08:07.000Z</time></trkpt>
        <trkpt lat="29.57042" lon="103.416501"><ele>920.09357</ele><time>2026-06-20T22:08:09.000Z</time></trkpt>
        <trkpt lat="29.570419" lon="103.416508"><ele>919.9466</ele><time>2026-06-20T22:08:11.000Z</time></trkpt>
        <trkpt lat="29.57041" lon="103.416585"><ele>919.5937</ele><time>2026-06-20T22:08:25.000Z</time></trkpt>
        <trkpt lat="29.57041" lon="103.416586"><ele>919.30994</ele><time>2026-06-20T22:08:27.000Z</time></trkpt>
        <trkpt lat="29.570409" lon="103.416609"><ele>919.28845</ele><time>2026-06-20T22:08:31.000Z</time></trkpt>
        <trkpt lat="29.570406" lon="103.416689"><ele>919.0917</ele><time>2026-06-20T22:08:37.000Z</time></trkpt>
        <trkpt lat="29.570407" lon="103.416705"><ele>918.3571</ele><time>2026-06-20T22:08:39.000Z</time></trkpt>
        <trkpt lat="29.570406" lon="103.416724"><ele>917.79846</ele><time>2026-06-20T22:08:41.000Z</time></trkpt>
        <trkpt lat="29.570406" lon="103.416763"><ele>917.68384</ele><time>2026-06-20T22:08:45.000Z</time></trkpt>
        <trkpt lat="29.570407" lon="103.41678"><ele>917.64795</ele><time>2026-06-20T22:08:47.000Z</time></trkpt>
        <trkpt lat="29.570411" lon="103.416801"><ele>917.64795</ele><time>2026-06-20T22:08:49.000Z</time></trkpt>
        <trkpt lat="29.570415" lon="103.416821"><ele>917.46606</ele><time>2026-06-20T22:08:51.000Z</time></trkpt>
        <trkpt lat="29.57042" lon="103.416839"><ele>917.4147</ele><time>2026-06-20T22:08:53.000Z</time></trkpt>
        <trkpt lat="29.570418" lon="103.416854"><ele>917.3289</ele><time>2026-06-20T22:08:55.000Z</time></trkpt>
        <trkpt lat="29.570422" lon="103.416872"><ele>917.3289</ele><time>2026-06-20T22:09:09.000Z</time></trkpt>
        <trkpt lat="29.57043" lon="103.416915"><ele>917.3289</ele><time>2026-06-20T22:09:13.000Z</time></trkpt>
        <trkpt lat="29.57043" lon="103.416916"><ele>917.3289</ele><time>2026-06-20T22:09:16.000Z</time></trkpt>
        <trkpt lat="29.570431" lon="103.416925"><ele>917.3289</ele><time>2026-06-20T22:09:18.000Z</time></trkpt>
        <trkpt lat="29.570434" lon="103.416963"><ele>917.8674</ele><time>2026-06-20T22:09:22.000Z</time></trkpt>
        <trkpt lat="29.570432" lon="103.416983"><ele>918.3808</ele><time>2026-06-20T22:09:24.000Z</time></trkpt>
        <trkpt lat="29.570427" lon="103.417002"><ele>918.4503</ele><time>2026-06-20T22:09:26.000Z</time></trkpt>
        <trkpt lat="29.570418" lon="103.417016"><ele>918.52856</ele><time>2026-06-20T22:09:28.000Z</time></trkpt>
        <trkpt lat="29.570406" lon="103.41703"><ele>918.52856</ele><time>2026-06-20T22:09:30.000Z</time></trkpt>
        <trkpt lat="29.570393" lon="103.41704"><ele>918.52856</ele><time>2026-06-20T22:09:32.000Z</time></trkpt>
        <trkpt lat="29.570378" lon="103.417046"><ele>918.52856</ele><time>2026-06-20T22:09:34.000Z</time></trkpt>
        <trkpt lat="29.570366" lon="103.417049"><ele>918.3958</ele><time>2026-06-20T22:09:36.000Z</time></trkpt>
        <trkpt lat="29.570334" lon="103.417059"><ele>918.3263</ele><time>2026-06-20T22:09:40.000Z</time></trkpt>
        <trkpt lat="29.570321" lon="103.417063"><ele>918.269</ele><time>2026-06-20T22:09:42.000Z</time></trkpt>
        <trkpt lat="29.570308" lon="103.417063"><ele>918.2641</ele><time>2026-06-20T22:09:44.000Z</time></trkpt>
        <trkpt lat="29.570274" lon="103.417061"><ele>918.15735</ele><time>2026-06-20T22:09:50.000Z</time></trkpt>
        <trkpt lat="29.570262" lon="103.417057"><ele>918.0318</ele><time>2026-06-20T22:09:52.000Z</time></trkpt>
        <trkpt lat="29.570251" lon="103.417059"><ele>917.96075</ele><time>2026-06-20T22:09:54.000Z</time></trkpt>
        <trkpt lat="29.570201" lon="103.417072"><ele>917.95197</ele><time>2026-06-20T22:10:00.000Z</time></trkpt>
        <trkpt lat="29.570182" lon="103.417081"><ele>917.8897</ele><time>2026-06-20T22:10:02.000Z</time></trkpt>
        <trkpt lat="29.570175" lon="103.417093"><ele>917.8897</ele><time>2026-06-20T22:10:04.000Z</time></trkpt>
        <trkpt lat="29.570138" lon="103.417149"><ele>917.96075</ele><time>2026-06-20T22:10:25.000Z</time></trkpt>
        <trkpt lat="29.570125" lon="103.417167"><ele>918.0215</ele><time>2026-06-20T22:10:27.000Z</time></trkpt>
        <trkpt lat="29.570058" lon="103.41726"><ele>918.0215</ele><time>2026-06-20T22:10:33.000Z</time></trkpt>
        <trkpt lat="29.570058" lon="103.41726"><ele>918.0215</ele><time>2026-06-20T22:10:35.000Z</time></trkpt>
        <trkpt lat="29.570058" lon="103.417261"><ele>918.0215</ele><time>2026-06-20T22:10:37.000Z</time></trkpt>
        <trkpt lat="29.570085" lon="103.417355"><ele>918.1604</ele><time>2026-06-20T22:11:37.000Z</time></trkpt>
        <trkpt lat="29.57009" lon="103.417375"><ele>918.8896</ele><time>2026-06-20T22:11:39.000Z</time></trkpt>
        <trkpt lat="29.57009" lon="103.417376"><ele>919.5481</ele><time>2026-06-20T22:11:41.000Z</time></trkpt>
        <trkpt lat="29.57006" lon="103.417513"><ele>919.59814</ele><time>2026-06-20T22:12:06.000Z</time></trkpt>
        <trkpt lat="29.57006" lon="103.417513"><ele>920.1283</ele><time>2026-06-20T22:12:08.000Z</time></trkpt>
        <trkpt lat="29.570061" lon="103.417516"><ele>920.6038</ele><time>2026-06-20T22:12:10.000Z</time></trkpt>
        <trkpt lat="29.570078" lon="103.41762"><ele>920.6107</ele><time>2026-06-20T22:12:18.000Z</time></trkpt>
        <trkpt lat="29.57008" lon="103.417639"><ele>920.9408</ele><time>2026-06-20T22:12:20.000Z</time></trkpt>
        <trkpt lat="29.570078" lon="103.417654"><ele>921.3362</ele><time>2026-06-20T22:12:22.000Z</time></trkpt>
        <trkpt lat="29.570069" lon="103.417711"><ele>921.47797</ele><time>2026-06-20T22:12:37.000Z</time></trkpt>
        <trkpt lat="29.570061" lon="103.417739"><ele>921.47797</ele><time>2026-06-20T22:12:39.000Z</time></trkpt>
        <trkpt lat="29.570049" lon="103.417768"><ele>921.47797</ele><time>2026-06-20T22:12:41.000Z</time></trkpt>
        <trkpt lat="29.570039" lon="103.41779"><ele>921.47797</ele><time>2026-06-20T22:12:43.000Z</time></trkpt>
        <trkpt lat="29.570028" lon="103.417813"><ele>922.04565</ele><time>2026-06-20T22:12:45.000Z</time></trkpt>
        <trkpt lat="29.570015" lon="103.417835"><ele>922.5728</ele><time>2026-06-20T22:12:47.000Z</time></trkpt>
        <trkpt lat="29.569999" lon="103.417867"><ele>922.70605</ele><time>2026-06-20T22:12:51.000Z</time></trkpt>
        <trkpt lat="29.569998" lon="103.417876"><ele>922.89404</ele><time>2026-06-20T22:12:53.000Z</time></trkpt>
        <trkpt lat="29.56999" lon="103.417913"><ele>923.13196</ele><time>2026-06-20T22:12:59.000Z</time></trkpt>
        <trkpt lat="29.569983" lon="103.417941"><ele>923.29645</ele><time>2026-06-20T22:13:03.000Z</time></trkpt>
        <trkpt lat="29.569979" lon="103.417957"><ele>923.29645</ele><time>2026-06-20T22:13:05.000Z</time></trkpt>
        <trkpt lat="29.569974" lon="103.417978"><ele>923.36</ele><time>2026-06-20T22:13:07.000Z</time></trkpt>
        <trkpt lat="29.569968" lon="103.417999"><ele>923.4988</ele><time>2026-06-20T22:13:09.000Z</time></trkpt>
        <trkpt lat="29.569963" lon="103.418017"><ele>923.5876</ele><time>2026-06-20T22:13:11.000Z</time></trkpt>
        <trkpt lat="29.569952" lon="103.418042"><ele>923.6816</ele><time>2026-06-20T22:13:13.000Z</time></trkpt>
        <trkpt lat="29.569943" lon="103.418061"><ele>923.7516</ele><time>2026-06-20T22:13:15.000Z</time></trkpt>
        <trkpt lat="29.569936" lon="103.418075"><ele>923.87976</ele><time>2026-06-20T22:13:17.000Z</time></trkpt>
        <trkpt lat="29.569921" lon="103.418098"><ele>923.9363</ele><time>2026-06-20T22:13:22.000Z</time></trkpt>
        <trkpt lat="29.569911" lon="103.418106"><ele>924.4673</ele><time>2026-06-20T22:13:24.000Z</time></trkpt>
        <trkpt lat="29.5699" lon="103.418123"><ele>925.11566</ele><time>2026-06-20T22:13:28.000Z</time></trkpt>
        <trkpt lat="29.569889" lon="103.418152"><ele>925.5683</ele><time>2026-06-20T22:13:36.000Z</time></trkpt>
        <trkpt lat="29.569882" lon="103.418178"><ele>926.3224</ele><time>2026-06-20T22:13:40.000Z</time></trkpt>
        <trkpt lat="29.569879" lon="103.418193"><ele>927.1312</ele><time>2026-06-20T22:13:42.000Z</time></trkpt>
        <trkpt lat="29.569873" lon="103.418223"><ele>927.21594</ele><time>2026-06-20T22:13:46.000Z</time></trkpt>
        <trkpt lat="29.569866" lon="103.418246"><ele>927.2409</ele><time>2026-06-20T22:13:52.000Z</time></trkpt>
        <trkpt lat="29.569868" lon="103.41826"><ele>927.32446</ele><time>2026-06-20T22:13:56.000Z</time></trkpt>
        <trkpt lat="29.569874" lon="103.418312"><ele>927.5127</ele><time>2026-06-20T22:14:17.000Z</time></trkpt>
        <trkpt lat="29.569919" lon="103.418363"><ele>927.711</ele><time>2026-06-20T22:14:21.000Z</time></trkpt>
        <trkpt lat="29.569919" lon="103.418363"><ele>927.8548</ele><time>2026-06-20T22:14:23.000Z</time></trkpt>
        <trkpt lat="29.569924" lon="103.418389"><ele>928.1129</ele><time>2026-06-20T22:14:27.000Z</time></trkpt>
        <trkpt lat="29.569928" lon="103.418463"><ele>928.2962</ele><time>2026-06-20T22:14:31.000Z</time></trkpt>
        <trkpt lat="29.569926" lon="103.418486"><ele>928.5805</ele><time>2026-06-20T22:14:33.000Z</time></trkpt>
        <trkpt lat="29.569923" lon="103.418514"><ele>928.5805</ele><time>2026-06-20T22:14:35.000Z</time></trkpt>
        <trkpt lat="29.569926" lon="103.418529"><ele>928.5805</ele><time>2026-06-20T22:14:37.000Z</time></trkpt>
        <trkpt lat="29.569928" lon="103.418557"><ele>928.5805</ele><time>2026-06-20T22:14:41.000Z</time></trkpt>
        <trkpt lat="29.569925" lon="103.418592"><ele>928.5805</ele><time>2026-06-20T22:14:47.000Z</time></trkpt>
        <trkpt lat="29.569918" lon="103.41861"><ele>928.4178</ele><time>2026-06-20T22:14:49.000Z</time></trkpt>
        <trkpt lat="29.569904" lon="103.418642"><ele>928.28424</ele><time>2026-06-20T22:14:51.000Z</time></trkpt>
        <trkpt lat="29.569894" lon="103.41867"><ele>928.2531</ele><time>2026-06-20T22:14:53.000Z</time></trkpt>
        <trkpt lat="29.569885" lon="103.418692"><ele>928.0278</ele><time>2026-06-20T22:14:55.000Z</time></trkpt>
        <trkpt lat="29.569873" lon="103.418708"><ele>927.97656</ele><time>2026-06-20T22:14:57.000Z</time></trkpt>
        <trkpt lat="29.569855" lon="103.418725"><ele>927.97656</ele><time>2026-06-20T22:14:59.000Z</time></trkpt>
        <trkpt lat="29.569842" lon="103.418739"><ele>927.97656</ele><time>2026-06-20T22:15:01.000Z</time></trkpt>
        <trkpt lat="29.569829" lon="103.418755"><ele>927.97656</ele><time>2026-06-20T22:15:03.000Z</time></trkpt>
        <trkpt lat="29.569819" lon="103.418773"><ele>927.97656</ele><time>2026-06-20T22:15:07.000Z</time></trkpt>
        <trkpt lat="29.569808" lon="103.4188"><ele>928.1707</ele><time>2026-06-20T22:15:11.000Z</time></trkpt>
        <trkpt lat="29.569803" lon="103.418813"><ele>928.24835</ele><time>2026-06-20T22:15:13.000Z</time></trkpt>
        <trkpt lat="29.569801" lon="103.418826"><ele>928.3567</ele><time>2026-06-20T22:15:15.000Z</time></trkpt>
        <trkpt lat="29.569793" lon="103.418855"><ele>928.7415</ele><time>2026-06-20T22:15:19.000Z</time></trkpt>
        <trkpt lat="29.569787" lon="103.418873"><ele>929.38324</ele><time>2026-06-20T22:15:21.000Z</time></trkpt>
        <trkpt lat="29.56978" lon="103.418888"><ele>929.8586</ele><time>2026-06-20T22:15:23.000Z</time></trkpt>
        <trkpt lat="29.569776" lon="103.418905"><ele>929.9482</ele><time>2026-06-20T22:15:25.000Z</time></trkpt>
        <trkpt lat="29.569774" lon="103.418943"><ele>929.9482</ele><time>2026-06-20T22:15:29.000Z</time></trkpt>
        <trkpt lat="29.569775" lon="103.418967"><ele>929.9482</ele><time>2026-06-20T22:15:31.000Z</time></trkpt>
        <trkpt lat="29.569778" lon="103.418996"><ele>929.9482</ele><time>2026-06-20T22:15:33.000Z</time></trkpt>
        <trkpt lat="29.569784" lon="103.419024"><ele>929.9482</ele><time>2026-06-20T22:15:35.000Z</time></trkpt>
        <trkpt lat="29.569789" lon="103.41904"><ele>929.7614</ele><time>2026-06-20T22:15:37.000Z</time></trkpt>
        <trkpt lat="29.569788" lon="103.41905"><ele>929.7614</ele><time>2026-06-20T22:15:39.000Z</time></trkpt>
        <trkpt lat="29.569784" lon="103.419118"><ele>929.7614</ele><time>2026-06-20T22:15:45.000Z</time></trkpt>
        <trkpt lat="29.569784" lon="103.419118"><ele>929.7614</ele><time>2026-06-20T22:15:47.000Z</time></trkpt>
        <trkpt lat="29.569786" lon="103.419124"><ele>929.7614</ele><time>2026-06-20T22:15:49.000Z</time></trkpt>
        <trkpt lat="29.569815" lon="103.419217"><ele>929.85693</ele><time>2026-06-20T22:15:53.000Z</time></trkpt>
        <trkpt lat="29.56982" lon="103.419251"><ele>930.8334</ele><time>2026-06-20T22:15:55.000Z</time></trkpt>
        <trkpt lat="29.569818" lon="103.419276"><ele>931.589</ele><time>2026-06-20T22:15:57.000Z</time></trkpt>
        <trkpt lat="29.569811" lon="103.4193"><ele>931.6198</ele><time>2026-06-20T22:15:59.000Z</time></trkpt>
        <trkpt lat="29.569802" lon="103.419323"><ele>931.6198</ele><time>2026-06-20T22:16:01.000Z</time></trkpt>
        <trkpt lat="29.56979" lon="103.419337"><ele>931.6198</ele><time>2026-06-20T22:16:03.000Z</time></trkpt>
        <trkpt lat="29.569767" lon="103.419355"><ele>931.6198</ele><time>2026-06-20T22:16:05.000Z</time></trkpt>
        <trkpt lat="29.569745" lon="103.419368"><ele>931.6198</ele><time>2026-06-20T22:16:07.000Z</time></trkpt>
        <trkpt lat="29.56972" lon="103.419377"><ele>931.54895</ele><time>2026-06-20T22:16:09.000Z</time></trkpt>
        <trkpt lat="29.569696" lon="103.419382"><ele>931.3339</ele><time>2026-06-20T22:16:11.000Z</time></trkpt>
        <trkpt lat="29.56968" lon="103.419385"><ele>931.25116</ele><time>2026-06-20T22:16:13.000Z</time></trkpt>
        <trkpt lat="29.569737" lon="103.419446"><ele>931.25116</ele><time>2026-06-20T22:16:37.000Z</time></trkpt>
        <trkpt lat="29.56974" lon="103.419449"><ele>931.25116</ele><time>2026-06-20T22:16:39.000Z</time></trkpt>
        <trkpt lat="29.569741" lon="103.41945"><ele>931.25116</ele><time>2026-06-20T22:16:41.000Z</time></trkpt>
        <trkpt lat="29.569826" lon="103.419486"><ele>931.25116</ele><time>2026-06-20T22:16:55.000Z</time></trkpt>
        <trkpt lat="29.56987" lon="103.419549"><ele>931.1832</ele><time>2026-06-20T22:17:01.000Z</time></trkpt>
      </trkseg>
      <trkseg>
        <trkpt lat="29.569559" lon="103.419661"><ele>933.6278</ele><time>2026-06-20T22:24:00.000Z</time></trkpt>
        <trkpt lat="29.569567" lon="103.419534"><ele>935.27893</ele><time>2026-06-20T22:24:10.000Z</time></trkpt>
        <trkpt lat="29.569567" lon="103.419534"><ele>935.2781</ele><time>2026-06-20T22:24:12.000Z</time></trkpt>
        <trkpt lat="29.569565" lon="103.419537"><ele>935.2785</ele><time>2026-06-20T22:24:14.000Z</time></trkpt>
        <trkpt lat="29.569531" lon="103.419593"><ele>935.27893</ele><time>2026-06-20T22:24:20.000Z</time></trkpt>
        <trkpt lat="29.569517" lon="103.419613"><ele>935.29095</ele><time>2026-06-20T22:24:22.000Z</time></trkpt>
        <trkpt lat="29.569501" lon="103.419631"><ele>935.303</ele><time>2026-06-20T22:24:24.000Z</time></trkpt>
        <trkpt lat="29.569481" lon="103.419653"><ele>936.0408</ele><time>2026-06-20T22:24:26.000Z</time></trkpt>
        <trkpt lat="29.569461" lon="103.419673"><ele>936.77856</ele><time>2026-06-20T22:24:28.000Z</time></trkpt>
        <trkpt lat="29.569441" lon="103.419694"><ele>936.9227</ele><time>2026-06-20T22:24:30.000Z</time></trkpt>
        <trkpt lat="29.569422" lon="103.419711"><ele>936.9227</ele><time>2026-06-20T22:24:32.000Z</time></trkpt>
        <trkpt lat="29.569403" lon="103.419728"><ele>936.9227</ele><time>2026-06-20T22:24:34.000Z</time></trkpt>
        <trkpt lat="29.569385" lon="103.419742"><ele>936.9227</ele><time>2026-06-20T22:24:36.000Z</time></trkpt>
        <trkpt lat="29.569368" lon="103.419752"><ele>936.9227</ele><time>2026-06-20T22:24:38.000Z</time></trkpt>
        <trkpt lat="29.569355" lon="103.419758"><ele>936.849</ele><time>2026-06-20T22:24:40.000Z</time></trkpt>
        <trkpt lat="29.569341" lon="103.419761"><ele>936.4248</ele><time>2026-06-20T22:24:42.000Z</time></trkpt>
        <trkpt lat="29.569318" lon="103.419764"><ele>935.92236</ele><time>2026-06-20T22:24:46.000Z</time></trkpt>
        <trkpt lat="29.569307" lon="103.419766"><ele>935.7</ele><time>2026-06-20T22:24:48.000Z</time></trkpt>
        <trkpt lat="29.569296" lon="103.419772"><ele>935.7</ele><time>2026-06-20T22:24:50.000Z</time></trkpt>
        <trkpt lat="29.569266" lon="103.419787"><ele>935.7</ele><time>2026-06-20T22:24:54.000Z</time></trkpt>
        <trkpt lat="29.569254" lon="103.419795"><ele>935.7</ele><time>2026-06-20T22:24:56.000Z</time></trkpt>
        <trkpt lat="29.569241" lon="103.419804"><ele>935.7</ele><time>2026-06-20T22:24:58.000Z</time></trkpt>
        <trkpt lat="29.569228" lon="103.419812"><ele>935.69824</ele><time>2026-06-20T22:25:00.000Z</time></trkpt>
        <trkpt lat="29.569213" lon="103.419819"><ele>935.69824</ele><time>2026-06-20T22:25:02.000Z</time></trkpt>
        <trkpt lat="29.569192" lon="103.419828"><ele>935.8043</ele><time>2026-06-20T22:25:04.000Z</time></trkpt>
        <trkpt lat="29.569164" lon="103.419838"><ele>935.9035</ele><time>2026-06-20T22:25:06.000Z</time></trkpt>
        <trkpt lat="29.569133" lon="103.419851"><ele>935.96063</ele><time>2026-06-20T22:25:08.000Z</time></trkpt>
        <trkpt lat="29.569103" lon="103.419864"><ele>935.96063</ele><time>2026-06-20T22:25:10.000Z</time></trkpt>
        <trkpt lat="29.569071" lon="103.419877"><ele>935.96063</ele><time>2026-06-20T22:25:12.000Z</time></trkpt>
        <trkpt lat="29.56904" lon="103.419887"><ele>935.96063</ele><time>2026-06-20T22:25:14.000Z</time></trkpt>
        <trkpt lat="29.569013" lon="103.419896"><ele>935.9309</ele><time>2026-06-20T22:25:16.000Z</time></trkpt>
        <trkpt lat="29.568987" lon="103.419904"><ele>935.8738</ele><time>2026-06-20T22:25:18.000Z</time></trkpt>
        <trkpt lat="29.568965" lon="103.419912"><ele>935.8738</ele><time>2026-06-20T22:25:20.000Z</time></trkpt>
        <trkpt lat="29.568943" lon="103.419921"><ele>935.8738</ele><time>2026-06-20T22:25:22.000Z</time></trkpt>
        <trkpt lat="29.568922" lon="103.419929"><ele>935.8013</ele><time>2026-06-20T22:25:24.000Z</time></trkpt>
        <trkpt lat="29.568903" lon="103.419937"><ele>935.6449</ele><time>2026-06-20T22:25:26.000Z</time></trkpt>
        <trkpt lat="29.568885" lon="103.419943"><ele>935.4977</ele><time>2026-06-20T22:25:28.000Z</time></trkpt>
        <trkpt lat="29.568867" lon="103.419949"><ele>935.2683</ele><time>2026-06-20T22:25:30.000Z</time></trkpt>
        <trkpt lat="29.568852" lon="103.419954"><ele>935.0703</ele><time>2026-06-20T22:25:32.000Z</time></trkpt>
        <trkpt lat="29.568843" lon="103.419952"><ele>934.8691</ele><time>2026-06-20T22:25:34.000Z</time></trkpt>
        <trkpt lat="29.568835" lon="103.419955"><ele>934.4681</ele><time>2026-06-20T22:25:44.000Z</time></trkpt>
        <trkpt lat="29.568812" lon="103.419964"><ele>933.955</ele><time>2026-06-20T22:26:05.000Z</time></trkpt>
        <trkpt lat="29.568797" lon="103.419973"><ele>933.4069</ele><time>2026-06-20T22:26:07.000Z</time></trkpt>
        <trkpt lat="29.568749" lon="103.420001"><ele>932.8791</ele><time>2026-06-20T22:26:12.000Z</time></trkpt>
        <trkpt lat="29.568749" lon="103.420001"><ele>931.6841</ele><time>2026-06-20T22:26:14.000Z</time></trkpt>
        <trkpt lat="29.568743" lon="103.420004"><ele>930.6907</ele><time>2026-06-20T22:26:16.000Z</time></trkpt>
        <trkpt lat="29.568724" lon="103.420014"><ele>930.6765</ele><time>2026-06-20T22:26:19.000Z</time></trkpt>
        <trkpt lat="29.568698" lon="103.420027"><ele>930.6765</ele><time>2026-06-20T22:26:21.000Z</time></trkpt>
        <trkpt lat="29.568676" lon="103.420039"><ele>930.6765</ele><time>2026-06-20T22:26:23.000Z</time></trkpt>
        <trkpt lat="29.568661" lon="103.420048"><ele>930.6765</ele><time>2026-06-20T22:26:25.000Z</time></trkpt>
        <trkpt lat="29.568648" lon="103.420055"><ele>930.63104</ele><time>2026-06-20T22:26:27.000Z</time></trkpt>
        <trkpt lat="29.568638" lon="103.420059"><ele>930.59174</ele><time>2026-06-20T22:26:29.000Z</time></trkpt>
        <trkpt lat="29.568627" lon="103.420064"><ele>930.59174</ele><time>2026-06-20T22:26:31.000Z</time></trkpt>
        <trkpt lat="29.568615" lon="103.420068"><ele>930.59174</ele><time>2026-06-20T22:26:33.000Z</time></trkpt>
        <trkpt lat="29.568603" lon="103.420071"><ele>930.45483</ele><time>2026-06-20T22:26:35.000Z</time></trkpt>
        <trkpt lat="29.568594" lon="103.420074"><ele>930.0975</ele><time>2026-06-20T22:26:37.000Z</time></trkpt>
        <trkpt lat="29.568586" lon="103.42008"><ele>929.6614</ele><time>2026-06-20T22:26:39.000Z</time></trkpt>
        <trkpt lat="29.568577" lon="103.420085"><ele>929.3215</ele><time>2026-06-20T22:26:43.000Z</time></trkpt>
        <trkpt lat="29.568539" lon="103.420105"><ele>929.0926</ele><time>2026-06-20T22:26:54.000Z</time></trkpt>
        <trkpt lat="29.568539" lon="103.420105"><ele>928.82684</ele><time>2026-06-20T22:26:56.000Z</time></trkpt>
        <trkpt lat="29.568539" lon="103.420105"><ele>928.4515</ele><time>2026-06-20T22:26:58.000Z</time></trkpt>
        <trkpt lat="29.568498" lon="103.420099"><ele>928.09955</ele><time>2026-06-20T22:27:12.000Z</time></trkpt>
        <trkpt lat="29.568472" lon="103.420096"><ele>927.8181</ele><time>2026-06-20T22:27:18.000Z</time></trkpt>
        <trkpt lat="29.568472" lon="103.420096"><ele>927.6732</ele><time>2026-06-20T22:27:20.000Z</time></trkpt>
        <trkpt lat="29.568463" lon="103.420089"><ele>927.61426</ele><time>2026-06-20T22:27:24.000Z</time></trkpt>
        <trkpt lat="29.568439" lon="103.420072"><ele>926.36615</ele><time>2026-06-20T22:27:28.000Z</time></trkpt>
        <trkpt lat="29.568425" lon="103.420066"><ele>924.7948</ele><time>2026-06-20T22:27:30.000Z</time></trkpt>
        <trkpt lat="29.568411" lon="103.420065"><ele>924.41187</ele><time>2026-06-20T22:27:31.000Z</time></trkpt>
        <trkpt lat="29.568403" lon="103.420069"><ele>924.1116</ele><time>2026-06-20T22:27:33.000Z</time></trkpt>
        <trkpt lat="29.568392" lon="103.420075"><ele>923.1361</ele><time>2026-06-20T22:27:35.000Z</time></trkpt>
        <trkpt lat="29.56838" lon="103.420087"><ele>922.1791</ele><time>2026-06-20T22:27:37.000Z</time></trkpt>
        <trkpt lat="29.568376" lon="103.420096"><ele>921.62445</ele><time>2026-06-20T22:27:39.000Z</time></trkpt>
        <trkpt lat="29.568369" lon="103.420113"><ele>921.09753</ele><time>2026-06-20T22:27:43.000Z</time></trkpt>
        <trkpt lat="29.56833" lon="103.420071"><ele>920.601</ele><time>2026-06-20T22:27:51.000Z</time></trkpt>
        <trkpt lat="29.56833" lon="103.420071"><ele>920.08765</ele><time>2026-06-20T22:27:53.000Z</time></trkpt>
        <trkpt lat="29.568328" lon="103.420074"><ele>919.6951</ele><time>2026-06-20T22:27:55.000Z</time></trkpt>
        <trkpt lat="29.568291" lon="103.420121"><ele>919.26056</ele><time>2026-06-20T22:28:07.000Z</time></trkpt>
        <trkpt lat="29.568281" lon="103.420132"><ele>918.5623</ele><time>2026-06-20T22:28:09.000Z</time></trkpt>
        <trkpt lat="29.568268" lon="103.420142"><ele>918.17456</ele><time>2026-06-20T22:28:11.000Z</time></trkpt>
        <trkpt lat="29.568257" lon="103.420143"><ele>918.10834</ele><time>2026-06-20T22:28:13.000Z</time></trkpt>
        <trkpt lat="29.568234" lon="103.420141"><ele>917.13983</ele><time>2026-06-20T22:28:15.000Z</time></trkpt>
        <trkpt lat="29.56821" lon="103.420133"><ele>916.1279</ele><time>2026-06-20T22:28:17.000Z</time></trkpt>
        <trkpt lat="29.568181" lon="103.420122"><ele>915.86743</ele><time>2026-06-20T22:28:19.000Z</time></trkpt>
        <trkpt lat="29.568158" lon="103.420113"><ele>915.4929</ele><time>2026-06-20T22:28:21.000Z</time></trkpt>
        <trkpt lat="29.568135" lon="103.420108"><ele>915.1658</ele><time>2026-06-20T22:28:23.000Z</time></trkpt>
        <trkpt lat="29.568119" lon="103.420105"><ele>914.9035</ele><time>2026-06-20T22:28:26.000Z</time></trkpt>
        <trkpt lat="29.568115" lon="103.42011"><ele>914.5451</ele><time>2026-06-20T22:28:28.000Z</time></trkpt>
        <trkpt lat="29.568065" lon="103.42017"><ele>914.0249</ele><time>2026-06-20T22:28:40.000Z</time></trkpt>
        <trkpt lat="29.568065" lon="103.42017"><ele>913.33026</ele><time>2026-06-20T22:28:42.000Z</time></trkpt>
        <trkpt lat="29.568066" lon="103.42017"><ele>912.5647</ele><time>2026-06-20T22:28:44.000Z</time></trkpt>
        <trkpt lat="29.568014" lon="103.420154"><ele>911.957</ele><time>2026-06-20T22:28:55.000Z</time></trkpt>
        <trkpt lat="29.567993" lon="103.420145"><ele>910.6316</ele><time>2026-06-20T22:28:57.000Z</time></trkpt>
        <trkpt lat="29.567981" lon="103.420136"><ele>909.52295</ele><time>2026-06-20T22:28:59.000Z</time></trkpt>
        <trkpt lat="29.567976" lon="103.420133"><ele>909.4948</ele><time>2026-06-20T22:29:01.000Z</time></trkpt>
        <trkpt lat="29.567953" lon="103.420119"><ele>908.47174</ele><time>2026-06-20T22:29:11.000Z</time></trkpt>
        <trkpt lat="29.567942" lon="103.420152"><ele>907.03094</ele><time>2026-06-20T22:29:18.000Z</time></trkpt>
        <trkpt lat="29.567932" lon="103.42012"><ele>906.16644</ele><time>2026-06-20T22:29:14.000Z</time></trkpt>
        <trkpt lat="29.567887" lon="103.420157"><ele>905.42365</ele><time>2026-06-20T22:29:22.000Z</time></trkpt>
        <trkpt lat="29.567864" lon="103.420166"><ele>903.8658</ele><time>2026-06-20T22:29:24.000Z</time></trkpt>
        <trkpt lat="29.567844" lon="103.420173"><ele>902.55774</ele><time>2026-06-20T22:29:26.000Z</time></trkpt>
        <trkpt lat="29.567833" lon="103.420183"><ele>902.22626</ele><time>2026-06-20T22:29:28.000Z</time></trkpt>
        <trkpt lat="29.567828" lon="103.420186"><ele>901.75275</ele><time>2026-06-20T22:29:29.000Z</time></trkpt>
        <trkpt lat="29.567811" lon="103.420193"><ele>901.19904</ele><time>2026-06-20T22:29:37.000Z</time></trkpt>
        <trkpt lat="29.567783" lon="103.420205"><ele>900.5141</ele><time>2026-06-20T22:29:40.000Z</time></trkpt>
        <trkpt lat="29.567783" lon="103.420205"><ele>899.8525</ele><time>2026-06-20T22:29:42.000Z</time></trkpt>
        <trkpt lat="29.567782" lon="103.42023"><ele>899.25836</ele><time>2026-06-20T22:29:46.000Z</time></trkpt>
        <trkpt lat="29.567776" lon="103.420245"><ele>898.1373</ele><time>2026-06-20T22:29:48.000Z</time></trkpt>
        <trkpt lat="29.567762" lon="103.420262"><ele>897.18066</ele><time>2026-06-20T22:29:50.000Z</time></trkpt>
        <trkpt lat="29.567742" lon="103.420275"><ele>897.06287</ele><time>2026-06-20T22:29:52.000Z</time></trkpt>
        <trkpt lat="29.567716" lon="103.420285"><ele>896.71497</ele><time>2026-06-20T22:29:54.000Z</time></trkpt>
        <trkpt lat="29.567706" lon="103.420288"><ele>896.01355</ele><time>2026-06-20T22:29:56.000Z</time></trkpt>
        <trkpt lat="29.567698" lon="103.420295"><ele>895.25574</ele><time>2026-06-20T22:29:58.000Z</time></trkpt>
        <trkpt lat="29.567682" lon="103.420299"><ele>894.4979</ele><time>2026-06-20T22:30:00.000Z</time></trkpt>
        <trkpt lat="29.56766" lon="103.420304"><ele>893.8271</ele><time>2026-06-20T22:30:04.000Z</time></trkpt>
        <trkpt lat="29.567646" lon="103.420305"><ele>893.2266</ele><time>2026-06-20T22:30:06.000Z</time></trkpt>
        <trkpt lat="29.567642" lon="103.420307"><ele>892.762</ele><time>2026-06-20T22:30:08.000Z</time></trkpt>
        <trkpt lat="29.567617" lon="103.420323"><ele>892.40393</ele><time>2026-06-20T22:30:16.000Z</time></trkpt>
        <trkpt lat="29.567609" lon="103.420332"><ele>891.7316</ele><time>2026-06-20T22:30:18.000Z</time></trkpt>
        <trkpt lat="29.567595" lon="103.420348"><ele>891.0169</ele><time>2026-06-20T22:30:20.000Z</time></trkpt>
        <trkpt lat="29.567581" lon="103.420366"><ele>890.6558</ele><time>2026-06-20T22:30:22.000Z</time></trkpt>
        <trkpt lat="29.567565" lon="103.420379"><ele>890.0908</ele><time>2026-06-20T22:30:24.000Z</time></trkpt>
        <trkpt lat="29.567543" lon="103.420388"><ele>889.48926</ele><time>2026-06-20T22:30:26.000Z</time></trkpt>
        <trkpt lat="29.567527" lon="103.420392"><ele>889.1758</ele><time>2026-06-20T22:30:28.000Z</time></trkpt>
        <trkpt lat="29.567512" lon="103.420401"><ele>888.888</ele><time>2026-06-20T22:30:31.000Z</time></trkpt>
        <trkpt lat="29.567506" lon="103.420403"><ele>888.6412</ele><time>2026-06-20T22:30:33.000Z</time></trkpt>
        <trkpt lat="29.567458" lon="103.420425"><ele>888.5049</ele><time>2026-06-20T22:30:49.000Z</time></trkpt>
        <trkpt lat="29.567458" lon="103.420425"><ele>888.4466</ele><time>2026-06-20T22:30:51.000Z</time></trkpt>
        <trkpt lat="29.567456" lon="103.420426"><ele>888.3415</ele><time>2026-06-20T22:30:53.000Z</time></trkpt>
        <trkpt lat="29.567425" lon="103.420456"><ele>888.0587</ele><time>2026-06-20T22:31:06.000Z</time></trkpt>
        <trkpt lat="29.567396" lon="103.420484"><ele>886.5061</ele><time>2026-06-20T22:31:10.000Z</time></trkpt>
        <trkpt lat="29.567396" lon="103.420484"><ele>885.1489</ele><time>2026-06-20T22:31:12.000Z</time></trkpt>
        <trkpt lat="29.567391" lon="103.420482"><ele>885.07733</ele><time>2026-06-20T22:31:14.000Z</time></trkpt>
        <trkpt lat="29.567345" lon="103.420477"><ele>883.3985</ele><time>2026-06-20T22:31:20.000Z</time></trkpt>
        <trkpt lat="29.567337" lon="103.420476"><ele>881.2231</ele><time>2026-06-20T22:31:22.000Z</time></trkpt>
        <trkpt lat="29.567313" lon="103.420477"><ele>880.65314</ele><time>2026-06-20T22:31:24.000Z</time></trkpt>
        <trkpt lat="29.567292" lon="103.420483"><ele>880.5784</ele><time>2026-06-20T22:31:26.000Z</time></trkpt>
        <trkpt lat="29.567276" lon="103.420492"><ele>879.68085</ele><time>2026-06-20T22:31:28.000Z</time></trkpt>
        <trkpt lat="29.567272" lon="103.42049"><ele>878.6575</ele><time>2026-06-20T22:31:30.000Z</time></trkpt>
        <trkpt lat="29.567212" lon="103.420464"><ele>878.17224</ele><time>2026-06-20T22:31:38.000Z</time></trkpt>
        <trkpt lat="29.567212" lon="103.420464"><ele>877.6018</ele><time>2026-06-20T22:31:40.000Z</time></trkpt>
        <trkpt lat="29.567214" lon="103.420464"><ele>876.95856</ele><time>2026-06-20T22:31:42.000Z</time></trkpt>
        <trkpt lat="29.567109" lon="103.420452"><ele>876.32947</ele><time>2026-06-20T22:31:54.000Z</time></trkpt>
        <trkpt lat="29.567109" lon="103.420452"><ele>874.7747</ele><time>2026-06-20T22:31:56.000Z</time></trkpt>
        <trkpt lat="29.567107" lon="103.420452"><ele>873.4861</ele><time>2026-06-20T22:31:58.000Z</time></trkpt>
        <trkpt lat="29.567058" lon="103.420445"><ele>873.38116</ele><time>2026-06-20T22:32:06.000Z</time></trkpt>
        <trkpt lat="29.567054" lon="103.42044"><ele>871.0457</ele><time>2026-06-20T22:32:08.000Z</time></trkpt>
        <trkpt lat="29.567052" lon="103.420434"><ele>868.811</ele><time>2026-06-20T22:32:10.000Z</time></trkpt>
        <trkpt lat="29.567037" lon="103.420415"><ele>868.74426</ele><time>2026-06-20T22:32:14.000Z</time></trkpt>
        <trkpt lat="29.567027" lon="103.420403"><ele>868.05963</ele><time>2026-06-20T22:32:26.000Z</time></trkpt>
        <trkpt lat="29.566973" lon="103.420338"><ele>867.35675</ele><time>2026-06-20T22:32:30.000Z</time></trkpt>
        <trkpt lat="29.566973" lon="103.420338"><ele>867.0958</ele><time>2026-06-20T22:32:32.000Z</time></trkpt>
        <trkpt lat="29.566972" lon="103.420333"><ele>866.46063</ele><time>2026-06-20T22:32:34.000Z</time></trkpt>
        <trkpt lat="29.566953" lon="103.420276"><ele>864.9228</ele><time>2026-06-20T22:32:39.000Z</time></trkpt>
        <trkpt lat="29.566944" lon="103.420239"><ele>862.9588</ele><time>2026-06-20T22:32:41.000Z</time></trkpt>
        <trkpt lat="29.566937" lon="103.420201"><ele>862.075</ele><time>2026-06-20T22:32:43.000Z</time></trkpt>
        <trkpt lat="29.566935" lon="103.420173"><ele>862.0699</ele><time>2026-06-20T22:32:45.000Z</time></trkpt>
        <trkpt lat="29.566933" lon="103.420147"><ele>861.8797</ele><time>2026-06-20T22:32:47.000Z</time></trkpt>
        <trkpt lat="29.56693" lon="103.420122"><ele>861.6354</ele><time>2026-06-20T22:32:49.000Z</time></trkpt>
        <trkpt lat="29.566926" lon="103.4201"><ele>861.50903</ele><time>2026-06-20T22:32:51.000Z</time></trkpt>
        <trkpt lat="29.566924" lon="103.420083"><ele>861.2566</ele><time>2026-06-20T22:32:53.000Z</time></trkpt>
        <trkpt lat="29.566924" lon="103.420066"><ele>860.85614</ele><time>2026-06-20T22:32:55.000Z</time></trkpt>
        <trkpt lat="29.566929" lon="103.420062"><ele>860.41394</ele><time>2026-06-20T22:32:57.000Z</time></trkpt>
        <trkpt lat="29.566943" lon="103.420054"><ele>859.9978</ele><time>2026-06-20T22:32:59.000Z</time></trkpt>
        <trkpt lat="29.566961" lon="103.420048"><ele>859.6955</ele><time>2026-06-20T22:33:01.000Z</time></trkpt>
        <trkpt lat="29.566973" lon="103.420052"><ele>859.5147</ele><time>2026-06-20T22:33:03.000Z</time></trkpt>
        <trkpt lat="29.566907" lon="103.420032"><ele>859.44336</ele><time>2026-06-20T22:33:15.000Z</time></trkpt>
        <trkpt lat="29.566921" lon="103.420002"><ele>859.4344</ele><time>2026-06-20T22:33:22.000Z</time></trkpt>
        <trkpt lat="29.566921" lon="103.420002"><ele>859.4289</ele><time>2026-06-20T22:33:24.000Z</time></trkpt>
        <trkpt lat="29.566885" lon="103.419988"><ele>859.3749</ele><time>2026-06-20T22:33:49.000Z</time></trkpt>
        <trkpt lat="29.566878" lon="103.419984"><ele>859.2867</ele><time>2026-06-20T22:33:51.000Z</time></trkpt>
        <trkpt lat="29.566872" lon="103.419978"><ele>859.2444</ele><time>2026-06-20T22:33:53.000Z</time></trkpt>
        <trkpt lat="29.566806" lon="103.419921"><ele>859.1012</ele><time>2026-06-20T22:34:08.000Z</time></trkpt>
        <trkpt lat="29.566806" lon="103.419921"><ele>858.5371</ele><time>2026-06-20T22:34:10.000Z</time></trkpt>
        <trkpt lat="29.566804" lon="103.419922"><ele>858.07764</ele><time>2026-06-20T22:34:11.000Z</time></trkpt>
        <trkpt lat="29.566713" lon="103.419967"><ele>857.99554</ele><time>2026-06-20T22:34:28.000Z</time></trkpt>
        <trkpt lat="29.5667" lon="103.419973"><ele>856.615</ele><time>2026-06-20T22:34:30.000Z</time></trkpt>
        <trkpt lat="29.566699" lon="103.419977"><ele>855.28534</ele><time>2026-06-20T22:34:32.000Z</time></trkpt>
        <trkpt lat="29.566671" lon="103.420077"><ele>855.2734</ele><time>2026-06-20T22:36:01.000Z</time></trkpt>
        <trkpt lat="29.566671" lon="103.420077"><ele>854.4433</ele><time>2026-06-20T22:36:03.000Z</time></trkpt>
        <trkpt lat="29.56667" lon="103.420081"><ele>853.4358</ele><time>2026-06-20T22:36:05.000Z</time></trkpt>
        <trkpt lat="29.566651" lon="103.420142"><ele>853.1479</ele><time>2026-06-20T22:36:09.000Z</time></trkpt>
        <trkpt lat="29.566637" lon="103.420184"><ele>852.2495</ele><time>2026-06-20T22:36:11.000Z</time></trkpt>
        <trkpt lat="29.566625" lon="103.420225"><ele>851.4489</ele><time>2026-06-20T22:36:13.000Z</time></trkpt>
        <trkpt lat="29.566615" lon="103.420261"><ele>851.40625</ele><time>2026-06-20T22:36:15.000Z</time></trkpt>
        <trkpt lat="29.566604" lon="103.420287"><ele>850.66003</ele><time>2026-06-20T22:36:17.000Z</time></trkpt>
        <trkpt lat="29.566586" lon="103.420316"><ele>849.4755</ele><time>2026-06-20T22:36:19.000Z</time></trkpt>
        <trkpt lat="29.566569" lon="103.420341"><ele>848.58466</ele><time>2026-06-20T22:36:21.000Z</time></trkpt>
        <trkpt lat="29.566553" lon="103.420369"><ele>847.8914</ele><time>2026-06-20T22:36:23.000Z</time></trkpt>
        <trkpt lat="29.566543" lon="103.420394"><ele>847.57056</ele><time>2026-06-20T22:36:25.000Z</time></trkpt>
        <trkpt lat="29.566534" lon="103.420417"><ele>847.5288</ele><time>2026-06-20T22:36:27.000Z</time></trkpt>
        <trkpt lat="29.566523" lon="103.420437"><ele>847.5288</ele><time>2026-06-20T22:36:29.000Z</time></trkpt>
        <trkpt lat="29.566512" lon="103.420455"><ele>847.5288</ele><time>2026-06-20T22:36:31.000Z</time></trkpt>
        <trkpt lat="29.566499" lon="103.42047"><ele>847.5288</ele><time>2026-06-20T22:36:33.000Z</time></trkpt>
        <trkpt lat="29.566481" lon="103.42048"><ele>847.5288</ele><time>2026-06-20T22:36:35.000Z</time></trkpt>
        <trkpt lat="29.566388" lon="103.420536"><ele>847.5288</ele><time>2026-06-20T22:36:41.000Z</time></trkpt>
        <trkpt lat="29.566388" lon="103.420536"><ele>847.5288</ele><time>2026-06-20T22:36:43.000Z</time></trkpt>
        <trkpt lat="29.566387" lon="103.420539"><ele>847.51746</ele><time>2026-06-20T22:36:45.000Z</time></trkpt>
        <trkpt lat="29.566374" lon="103.420581"><ele>847.4866</ele><time>2026-06-20T22:36:50.000Z</time></trkpt>
        <trkpt lat="29.566363" lon="103.420616"><ele>847.4309</ele><time>2026-06-20T22:36:52.000Z</time></trkpt>
        <trkpt lat="29.566355" lon="103.420651"><ele>847.3351</ele><time>2026-06-20T22:36:54.000Z</time></trkpt>
        <trkpt lat="29.566343" lon="103.420684"><ele>847.33307</ele><time>2026-06-20T22:36:56.000Z</time></trkpt>
        <trkpt lat="29.566334" lon="103.420714"><ele>847.22003</ele><time>2026-06-20T22:36:58.000Z</time></trkpt>
        <trkpt lat="29.566326" lon="103.420738"><ele>847.00964</ele><time>2026-06-20T22:37:00.000Z</time></trkpt>
        <trkpt lat="29.566318" lon="103.420766"><ele>846.8945</ele><time>2026-06-20T22:37:02.000Z</time></trkpt>
        <trkpt lat="29.566311" lon="103.420789"><ele>846.8906</ele><time>2026-06-20T22:37:04.000Z</time></trkpt>
        <trkpt lat="29.566302" lon="103.420807"><ele>846.8906</ele><time>2026-06-20T22:37:06.000Z</time></trkpt>
        <trkpt lat="29.566288" lon="103.420829"><ele>846.8906</ele><time>2026-06-20T22:37:08.000Z</time></trkpt>
        <trkpt lat="29.566274" lon="103.420853"><ele>846.8906</ele><time>2026-06-20T22:37:10.000Z</time></trkpt>
        <trkpt lat="29.566257" lon="103.420884"><ele>846.9073</ele><time>2026-06-20T22:37:12.000Z</time></trkpt>
        <trkpt lat="29.566247" lon="103.420909"><ele>846.9738</ele><time>2026-06-20T22:37:14.000Z</time></trkpt>
        <trkpt lat="29.566241" lon="103.420932"><ele>847.1437</ele><time>2026-06-20T22:37:16.000Z</time></trkpt>
        <trkpt lat="29.566235" lon="103.420964"><ele>847.41205</ele><time>2026-06-20T22:37:18.000Z</time></trkpt>
        <trkpt lat="29.566235" lon="103.420998"><ele>847.7227</ele><time>2026-06-20T22:37:20.000Z</time></trkpt>
        <trkpt lat="29.566237" lon="103.421031"><ele>848.04144</ele><time>2026-06-20T22:37:22.000Z</time></trkpt>
        <trkpt lat="29.56624" lon="103.421059"><ele>848.30316</ele><time>2026-06-20T22:37:24.000Z</time></trkpt>
        <trkpt lat="29.566241" lon="103.421088"><ele>848.3793</ele><time>2026-06-20T22:37:26.000Z</time></trkpt>
        <trkpt lat="29.56624" lon="103.421105"><ele>848.3793</ele><time>2026-06-20T22:37:28.000Z</time></trkpt>
        <trkpt lat="29.566235" lon="103.421119"><ele>848.3793</ele><time>2026-06-20T22:37:30.000Z</time></trkpt>
        <trkpt lat="29.566225" lon="103.421134"><ele>848.3793</ele><time>2026-06-20T22:37:32.000Z</time></trkpt>
        <trkpt lat="29.566206" lon="103.421148"><ele>848.3793</ele><time>2026-06-20T22:37:34.000Z</time></trkpt>
        <trkpt lat="29.566171" lon="103.421163"><ele>848.32635</ele><time>2026-06-20T22:37:36.000Z</time></trkpt>
        <trkpt lat="29.56614" lon="103.421173"><ele>848.10895</ele><time>2026-06-20T22:37:38.000Z</time></trkpt>
        <trkpt lat="29.566118" lon="103.421179"><ele>847.70233</ele><time>2026-06-20T22:37:40.000Z</time></trkpt>
        <trkpt lat="29.566098" lon="103.421179"><ele>847.2653</ele><time>2026-06-20T22:37:42.000Z</time></trkpt>
        <trkpt lat="29.566076" lon="103.421178"><ele>846.9082</ele><time>2026-06-20T22:37:44.000Z</time></trkpt>
        <trkpt lat="29.566052" lon="103.42117"><ele>846.62506</ele><time>2026-06-20T22:37:46.000Z</time></trkpt>
        <trkpt lat="29.566032" lon="103.42116"><ele>846.30176</ele><time>2026-06-20T22:37:48.000Z</time></trkpt>
        <trkpt lat="29.566014" lon="103.421151"><ele>846.06793</ele><time>2026-06-20T22:37:50.000Z</time></trkpt>
        <trkpt lat="29.566002" lon="103.421146"><ele>846.01825</ele><time>2026-06-20T22:37:52.000Z</time></trkpt>
        <trkpt lat="29.565991" lon="103.421144"><ele>845.95337</ele><time>2026-06-20T22:37:54.000Z</time></trkpt>
        <trkpt lat="29.565973" lon="103.421141"><ele>845.66626</ele><time>2026-06-20T22:37:58.000Z</time></trkpt>
        <trkpt lat="29.565966" lon="103.421143"><ele>845.5414</ele><time>2026-06-20T22:38:00.000Z</time></trkpt>
        <trkpt lat="29.565874" lon="103.421167"><ele>845.49445</ele><time>2026-06-20T22:38:19.000Z</time></trkpt>
        <trkpt lat="29.565874" lon="103.421167"><ele>845.49426</ele><time>2026-06-20T22:38:21.000Z</time></trkpt>
        <trkpt lat="29.565871" lon="103.421167"><ele>845.49426</ele><time>2026-06-20T22:38:23.000Z</time></trkpt>
        <trkpt lat="29.565804" lon="103.421157"><ele>845.49426</ele><time>2026-06-20T22:38:27.000Z</time></trkpt>
        <trkpt lat="29.56578" lon="103.421147"><ele>845.5464</ele><time>2026-06-20T22:38:29.000Z</time></trkpt>
        <trkpt lat="29.565694" lon="103.421114"><ele>845.5464</ele><time>2026-06-20T22:38:33.000Z</time></trkpt>
        <trkpt lat="29.565694" lon="103.421113"><ele>845.5464</ele><time>2026-06-20T22:38:35.000Z</time></trkpt>
        <trkpt lat="29.565692" lon="103.421113"><ele>845.5464</ele><time>2026-06-20T22:38:37.000Z</time></trkpt>
        <trkpt lat="29.565626" lon="103.421089"><ele>845.5464</ele><time>2026-06-20T22:38:49.000Z</time></trkpt>
        <trkpt lat="29.565601" lon="103.42108"><ele>845.4573</ele><time>2026-06-20T22:38:51.000Z</time></trkpt>
        <trkpt lat="29.56557" lon="103.421077"><ele>845.368</ele><time>2026-06-20T22:38:53.000Z</time></trkpt>
        <trkpt lat="29.565543" lon="103.421082"><ele>845.35156</ele><time>2026-06-20T22:38:55.000Z</time></trkpt>
        <trkpt lat="29.56552" lon="103.421092"><ele>844.44214</ele><time>2026-06-20T22:38:57.000Z</time></trkpt>
        <trkpt lat="29.565502" lon="103.42111"><ele>843.30316</ele><time>2026-06-20T22:38:59.000Z</time></trkpt>
        <trkpt lat="29.565487" lon="103.421129"><ele>842.9126</ele><time>2026-06-20T22:39:01.000Z</time></trkpt>
        <trkpt lat="29.565471" lon="103.421149"><ele>842.67975</ele><time>2026-06-20T22:39:03.000Z</time></trkpt>
        <trkpt lat="29.565456" lon="103.421163"><ele>842.3595</ele><time>2026-06-20T22:39:05.000Z</time></trkpt>
        <trkpt lat="29.565438" lon="103.42118"><ele>841.8708</ele><time>2026-06-20T22:39:07.000Z</time></trkpt>
        <trkpt lat="29.56542" lon="103.421196"><ele>841.2685</ele><time>2026-06-20T22:39:09.000Z</time></trkpt>
        <trkpt lat="29.565401" lon="103.421211"><ele>840.60406</ele><time>2026-06-20T22:39:11.000Z</time></trkpt>
        <trkpt lat="29.565386" lon="103.421219"><ele>840.0217</ele><time>2026-06-20T22:39:13.000Z</time></trkpt>
        <trkpt lat="29.565381" lon="103.421226"><ele>839.38086</ele><time>2026-06-20T22:39:15.000Z</time></trkpt>
        <trkpt lat="29.565375" lon="103.421225"><ele>838.6289</ele><time>2026-06-20T22:39:23.000Z</time></trkpt>
        <trkpt lat="29.56532" lon="103.421218"><ele>837.84906</ele><time>2026-06-20T22:39:36.000Z</time></trkpt>
        <trkpt lat="29.56532" lon="103.421218"><ele>837.05707</ele><time>2026-06-20T22:39:38.000Z</time></trkpt>
        <trkpt lat="29.565319" lon="103.421218"><ele>836.2723</ele><time>2026-06-20T22:39:40.000Z</time></trkpt>
        <trkpt lat="29.565252" lon="103.421227"><ele>834.3436</ele><time>2026-06-20T22:40:48.000Z</time></trkpt>
        <trkpt lat="29.565228" lon="103.421228"><ele>832.79456</ele><time>2026-06-20T22:40:50.000Z</time></trkpt>
        <trkpt lat="29.565191" lon="103.421235"><ele>832.7753</ele><time>2026-06-20T22:40:52.000Z</time></trkpt>
        <trkpt lat="29.565191" lon="103.421237"><ele>832.68915</ele><time>2026-06-20T22:40:58.000Z</time></trkpt>
        <trkpt lat="29.565185" lon="103.421268"><ele>832.06995</ele><time>2026-06-20T22:41:01.000Z</time></trkpt>
        <trkpt lat="29.565173" lon="103.4213"><ele>831.3282</ele><time>2026-06-20T22:41:05.000Z</time></trkpt>
        <trkpt lat="29.565165" lon="103.421321"><ele>830.914</ele><time>2026-06-20T22:41:07.000Z</time></trkpt>
        <trkpt lat="29.565157" lon="103.421336"><ele>830.51965</ele><time>2026-06-20T22:41:09.000Z</time></trkpt>
        <trkpt lat="29.565123" lon="103.421402"><ele>829.5264</ele><time>2026-06-20T22:41:21.000Z</time></trkpt>
        <trkpt lat="29.565123" lon="103.421402"><ele>827.9958</ele><time>2026-06-20T22:41:24.000Z</time></trkpt>
        <trkpt lat="29.565119" lon="103.421402"><ele>826.98627</ele><time>2026-06-20T22:41:26.000Z</time></trkpt>
        <trkpt lat="29.565068" lon="103.421396"><ele>826.43945</ele><time>2026-06-20T22:41:30.000Z</time></trkpt>
        <trkpt lat="29.565051" lon="103.421399"><ele>825.9625</ele><time>2026-06-20T22:41:32.000Z</time></trkpt>
        <trkpt lat="29.565038" lon="103.421408"><ele>825.7475</ele><time>2026-06-20T22:41:34.000Z</time></trkpt>
        <trkpt lat="29.565028" lon="103.421415"><ele>825.72534</ele><time>2026-06-20T22:41:36.000Z</time></trkpt>
        <trkpt lat="29.565013" lon="103.421418"><ele>825.2626</ele><time>2026-06-20T22:41:38.000Z</time></trkpt>
        <trkpt lat="29.564992" lon="103.421419"><ele>824.33936</ele><time>2026-06-20T22:41:40.000Z</time></trkpt>
        <trkpt lat="29.564974" lon="103.42142"><ele>823.31116</ele><time>2026-06-20T22:41:42.000Z</time></trkpt>
        <trkpt lat="29.564963" lon="103.421419"><ele>822.2676</ele><time>2026-06-20T22:41:44.000Z</time></trkpt>
        <trkpt lat="29.564954" lon="103.421417"><ele>821.2663</ele><time>2026-06-20T22:41:46.000Z</time></trkpt>
        <trkpt lat="29.564937" lon="103.421405"><ele>820.2885</ele><time>2026-06-20T22:41:50.000Z</time></trkpt>
        <trkpt lat="29.564927" lon="103.421397"><ele>819.43134</ele><time>2026-06-20T22:41:52.000Z</time></trkpt>
        <trkpt lat="29.564923" lon="103.421391"><ele>818.6383</ele><time>2026-06-20T22:41:54.000Z</time></trkpt>
        <trkpt lat="29.564907" lon="103.421374"><ele>817.97595</ele><time>2026-06-20T22:42:00.000Z</time></trkpt>
        <trkpt lat="29.564891" lon="103.421364"><ele>817.48236</ele><time>2026-06-20T22:42:02.000Z</time></trkpt>
        <trkpt lat="29.564878" lon="103.421357"><ele>817.1069</ele><time>2026-06-20T22:42:04.000Z</time></trkpt>
        <trkpt lat="29.564867" lon="103.421352"><ele>816.74414</ele><time>2026-06-20T22:42:06.000Z</time></trkpt>
        <trkpt lat="29.564849" lon="103.421343"><ele>816.3428</ele><time>2026-06-20T22:42:10.000Z</time></trkpt>
        <trkpt lat="29.564846" lon="103.421339"><ele>816.15533</ele><time>2026-06-20T22:42:12.000Z</time></trkpt>
        <trkpt lat="29.564838" lon="103.421319"><ele>816.1381</ele><time>2026-06-20T22:42:18.000Z</time></trkpt>
        <trkpt lat="29.564833" lon="103.421303"><ele>815.98334</ele><time>2026-06-20T22:42:22.000Z</time></trkpt>
        <trkpt lat="29.564828" lon="103.421298"><ele>815.5489</ele><time>2026-06-20T22:42:25.000Z</time></trkpt>
        <trkpt lat="29.564771" lon="103.421244"><ele>815.15936</ele><time>2026-06-20T22:42:34.000Z</time></trkpt>
        <trkpt lat="29.564771" lon="103.421244"><ele>814.92267</ele><time>2026-06-20T22:42:36.000Z</time></trkpt>
        <trkpt lat="29.56477" lon="103.421243"><ele>814.7509</ele><time>2026-06-20T22:42:38.000Z</time></trkpt>
        <trkpt lat="29.564716" lon="103.421211"><ele>814.52905</ele><time>2026-06-20T22:42:44.000Z</time></trkpt>
        <trkpt lat="29.564694" lon="103.42119"><ele>814.1526</ele><time>2026-06-20T22:42:46.000Z</time></trkpt>
        <trkpt lat="29.564681" lon="103.42117"><ele>813.95575</ele><time>2026-06-20T22:42:48.000Z</time></trkpt>
        <trkpt lat="29.564669" lon="103.421143"><ele>813.94385</ele><time>2026-06-20T22:42:50.000Z</time></trkpt>
        <trkpt lat="29.564654" lon="103.42112"><ele>813.7425</ele><time>2026-06-20T22:42:52.000Z</time></trkpt>
        <trkpt lat="29.564633" lon="103.4211"><ele>813.67847</ele><time>2026-06-20T22:42:54.000Z</time></trkpt>
        <trkpt lat="29.564613" lon="103.421095"><ele>813.67847</ele><time>2026-06-20T22:42:56.000Z</time></trkpt>
        <trkpt lat="29.564613" lon="103.421097"><ele>813.67847</ele><time>2026-06-20T22:42:58.000Z</time></trkpt>
        <trkpt lat="29.564599" lon="103.421149"><ele>813.67847</ele><time>2026-06-20T22:43:02.000Z</time></trkpt>
        <trkpt lat="29.564594" lon="103.421163"><ele>813.67847</ele><time>2026-06-20T22:43:04.000Z</time></trkpt>
        <trkpt lat="29.564584" lon="103.421174"><ele>814.0437</ele><time>2026-06-20T22:43:07.000Z</time></trkpt>
        <trkpt lat="29.564562" lon="103.421192"><ele>814.59015</ele><time>2026-06-20T22:43:09.000Z</time></trkpt>
        <trkpt lat="29.564544" lon="103.421202"><ele>815.4487</ele><time>2026-06-20T22:43:11.000Z</time></trkpt>
        <trkpt lat="29.564526" lon="103.42121"><ele>816.11383</ele><time>2026-06-20T22:43:13.000Z</time></trkpt>
        <trkpt lat="29.564506" lon="103.421228"><ele>816.23016</ele><time>2026-06-20T22:43:15.000Z</time></trkpt>
        <trkpt lat="29.564483" lon="103.421253"><ele>816.32715</ele><time>2026-06-20T22:43:17.000Z</time></trkpt>
        <trkpt lat="29.564468" lon="103.421276"><ele>816.54156</ele><time>2026-06-20T22:43:19.000Z</time></trkpt>
        <trkpt lat="29.564458" lon="103.421298"><ele>816.586</ele><time>2026-06-20T22:43:21.000Z</time></trkpt>
        <trkpt lat="29.564452" lon="103.421322"><ele>816.586</ele><time>2026-06-20T22:43:23.000Z</time></trkpt>
        <trkpt lat="29.564443" lon="103.42134"><ele>816.586</ele><time>2026-06-20T22:43:25.000Z</time></trkpt>
        <trkpt lat="29.564432" lon="103.421364"><ele>816.586</ele><time>2026-06-20T22:43:27.000Z</time></trkpt>
        <trkpt lat="29.564416" lon="103.421386"><ele>816.586</ele><time>2026-06-20T22:43:29.000Z</time></trkpt>
        <trkpt lat="29.564387" lon="103.42141"><ele>816.3659</ele><time>2026-06-20T22:43:31.000Z</time></trkpt>
        <trkpt lat="29.564368" lon="103.421416"><ele>815.94635</ele><time>2026-06-20T22:43:33.000Z</time></trkpt>
        <trkpt lat="29.56435" lon="103.421414"><ele>815.3025</ele><time>2026-06-20T22:43:35.000Z</time></trkpt>
        <trkpt lat="29.564326" lon="103.421405"><ele>814.4603</ele><time>2026-06-20T22:43:37.000Z</time></trkpt>
        <trkpt lat="29.564301" lon="103.421394"><ele>813.40393</ele><time>2026-06-20T22:43:39.000Z</time></trkpt>
        <trkpt lat="29.564282" lon="103.421393"><ele>812.42523</ele><time>2026-06-20T22:43:41.000Z</time></trkpt>
        <trkpt lat="29.564282" lon="103.421394"><ele>811.6586</ele><time>2026-06-20T22:43:45.000Z</time></trkpt>
        <trkpt lat="29.564275" lon="103.421483"><ele>811.5213</ele><time>2026-06-20T22:43:53.000Z</time></trkpt>
        <trkpt lat="29.564275" lon="103.4215"><ele>811.5213</ele><time>2026-06-20T22:43:55.000Z</time></trkpt>
        <trkpt lat="29.564276" lon="103.4215"><ele>811.5213</ele><time>2026-06-20T22:43:57.000Z</time></trkpt>
        <trkpt lat="29.564349" lon="103.421513"><ele>811.2807</ele><time>2026-06-20T22:44:07.000Z</time></trkpt>
        <trkpt lat="29.564347" lon="103.42154"><ele>811.1923</ele><time>2026-06-20T22:44:09.000Z</time></trkpt>
        <trkpt lat="29.56434" lon="103.421575"><ele>810.98096</ele><time>2026-06-20T22:44:11.000Z</time></trkpt>
        <trkpt lat="29.564336" lon="103.421607"><ele>810.91907</ele><time>2026-06-20T22:44:13.000Z</time></trkpt>
        <trkpt lat="29.564341" lon="103.421622"><ele>810.91907</ele><time>2026-06-20T22:44:15.000Z</time></trkpt>
        <trkpt lat="29.56435" lon="103.421629"><ele>810.86646</ele><time>2026-06-20T22:44:17.000Z</time></trkpt>
        <trkpt lat="29.564392" lon="103.421648"><ele>810.3561</ele><time>2026-06-20T22:44:21.000Z</time></trkpt>
        <trkpt lat="29.564423" lon="103.421655"><ele>809.8265</ele><time>2026-06-20T22:44:23.000Z</time></trkpt>
        <trkpt lat="29.564446" lon="103.421663"><ele>809.33203</ele><time>2026-06-20T22:44:25.000Z</time></trkpt>
        <trkpt lat="29.56445" lon="103.421659"><ele>808.888</ele><time>2026-06-20T22:44:27.000Z</time></trkpt>
        <trkpt lat="29.564392" lon="103.421734"><ele>808.134</ele><time>2026-06-20T22:44:35.000Z</time></trkpt>
        <trkpt lat="29.564392" lon="103.421734"><ele>807.2269</ele><time>2026-06-20T22:44:37.000Z</time></trkpt>
        <trkpt lat="29.564394" lon="103.421735"><ele>806.5432</ele><time>2026-06-20T22:44:39.000Z</time></trkpt>
        <trkpt lat="29.564474" lon="103.421779"><ele>805.92975</ele><time>2026-06-20T22:44:50.000Z</time></trkpt>
        <trkpt lat="29.564474" lon="103.421779"><ele>804.6977</ele><time>2026-06-20T22:44:52.000Z</time></trkpt>
        <trkpt lat="29.564476" lon="103.421778"><ele>803.76086</ele><time>2026-06-20T22:44:54.000Z</time></trkpt>
        <trkpt lat="29.564408" lon="103.421831"><ele>803.7291</ele><time>2026-06-20T22:45:14.000Z</time></trkpt>
        <trkpt lat="29.564436" lon="103.421862"><ele>802.0719</ele><time>2026-06-20T22:45:16.000Z</time></trkpt>
        <trkpt lat="29.564436" lon="103.421864"><ele>800.4441</ele><time>2026-06-20T22:45:18.000Z</time></trkpt>
        <trkpt lat="29.564435" lon="103.421913"><ele>800.4259</ele><time>2026-06-20T22:45:24.000Z</time></trkpt>
        <trkpt lat="29.564437" lon="103.421954"><ele>798.71704</ele><time>2026-06-20T22:45:26.000Z</time></trkpt>
        <trkpt lat="29.564442" lon="103.422054"><ele>796.5408</ele><time>2026-06-20T22:45:32.000Z</time></trkpt>
        <trkpt lat="29.564442" lon="103.422054"><ele>796.05536</ele><time>2026-06-20T22:45:34.000Z</time></trkpt>
        <trkpt lat="29.564441" lon="103.422057"><ele>795.4458</ele><time>2026-06-20T22:45:36.000Z</time></trkpt>
        <trkpt lat="29.564403" lon="103.422131"><ele>794.3294</ele><time>2026-06-20T22:45:42.000Z</time></trkpt>
        <trkpt lat="29.564393" lon="103.422158"><ele>792.2185</ele><time>2026-06-20T22:45:44.000Z</time></trkpt>
        <trkpt lat="29.564384" lon="103.422176"><ele>790.61395</ele><time>2026-06-20T22:45:46.000Z</time></trkpt>
        <trkpt lat="29.564366" lon="103.42221"><ele>790.56525</ele><time>2026-06-20T22:45:48.000Z</time></trkpt>
        <trkpt lat="29.564438" lon="103.422255"><ele>789.5853</ele><time>2026-06-20T22:46:00.000Z</time></trkpt>
        <trkpt lat="29.564444" lon="103.422268"><ele>788.33795</ele><time>2026-06-20T22:46:02.000Z</time></trkpt>
        <trkpt lat="29.564445" lon="103.422277"><ele>787.73285</ele><time>2026-06-20T22:46:04.000Z</time></trkpt>
        <trkpt lat="29.56446" lon="103.422333"><ele>787.1937</ele><time>2026-06-20T22:46:10.000Z</time></trkpt>
        <trkpt lat="29.564473" lon="103.422359"><ele>786.0159</ele><time>2026-06-20T22:46:12.000Z</time></trkpt>
        <trkpt lat="29.56449" lon="103.422386"><ele>784.82526</ele><time>2026-06-20T22:46:14.000Z</time></trkpt>
        <trkpt lat="29.564504" lon="103.422405"><ele>784.26227</ele><time>2026-06-20T22:46:16.000Z</time></trkpt>
        <trkpt lat="29.564513" lon="103.422418"><ele>782.8682</ele><time>2026-06-20T22:46:18.000Z</time></trkpt>
        <trkpt lat="29.564476" lon="103.422465"><ele>781.422</ele><time>2026-06-20T22:46:30.000Z</time></trkpt>
        <trkpt lat="29.564469" lon="103.422473"><ele>780.73584</ele><time>2026-06-20T22:46:32.000Z</time></trkpt>
        <trkpt lat="29.564467" lon="103.42248"><ele>780.1036</ele><time>2026-06-20T22:46:34.000Z</time></trkpt>
        <trkpt lat="29.564457" lon="103.422556"><ele>779.60736</ele><time>2026-06-20T22:46:44.000Z</time></trkpt>
        <trkpt lat="29.564452" lon="103.422579"><ele>778.3721</ele><time>2026-06-20T22:46:46.000Z</time></trkpt>
        <trkpt lat="29.564454" lon="103.422588"><ele>777.0785</ele><time>2026-06-20T22:46:48.000Z</time></trkpt>
        <trkpt lat="29.56447" lon="103.422643"><ele>776.55975</ele><time>2026-06-20T22:46:56.000Z</time></trkpt>
        <trkpt lat="29.564456" lon="103.422677"><ele>775.0958</ele><time>2026-06-20T22:47:08.000Z</time></trkpt>
        <trkpt lat="29.564457" lon="103.422702"><ele>773.7249</ele><time>2026-06-20T22:47:10.000Z</time></trkpt>
        <trkpt lat="29.564467" lon="103.422739"><ele>773.4342</ele><time>2026-06-20T22:47:12.000Z</time></trkpt>
        <trkpt lat="29.564478" lon="103.422765"><ele>772.55096</ele><time>2026-06-20T22:47:14.000Z</time></trkpt>
        <trkpt lat="29.564485" lon="103.422785"><ele>771.5727</ele><time>2026-06-20T22:47:16.000Z</time></trkpt>
        <trkpt lat="29.564501" lon="103.422819"><ele>771.3661</ele><time>2026-06-20T22:47:22.000Z</time></trkpt>
        <trkpt lat="29.564506" lon="103.422833"><ele>771.31696</ele><time>2026-06-20T22:47:26.000Z</time></trkpt>
        <trkpt lat="29.564507" lon="103.422853"><ele>771.2751</ele><time>2026-06-20T22:47:30.000Z</time></trkpt>
        <trkpt lat="29.56451" lon="103.422895"><ele>771.26324</ele><time>2026-06-20T22:47:36.000Z</time></trkpt>
        <trkpt lat="29.564511" lon="103.422907"><ele>771.2066</ele><time>2026-06-20T22:47:38.000Z</time></trkpt>
        <trkpt lat="29.564512" lon="103.422928"><ele>770.87964</ele><time>2026-06-20T22:47:40.000Z</time></trkpt>
        <trkpt lat="29.564511" lon="103.422997"><ele>770.03186</ele><time>2026-06-20T22:47:53.000Z</time></trkpt>
        <trkpt lat="29.564512" lon="103.423002"><ele>769.52783</ele><time>2026-06-20T22:47:55.000Z</time></trkpt>
        <trkpt lat="29.564513" lon="103.423006"><ele>769.43146</ele><time>2026-06-20T22:47:57.000Z</time></trkpt>
        <trkpt lat="29.564528" lon="103.42308"><ele>769.2478</ele><time>2026-06-20T22:48:08.000Z</time></trkpt>
        <trkpt lat="29.564528" lon="103.42308"><ele>769.10425</ele><time>2026-06-20T22:48:10.000Z</time></trkpt>
        <trkpt lat="29.564527" lon="103.423084"><ele>769.01825</ele><time>2026-06-20T22:48:12.000Z</time></trkpt>
        <trkpt lat="29.564516" lon="103.423153"><ele>768.83264</ele><time>2026-06-20T22:48:18.000Z</time></trkpt>
        <trkpt lat="29.564515" lon="103.423173"><ele>767.5403</ele><time>2026-06-20T22:48:20.000Z</time></trkpt>
        <trkpt lat="29.564513" lon="103.423194"><ele>766.3747</ele><time>2026-06-20T22:48:22.000Z</time></trkpt>
        <trkpt lat="29.564511" lon="103.423217"><ele>766.36993</ele><time>2026-06-20T22:48:24.000Z</time></trkpt>
        <trkpt lat="29.564507" lon="103.423238"><ele>765.6726</ele><time>2026-06-20T22:48:26.000Z</time></trkpt>
        <trkpt lat="29.564502" lon="103.42326"><ele>764.55707</ele><time>2026-06-20T22:48:28.000Z</time></trkpt>
        <trkpt lat="29.564499" lon="103.423261"><ele>763.69934</ele><time>2026-06-20T22:48:30.000Z</time></trkpt>
        <trkpt lat="29.564467" lon="103.423255"><ele>762.91064</ele><time>2026-06-20T22:48:34.000Z</time></trkpt>
        <trkpt lat="29.564447" lon="103.423248"><ele>762.2674</ele><time>2026-06-20T22:48:36.000Z</time></trkpt>
        <trkpt lat="29.564424" lon="103.423244"><ele>761.5513</ele><time>2026-06-20T22:48:38.000Z</time></trkpt>
        <trkpt lat="29.564398" lon="103.423249"><ele>760.8198</ele><time>2026-06-20T22:48:40.000Z</time></trkpt>
        <trkpt lat="29.564377" lon="103.423261"><ele>759.6695</ele><time>2026-06-20T22:48:42.000Z</time></trkpt>
        <trkpt lat="29.564377" lon="103.423267"><ele>758.4909</ele><time>2026-06-20T22:48:44.000Z</time></trkpt>
        <trkpt lat="29.564378" lon="103.423339"><ele>758.0043</ele><time>2026-06-20T22:48:50.000Z</time></trkpt>
        <trkpt lat="29.564381" lon="103.42337"><ele>757.83777</ele><time>2026-06-20T22:48:52.000Z</time></trkpt>
        <trkpt lat="29.564379" lon="103.423387"><ele>757.7381</ele><time>2026-06-20T22:48:54.000Z</time></trkpt>
        <trkpt lat="29.564381" lon="103.4234"><ele>757.64606</ele><time>2026-06-20T22:48:56.000Z</time></trkpt>
        <trkpt lat="29.564396" lon="103.423475"><ele>757.4327</ele><time>2026-06-20T22:49:05.000Z</time></trkpt>
        <trkpt lat="29.564396" lon="103.423475"><ele>757.215</ele><time>2026-06-20T22:49:07.000Z</time></trkpt>
        <trkpt lat="29.564396" lon="103.42348"><ele>757.15234</ele><time>2026-06-20T22:49:09.000Z</time></trkpt>
        <trkpt lat="29.564405" lon="103.423535"><ele>757.07227</ele><time>2026-06-20T22:49:13.000Z</time></trkpt>
        <trkpt lat="29.564429" lon="103.423694"><ele>755.92944</ele><time>2026-06-20T22:49:21.000Z</time></trkpt>
        <trkpt lat="29.564429" lon="103.423694"><ele>754.6529</ele><time>2026-06-20T22:49:23.000Z</time></trkpt>
        <trkpt lat="29.564427" lon="103.423695"><ele>754.62244</ele><time>2026-06-20T22:49:24.000Z</time></trkpt>
        <trkpt lat="29.564386" lon="103.42372"><ele>754.32806</ele><time>2026-06-20T22:49:30.000Z</time></trkpt>
        <trkpt lat="29.564369" lon="103.423734"><ele>749.944</ele><time>2026-06-20T22:49:32.000Z</time></trkpt>
        <trkpt lat="29.564359" lon="103.423742"><ele>745.8237</ele><time>2026-06-20T22:49:34.000Z</time></trkpt>
        <trkpt lat="29.564349" lon="103.423752"><ele>745.8098</ele><time>2026-06-20T22:49:36.000Z</time></trkpt>
        <trkpt lat="29.564411" lon="103.423807"><ele>745.27435</ele><time>2026-06-20T22:49:42.000Z</time></trkpt>
        <trkpt lat="29.564439" lon="103.423838"><ele>744.3723</ele><time>2026-06-20T22:49:44.000Z</time></trkpt>
        <trkpt lat="29.564447" lon="103.423862"><ele>743.96094</ele><time>2026-06-20T22:49:46.000Z</time></trkpt>
        <trkpt lat="29.564444" lon="103.423864"><ele>743.9</ele><time>2026-06-20T22:49:48.000Z</time></trkpt>
        <trkpt lat="29.564418" lon="103.423888"><ele>743.75214</ele><time>2026-06-20T22:49:50.000Z</time></trkpt>
        <trkpt lat="29.564398" lon="103.423912"><ele>743.62555</ele><time>2026-06-20T22:49:52.000Z</time></trkpt>
        <trkpt lat="29.564392" lon="103.42393"><ele>743.60596</ele><time>2026-06-20T22:49:54.000Z</time></trkpt>
        <trkpt lat="29.564392" lon="103.423947"><ele>743.519</ele><time>2026-06-20T22:49:56.000Z</time></trkpt>
        <trkpt lat="29.564402" lon="103.423971"><ele>743.41205</ele><time>2026-06-20T22:49:58.000Z</time></trkpt>
        <trkpt lat="29.564411" lon="103.423987"><ele>743.2514</ele><time>2026-06-20T22:50:00.000Z</time></trkpt>
        <trkpt lat="29.564431" lon="103.424012"><ele>743.03595</ele><time>2026-06-20T22:50:02.000Z</time></trkpt>
        <trkpt lat="29.564449" lon="103.424031"><ele>742.9197</ele><time>2026-06-20T22:50:04.000Z</time></trkpt>
        <trkpt lat="29.564461" lon="103.424047"><ele>742.8676</ele><time>2026-06-20T22:50:06.000Z</time></trkpt>
        <trkpt lat="29.564468" lon="103.42406"><ele>742.77124</ele><time>2026-06-20T22:50:08.000Z</time></trkpt>
        <trkpt lat="29.564483" lon="103.42408"><ele>742.38446</ele><time>2026-06-20T22:50:10.000Z</time></trkpt>
        <trkpt lat="29.564497" lon="103.424096"><ele>741.7306</ele><time>2026-06-20T22:50:12.000Z</time></trkpt>
        <trkpt lat="29.564516" lon="103.424116"><ele>741.15674</ele><time>2026-06-20T22:50:14.000Z</time></trkpt>
        <trkpt lat="29.564524" lon="103.424133"><ele>740.7134</ele><time>2026-06-20T22:50:16.000Z</time></trkpt>
        <trkpt lat="29.564531" lon="103.424156"><ele>740.19965</ele><time>2026-06-20T22:50:18.000Z</time></trkpt>
        <trkpt lat="29.564535" lon="103.424173"><ele>739.8013</ele><time>2026-06-20T22:50:20.000Z</time></trkpt>
        <trkpt lat="29.564536" lon="103.424188"><ele>739.6872</ele><time>2026-06-20T22:50:22.000Z</time></trkpt>
        <trkpt lat="29.564531" lon="103.424215"><ele>739.6619</ele><time>2026-06-20T22:50:26.000Z</time></trkpt>
        <trkpt lat="29.564529" lon="103.424243"><ele>739.5806</ele><time>2026-06-20T22:50:30.000Z</time></trkpt>
        <trkpt lat="29.56453" lon="103.424269"><ele>739.5016</ele><time>2026-06-20T22:50:32.000Z</time></trkpt>
        <trkpt lat="29.564532" lon="103.424291"><ele>739.48804</ele><time>2026-06-20T22:50:34.000Z</time></trkpt>
        <trkpt lat="29.564537" lon="103.424312"><ele>739.34735</ele><time>2026-06-20T22:50:36.000Z</time></trkpt>
        <trkpt lat="29.564533" lon="103.424318"><ele>738.9537</ele><time>2026-06-20T22:50:38.000Z</time></trkpt>
        <trkpt lat="29.564584" lon="103.424238"><ele>738.5792</ele><time>2026-06-20T22:50:46.000Z</time></trkpt>
        <trkpt lat="29.564597" lon="103.424221"><ele>738.32874</ele><time>2026-06-20T22:50:48.000Z</time></trkpt>
        <trkpt lat="29.564595" lon="103.424208"><ele>738.0021</ele><time>2026-06-20T22:50:50.000Z</time></trkpt>
        <trkpt lat="29.564593" lon="103.424304"><ele>737.77014</ele><time>2026-06-20T22:50:58.000Z</time></trkpt>
        <trkpt lat="29.564587" lon="103.424325"><ele>737.68835</ele><time>2026-06-20T22:51:00.000Z</time></trkpt>
        <trkpt lat="29.564576" lon="103.424336"><ele>737.6274</ele><time>2026-06-20T22:51:02.000Z</time></trkpt>
        <trkpt lat="29.56455" lon="103.424354"><ele>737.58075</ele><time>2026-06-20T22:51:06.000Z</time></trkpt>
        <trkpt lat="29.564527" lon="103.424368"><ele>736.978</ele><time>2026-06-20T22:51:08.000Z</time></trkpt>
        <trkpt lat="29.564507" lon="103.42438"><ele>736.01556</ele><time>2026-06-20T22:51:10.000Z</time></trkpt>
        <trkpt lat="29.564508" lon="103.424382"><ele>735.29663</ele><time>2026-06-20T22:51:12.000Z</time></trkpt>
        <trkpt lat="29.564516" lon="103.42444"><ele>734.8179</ele><time>2026-06-20T22:51:25.000Z</time></trkpt>
        <trkpt lat="29.564522" lon="103.424486"><ele>734.4458</ele><time>2026-06-20T22:51:27.000Z</time></trkpt>
        <trkpt lat="29.564547" lon="103.424597"><ele>733.9629</ele><time>2026-06-20T22:51:33.000Z</time></trkpt>
        <trkpt lat="29.564555" lon="103.424629"><ele>733.6372</ele><time>2026-06-20T22:51:36.000Z</time></trkpt>
        <trkpt lat="29.564565" lon="103.424657"><ele>733.52094</ele><time>2026-06-20T22:51:38.000Z</time></trkpt>
        <trkpt lat="29.564582" lon="103.424691"><ele>733.44806</ele><time>2026-06-20T22:51:40.000Z</time></trkpt>
        <trkpt lat="29.564595" lon="103.424719"><ele>732.9055</ele><time>2026-06-20T22:51:42.000Z</time></trkpt>
        <trkpt lat="29.564599" lon="103.424732"><ele>732.0619</ele><time>2026-06-20T22:51:44.000Z</time></trkpt>
        <trkpt lat="29.564604" lon="103.424753"><ele>731.5346</ele><time>2026-06-20T22:51:48.000Z</time></trkpt>
        <trkpt lat="29.564611" lon="103.424781"><ele>731.06915</ele><time>2026-06-20T22:51:52.000Z</time></trkpt>
        <trkpt lat="29.564613" lon="103.424797"><ele>730.5121</ele><time>2026-06-20T22:51:54.000Z</time></trkpt>
        <trkpt lat="29.564616" lon="103.424826"><ele>729.8823</ele><time>2026-06-20T22:51:56.000Z</time></trkpt>
        <trkpt lat="29.564626" lon="103.424858"><ele>728.961</ele><time>2026-06-20T22:51:58.000Z</time></trkpt>
        <trkpt lat="29.56464" lon="103.424891"><ele>728.0263</ele><time>2026-06-20T22:52:00.000Z</time></trkpt>
        <trkpt lat="29.564648" lon="103.424917"><ele>727.5577</ele><time>2026-06-20T22:52:02.000Z</time></trkpt>
        <trkpt lat="29.564652" lon="103.424941"><ele>727.2805</ele><time>2026-06-20T22:52:04.000Z</time></trkpt>
        <trkpt lat="29.564653" lon="103.424972"><ele>726.795</ele><time>2026-06-20T22:52:06.000Z</time></trkpt>
        <trkpt lat="29.564644" lon="103.424995"><ele>726.17993</ele><time>2026-06-20T22:52:08.000Z</time></trkpt>
        <trkpt lat="29.564637" lon="103.425005"><ele>725.4583</ele><time>2026-06-20T22:52:12.000Z</time></trkpt>
        <trkpt lat="29.564619" lon="103.425032"><ele>724.68317</ele><time>2026-06-20T22:52:20.000Z</time></trkpt>
        <trkpt lat="29.564662" lon="103.425073"><ele>724.00055</ele><time>2026-06-20T22:52:24.000Z</time></trkpt>
        <trkpt lat="29.564693" lon="103.425104"><ele>723.365</ele><time>2026-06-20T22:52:26.000Z</time></trkpt>
        <trkpt lat="29.564716" lon="103.425119"><ele>722.72394</ele><time>2026-06-20T22:52:28.000Z</time></trkpt>
        <trkpt lat="29.56472" lon="103.425126"><ele>721.8229</ele><time>2026-06-20T22:52:30.000Z</time></trkpt>
        <trkpt lat="29.564775" lon="103.425213"><ele>720.61414</ele><time>2026-06-20T22:52:41.000Z</time></trkpt>
        <trkpt lat="29.564775" lon="103.425213"><ele>719.46454</ele><time>2026-06-20T22:52:43.000Z</time></trkpt>
        <trkpt lat="29.564781" lon="103.425216"><ele>718.41534</ele><time>2026-06-20T22:52:45.000Z</time></trkpt>
        <trkpt lat="29.564838" lon="103.425246"><ele>717.30066</ele><time>2026-06-20T22:52:49.000Z</time></trkpt>
        <trkpt lat="29.56487" lon="103.425271"><ele>714.4347</ele><time>2026-06-20T22:52:51.000Z</time></trkpt>
        <trkpt lat="29.564901" lon="103.425304"><ele>712.1323</ele><time>2026-06-20T22:52:53.000Z</time></trkpt>
        <trkpt lat="29.564925" lon="103.425332"><ele>712.11554</ele><time>2026-06-20T22:52:55.000Z</time></trkpt>
        <trkpt lat="29.564948" lon="103.425354"><ele>711.9787</ele><time>2026-06-20T22:52:57.000Z</time></trkpt>
        <trkpt lat="29.564968" lon="103.425371"><ele>711.8286</ele><time>2026-06-20T22:52:59.000Z</time></trkpt>
        <trkpt lat="29.564987" lon="103.425388"><ele>711.69183</ele><time>2026-06-20T22:53:01.000Z</time></trkpt>
        <trkpt lat="29.565" lon="103.425404"><ele>711.487</ele><time>2026-06-20T22:53:03.000Z</time></trkpt>
        <trkpt lat="29.565016" lon="103.425424"><ele>711.25183</ele><time>2026-06-20T22:53:05.000Z</time></trkpt>
        <trkpt lat="29.565028" lon="103.425447"><ele>711.0191</ele><time>2026-06-20T22:53:07.000Z</time></trkpt>
        <trkpt lat="29.565037" lon="103.425475"><ele>710.8374</ele><time>2026-06-20T22:53:09.000Z</time></trkpt>
        <trkpt lat="29.565046" lon="103.425502"><ele>710.71747</ele><time>2026-06-20T22:53:11.000Z</time></trkpt>
        <trkpt lat="29.565057" lon="103.425532"><ele>710.6613</ele><time>2026-06-20T22:53:13.000Z</time></trkpt>
        <trkpt lat="29.565069" lon="103.425552"><ele>710.5612</ele><time>2026-06-20T22:53:15.000Z</time></trkpt>
        <trkpt lat="29.565084" lon="103.42557"><ele>710.36816</ele><time>2026-06-20T22:53:17.000Z</time></trkpt>
        <trkpt lat="29.565107" lon="103.425593"><ele>710.134</ele><time>2026-06-20T22:53:19.000Z</time></trkpt>
        <trkpt lat="29.565129" lon="103.425615"><ele>709.8096</ele><time>2026-06-20T22:53:21.000Z</time></trkpt>
        <trkpt lat="29.565159" lon="103.425641"><ele>709.36835</ele><time>2026-06-20T22:53:23.000Z</time></trkpt>
        <trkpt lat="29.565175" lon="103.42567"><ele>708.8845</ele><time>2026-06-20T22:53:25.000Z</time></trkpt>
        <trkpt lat="29.56519" lon="103.425696"><ele>708.39984</ele><time>2026-06-20T22:53:27.000Z</time></trkpt>
        <trkpt lat="29.565171" lon="103.425722"><ele>707.96686</ele><time>2026-06-20T22:53:29.000Z</time></trkpt>
        <trkpt lat="29.565158" lon="103.425743"><ele>707.5378</ele><time>2026-06-20T22:53:31.000Z</time></trkpt>
        <trkpt lat="29.56515" lon="103.425756"><ele>707.094</ele><time>2026-06-20T22:53:33.000Z</time></trkpt>
        <trkpt lat="29.565134" lon="103.425767"><ele>706.5645</ele><time>2026-06-20T22:53:37.000Z</time></trkpt>
        <trkpt lat="29.565119" lon="103.425777"><ele>705.7093</ele><time>2026-06-20T22:53:43.000Z</time></trkpt>
        <trkpt lat="29.565129" lon="103.425808"><ele>704.5743</ele><time>2026-06-20T22:54:07.000Z</time></trkpt>
        <trkpt lat="29.565138" lon="103.425848"><ele>703.0826</ele><time>2026-06-20T22:54:11.000Z</time></trkpt>
        <trkpt lat="29.565151" lon="103.425912"><ele>701.10455</ele><time>2026-06-20T22:54:24.000Z</time></trkpt>
        <trkpt lat="29.565151" lon="103.425912"><ele>699.3383</ele><time>2026-06-20T22:54:26.000Z</time></trkpt>
        <trkpt lat="29.565151" lon="103.425912"><ele>697.0189</ele><time>2026-06-20T22:54:28.000Z</time></trkpt>
        <trkpt lat="29.565115" lon="103.42593"><ele>695.3659</ele><time>2026-06-20T22:54:40.000Z</time></trkpt>
        <trkpt lat="29.565046" lon="103.425965"><ele>695.25104</ele><time>2026-06-20T22:54:48.000Z</time></trkpt>
        <trkpt lat="29.565046" lon="103.425965"><ele>695.1517</ele><time>2026-06-20T22:54:50.000Z</time></trkpt>
        <trkpt lat="29.565046" lon="103.425966"><ele>695.13074</ele><time>2026-06-20T22:54:52.000Z</time></trkpt>
        <trkpt lat="29.565084" lon="103.426023"><ele>693.7082</ele><time>2026-06-20T22:54:58.000Z</time></trkpt>
        <trkpt lat="29.565101" lon="103.426042"><ele>692.33966</ele><time>2026-06-20T22:55:00.000Z</time></trkpt>
        <trkpt lat="29.565119" lon="103.426059"><ele>692.2503</ele><time>2026-06-20T22:55:02.000Z</time></trkpt>
        <trkpt lat="29.565138" lon="103.426076"><ele>692.10406</ele><time>2026-06-20T22:55:04.000Z</time></trkpt>
        <trkpt lat="29.565145" lon="103.42609"><ele>691.8511</ele><time>2026-06-20T22:55:06.000Z</time></trkpt>
        <trkpt lat="29.565142" lon="103.426098"><ele>691.6877</ele><time>2026-06-20T22:55:08.000Z</time></trkpt>
        <trkpt lat="29.565144" lon="103.426121"><ele>691.6752</ele><time>2026-06-20T22:55:12.000Z</time></trkpt>
        <trkpt lat="29.565157" lon="103.426171"><ele>691.55853</ele><time>2026-06-20T22:55:22.000Z</time></trkpt>
        <trkpt lat="29.565151" lon="103.426166"><ele>691.16266</ele><time>2026-06-20T22:55:24.000Z</time></trkpt>
        <trkpt lat="29.565151" lon="103.426166"><ele>690.39404</ele><time>2026-06-20T22:55:26.000Z</time></trkpt>
        <trkpt lat="29.565117" lon="103.426211"><ele>689.644</ele><time>2026-06-20T22:55:32.000Z</time></trkpt>
        <trkpt lat="29.5651" lon="103.426231"><ele>689.29663</ele><time>2026-06-20T22:55:34.000Z</time></trkpt>
        <trkpt lat="29.565095" lon="103.426254"><ele>689.2045</ele><time>2026-06-20T22:55:36.000Z</time></trkpt>
        <trkpt lat="29.5651" lon="103.426273"><ele>689.172</ele><time>2026-06-20T22:55:38.000Z</time></trkpt>
        <trkpt lat="29.565109" lon="103.426307"><ele>689.1247</ele><time>2026-06-20T22:55:40.000Z</time></trkpt>
        <trkpt lat="29.565116" lon="103.426333"><ele>689.0761</ele><time>2026-06-20T22:55:42.000Z</time></trkpt>
        <trkpt lat="29.565116" lon="103.426352"><ele>689.0761</ele><time>2026-06-20T22:55:44.000Z</time></trkpt>
        <trkpt lat="29.565109" lon="103.426364"><ele>689.0761</ele><time>2026-06-20T22:55:46.000Z</time></trkpt>
        <trkpt lat="29.565099" lon="103.426382"><ele>689.0761</ele><time>2026-06-20T22:55:48.000Z</time></trkpt>
        <trkpt lat="29.565065" lon="103.426369"><ele>689.0341</ele><time>2026-06-20T22:55:56.000Z</time></trkpt>
        <trkpt lat="29.565058" lon="103.426368"><ele>688.96747</ele><time>2026-06-20T22:55:58.000Z</time></trkpt>
        <trkpt lat="29.565057" lon="103.426365"><ele>688.9211</ele><time>2026-06-20T22:56:00.000Z</time></trkpt>
        <trkpt lat="29.56508" lon="103.426426"><ele>688.75555</ele><time>2026-06-20T22:56:08.000Z</time></trkpt>
        <trkpt lat="29.565064" lon="103.426453"><ele>688.509</ele><time>2026-06-20T22:56:11.000Z</time></trkpt>
        <trkpt lat="29.565064" lon="103.426454"><ele>688.4176</ele><time>2026-06-20T22:56:13.000Z</time></trkpt>
        <trkpt lat="29.56507" lon="103.426484"><ele>688.3172</ele><time>2026-06-20T22:56:19.000Z</time></trkpt>
        <trkpt lat="29.565064" lon="103.426507"><ele>688.0003</ele><time>2026-06-20T22:56:21.000Z</time></trkpt>
        <trkpt lat="29.565053" lon="103.426532"><ele>687.38416</ele><time>2026-06-20T22:56:23.000Z</time></trkpt>
        <trkpt lat="29.565043" lon="103.426551"><ele>686.989</ele><time>2026-06-20T22:56:25.000Z</time></trkpt>
        <trkpt lat="29.565036" lon="103.426557"><ele>686.82465</ele><time>2026-06-20T22:56:27.000Z</time></trkpt>
        <trkpt lat="29.565027" lon="103.426569"><ele>686.455</ele><time>2026-06-20T22:56:29.000Z</time></trkpt>
        <trkpt lat="29.565027" lon="103.426579"><ele>685.9299</ele><time>2026-06-20T22:56:33.000Z</time></trkpt>
        <trkpt lat="29.565029" lon="103.426607"><ele>685.2736</ele><time>2026-06-20T22:56:37.000Z</time></trkpt>
        <trkpt lat="29.565026" lon="103.426627"><ele>684.64185</ele><time>2026-06-20T22:56:39.000Z</time></trkpt>
        <trkpt lat="29.56502" lon="103.426639"><ele>684.03906</ele><time>2026-06-20T22:56:41.000Z</time></trkpt>
        <trkpt lat="29.565017" lon="103.426639"><ele>683.1858</ele><time>2026-06-20T22:56:43.000Z</time></trkpt>
        <trkpt lat="29.564991" lon="103.42663"><ele>682.1938</ele><time>2026-06-20T22:56:47.000Z</time></trkpt>
        <trkpt lat="29.564977" lon="103.426619"><ele>681.58984</ele><time>2026-06-20T22:56:49.000Z</time></trkpt>
        <trkpt lat="29.564967" lon="103.426606"><ele>681.16754</ele><time>2026-06-20T22:56:51.000Z</time></trkpt>
        <trkpt lat="29.564964" lon="103.426596"><ele>680.6378</ele><time>2026-06-20T22:56:53.000Z</time></trkpt>
        <trkpt lat="29.56499" lon="103.426669"><ele>679.62604</ele><time>2026-06-20T22:57:17.000Z</time></trkpt>
        <trkpt lat="29.564991" lon="103.426684"><ele>678.2457</ele><time>2026-06-20T22:57:19.000Z</time></trkpt>
        <trkpt lat="29.564988" lon="103.426689"><ele>676.9194</ele><time>2026-06-20T22:57:21.000Z</time></trkpt>
        <trkpt lat="29.5649" lon="103.42684"><ele>675.66284</ele><time>2026-06-20T22:57:40.000Z</time></trkpt>
        <trkpt lat="29.5649" lon="103.42684"><ele>674.59644</ele><time>2026-06-20T22:57:42.000Z</time></trkpt>
        <trkpt lat="29.5649" lon="103.426841"><ele>674.0454</ele><time>2026-06-20T22:57:44.000Z</time></trkpt>
        <trkpt lat="29.56493" lon="103.4269"><ele>673.7298</ele><time>2026-06-20T22:57:50.000Z</time></trkpt>
        <trkpt lat="29.564947" lon="103.426925"><ele>671.40045</ele><time>2026-06-20T22:57:52.000Z</time></trkpt>
        <trkpt lat="29.564965" lon="103.426945"><ele>669.3369</ele><time>2026-06-20T22:57:54.000Z</time></trkpt>
        <trkpt lat="29.564975" lon="103.426958"><ele>669.2703</ele><time>2026-06-20T22:57:56.000Z</time></trkpt>
        <trkpt lat="29.564985" lon="103.42697"><ele>667.57104</ele><time>2026-06-20T22:57:58.000Z</time></trkpt>
        <trkpt lat="29.56499" lon="103.426975"><ele>665.3994</ele><time>2026-06-20T22:58:00.000Z</time></trkpt>
        <trkpt lat="29.565012" lon="103.426982"><ele>664.8989</ele><time>2026-06-20T22:58:12.000Z</time></trkpt>
        <trkpt lat="29.565019" lon="103.426985"><ele>664.8989</ele><time>2026-06-20T22:58:15.000Z</time></trkpt>
        <trkpt lat="29.56502" lon="103.426982"><ele>664.8989</ele><time>2026-06-20T22:58:21.000Z</time></trkpt>
        <trkpt lat="29.565046" lon="103.426944"><ele>664.8989</ele><time>2026-06-20T22:58:27.000Z</time></trkpt>
        <trkpt lat="29.565059" lon="103.426936"><ele>664.8989</ele><time>2026-06-20T22:58:29.000Z</time></trkpt>
        <trkpt lat="29.565074" lon="103.426928"><ele>665.4948</ele><time>2026-06-20T22:58:31.000Z</time></trkpt>
        <trkpt lat="29.565122" lon="103.426983"><ele>666.3987</ele><time>2026-06-20T22:58:37.000Z</time></trkpt>
        <trkpt lat="29.565132" lon="103.426992"><ele>667.96936</ele><time>2026-06-20T22:58:39.000Z</time></trkpt>
        <trkpt lat="29.565146" lon="103.427005"><ele>669.35455</ele><time>2026-06-20T22:58:41.000Z</time></trkpt>
        <trkpt lat="29.56519" lon="103.427048"><ele>669.7251</ele><time>2026-06-20T22:58:49.000Z</time></trkpt>
        <trkpt lat="29.5652" lon="103.427063"><ele>670.81104</ele><time>2026-06-20T22:58:51.000Z</time></trkpt>
        <trkpt lat="29.565216" lon="103.427093"><ele>672.08514</ele><time>2026-06-20T22:58:53.000Z</time></trkpt>
        <trkpt lat="29.565242" lon="103.427124"><ele>672.8372</ele><time>2026-06-20T22:58:57.000Z</time></trkpt>
        <trkpt lat="29.565257" lon="103.427128"><ele>674.45</ele><time>2026-06-20T22:59:01.000Z</time></trkpt>
        <trkpt lat="29.565289" lon="103.427147"><ele>675.9448</ele><time>2026-06-20T22:59:07.000Z</time></trkpt>
        <trkpt lat="29.565305" lon="103.427164"><ele>676.3844</ele><time>2026-06-20T22:59:09.000Z</time></trkpt>
        <trkpt lat="29.565325" lon="103.427188"><ele>676.8343</ele><time>2026-06-20T22:59:11.000Z</time></trkpt>
        <trkpt lat="29.565343" lon="103.427219"><ele>677.2304</ele><time>2026-06-20T22:59:13.000Z</time></trkpt>
        <trkpt lat="29.565433" lon="103.427376"><ele>677.66034</ele><time>2026-06-20T22:59:17.000Z</time></trkpt>
        <trkpt lat="29.565433" lon="103.427376"><ele>678.05023</ele><time>2026-06-20T22:59:19.000Z</time></trkpt>
        <trkpt lat="29.565437" lon="103.427381"><ele>678.245</ele><time>2026-06-20T22:59:21.000Z</time></trkpt>
        <trkpt lat="29.565489" lon="103.427459"><ele>678.3812</ele><time>2026-06-20T22:59:25.000Z</time></trkpt>
        <trkpt lat="29.565523" lon="103.427512"><ele>678.43494</ele><time>2026-06-20T22:59:27.000Z</time></trkpt>
        <trkpt lat="29.565554" lon="103.427566"><ele>678.4917</ele><time>2026-06-20T22:59:29.000Z</time></trkpt>
        <trkpt lat="29.565577" lon="103.427614"><ele>678.6301</ele><time>2026-06-20T22:59:31.000Z</time></trkpt>
        <trkpt lat="29.5656" lon="103.427662"><ele>679.32446</ele><time>2026-06-20T22:59:33.000Z</time></trkpt>
        <trkpt lat="29.565617" lon="103.427692"><ele>680.5824</ele><time>2026-06-20T22:59:35.000Z</time></trkpt>
        <trkpt lat="29.56563" lon="103.427713"><ele>681.90186</ele><time>2026-06-20T22:59:37.000Z</time></trkpt>
        <trkpt lat="29.565604" lon="103.42775"><ele>683.2218</ele><time>2026-06-20T22:59:44.000Z</time></trkpt>
        <trkpt lat="29.5656" lon="103.427812"><ele>684.45197</ele><time>2026-06-20T22:59:52.000Z</time></trkpt>
        <trkpt lat="29.565434" lon="103.427966"><ele>685.53485</ele><time>2026-06-20T23:00:02.000Z</time></trkpt>
        <trkpt lat="29.565434" lon="103.427966"><ele>686.4663</ele><time>2026-06-20T23:00:04.000Z</time></trkpt>
        <trkpt lat="29.565433" lon="103.427967"><ele>688.1577</ele><time>2026-06-20T23:00:06.000Z</time></trkpt>
        <trkpt lat="29.565333" lon="103.428096"><ele>688.1577</ele><time>2026-06-20T23:00:28.000Z</time></trkpt>
        <trkpt lat="29.565333" lon="103.428096"><ele>688.1577</ele><time>2026-06-20T23:00:30.000Z</time></trkpt>
        <trkpt lat="29.565328" lon="103.428096"><ele>688.1577</ele><time>2026-06-20T23:00:32.000Z</time></trkpt>
        <trkpt lat="29.565246" lon="103.428109"><ele>688.1577</ele><time>2026-06-20T23:00:36.000Z</time></trkpt>
        <trkpt lat="29.565136" lon="103.428167"><ele>687.20935</ele><time>2026-06-20T23:00:42.000Z</time></trkpt>
        <trkpt lat="29.565109" lon="103.428177"><ele>684.99945</ele><time>2026-06-20T23:00:44.000Z</time></trkpt>
        <trkpt lat="29.56508" lon="103.428192"><ele>684.9381</ele><time>2026-06-20T23:00:46.000Z</time></trkpt>
        <trkpt lat="29.565058" lon="103.428207"><ele>683.96625</ele><time>2026-06-20T23:00:48.000Z</time></trkpt>
        <trkpt lat="29.565031" lon="103.428221"><ele>680.84863</ele><time>2026-06-20T23:00:50.000Z</time></trkpt>
        <trkpt lat="29.56501" lon="103.42823"><ele>678.13715</ele><time>2026-06-20T23:00:52.000Z</time></trkpt>
        <trkpt lat="29.564987" lon="103.428243"><ele>677.26843</ele><time>2026-06-20T23:00:54.000Z</time></trkpt>
        <trkpt lat="29.564967" lon="103.42826"><ele>676.4627</ele><time>2026-06-20T23:00:56.000Z</time></trkpt>
        <trkpt lat="29.564956" lon="103.428281"><ele>675.7776</ele><time>2026-06-20T23:00:58.000Z</time></trkpt>
        <trkpt lat="29.564951" lon="103.428308"><ele>675.202</ele><time>2026-06-20T23:01:00.000Z</time></trkpt>
        <trkpt lat="29.564942" lon="103.428339"><ele>674.4678</ele><time>2026-06-20T23:01:02.000Z</time></trkpt>
        <trkpt lat="29.564933" lon="103.428364"><ele>673.70154</ele><time>2026-06-20T23:01:04.000Z</time></trkpt>
        <trkpt lat="29.564927" lon="103.428378"><ele>672.9309</ele><time>2026-06-20T23:01:06.000Z</time></trkpt>
        <trkpt lat="29.564913" lon="103.428398"><ele>672.16406</ele><time>2026-06-20T23:01:10.000Z</time></trkpt>
        <trkpt lat="29.564899" lon="103.428418"><ele>671.491</ele><time>2026-06-20T23:01:12.000Z</time></trkpt>
        <trkpt lat="29.56488" lon="103.428438"><ele>670.8293</ele><time>2026-06-20T23:01:14.000Z</time></trkpt>
        <trkpt lat="29.564864" lon="103.428464"><ele>670.1651</ele><time>2026-06-20T23:01:16.000Z</time></trkpt>
        <trkpt lat="29.564859" lon="103.428489"><ele>669.30853</ele><time>2026-06-20T23:01:18.000Z</time></trkpt>
        <trkpt lat="29.564853" lon="103.428528"><ele>668.509</ele><time>2026-06-20T23:01:20.000Z</time></trkpt>
        <trkpt lat="29.56485" lon="103.428557"><ele>668.021</ele><time>2026-06-20T23:01:22.000Z</time></trkpt>
        <trkpt lat="29.564851" lon="103.428582"><ele>667.5252</ele><time>2026-06-20T23:01:24.000Z</time></trkpt>
        <trkpt lat="29.564856" lon="103.428596"><ele>666.72906</ele><time>2026-06-20T23:01:26.000Z</time></trkpt>
        <trkpt lat="29.564859" lon="103.428621"><ele>665.48517</ele><time>2026-06-20T23:01:30.000Z</time></trkpt>
        <trkpt lat="29.564858" lon="103.428641"><ele>663.92285</ele><time>2026-06-20T23:01:32.000Z</time></trkpt>
        <trkpt lat="29.564857" lon="103.42867"><ele>662.38354</ele><time>2026-06-20T23:01:34.000Z</time></trkpt>
        <trkpt lat="29.564858" lon="103.428707"><ele>661.28754</ele><time>2026-06-20T23:01:36.000Z</time></trkpt>
        <trkpt lat="29.564859" lon="103.42874"><ele>660.8318</ele><time>2026-06-20T23:01:38.000Z</time></trkpt>
        <trkpt lat="29.564859" lon="103.428767"><ele>660.39905</ele><time>2026-06-20T23:01:40.000Z</time></trkpt>
        <trkpt lat="29.564859" lon="103.428789"><ele>659.37054</ele><time>2026-06-20T23:01:42.000Z</time></trkpt>
        <trkpt lat="29.564862" lon="103.42881"><ele>657.7955</ele><time>2026-06-20T23:01:44.000Z</time></trkpt>
        <trkpt lat="29.564863" lon="103.428833"><ele>655.72156</ele><time>2026-06-20T23:01:46.000Z</time></trkpt>
        <trkpt lat="29.564862" lon="103.428855"><ele>653.494</ele><time>2026-06-20T23:01:48.000Z</time></trkpt>
        <trkpt lat="29.56486" lon="103.428879"><ele>651.13104</ele><time>2026-06-20T23:01:50.000Z</time></trkpt>
        <trkpt lat="29.564858" lon="103.428903"><ele>648.8034</ele><time>2026-06-20T23:01:52.000Z</time></trkpt>
        <trkpt lat="29.564857" lon="103.428934"><ele>647.0481</ele><time>2026-06-20T23:01:54.000Z</time></trkpt>
        <trkpt lat="29.564857" lon="103.428964"><ele>645.70337</ele><time>2026-06-20T23:01:55.000Z</time></trkpt>
        <trkpt lat="29.564858" lon="103.428994"><ele>644.68134</ele><time>2026-06-20T23:01:57.000Z</time></trkpt>
        <trkpt lat="29.564861" lon="103.429022"><ele>643.89606</ele><time>2026-06-20T23:01:59.000Z</time></trkpt>
        <trkpt lat="29.564865" lon="103.429051"><ele>643.28674</ele><time>2026-06-20T23:02:02.000Z</time></trkpt>
        <trkpt lat="29.56487" lon="103.429083"><ele>642.91364</ele><time>2026-06-20T23:02:04.000Z</time></trkpt>
        <trkpt lat="29.564874" lon="103.42911"><ele>642.6149</ele><time>2026-06-20T23:02:06.000Z</time></trkpt>
        <trkpt lat="29.564883" lon="103.429138"><ele>642.4611</ele><time>2026-06-20T23:02:08.000Z</time></trkpt>
        <trkpt lat="29.564895" lon="103.429165"><ele>642.42865</ele><time>2026-06-20T23:02:10.000Z</time></trkpt>
        <trkpt lat="29.564908" lon="103.429193"><ele>642.387</ele><time>2026-06-20T23:02:12.000Z</time></trkpt>
        <trkpt lat="29.564916" lon="103.429223"><ele>642.34155</ele><time>2026-06-20T23:02:14.000Z</time></trkpt>
        <trkpt lat="29.56492" lon="103.429253"><ele>642.2656</ele><time>2026-06-20T23:02:16.000Z</time></trkpt>
        <trkpt lat="29.564921" lon="103.429283"><ele>641.89685</ele><time>2026-06-20T23:02:18.000Z</time></trkpt>
        <trkpt lat="29.564921" lon="103.429316"><ele>641.55597</ele><time>2026-06-20T23:02:20.000Z</time></trkpt>
        <trkpt lat="29.56492" lon="103.429348"><ele>641.45337</ele><time>2026-06-20T23:02:22.000Z</time></trkpt>
        <trkpt lat="29.564921" lon="103.42938"><ele>641.3161</ele><time>2026-06-20T23:02:24.000Z</time></trkpt>
        <trkpt lat="29.564924" lon="103.429409"><ele>640.99713</ele><time>2026-06-20T23:02:26.000Z</time></trkpt>
        <trkpt lat="29.564926" lon="103.429428"><ele>640.786</ele><time>2026-06-20T23:02:28.000Z</time></trkpt>
        <trkpt lat="29.56493" lon="103.429434"><ele>640.786</ele><time>2026-06-20T23:02:30.000Z</time></trkpt>
        <trkpt lat="29.564937" lon="103.429444"><ele>640.7468</ele><time>2026-06-20T23:02:32.000Z</time></trkpt>
        <trkpt lat="29.564947" lon="103.429452"><ele>640.6819</ele><time>2026-06-20T23:02:34.000Z</time></trkpt>
        <trkpt lat="29.564963" lon="103.429466"><ele>640.56335</ele><time>2026-06-20T23:02:36.000Z</time></trkpt>
        <trkpt lat="29.564979" lon="103.429481"><ele>640.4549</ele><time>2026-06-20T23:02:38.000Z</time></trkpt>
        <trkpt lat="29.564995" lon="103.429497"><ele>640.3506</ele><time>2026-06-20T23:02:40.000Z</time></trkpt>
        <trkpt lat="29.565012" lon="103.429514"><ele>640.3506</ele><time>2026-06-20T23:02:42.000Z</time></trkpt>
        <trkpt lat="29.565026" lon="103.429534"><ele>640.3506</ele><time>2026-06-20T23:02:44.000Z</time></trkpt>
        <trkpt lat="29.565041" lon="103.429556"><ele>640.1651</ele><time>2026-06-20T23:02:46.000Z</time></trkpt>
        <trkpt lat="29.565054" lon="103.429581"><ele>639.88055</ele><time>2026-06-20T23:02:48.000Z</time></trkpt>
        <trkpt lat="29.565066" lon="103.429605"><ele>639.41266</ele><time>2026-06-20T23:02:50.000Z</time></trkpt>
        <trkpt lat="29.565078" lon="103.42963"><ele>638.71576</ele><time>2026-06-20T23:02:52.000Z</time></trkpt>
        <trkpt lat="29.565088" lon="103.429655"><ele>637.9227</ele><time>2026-06-20T23:02:54.000Z</time></trkpt>
        <trkpt lat="29.565099" lon="103.429683"><ele>637.11444</ele><time>2026-06-20T23:02:56.000Z</time></trkpt>
        <trkpt lat="29.565112" lon="103.429713"><ele>636.38336</ele><time>2026-06-20T23:02:58.000Z</time></trkpt>
        <trkpt lat="29.565123" lon="103.429739"><ele>635.6547</ele><time>2026-06-20T23:03:00.000Z</time></trkpt>
        <trkpt lat="29.565134" lon="103.429767"><ele>635.0417</ele><time>2026-06-20T23:03:02.000Z</time></trkpt>
        <trkpt lat="29.565144" lon="103.429796"><ele>634.6578</ele><time>2026-06-20T23:03:04.000Z</time></trkpt>
        <trkpt lat="29.565158" lon="103.429828"><ele>634.3284</ele><time>2026-06-20T23:03:06.000Z</time></trkpt>
        <trkpt lat="29.565171" lon="103.429854"><ele>634.00336</ele><time>2026-06-20T23:03:08.000Z</time></trkpt>
        <trkpt lat="29.565183" lon="103.429879"><ele>633.6803</ele><time>2026-06-20T23:03:10.000Z</time></trkpt>
        <trkpt lat="29.565191" lon="103.429896"><ele>633.25934</ele><time>2026-06-20T23:03:12.000Z</time></trkpt>
        <trkpt lat="29.565201" lon="103.429916"><ele>632.9144</ele><time>2026-06-20T23:03:14.000Z</time></trkpt>
        <trkpt lat="29.56521" lon="103.429936"><ele>632.79596</ele><time>2026-06-20T23:03:16.000Z</time></trkpt>
        <trkpt lat="29.565221" lon="103.42996"><ele>632.69604</ele><time>2026-06-20T23:03:18.000Z</time></trkpt>
        <trkpt lat="29.565231" lon="103.429986"><ele>632.501</ele><time>2026-06-20T23:03:20.000Z</time></trkpt>
        <trkpt lat="29.565239" lon="103.430008"><ele>632.06824</ele><time>2026-06-20T23:03:22.000Z</time></trkpt>
        <trkpt lat="29.565246" lon="103.430031"><ele>631.66754</ele><time>2026-06-20T23:03:24.000Z</time></trkpt>
        <trkpt lat="29.565249" lon="103.430055"><ele>631.48334</ele><time>2026-06-20T23:03:26.000Z</time></trkpt>
        <trkpt lat="29.565253" lon="103.430082"><ele>631.2978</ele><time>2026-06-20T23:03:28.000Z</time></trkpt>
        <trkpt lat="29.565254" lon="103.43011"><ele>631.1366</ele><time>2026-06-20T23:03:30.000Z</time></trkpt>
        <trkpt lat="29.565256" lon="103.430135"><ele>631.0442</ele><time>2026-06-20T23:03:32.000Z</time></trkpt>
        <trkpt lat="29.565257" lon="103.430159"><ele>630.95654</ele><time>2026-06-20T23:03:34.000Z</time></trkpt>
        <trkpt lat="29.565259" lon="103.430185"><ele>630.87463</ele><time>2026-06-20T23:03:36.000Z</time></trkpt>
        <trkpt lat="29.565261" lon="103.430212"><ele>630.85126</ele><time>2026-06-20T23:03:38.000Z</time></trkpt>
        <trkpt lat="29.565265" lon="103.430238"><ele>630.8459</ele><time>2026-06-20T23:03:40.000Z</time></trkpt>
        <trkpt lat="29.565268" lon="103.430266"><ele>630.8418</ele><time>2026-06-20T23:03:42.000Z</time></trkpt>
        <trkpt lat="29.565273" lon="103.430294"><ele>630.7261</ele><time>2026-06-20T23:03:44.000Z</time></trkpt>
        <trkpt lat="29.565277" lon="103.430324"><ele>630.34985</ele><time>2026-06-20T23:03:45.000Z</time></trkpt>
        <trkpt lat="29.56528" lon="103.430352"><ele>629.8226</ele><time>2026-06-20T23:03:47.000Z</time></trkpt>
        <trkpt lat="29.565283" lon="103.43038"><ele>629.3479</ele><time>2026-06-20T23:03:49.000Z</time></trkpt>
        <trkpt lat="29.565285" lon="103.430408"><ele>629.0376</ele><time>2026-06-20T23:03:51.000Z</time></trkpt>
        <trkpt lat="29.565287" lon="103.430435"><ele>628.83234</ele><time>2026-06-20T23:03:53.000Z</time></trkpt>
        <trkpt lat="29.565288" lon="103.430461"><ele>628.71277</ele><time>2026-06-20T23:03:55.000Z</time></trkpt>
        <trkpt lat="29.565291" lon="103.430486"><ele>628.5809</ele><time>2026-06-20T23:03:57.000Z</time></trkpt>
        <trkpt lat="29.565295" lon="103.43051"><ele>628.24194</ele><time>2026-06-20T23:03:59.000Z</time></trkpt>
        <trkpt lat="29.565301" lon="103.430533"><ele>627.8435</ele><time>2026-06-20T23:04:01.000Z</time></trkpt>
        <trkpt lat="29.565308" lon="103.430555"><ele>627.539</ele><time>2026-06-20T23:04:03.000Z</time></trkpt>
        <trkpt lat="29.565315" lon="103.430576"><ele>627.2633</ele><time>2026-06-20T23:04:05.000Z</time></trkpt>
        <trkpt lat="29.56532" lon="103.430594"><ele>626.96173</ele><time>2026-06-20T23:04:08.000Z</time></trkpt>
        <trkpt lat="29.565326" lon="103.430615"><ele>626.651</ele><time>2026-06-20T23:04:10.000Z</time></trkpt>
        <trkpt lat="29.565331" lon="103.430629"><ele>626.33185</ele><time>2026-06-20T23:04:12.000Z</time></trkpt>
        <trkpt lat="29.565335" lon="103.430639"><ele>625.97394</ele><time>2026-06-20T23:04:14.000Z</time></trkpt>
        <trkpt lat="29.565339" lon="103.430651"><ele>625.5252</ele><time>2026-06-20T23:04:16.000Z</time></trkpt>
        <trkpt lat="29.565341" lon="103.430667"><ele>625.2453</ele><time>2026-06-20T23:04:18.000Z</time></trkpt>
        <trkpt lat="29.565343" lon="103.430687"><ele>625.19446</ele><time>2026-06-20T23:04:20.000Z</time></trkpt>
        <trkpt lat="29.565343" lon="103.430707"><ele>625.16925</ele><time>2026-06-20T23:04:22.000Z</time></trkpt>
        <trkpt lat="29.56534" lon="103.43073"><ele>625.14514</ele><time>2026-06-20T23:04:24.000Z</time></trkpt>
        <trkpt lat="29.565337" lon="103.430755"><ele>625.0511</ele><time>2026-06-20T23:04:26.000Z</time></trkpt>
        <trkpt lat="29.565336" lon="103.430783"><ele>624.8892</ele><time>2026-06-20T23:04:28.000Z</time></trkpt>
        <trkpt lat="29.565338" lon="103.43081"><ele>624.7758</ele><time>2026-06-20T23:04:30.000Z</time></trkpt>
        <trkpt lat="29.565344" lon="103.430835"><ele>624.69183</ele><time>2026-06-20T23:04:32.000Z</time></trkpt>
        <trkpt lat="29.565354" lon="103.43086"><ele>624.5974</ele><time>2026-06-20T23:04:34.000Z</time></trkpt>
        <trkpt lat="29.565364" lon="103.430878"><ele>624.51324</ele><time>2026-06-20T23:04:36.000Z</time></trkpt>
        <trkpt lat="29.565378" lon="103.430896"><ele>624.37994</ele><time>2026-06-20T23:04:38.000Z</time></trkpt>
        <trkpt lat="29.565395" lon="103.430915"><ele>624.1981</ele><time>2026-06-20T23:04:40.000Z</time></trkpt>
        <trkpt lat="29.565415" lon="103.430931"><ele>624.08624</ele><time>2026-06-20T23:04:42.000Z</time></trkpt>
        <trkpt lat="29.565434" lon="103.430946"><ele>624.0066</ele><time>2026-06-20T23:04:44.000Z</time></trkpt>
        <trkpt lat="29.565454" lon="103.430961"><ele>623.83887</ele><time>2026-06-20T23:04:46.000Z</time></trkpt>
        <trkpt lat="29.565468" lon="103.430974"><ele>623.6173</ele><time>2026-06-20T23:04:48.000Z</time></trkpt>
        <trkpt lat="29.565481" lon="103.430989"><ele>623.3726</ele><time>2026-06-20T23:04:50.000Z</time></trkpt>
        <trkpt lat="29.565493" lon="103.431008"><ele>623.12213</ele><time>2026-06-20T23:04:52.000Z</time></trkpt>
        <trkpt lat="29.565505" lon="103.431033"><ele>622.9881</ele><time>2026-06-20T23:04:54.000Z</time></trkpt>
        <trkpt lat="29.565514" lon="103.431056"><ele>622.96796</ele><time>2026-06-20T23:04:56.000Z</time></trkpt>
        <trkpt lat="29.56552" lon="103.431084"><ele>622.87036</ele><time>2026-06-20T23:04:58.000Z</time></trkpt>
        <trkpt lat="29.565522" lon="103.431111"><ele>622.74536</ele><time>2026-06-20T23:05:00.000Z</time></trkpt>
        <trkpt lat="29.565519" lon="103.431135"><ele>622.63074</ele><time>2026-06-20T23:05:02.000Z</time></trkpt>
        <trkpt lat="29.56551" lon="103.431154"><ele>622.4535</ele><time>2026-06-20T23:05:04.000Z</time></trkpt>
        <trkpt lat="29.565497" lon="103.431166"><ele>622.13367</ele><time>2026-06-20T23:05:06.000Z</time></trkpt>
        <trkpt lat="29.565486" lon="103.431171"><ele>621.7017</ele><time>2026-06-20T23:05:08.000Z</time></trkpt>
        <trkpt lat="29.56548" lon="103.431168"><ele>621.3766</ele><time>2026-06-20T23:05:10.000Z</time></trkpt>
        <trkpt lat="29.565474" lon="103.431158"><ele>621.33813</ele><time>2026-06-20T23:05:12.000Z</time></trkpt>
        <trkpt lat="29.565471" lon="103.431159"><ele>621.33813</ele><time>2026-06-20T23:05:14.000Z</time></trkpt>
        <trkpt lat="29.565442" lon="103.43116"><ele>621.33813</ele><time>2026-06-20T23:05:33.000Z</time></trkpt>
        <trkpt lat="29.565412" lon="103.431161"><ele>621.33813</ele><time>2026-06-20T23:05:39.000Z</time></trkpt>
        <trkpt lat="29.565412" lon="103.431161"><ele>621.33813</ele><time>2026-06-20T23:05:41.000Z</time></trkpt>
        <trkpt lat="29.565478" lon="103.431213"><ele>621.44934</ele><time>2026-06-20T23:07:44.000Z</time></trkpt>
        <trkpt lat="29.565478" lon="103.431213"><ele>621.6891</ele><time>2026-06-20T23:07:46.000Z</time></trkpt>
        <trkpt lat="29.565479" lon="103.431214"><ele>621.8964</ele><time>2026-06-20T23:07:48.000Z</time></trkpt>
        <trkpt lat="29.565486" lon="103.43132"><ele>621.9042</ele><time>2026-06-20T23:07:58.000Z</time></trkpt>
        <trkpt lat="29.565484" lon="103.431353"><ele>622.3511</ele><time>2026-06-20T23:08:00.000Z</time></trkpt>
        <trkpt lat="29.565475" lon="103.431389"><ele>622.798</ele><time>2026-06-20T23:08:02.000Z</time></trkpt>
        <trkpt lat="29.565464" lon="103.431427"><ele>622.798</ele><time>2026-06-20T23:08:04.000Z</time></trkpt>
        <trkpt lat="29.565452" lon="103.43146"><ele>622.798</ele><time>2026-06-20T23:08:06.000Z</time></trkpt>
        <trkpt lat="29.565441" lon="103.431489"><ele>622.798</ele><time>2026-06-20T23:08:08.000Z</time></trkpt>
        <trkpt lat="29.565429" lon="103.431516"><ele>622.798</ele><time>2026-06-20T23:08:10.000Z</time></trkpt>
        <trkpt lat="29.565417" lon="103.431541"><ele>622.7642</ele><time>2026-06-20T23:08:12.000Z</time></trkpt>
        <trkpt lat="29.565407" lon="103.431563"><ele>622.4011</ele><time>2026-06-20T23:08:14.000Z</time></trkpt>
        <trkpt lat="29.565399" lon="103.431583"><ele>621.5016</ele><time>2026-06-20T23:08:16.000Z</time></trkpt>
        <trkpt lat="29.565393" lon="103.431605"><ele>620.3929</ele><time>2026-06-20T23:08:18.000Z</time></trkpt>
        <trkpt lat="29.565386" lon="103.431629"><ele>619.4241</ele><time>2026-06-20T23:08:20.000Z</time></trkpt>
        <trkpt lat="29.565379" lon="103.431652"><ele>618.60297</ele><time>2026-06-20T23:08:22.000Z</time></trkpt>
        <trkpt lat="29.565372" lon="103.431675"><ele>617.7466</ele><time>2026-06-20T23:08:24.000Z</time></trkpt>
        <trkpt lat="29.565365" lon="103.431699"><ele>616.86707</ele><time>2026-06-20T23:08:26.000Z</time></trkpt>
        <trkpt lat="29.565359" lon="103.431725"><ele>616.1035</ele><time>2026-06-20T23:08:28.000Z</time></trkpt>
        <trkpt lat="29.565353" lon="103.431741"><ele>615.4854</ele><time>2026-06-20T23:08:30.000Z</time></trkpt>
        <trkpt lat="29.565353" lon="103.431744"><ele>615.18695</ele><time>2026-06-20T23:08:32.000Z</time></trkpt>
        <trkpt lat="29.565359" lon="103.431775"><ele>614.9837</ele><time>2026-06-20T23:08:43.000Z</time></trkpt>
        <trkpt lat="29.56536" lon="103.431785"><ele>614.4479</ele><time>2026-06-20T23:08:49.000Z</time></trkpt>
        <trkpt lat="29.565369" lon="103.431856"><ele>613.8081</ele><time>2026-06-20T23:08:52.000Z</time></trkpt>
        <trkpt lat="29.565369" lon="103.431856"><ele>613.1662</ele><time>2026-06-20T23:08:54.000Z</time></trkpt>
        <trkpt lat="29.565367" lon="103.431859"><ele>611.7359</ele><time>2026-06-20T23:08:56.000Z</time></trkpt>
        <trkpt lat="29.565344" lon="103.431915"><ele>610.5007</ele><time>2026-06-20T23:09:00.000Z</time></trkpt>
        <trkpt lat="29.565332" lon="103.431949"><ele>609.7972</ele><time>2026-06-20T23:09:02.000Z</time></trkpt>
        <trkpt lat="29.565323" lon="103.431977"><ele>609.26306</ele><time>2026-06-20T23:09:04.000Z</time></trkpt>
        <trkpt lat="29.565316" lon="103.431998"><ele>609.2626</ele><time>2026-06-20T23:09:06.000Z</time></trkpt>
        <trkpt lat="29.565315" lon="103.43201"><ele>609.1346</ele><time>2026-06-20T23:09:08.000Z</time></trkpt>
        <trkpt lat="29.565314" lon="103.432024"><ele>608.8051</ele><time>2026-06-20T23:09:10.000Z</time></trkpt>
        <trkpt lat="29.565316" lon="103.43204"><ele>608.3017</ele><time>2026-06-20T23:09:12.000Z</time></trkpt>
        <trkpt lat="29.565319" lon="103.432057"><ele>607.6026</ele><time>2026-06-20T23:09:14.000Z</time></trkpt>
        <trkpt lat="29.565326" lon="103.432078"><ele>606.8358</ele><time>2026-06-20T23:09:16.000Z</time></trkpt>
        <trkpt lat="29.565336" lon="103.432099"><ele>606.11554</ele><time>2026-06-20T23:09:18.000Z</time></trkpt>
        <trkpt lat="29.565347" lon="103.432119"><ele>605.4243</ele><time>2026-06-20T23:09:20.000Z</time></trkpt>
        <trkpt lat="29.565359" lon="103.432143"><ele>604.8052</ele><time>2026-06-20T23:09:22.000Z</time></trkpt>
        <trkpt lat="29.565372" lon="103.432171"><ele>604.2777</ele><time>2026-06-20T23:09:24.000Z</time></trkpt>
        <trkpt lat="29.565381" lon="103.432191"><ele>603.8609</ele><time>2026-06-20T23:09:26.000Z</time></trkpt>
        <trkpt lat="29.565382" lon="103.432203"><ele>603.71265</ele><time>2026-06-20T23:09:28.000Z</time></trkpt>
        <trkpt lat="29.56538" lon="103.432204"><ele>603.71265</ele><time>2026-06-20T23:09:30.000Z</time></trkpt>
        <trkpt lat="29.565355" lon="103.432211"><ele>603.71265</ele><time>2026-06-20T23:09:38.000Z</time></trkpt>
        <trkpt lat="29.565343" lon="103.432217"><ele>603.71265</ele><time>2026-06-20T23:09:44.000Z</time></trkpt>
        <trkpt lat="29.565339" lon="103.432222"><ele>603.71265</ele><time>2026-06-20T23:09:46.000Z</time></trkpt>
        <trkpt lat="29.565331" lon="103.432223"><ele>603.85474</ele><time>2026-06-20T23:09:54.000Z</time></trkpt>
        <trkpt lat="29.565413" lon="103.43222"><ele>604.5075</ele><time>2026-06-20T23:10:32.000Z</time></trkpt>
        <trkpt lat="29.565416" lon="103.432223"><ele>605.1216</ele><time>2026-06-20T23:10:33.000Z</time></trkpt>
        <trkpt lat="29.56542" lon="103.432233"><ele>605.16034</ele><time>2026-06-20T23:10:38.000Z</time></trkpt>
      </trkseg>
  </trk>
</gpx>